<?xml version="1.0" encoding="UTF-8" standalone="no" ?>
<gpx xmlns="http://www.topografix.com/GPX/1/1" xmlns:xsi="http://www.w3.org/2001/XMLSchema-instance" xsi:schemaLocation="http://www.topografix.com/GPX/1/1 http://www.topografix.com/GPX/1/1/gpx.xsd" version="1.1" creator="VisuGPX - https://www.visugpx.com">
  <metadata>
    <name>Passenans,Saint Lothain,Darbonnay</name>
  </metadata>
  <trk>
    <name><![CDATA[Passenans,Saint Lothain,Darbonnay_1]]></name>
    <trkseg>
      <trkpt lat="46.79997" lon="5.61281">
        <ele>306.6</ele>
        <time>2020-10-25T08:01:50Z</time>
      </trkpt>
      <trkpt lat="46.79996" lon="5.61287">
        <ele>308.6</ele>
        <time>2020-10-25T08:02:23Z</time>
      </trkpt>
      <trkpt lat="46.79996" lon="5.61294">
        <ele>308.7</ele>
        <time>2020-10-25T08:02:31Z</time>
      </trkpt>
      <trkpt lat="46.79991" lon="5.61295">
        <ele>308</ele>
        <time>2020-10-25T08:02:42Z</time>
      </trkpt>
      <trkpt lat="46.79986" lon="5.61292">
        <ele>307.6</ele>
        <time>2020-10-25T08:02:47Z</time>
      </trkpt>
      <trkpt lat="46.79982" lon="5.61288">
        <ele>307.9</ele>
        <time>2020-10-25T08:02:53Z</time>
      </trkpt>
      <trkpt lat="46.79977" lon="5.61286">
        <ele>308.3</ele>
        <time>2020-10-25T08:02:59Z</time>
      </trkpt>
      <trkpt lat="46.79973" lon="5.61282">
        <ele>308.4</ele>
        <time>2020-10-25T08:03:05Z</time>
      </trkpt>
      <trkpt lat="46.79969" lon="5.61277">
        <ele>307.9</ele>
        <time>2020-10-25T08:03:10Z</time>
      </trkpt>
      <trkpt lat="46.79965" lon="5.61273">
        <ele>306.1</ele>
        <time>2020-10-25T08:03:16Z</time>
      </trkpt>
      <trkpt lat="46.7996" lon="5.6127">
        <ele>304.8</ele>
        <time>2020-10-25T08:03:21Z</time>
      </trkpt>
      <trkpt lat="46.79955" lon="5.61268">
        <ele>303.2</ele>
        <time>2020-10-25T08:03:26Z</time>
      </trkpt>
      <trkpt lat="46.79951" lon="5.61265">
        <ele>302.7</ele>
        <time>2020-10-25T08:03:32Z</time>
      </trkpt>
      <trkpt lat="46.79947" lon="5.61263">
        <ele>303.1</ele>
        <time>2020-10-25T08:03:37Z</time>
      </trkpt>
      <trkpt lat="46.79942" lon="5.61261">
        <ele>303.6</ele>
        <time>2020-10-25T08:03:41Z</time>
      </trkpt>
      <trkpt lat="46.79937" lon="5.61257">
        <ele>303.2</ele>
        <time>2020-10-25T08:03:46Z</time>
      </trkpt>
      <trkpt lat="46.79933" lon="5.61253">
        <ele>303.1</ele>
        <time>2020-10-25T08:03:51Z</time>
      </trkpt>
      <trkpt lat="46.79928" lon="5.61248">
        <ele>303.6</ele>
        <time>2020-10-25T08:03:56Z</time>
      </trkpt>
      <trkpt lat="46.79924" lon="5.61244">
        <ele>303.7</ele>
        <time>2020-10-25T08:04:01Z</time>
      </trkpt>
      <trkpt lat="46.79919" lon="5.61243">
        <ele>303.6</ele>
        <time>2020-10-25T08:04:05Z</time>
      </trkpt>
      <trkpt lat="46.79914" lon="5.61241">
        <ele>303.4</ele>
        <time>2020-10-25T08:04:09Z</time>
      </trkpt>
      <trkpt lat="46.7991" lon="5.61237">
        <ele>303</ele>
        <time>2020-10-25T08:04:13Z</time>
      </trkpt>
      <trkpt lat="46.79906" lon="5.61235">
        <ele>302.3</ele>
        <time>2020-10-25T08:04:17Z</time>
      </trkpt>
      <trkpt lat="46.79901" lon="5.61233">
        <ele>301.2</ele>
        <time>2020-10-25T08:04:22Z</time>
      </trkpt>
      <trkpt lat="46.79895" lon="5.61233">
        <ele>300.2</ele>
        <time>2020-10-25T08:04:27Z</time>
      </trkpt>
      <trkpt lat="46.7989" lon="5.61232">
        <ele>299.9</ele>
        <time>2020-10-25T08:04:31Z</time>
      </trkpt>
      <trkpt lat="46.79886" lon="5.61231">
        <ele>299.5</ele>
        <time>2020-10-25T08:04:35Z</time>
      </trkpt>
      <trkpt lat="46.79881" lon="5.61232">
        <ele>298.9</ele>
        <time>2020-10-25T08:04:40Z</time>
      </trkpt>
      <trkpt lat="46.79876" lon="5.61233">
        <ele>299.1</ele>
        <time>2020-10-25T08:04:45Z</time>
      </trkpt>
      <trkpt lat="46.79871" lon="5.61229">
        <ele>299.4</ele>
        <time>2020-10-25T08:04:50Z</time>
      </trkpt>
      <trkpt lat="46.79867" lon="5.61231">
        <ele>301</ele>
        <time>2020-10-25T08:04:58Z</time>
      </trkpt>
      <trkpt lat="46.79864" lon="5.61237">
        <ele>301.9</ele>
        <time>2020-10-25T08:05:10Z</time>
      </trkpt>
      <trkpt lat="46.79863" lon="5.61244">
        <ele>299.4</ele>
        <time>2020-10-25T08:05:31Z</time>
      </trkpt>
      <trkpt lat="46.79866" lon="5.6125">
        <ele>298.1</ele>
        <time>2020-10-25T08:05:38Z</time>
      </trkpt>
      <trkpt lat="46.79868" lon="5.61257">
        <ele>297</ele>
        <time>2020-10-25T08:05:43Z</time>
      </trkpt>
      <trkpt lat="46.79869" lon="5.61264">
        <ele>296.7</ele>
        <time>2020-10-25T08:05:47Z</time>
      </trkpt>
      <trkpt lat="46.79871" lon="5.61272">
        <ele>296.8</ele>
        <time>2020-10-25T08:05:52Z</time>
      </trkpt>
      <trkpt lat="46.79871" lon="5.6128">
        <ele>296.5</ele>
        <time>2020-10-25T08:05:58Z</time>
      </trkpt>
      <trkpt lat="46.7987" lon="5.61287">
        <ele>295.1</ele>
        <time>2020-10-25T08:06:03Z</time>
      </trkpt>
      <trkpt lat="46.7987" lon="5.61294">
        <ele>293.6</ele>
        <time>2020-10-25T08:06:08Z</time>
      </trkpt>
      <trkpt lat="46.79869" lon="5.613">
        <ele>292.5</ele>
        <time>2020-10-25T08:06:13Z</time>
      </trkpt>
      <trkpt lat="46.79868" lon="5.61307">
        <ele>293</ele>
        <time>2020-10-25T08:06:20Z</time>
      </trkpt>
      <trkpt lat="46.79869" lon="5.61314">
        <ele>293.7</ele>
        <time>2020-10-25T08:06:25Z</time>
      </trkpt>
      <trkpt lat="46.79869" lon="5.61321">
        <ele>294.2</ele>
        <time>2020-10-25T08:06:30Z</time>
      </trkpt>
      <trkpt lat="46.79869" lon="5.61328">
        <ele>295.1</ele>
        <time>2020-10-25T08:06:35Z</time>
      </trkpt>
      <trkpt lat="46.79868" lon="5.61336">
        <ele>296.7</ele>
        <time>2020-10-25T08:06:39Z</time>
      </trkpt>
      <trkpt lat="46.79867" lon="5.61344">
        <ele>298.5</ele>
        <time>2020-10-25T08:06:43Z</time>
      </trkpt>
      <trkpt lat="46.79866" lon="5.6135">
        <ele>300.9</ele>
        <time>2020-10-25T08:06:47Z</time>
      </trkpt>
      <trkpt lat="46.79863" lon="5.61357">
        <ele>304</ele>
        <time>2020-10-25T08:06:53Z</time>
      </trkpt>
      <trkpt lat="46.79861" lon="5.61363">
        <ele>306.1</ele>
        <time>2020-10-25T08:06:58Z</time>
      </trkpt>
      <trkpt lat="46.7986" lon="5.6137">
        <ele>306.2</ele>
        <time>2020-10-25T08:07:03Z</time>
      </trkpt>
      <trkpt lat="46.79858" lon="5.61377">
        <ele>305.3</ele>
        <time>2020-10-25T08:07:08Z</time>
      </trkpt>
      <trkpt lat="46.79856" lon="5.61383">
        <ele>304.6</ele>
        <time>2020-10-25T08:07:11Z</time>
      </trkpt>
      <trkpt lat="46.79852" lon="5.61389">
        <ele>302.9</ele>
        <time>2020-10-25T08:07:16Z</time>
      </trkpt>
      <trkpt lat="46.79849" lon="5.61395">
        <ele>301.4</ele>
        <time>2020-10-25T08:07:20Z</time>
      </trkpt>
      <trkpt lat="46.79846" lon="5.61401">
        <ele>299.9</ele>
        <time>2020-10-25T08:07:25Z</time>
      </trkpt>
      <trkpt lat="46.79842" lon="5.61406">
        <ele>298</ele>
        <time>2020-10-25T08:07:30Z</time>
      </trkpt>
      <trkpt lat="46.79839" lon="5.61412">
        <ele>297</ele>
        <time>2020-10-25T08:07:34Z</time>
      </trkpt>
      <trkpt lat="46.79837" lon="5.61418">
        <ele>297.5</ele>
        <time>2020-10-25T08:07:38Z</time>
      </trkpt>
      <trkpt lat="46.79835" lon="5.61425">
        <ele>299.7</ele>
        <time>2020-10-25T08:07:43Z</time>
      </trkpt>
      <trkpt lat="46.79833" lon="5.61431">
        <ele>302</ele>
        <time>2020-10-25T08:07:51Z</time>
      </trkpt>
      <trkpt lat="46.7983" lon="5.61438">
        <ele>302.1</ele>
        <time>2020-10-25T08:07:56Z</time>
      </trkpt>
      <trkpt lat="46.79829" lon="5.61445">
        <ele>302.3</ele>
        <time>2020-10-25T08:08:00Z</time>
      </trkpt>
      <trkpt lat="46.79826" lon="5.61451">
        <ele>302.3</ele>
        <time>2020-10-25T08:08:04Z</time>
      </trkpt>
      <trkpt lat="46.79823" lon="5.61457">
        <ele>302.6</ele>
        <time>2020-10-25T08:08:09Z</time>
      </trkpt>
      <trkpt lat="46.79821" lon="5.61464">
        <ele>302.9</ele>
        <time>2020-10-25T08:08:14Z</time>
      </trkpt>
      <trkpt lat="46.79818" lon="5.61469">
        <ele>304.2</ele>
        <time>2020-10-25T08:08:19Z</time>
      </trkpt>
      <trkpt lat="46.79816" lon="5.61476">
        <ele>306.1</ele>
        <time>2020-10-25T08:08:24Z</time>
      </trkpt>
      <trkpt lat="46.79817" lon="5.61482">
        <ele>307.6</ele>
        <time>2020-10-25T08:08:29Z</time>
      </trkpt>
      <trkpt lat="46.79821" lon="5.61487">
        <ele>309</ele>
        <time>2020-10-25T08:08:34Z</time>
      </trkpt>
      <trkpt lat="46.79824" lon="5.61493">
        <ele>309.7</ele>
        <time>2020-10-25T08:08:39Z</time>
      </trkpt>
      <trkpt lat="46.79825" lon="5.615">
        <ele>309.9</ele>
        <time>2020-10-25T08:08:43Z</time>
      </trkpt>
      <trkpt lat="46.79827" lon="5.61507">
        <ele>310.8</ele>
        <time>2020-10-25T08:08:48Z</time>
      </trkpt>
      <trkpt lat="46.79826" lon="5.61514">
        <ele>311.6</ele>
        <time>2020-10-25T08:08:53Z</time>
      </trkpt>
      <trkpt lat="46.79824" lon="5.6152">
        <ele>312.2</ele>
        <time>2020-10-25T08:08:58Z</time>
      </trkpt>
      <trkpt lat="46.79821" lon="5.61526">
        <ele>312.8</ele>
        <time>2020-10-25T08:09:03Z</time>
      </trkpt>
      <trkpt lat="46.79819" lon="5.61532">
        <ele>313.6</ele>
        <time>2020-10-25T08:09:08Z</time>
      </trkpt>
      <trkpt lat="46.79816" lon="5.61539">
        <ele>314.4</ele>
        <time>2020-10-25T08:09:13Z</time>
      </trkpt>
      <trkpt lat="46.79814" lon="5.61545">
        <ele>314.8</ele>
        <time>2020-10-25T08:09:18Z</time>
      </trkpt>
      <trkpt lat="46.79813" lon="5.61551">
        <ele>315.3</ele>
        <time>2020-10-25T08:09:23Z</time>
      </trkpt>
      <trkpt lat="46.79811" lon="5.61558">
        <ele>315.8</ele>
        <time>2020-10-25T08:09:28Z</time>
      </trkpt>
      <trkpt lat="46.7981" lon="5.61565">
        <ele>315.9</ele>
        <time>2020-10-25T08:09:33Z</time>
      </trkpt>
      <trkpt lat="46.79808" lon="5.61571">
        <ele>314.7</ele>
        <time>2020-10-25T08:09:44Z</time>
      </trkpt>
      <trkpt lat="46.79807" lon="5.61579">
        <ele>313.4</ele>
        <time>2020-10-25T08:09:50Z</time>
      </trkpt>
      <trkpt lat="46.79806" lon="5.61586">
        <ele>312.4</ele>
        <time>2020-10-25T08:09:54Z</time>
      </trkpt>
      <trkpt lat="46.79805" lon="5.61593">
        <ele>311.2</ele>
        <time>2020-10-25T08:09:58Z</time>
      </trkpt>
      <trkpt lat="46.79804" lon="5.61601">
        <ele>310</ele>
        <time>2020-10-25T08:10:03Z</time>
      </trkpt>
      <trkpt lat="46.79804" lon="5.61609">
        <ele>309.3</ele>
        <time>2020-10-25T08:10:08Z</time>
      </trkpt>
      <trkpt lat="46.79804" lon="5.61615">
        <ele>309.3</ele>
        <time>2020-10-25T08:10:12Z</time>
      </trkpt>
      <trkpt lat="46.79803" lon="5.61623">
        <ele>309.8</ele>
        <time>2020-10-25T08:10:17Z</time>
      </trkpt>
      <trkpt lat="46.79804" lon="5.6163">
        <ele>310.1</ele>
        <time>2020-10-25T08:10:22Z</time>
      </trkpt>
      <trkpt lat="46.79806" lon="5.61637">
        <ele>310.4</ele>
        <time>2020-10-25T08:10:27Z</time>
      </trkpt>
      <trkpt lat="46.7981" lon="5.61642">
        <ele>310.5</ele>
        <time>2020-10-25T08:10:32Z</time>
      </trkpt>
      <trkpt lat="46.79813" lon="5.61647">
        <ele>310.6</ele>
        <time>2020-10-25T08:10:37Z</time>
      </trkpt>
      <trkpt lat="46.79817" lon="5.61652">
        <ele>311</ele>
        <time>2020-10-25T08:10:41Z</time>
      </trkpt>
      <trkpt lat="46.7982" lon="5.61656">
        <ele>311.5</ele>
        <time>2020-10-25T08:10:45Z</time>
      </trkpt>
      <trkpt lat="46.79822" lon="5.61663">
        <ele>312</ele>
        <time>2020-10-25T08:10:49Z</time>
      </trkpt>
      <trkpt lat="46.79823" lon="5.61671">
        <ele>312.6</ele>
        <time>2020-10-25T08:10:53Z</time>
      </trkpt>
      <trkpt lat="46.79822" lon="5.61678">
        <ele>313.3</ele>
        <time>2020-10-25T08:10:58Z</time>
      </trkpt>
      <trkpt lat="46.79823" lon="5.61685">
        <ele>313.6</ele>
        <time>2020-10-25T08:11:02Z</time>
      </trkpt>
      <trkpt lat="46.79823" lon="5.61693">
        <ele>313.7</ele>
        <time>2020-10-25T08:11:07Z</time>
      </trkpt>
      <trkpt lat="46.79821" lon="5.61699">
        <ele>313.9</ele>
        <time>2020-10-25T08:11:11Z</time>
      </trkpt>
      <trkpt lat="46.7982" lon="5.61707">
        <ele>314.5</ele>
        <time>2020-10-25T08:11:16Z</time>
      </trkpt>
      <trkpt lat="46.79818" lon="5.61713">
        <ele>314.9</ele>
        <time>2020-10-25T08:11:20Z</time>
      </trkpt>
      <trkpt lat="46.79817" lon="5.6172">
        <ele>315.6</ele>
        <time>2020-10-25T08:11:25Z</time>
      </trkpt>
      <trkpt lat="46.79815" lon="5.61727">
        <ele>316.3</ele>
        <time>2020-10-25T08:11:30Z</time>
      </trkpt>
      <trkpt lat="46.79815" lon="5.61734">
        <ele>316.5</ele>
        <time>2020-10-25T08:11:36Z</time>
      </trkpt>
      <trkpt lat="46.79813" lon="5.6174">
        <ele>316.5</ele>
        <time>2020-10-25T08:11:40Z</time>
      </trkpt>
      <trkpt lat="46.79813" lon="5.61748">
        <ele>316.4</ele>
        <time>2020-10-25T08:11:44Z</time>
      </trkpt>
      <trkpt lat="46.79812" lon="5.61756">
        <ele>316.2</ele>
        <time>2020-10-25T08:11:48Z</time>
      </trkpt>
      <trkpt lat="46.7981" lon="5.61763">
        <ele>315.8</ele>
        <time>2020-10-25T08:11:53Z</time>
      </trkpt>
      <trkpt lat="46.79811" lon="5.61771">
        <ele>315.3</ele>
        <time>2020-10-25T08:11:59Z</time>
      </trkpt>
      <trkpt lat="46.79814" lon="5.61776">
        <ele>315.3</ele>
        <time>2020-10-25T08:12:04Z</time>
      </trkpt>
      <trkpt lat="46.79818" lon="5.6178">
        <ele>314.9</ele>
        <time>2020-10-25T08:12:09Z</time>
      </trkpt>
      <trkpt lat="46.79821" lon="5.61785">
        <ele>314.2</ele>
        <time>2020-10-25T08:12:14Z</time>
      </trkpt>
      <trkpt lat="46.79822" lon="5.61792">
        <ele>313.4</ele>
        <time>2020-10-25T08:12:19Z</time>
      </trkpt>
      <trkpt lat="46.79821" lon="5.61799">
        <ele>313.2</ele>
        <time>2020-10-25T08:12:23Z</time>
      </trkpt>
      <trkpt lat="46.79821" lon="5.61807">
        <ele>313.8</ele>
        <time>2020-10-25T08:12:27Z</time>
      </trkpt>
      <trkpt lat="46.7982" lon="5.61814">
        <ele>314.8</ele>
        <time>2020-10-25T08:12:31Z</time>
      </trkpt>
      <trkpt lat="46.79818" lon="5.61821">
        <ele>315.6</ele>
        <time>2020-10-25T08:12:35Z</time>
      </trkpt>
      <trkpt lat="46.79817" lon="5.61828">
        <ele>315.9</ele>
        <time>2020-10-25T08:12:39Z</time>
      </trkpt>
      <trkpt lat="46.79817" lon="5.61834">
        <ele>316.1</ele>
        <time>2020-10-25T08:12:43Z</time>
      </trkpt>
      <trkpt lat="46.79815" lon="5.61841">
        <ele>315.4</ele>
        <time>2020-10-25T08:12:48Z</time>
      </trkpt>
      <trkpt lat="46.79813" lon="5.61849">
        <ele>313.9</ele>
        <time>2020-10-25T08:12:52Z</time>
      </trkpt>
      <trkpt lat="46.79811" lon="5.61855">
        <ele>312.3</ele>
        <time>2020-10-25T08:12:56Z</time>
      </trkpt>
      <trkpt lat="46.79808" lon="5.61861">
        <ele>310.7</ele>
        <time>2020-10-25T08:13:01Z</time>
      </trkpt>
      <trkpt lat="46.79805" lon="5.61867">
        <ele>309.6</ele>
        <time>2020-10-25T08:13:05Z</time>
      </trkpt>
      <trkpt lat="46.79804" lon="5.61874">
        <ele>309.6</ele>
        <time>2020-10-25T08:13:09Z</time>
      </trkpt>
      <trkpt lat="46.79799" lon="5.61876">
        <ele>309.1</ele>
        <time>2020-10-25T08:13:15Z</time>
      </trkpt>
      <trkpt lat="46.79794" lon="5.61875">
        <ele>308.7</ele>
        <time>2020-10-25T08:13:20Z</time>
      </trkpt>
      <trkpt lat="46.7979" lon="5.61874">
        <ele>308.6</ele>
        <time>2020-10-25T08:13:24Z</time>
      </trkpt>
      <trkpt lat="46.79785" lon="5.61875">
        <ele>320.4</ele>
        <time>2020-10-25T08:13:32Z</time>
      </trkpt>
      <trkpt lat="46.7978" lon="5.61873">
        <ele>323.9</ele>
        <time>2020-10-25T08:13:38Z</time>
      </trkpt>
      <trkpt lat="46.79775" lon="5.61871">
        <ele>325.5</ele>
        <time>2020-10-25T08:13:44Z</time>
      </trkpt>
      <trkpt lat="46.7977" lon="5.61869">
        <ele>326.4</ele>
        <time>2020-10-25T08:13:48Z</time>
      </trkpt>
      <trkpt lat="46.79765" lon="5.61869">
        <ele>326.1</ele>
        <time>2020-10-25T08:13:52Z</time>
      </trkpt>
      <trkpt lat="46.79761" lon="5.61869">
        <ele>325.8</ele>
        <time>2020-10-25T08:13:56Z</time>
      </trkpt>
      <trkpt lat="46.79756" lon="5.61867">
        <ele>325.7</ele>
        <time>2020-10-25T08:14:01Z</time>
      </trkpt>
      <trkpt lat="46.79751" lon="5.61869">
        <ele>325.6</ele>
        <time>2020-10-25T08:14:06Z</time>
      </trkpt>
      <trkpt lat="46.79746" lon="5.61869">
        <ele>322</ele>
        <time>2020-10-25T08:14:13Z</time>
      </trkpt>
      <trkpt lat="46.79741" lon="5.61868">
        <ele>318.9</ele>
        <time>2020-10-25T08:14:18Z</time>
      </trkpt>
      <trkpt lat="46.79737" lon="5.61868">
        <ele>317.8</ele>
        <time>2020-10-25T08:14:22Z</time>
      </trkpt>
      <trkpt lat="46.79732" lon="5.61866">
        <ele>317.8</ele>
        <time>2020-10-25T08:14:26Z</time>
      </trkpt>
      <trkpt lat="46.79727" lon="5.61864">
        <ele>323.9</ele>
        <time>2020-10-25T08:14:39Z</time>
      </trkpt>
      <trkpt lat="46.79722" lon="5.61865">
        <ele>325.2</ele>
        <time>2020-10-25T08:14:45Z</time>
      </trkpt>
      <trkpt lat="46.79717" lon="5.61865">
        <ele>325.4</ele>
        <time>2020-10-25T08:14:50Z</time>
      </trkpt>
      <trkpt lat="46.79722" lon="5.61864">
        <ele>326.3</ele>
        <time>2020-10-25T08:15:01Z</time>
      </trkpt>
      <trkpt lat="46.79727" lon="5.61861">
        <ele>328.1</ele>
        <time>2020-10-25T08:15:06Z</time>
      </trkpt>
      <trkpt lat="46.79731" lon="5.61862">
        <ele>333</ele>
        <time>2020-10-25T08:15:12Z</time>
      </trkpt>
      <trkpt lat="46.79733" lon="5.61869">
        <ele>338.9</ele>
        <time>2020-10-25T08:15:24Z</time>
      </trkpt>
      <trkpt lat="46.79735" lon="5.61876">
        <ele>340.3</ele>
        <time>2020-10-25T08:15:31Z</time>
      </trkpt>
      <trkpt lat="46.79736" lon="5.61883">
        <ele>341.8</ele>
        <time>2020-10-25T08:15:36Z</time>
      </trkpt>
      <trkpt lat="46.79739" lon="5.61888">
        <ele>343.2</ele>
        <time>2020-10-25T08:15:42Z</time>
      </trkpt>
      <trkpt lat="46.79743" lon="5.61892">
        <ele>342.6</ele>
        <time>2020-10-25T08:15:47Z</time>
      </trkpt>
      <trkpt lat="46.79747" lon="5.61897">
        <ele>340.7</ele>
        <time>2020-10-25T08:15:53Z</time>
      </trkpt>
      <trkpt lat="46.7975" lon="5.61901">
        <ele>337.3</ele>
        <time>2020-10-25T08:15:58Z</time>
      </trkpt>
      <trkpt lat="46.79754" lon="5.61904">
        <ele>335.1</ele>
        <time>2020-10-25T08:16:02Z</time>
      </trkpt>
      <trkpt lat="46.79759" lon="5.61907">
        <ele>334.5</ele>
        <time>2020-10-25T08:16:06Z</time>
      </trkpt>
      <trkpt lat="46.79763" lon="5.6191">
        <ele>334.7</ele>
        <time>2020-10-25T08:16:13Z</time>
      </trkpt>
      <trkpt lat="46.79767" lon="5.61915">
        <ele>333.2</ele>
        <time>2020-10-25T08:16:20Z</time>
      </trkpt>
      <trkpt lat="46.79771" lon="5.6192">
        <ele>331.2</ele>
        <time>2020-10-25T08:16:26Z</time>
      </trkpt>
      <trkpt lat="46.7977" lon="5.61928">
        <ele>329.9</ele>
        <time>2020-10-25T08:16:33Z</time>
      </trkpt>
      <trkpt lat="46.7977" lon="5.61934">
        <ele>330.5</ele>
        <time>2020-10-25T08:16:38Z</time>
      </trkpt>
      <trkpt lat="46.79771" lon="5.61941">
        <ele>331.3</ele>
        <time>2020-10-25T08:16:43Z</time>
      </trkpt>
      <trkpt lat="46.79773" lon="5.61947">
        <ele>332</ele>
        <time>2020-10-25T08:16:48Z</time>
      </trkpt>
      <trkpt lat="46.79776" lon="5.61952">
        <ele>332.3</ele>
        <time>2020-10-25T08:16:52Z</time>
      </trkpt>
      <trkpt lat="46.7978" lon="5.61957">
        <ele>331.8</ele>
        <time>2020-10-25T08:16:56Z</time>
      </trkpt>
      <trkpt lat="46.79784" lon="5.61962">
        <ele>331.2</ele>
        <time>2020-10-25T08:17:00Z</time>
      </trkpt>
      <trkpt lat="46.79789" lon="5.61962">
        <ele>332.1</ele>
        <time>2020-10-25T08:17:04Z</time>
      </trkpt>
      <trkpt lat="46.79793" lon="5.61959">
        <ele>333.9</ele>
        <time>2020-10-25T08:17:08Z</time>
      </trkpt>
      <trkpt lat="46.79798" lon="5.6196">
        <ele>335.5</ele>
        <time>2020-10-25T08:17:12Z</time>
      </trkpt>
      <trkpt lat="46.79802" lon="5.6196">
        <ele>337.3</ele>
        <time>2020-10-25T08:17:16Z</time>
      </trkpt>
      <trkpt lat="46.79807" lon="5.61957">
        <ele>339.2</ele>
        <time>2020-10-25T08:17:20Z</time>
      </trkpt>
      <trkpt lat="46.79812" lon="5.61955">
        <ele>340.4</ele>
        <time>2020-10-25T08:17:25Z</time>
      </trkpt>
      <trkpt lat="46.79817" lon="5.61952">
        <ele>341.4</ele>
        <time>2020-10-25T08:17:32Z</time>
      </trkpt>
      <trkpt lat="46.79822" lon="5.61955">
        <ele>341.5</ele>
        <time>2020-10-25T08:17:38Z</time>
      </trkpt>
      <trkpt lat="46.79826" lon="5.61958">
        <ele>340.6</ele>
        <time>2020-10-25T08:17:43Z</time>
      </trkpt>
      <trkpt lat="46.79831" lon="5.6196">
        <ele>340.2</ele>
        <time>2020-10-25T08:17:49Z</time>
      </trkpt>
      <trkpt lat="46.79836" lon="5.61961">
        <ele>341.2</ele>
        <time>2020-10-25T08:17:54Z</time>
      </trkpt>
      <trkpt lat="46.7984" lon="5.61962">
        <ele>343.1</ele>
        <time>2020-10-25T08:18:00Z</time>
      </trkpt>
      <trkpt lat="46.79845" lon="5.61962">
        <ele>346.9</ele>
        <time>2020-10-25T08:18:09Z</time>
      </trkpt>
      <trkpt lat="46.7985" lon="5.61963">
        <ele>350.1</ele>
        <time>2020-10-25T08:18:16Z</time>
      </trkpt>
      <trkpt lat="46.79856" lon="5.61965">
        <ele>352.2</ele>
        <time>2020-10-25T08:18:21Z</time>
      </trkpt>
      <trkpt lat="46.79861" lon="5.61968">
        <ele>354.5</ele>
        <time>2020-10-25T08:18:26Z</time>
      </trkpt>
      <trkpt lat="46.79865" lon="5.61971">
        <ele>356.3</ele>
        <time>2020-10-25T08:18:30Z</time>
      </trkpt>
      <trkpt lat="46.7987" lon="5.61973">
        <ele>358.3</ele>
        <time>2020-10-25T08:18:35Z</time>
      </trkpt>
      <trkpt lat="46.79875" lon="5.61975">
        <ele>359.4</ele>
        <time>2020-10-25T08:18:39Z</time>
      </trkpt>
      <trkpt lat="46.79879" lon="5.61979">
        <ele>359.9</ele>
        <time>2020-10-25T08:18:44Z</time>
      </trkpt>
      <trkpt lat="46.79884" lon="5.6198">
        <ele>360.5</ele>
        <time>2020-10-25T08:18:50Z</time>
      </trkpt>
      <trkpt lat="46.79889" lon="5.61981">
        <ele>360.7</ele>
        <time>2020-10-25T08:18:58Z</time>
      </trkpt>
      <trkpt lat="46.79893" lon="5.61983">
        <ele>361.1</ele>
        <time>2020-10-25T08:19:06Z</time>
      </trkpt>
      <trkpt lat="46.79898" lon="5.61985">
        <ele>361.5</ele>
        <time>2020-10-25T08:19:12Z</time>
      </trkpt>
      <trkpt lat="46.79902" lon="5.61987">
        <ele>361.6</ele>
        <time>2020-10-25T08:19:17Z</time>
      </trkpt>
      <trkpt lat="46.79907" lon="5.61989">
        <ele>361.2</ele>
        <time>2020-10-25T08:19:21Z</time>
      </trkpt>
      <trkpt lat="46.79911" lon="5.61992">
        <ele>360.8</ele>
        <time>2020-10-25T08:19:26Z</time>
      </trkpt>
      <trkpt lat="46.79917" lon="5.61994">
        <ele>360.1</ele>
        <time>2020-10-25T08:19:31Z</time>
      </trkpt>
      <trkpt lat="46.79922" lon="5.61994">
        <ele>359.8</ele>
        <time>2020-10-25T08:19:36Z</time>
      </trkpt>
      <trkpt lat="46.79926" lon="5.61996">
        <ele>359.6</ele>
        <time>2020-10-25T08:19:41Z</time>
      </trkpt>
      <trkpt lat="46.79931" lon="5.61998">
        <ele>359.7</ele>
        <time>2020-10-25T08:19:47Z</time>
      </trkpt>
      <trkpt lat="46.79936" lon="5.62001">
        <ele>360</ele>
        <time>2020-10-25T08:19:52Z</time>
      </trkpt>
      <trkpt lat="46.7994" lon="5.62004">
        <ele>360.5</ele>
        <time>2020-10-25T08:19:57Z</time>
      </trkpt>
      <trkpt lat="46.79944" lon="5.62007">
        <ele>360.9</ele>
        <time>2020-10-25T08:20:05Z</time>
      </trkpt>
      <trkpt lat="46.7995" lon="5.62008">
        <ele>361.6</ele>
        <time>2020-10-25T08:20:13Z</time>
      </trkpt>
      <trkpt lat="46.79955" lon="5.62007">
        <ele>361.6</ele>
        <time>2020-10-25T08:20:18Z</time>
      </trkpt>
      <trkpt lat="46.7996" lon="5.62009">
        <ele>361</ele>
        <time>2020-10-25T08:20:23Z</time>
      </trkpt>
      <trkpt lat="46.79965" lon="5.62011">
        <ele>360.6</ele>
        <time>2020-10-25T08:20:28Z</time>
      </trkpt>
      <trkpt lat="46.7997" lon="5.62012">
        <ele>360.4</ele>
        <time>2020-10-25T08:20:32Z</time>
      </trkpt>
      <trkpt lat="46.79974" lon="5.62013">
        <ele>359.8</ele>
        <time>2020-10-25T08:20:39Z</time>
      </trkpt>
      <trkpt lat="46.79979" lon="5.62016">
        <ele>359.6</ele>
        <time>2020-10-25T08:20:44Z</time>
      </trkpt>
      <trkpt lat="46.79984" lon="5.62018">
        <ele>359.8</ele>
        <time>2020-10-25T08:20:50Z</time>
      </trkpt>
      <trkpt lat="46.79988" lon="5.62019">
        <ele>360.2</ele>
        <time>2020-10-25T08:20:55Z</time>
      </trkpt>
      <trkpt lat="46.79993" lon="5.62022">
        <ele>360.7</ele>
        <time>2020-10-25T08:21:00Z</time>
      </trkpt>
      <trkpt lat="46.79998" lon="5.62022">
        <ele>362.1</ele>
        <time>2020-10-25T08:21:07Z</time>
      </trkpt>
      <trkpt lat="46.80003" lon="5.62024">
        <ele>363.5</ele>
        <time>2020-10-25T08:21:14Z</time>
      </trkpt>
      <trkpt lat="46.80007" lon="5.62026">
        <ele>364.5</ele>
        <time>2020-10-25T08:21:20Z</time>
      </trkpt>
      <trkpt lat="46.80011" lon="5.62029">
        <ele>365.3</ele>
        <time>2020-10-25T08:21:28Z</time>
      </trkpt>
      <trkpt lat="46.80016" lon="5.62033">
        <ele>365.6</ele>
        <time>2020-10-25T08:21:35Z</time>
      </trkpt>
      <trkpt lat="46.8002" lon="5.62037">
        <ele>365.7</ele>
        <time>2020-10-25T08:21:40Z</time>
      </trkpt>
      <trkpt lat="46.80024" lon="5.62038">
        <ele>366</ele>
        <time>2020-10-25T08:21:44Z</time>
      </trkpt>
      <trkpt lat="46.80029" lon="5.6204">
        <ele>366.3</ele>
        <time>2020-10-25T08:21:48Z</time>
      </trkpt>
      <trkpt lat="46.80033" lon="5.62042">
        <ele>366.6</ele>
        <time>2020-10-25T08:21:52Z</time>
      </trkpt>
      <trkpt lat="46.80038" lon="5.62044">
        <ele>367.4</ele>
        <time>2020-10-25T08:21:56Z</time>
      </trkpt>
      <trkpt lat="46.80042" lon="5.62047">
        <ele>368.1</ele>
        <time>2020-10-25T08:22:01Z</time>
      </trkpt>
      <trkpt lat="46.80047" lon="5.62049">
        <ele>368.7</ele>
        <time>2020-10-25T08:22:10Z</time>
      </trkpt>
      <trkpt lat="46.80051" lon="5.62052">
        <ele>370.7</ele>
        <time>2020-10-25T08:22:32Z</time>
      </trkpt>
      <trkpt lat="46.80055" lon="5.62056">
        <ele>371</ele>
        <time>2020-10-25T08:22:38Z</time>
      </trkpt>
      <trkpt lat="46.8006" lon="5.6206">
        <ele>370.9</ele>
        <time>2020-10-25T08:22:44Z</time>
      </trkpt>
      <trkpt lat="46.80064" lon="5.62064">
        <ele>371</ele>
        <time>2020-10-25T08:22:50Z</time>
      </trkpt>
      <trkpt lat="46.80067" lon="5.62069">
        <ele>370.7</ele>
        <time>2020-10-25T08:22:56Z</time>
      </trkpt>
      <trkpt lat="46.8007" lon="5.62075">
        <ele>370.5</ele>
        <time>2020-10-25T08:23:01Z</time>
      </trkpt>
      <trkpt lat="46.80074" lon="5.62079">
        <ele>370.6</ele>
        <time>2020-10-25T08:23:07Z</time>
      </trkpt>
      <trkpt lat="46.80077" lon="5.62085">
        <ele>370.5</ele>
        <time>2020-10-25T08:23:13Z</time>
      </trkpt>
      <trkpt lat="46.8008" lon="5.6209">
        <ele>370.6</ele>
        <time>2020-10-25T08:23:19Z</time>
      </trkpt>
      <trkpt lat="46.80084" lon="5.62094">
        <ele>371</ele>
        <time>2020-10-25T08:23:26Z</time>
      </trkpt>
      <trkpt lat="46.80089" lon="5.62097">
        <ele>371.5</ele>
        <time>2020-10-25T08:23:31Z</time>
      </trkpt>
      <trkpt lat="46.80094" lon="5.62101">
        <ele>372.2</ele>
        <time>2020-10-25T08:23:35Z</time>
      </trkpt>
      <trkpt lat="46.80098" lon="5.62105">
        <ele>373.5</ele>
        <time>2020-10-25T08:23:40Z</time>
      </trkpt>
      <trkpt lat="46.80101" lon="5.6211">
        <ele>374.9</ele>
        <time>2020-10-25T08:23:46Z</time>
      </trkpt>
      <trkpt lat="46.80105" lon="5.62115">
        <ele>376.3</ele>
        <time>2020-10-25T08:23:52Z</time>
      </trkpt>
      <trkpt lat="46.80108" lon="5.62121">
        <ele>378.2</ele>
        <time>2020-10-25T08:23:57Z</time>
      </trkpt>
      <trkpt lat="46.80112" lon="5.62127">
        <ele>380.6</ele>
        <time>2020-10-25T08:24:02Z</time>
      </trkpt>
      <trkpt lat="46.80116" lon="5.62131">
        <ele>382.7</ele>
        <time>2020-10-25T08:24:08Z</time>
      </trkpt>
      <trkpt lat="46.80119" lon="5.62136">
        <ele>384.6</ele>
        <time>2020-10-25T08:24:14Z</time>
      </trkpt>
      <trkpt lat="46.80123" lon="5.62141">
        <ele>384.9</ele>
        <time>2020-10-25T08:24:21Z</time>
      </trkpt>
      <trkpt lat="46.80126" lon="5.62147">
        <ele>385.1</ele>
        <time>2020-10-25T08:24:29Z</time>
      </trkpt>
      <trkpt lat="46.80129" lon="5.62153">
        <ele>385</ele>
        <time>2020-10-25T08:24:34Z</time>
      </trkpt>
      <trkpt lat="46.80132" lon="5.62158">
        <ele>384.8</ele>
        <time>2020-10-25T08:24:40Z</time>
      </trkpt>
      <trkpt lat="46.80136" lon="5.62163">
        <ele>384.8</ele>
        <time>2020-10-25T08:24:46Z</time>
      </trkpt>
      <trkpt lat="46.80139" lon="5.62168">
        <ele>384.8</ele>
        <time>2020-10-25T08:24:51Z</time>
      </trkpt>
      <trkpt lat="46.80143" lon="5.62173">
        <ele>384.8</ele>
        <time>2020-10-25T08:24:58Z</time>
      </trkpt>
      <trkpt lat="46.80147" lon="5.62178">
        <ele>384.3</ele>
        <time>2020-10-25T08:25:03Z</time>
      </trkpt>
      <trkpt lat="46.80152" lon="5.62181">
        <ele>385.9</ele>
        <time>2020-10-25T08:25:09Z</time>
      </trkpt>
      <trkpt lat="46.80156" lon="5.62186">
        <ele>387.4</ele>
        <time>2020-10-25T08:25:15Z</time>
      </trkpt>
      <trkpt lat="46.8016" lon="5.6219">
        <ele>388.1</ele>
        <time>2020-10-25T08:25:19Z</time>
      </trkpt>
      <trkpt lat="46.80164" lon="5.62194">
        <ele>388.9</ele>
        <time>2020-10-25T08:25:24Z</time>
      </trkpt>
      <trkpt lat="46.80169" lon="5.62198">
        <ele>390.4</ele>
        <time>2020-10-25T08:25:28Z</time>
      </trkpt>
      <trkpt lat="46.80173" lon="5.62203">
        <ele>392.9</ele>
        <time>2020-10-25T08:25:33Z</time>
      </trkpt>
      <trkpt lat="46.80177" lon="5.62207">
        <ele>395</ele>
        <time>2020-10-25T08:25:38Z</time>
      </trkpt>
      <trkpt lat="46.8018" lon="5.62213">
        <ele>396.4</ele>
        <time>2020-10-25T08:25:43Z</time>
      </trkpt>
      <trkpt lat="46.80184" lon="5.62218">
        <ele>397.9</ele>
        <time>2020-10-25T08:25:49Z</time>
      </trkpt>
      <trkpt lat="46.80188" lon="5.62222">
        <ele>398.7</ele>
        <time>2020-10-25T08:25:53Z</time>
      </trkpt>
      <trkpt lat="46.80191" lon="5.62227">
        <ele>393.7</ele>
        <time>2020-10-25T08:29:46Z</time>
      </trkpt>
      <trkpt lat="46.80193" lon="5.62234">
        <ele>389.6</ele>
        <time>2020-10-25T08:29:54Z</time>
      </trkpt>
      <trkpt lat="46.80194" lon="5.62242">
        <ele>389.4</ele>
        <time>2020-10-25T08:30:13Z</time>
      </trkpt>
      <trkpt lat="46.80196" lon="5.62248">
        <ele>390.3</ele>
        <time>2020-10-25T08:30:18Z</time>
      </trkpt>
      <trkpt lat="46.80198" lon="5.62254">
        <ele>392</ele>
        <time>2020-10-25T08:30:25Z</time>
      </trkpt>
      <trkpt lat="46.802" lon="5.62261">
        <ele>394.2</ele>
        <time>2020-10-25T08:30:37Z</time>
      </trkpt>
      <trkpt lat="46.80201" lon="5.62268">
        <ele>394.8</ele>
        <time>2020-10-25T08:30:43Z</time>
      </trkpt>
      <trkpt lat="46.80202" lon="5.62275">
        <ele>395.2</ele>
        <time>2020-10-25T08:30:47Z</time>
      </trkpt>
      <trkpt lat="46.80204" lon="5.62281">
        <ele>395.7</ele>
        <time>2020-10-25T08:30:52Z</time>
      </trkpt>
      <trkpt lat="46.80207" lon="5.62288">
        <ele>396.4</ele>
        <time>2020-10-25T08:30:58Z</time>
      </trkpt>
      <trkpt lat="46.80207" lon="5.62294">
        <ele>397.6</ele>
        <time>2020-10-25T08:31:16Z</time>
      </trkpt>
      <trkpt lat="46.80208" lon="5.62301">
        <ele>397.5</ele>
        <time>2020-10-25T08:31:20Z</time>
      </trkpt>
      <trkpt lat="46.80209" lon="5.62307">
        <ele>397.5</ele>
        <time>2020-10-25T08:31:24Z</time>
      </trkpt>
      <trkpt lat="46.8021" lon="5.62314">
        <ele>397.6</ele>
        <time>2020-10-25T08:31:29Z</time>
      </trkpt>
      <trkpt lat="46.80213" lon="5.6232">
        <ele>397.6</ele>
        <time>2020-10-25T08:31:34Z</time>
      </trkpt>
      <trkpt lat="46.80216" lon="5.62327">
        <ele>397.7</ele>
        <time>2020-10-25T08:31:39Z</time>
      </trkpt>
      <trkpt lat="46.80219" lon="5.62333">
        <ele>397.6</ele>
        <time>2020-10-25T08:31:44Z</time>
      </trkpt>
      <trkpt lat="46.80222" lon="5.6234">
        <ele>397.3</ele>
        <time>2020-10-25T08:31:50Z</time>
      </trkpt>
      <trkpt lat="46.80224" lon="5.62346">
        <ele>397.5</ele>
        <time>2020-10-25T08:31:56Z</time>
      </trkpt>
      <trkpt lat="46.80226" lon="5.62353">
        <ele>398.3</ele>
        <time>2020-10-25T08:32:03Z</time>
      </trkpt>
      <trkpt lat="46.80227" lon="5.6236">
        <ele>398.7</ele>
        <time>2020-10-25T08:32:08Z</time>
      </trkpt>
      <trkpt lat="46.80226" lon="5.62367">
        <ele>399.6</ele>
        <time>2020-10-25T08:32:13Z</time>
      </trkpt>
      <trkpt lat="46.80226" lon="5.62374">
        <ele>401.1</ele>
        <time>2020-10-25T08:32:18Z</time>
      </trkpt>
      <trkpt lat="46.80226" lon="5.62381">
        <ele>402.7</ele>
        <time>2020-10-25T08:32:23Z</time>
      </trkpt>
      <trkpt lat="46.80225" lon="5.62388">
        <ele>404.1</ele>
        <time>2020-10-25T08:32:28Z</time>
      </trkpt>
      <trkpt lat="46.80223" lon="5.62396">
        <ele>404.8</ele>
        <time>2020-10-25T08:32:33Z</time>
      </trkpt>
      <trkpt lat="46.80221" lon="5.62403">
        <ele>405.1</ele>
        <time>2020-10-25T08:32:38Z</time>
      </trkpt>
      <trkpt lat="46.8022" lon="5.62409">
        <ele>403.1</ele>
        <time>2020-10-25T08:32:50Z</time>
      </trkpt>
      <trkpt lat="46.80219" lon="5.62416">
        <ele>403.4</ele>
        <time>2020-10-25T08:32:56Z</time>
      </trkpt>
      <trkpt lat="46.80218" lon="5.62424">
        <ele>404.7</ele>
        <time>2020-10-25T08:33:03Z</time>
      </trkpt>
      <trkpt lat="46.80216" lon="5.62431">
        <ele>405.5</ele>
        <time>2020-10-25T08:33:13Z</time>
      </trkpt>
      <trkpt lat="46.80215" lon="5.62438">
        <ele>405.8</ele>
        <time>2020-10-25T08:33:19Z</time>
      </trkpt>
      <trkpt lat="46.80215" lon="5.62446">
        <ele>406</ele>
        <time>2020-10-25T08:33:25Z</time>
      </trkpt>
      <trkpt lat="46.80217" lon="5.62452">
        <ele>406</ele>
        <time>2020-10-25T08:33:29Z</time>
      </trkpt>
      <trkpt lat="46.80218" lon="5.62459">
        <ele>406.2</ele>
        <time>2020-10-25T08:33:35Z</time>
      </trkpt>
      <trkpt lat="46.80219" lon="5.62467">
        <ele>406.9</ele>
        <time>2020-10-25T08:34:12Z</time>
      </trkpt>
      <trkpt lat="46.80221" lon="5.62474">
        <ele>407.2</ele>
        <time>2020-10-25T08:34:17Z</time>
      </trkpt>
      <trkpt lat="46.80225" lon="5.62481">
        <ele>407.8</ele>
        <time>2020-10-25T08:34:22Z</time>
      </trkpt>
      <trkpt lat="46.80228" lon="5.62486">
        <ele>408.5</ele>
        <time>2020-10-25T08:34:27Z</time>
      </trkpt>
      <trkpt lat="46.80231" lon="5.62491">
        <ele>409.7</ele>
        <time>2020-10-25T08:34:31Z</time>
      </trkpt>
      <trkpt lat="46.80235" lon="5.62496">
        <ele>410.8</ele>
        <time>2020-10-25T08:34:35Z</time>
      </trkpt>
      <trkpt lat="46.80238" lon="5.62501">
        <ele>411.3</ele>
        <time>2020-10-25T08:34:40Z</time>
      </trkpt>
      <trkpt lat="46.80239" lon="5.62508">
        <ele>411</ele>
        <time>2020-10-25T08:34:45Z</time>
      </trkpt>
      <trkpt lat="46.80242" lon="5.62514">
        <ele>410.8</ele>
        <time>2020-10-25T08:34:49Z</time>
      </trkpt>
      <trkpt lat="46.80246" lon="5.6252">
        <ele>410.9</ele>
        <time>2020-10-25T08:34:53Z</time>
      </trkpt>
      <trkpt lat="46.8025" lon="5.62525">
        <ele>411.9</ele>
        <time>2020-10-25T08:34:57Z</time>
      </trkpt>
      <trkpt lat="46.80254" lon="5.6253">
        <ele>413.4</ele>
        <time>2020-10-25T08:35:01Z</time>
      </trkpt>
      <trkpt lat="46.80258" lon="5.62534">
        <ele>414.6</ele>
        <time>2020-10-25T08:35:06Z</time>
      </trkpt>
      <trkpt lat="46.80262" lon="5.62539">
        <ele>415.4</ele>
        <time>2020-10-25T08:35:10Z</time>
      </trkpt>
      <trkpt lat="46.80265" lon="5.62543">
        <ele>416.4</ele>
        <time>2020-10-25T08:35:14Z</time>
      </trkpt>
      <trkpt lat="46.80269" lon="5.62548">
        <ele>417.6</ele>
        <time>2020-10-25T08:35:19Z</time>
      </trkpt>
      <trkpt lat="46.80272" lon="5.62553">
        <ele>418.1</ele>
        <time>2020-10-25T08:35:23Z</time>
      </trkpt>
      <trkpt lat="46.80276" lon="5.62558">
        <ele>418.5</ele>
        <time>2020-10-25T08:35:27Z</time>
      </trkpt>
      <trkpt lat="46.8028" lon="5.62562">
        <ele>419.1</ele>
        <time>2020-10-25T08:35:31Z</time>
      </trkpt>
      <trkpt lat="46.80283" lon="5.62567">
        <ele>419.9</ele>
        <time>2020-10-25T08:35:36Z</time>
      </trkpt>
      <trkpt lat="46.80285" lon="5.62574">
        <ele>419.1</ele>
        <time>2020-10-25T08:36:22Z</time>
      </trkpt>
      <trkpt lat="46.80289" lon="5.62578">
        <ele>418</ele>
        <time>2020-10-25T08:36:27Z</time>
      </trkpt>
      <trkpt lat="46.80292" lon="5.62583">
        <ele>418.4</ele>
        <time>2020-10-25T08:36:33Z</time>
      </trkpt>
      <trkpt lat="46.80295" lon="5.62589">
        <ele>419.3</ele>
        <time>2020-10-25T08:36:39Z</time>
      </trkpt>
      <trkpt lat="46.80298" lon="5.62594">
        <ele>420.8</ele>
        <time>2020-10-25T08:36:47Z</time>
      </trkpt>
      <trkpt lat="46.80301" lon="5.62599">
        <ele>421</ele>
        <time>2020-10-25T08:36:52Z</time>
      </trkpt>
      <trkpt lat="46.80304" lon="5.62606">
        <ele>420.8</ele>
        <time>2020-10-25T08:36:58Z</time>
      </trkpt>
      <trkpt lat="46.80305" lon="5.62613">
        <ele>420.1</ele>
        <time>2020-10-25T08:37:03Z</time>
      </trkpt>
      <trkpt lat="46.80307" lon="5.6262">
        <ele>419.5</ele>
        <time>2020-10-25T08:37:08Z</time>
      </trkpt>
      <trkpt lat="46.80308" lon="5.62627">
        <ele>419.4</ele>
        <time>2020-10-25T08:37:13Z</time>
      </trkpt>
      <trkpt lat="46.8031" lon="5.62633">
        <ele>419.7</ele>
        <time>2020-10-25T08:37:17Z</time>
      </trkpt>
      <trkpt lat="46.80312" lon="5.6264">
        <ele>420.2</ele>
        <time>2020-10-25T08:37:22Z</time>
      </trkpt>
      <trkpt lat="46.80313" lon="5.62647">
        <ele>420.8</ele>
        <time>2020-10-25T08:37:29Z</time>
      </trkpt>
      <trkpt lat="46.80314" lon="5.62654">
        <ele>421.5</ele>
        <time>2020-10-25T08:37:33Z</time>
      </trkpt>
      <trkpt lat="46.80315" lon="5.62661">
        <ele>422.7</ele>
        <time>2020-10-25T08:37:38Z</time>
      </trkpt>
      <trkpt lat="46.80314" lon="5.62668">
        <ele>424.5</ele>
        <time>2020-10-25T08:37:45Z</time>
      </trkpt>
      <trkpt lat="46.80315" lon="5.62675">
        <ele>425.5</ele>
        <time>2020-10-25T08:37:50Z</time>
      </trkpt>
      <trkpt lat="46.80316" lon="5.62682">
        <ele>426.8</ele>
        <time>2020-10-25T08:37:55Z</time>
      </trkpt>
      <trkpt lat="46.80316" lon="5.62689">
        <ele>428.2</ele>
        <time>2020-10-25T08:38:00Z</time>
      </trkpt>
      <trkpt lat="46.80317" lon="5.62696">
        <ele>429.7</ele>
        <time>2020-10-25T08:38:05Z</time>
      </trkpt>
      <trkpt lat="46.80318" lon="5.62703">
        <ele>430.9</ele>
        <time>2020-10-25T08:38:10Z</time>
      </trkpt>
      <trkpt lat="46.80321" lon="5.62709">
        <ele>431.9</ele>
        <time>2020-10-25T08:38:15Z</time>
      </trkpt>
      <trkpt lat="46.80322" lon="5.62717">
        <ele>430.8</ele>
        <time>2020-10-25T08:38:38Z</time>
      </trkpt>
      <trkpt lat="46.80324" lon="5.62724">
        <ele>431.5</ele>
        <time>2020-10-25T08:38:45Z</time>
      </trkpt>
      <trkpt lat="46.80325" lon="5.62731">
        <ele>432.2</ele>
        <time>2020-10-25T08:38:51Z</time>
      </trkpt>
      <trkpt lat="46.80328" lon="5.62737">
        <ele>432.9</ele>
        <time>2020-10-25T08:38:56Z</time>
      </trkpt>
      <trkpt lat="46.80332" lon="5.62741">
        <ele>433.7</ele>
        <time>2020-10-25T08:39:01Z</time>
      </trkpt>
      <trkpt lat="46.80335" lon="5.62746">
        <ele>434.1</ele>
        <time>2020-10-25T08:39:07Z</time>
      </trkpt>
      <trkpt lat="46.80337" lon="5.62752">
        <ele>434.2</ele>
        <time>2020-10-25T08:39:12Z</time>
      </trkpt>
      <trkpt lat="46.80341" lon="5.62757">
        <ele>434</ele>
        <time>2020-10-25T08:39:17Z</time>
      </trkpt>
      <trkpt lat="46.80344" lon="5.62763">
        <ele>433.2</ele>
        <time>2020-10-25T08:39:22Z</time>
      </trkpt>
      <trkpt lat="46.80346" lon="5.6277">
        <ele>432.5</ele>
        <time>2020-10-25T08:39:27Z</time>
      </trkpt>
      <trkpt lat="46.80349" lon="5.62775">
        <ele>431.7</ele>
        <time>2020-10-25T08:39:32Z</time>
      </trkpt>
      <trkpt lat="46.80353" lon="5.6278">
        <ele>431</ele>
        <time>2020-10-25T08:39:38Z</time>
      </trkpt>
      <trkpt lat="46.80356" lon="5.62785">
        <ele>430.7</ele>
        <time>2020-10-25T08:39:43Z</time>
      </trkpt>
      <trkpt lat="46.80359" lon="5.62791">
        <ele>430.4</ele>
        <time>2020-10-25T08:39:48Z</time>
      </trkpt>
      <trkpt lat="46.80362" lon="5.62797">
        <ele>430.2</ele>
        <time>2020-10-25T08:39:53Z</time>
      </trkpt>
      <trkpt lat="46.80364" lon="5.62803">
        <ele>430.1</ele>
        <time>2020-10-25T08:39:58Z</time>
      </trkpt>
      <trkpt lat="46.80367" lon="5.6281">
        <ele>429.8</ele>
        <time>2020-10-25T08:40:04Z</time>
      </trkpt>
      <trkpt lat="46.8037" lon="5.62815">
        <ele>429.5</ele>
        <time>2020-10-25T08:40:14Z</time>
      </trkpt>
      <trkpt lat="46.80372" lon="5.62822">
        <ele>429.7</ele>
        <time>2020-10-25T08:40:20Z</time>
      </trkpt>
      <trkpt lat="46.80375" lon="5.62827">
        <ele>430</ele>
        <time>2020-10-25T08:40:25Z</time>
      </trkpt>
      <trkpt lat="46.80378" lon="5.62832">
        <ele>430.2</ele>
        <time>2020-10-25T08:40:30Z</time>
      </trkpt>
      <trkpt lat="46.8038" lon="5.62838">
        <ele>430.2</ele>
        <time>2020-10-25T08:40:36Z</time>
      </trkpt>
      <trkpt lat="46.80384" lon="5.62843">
        <ele>430.1</ele>
        <time>2020-10-25T08:40:42Z</time>
      </trkpt>
      <trkpt lat="46.80388" lon="5.62848">
        <ele>430.4</ele>
        <time>2020-10-25T08:40:48Z</time>
      </trkpt>
      <trkpt lat="46.80391" lon="5.62854">
        <ele>431</ele>
        <time>2020-10-25T08:40:54Z</time>
      </trkpt>
      <trkpt lat="46.80393" lon="5.6286">
        <ele>431.4</ele>
        <time>2020-10-25T08:40:59Z</time>
      </trkpt>
      <trkpt lat="46.80396" lon="5.62865">
        <ele>431.6</ele>
        <time>2020-10-25T08:41:04Z</time>
      </trkpt>
      <trkpt lat="46.80399" lon="5.6287">
        <ele>431.7</ele>
        <time>2020-10-25T08:41:09Z</time>
      </trkpt>
      <trkpt lat="46.80402" lon="5.62876">
        <ele>432</ele>
        <time>2020-10-25T08:41:14Z</time>
      </trkpt>
      <trkpt lat="46.80405" lon="5.62882">
        <ele>432.4</ele>
        <time>2020-10-25T08:41:19Z</time>
      </trkpt>
      <trkpt lat="46.80408" lon="5.62888">
        <ele>432.9</ele>
        <time>2020-10-25T08:41:26Z</time>
      </trkpt>
      <trkpt lat="46.80411" lon="5.62893">
        <ele>433.2</ele>
        <time>2020-10-25T08:41:31Z</time>
      </trkpt>
      <trkpt lat="46.80416" lon="5.62896">
        <ele>433.5</ele>
        <time>2020-10-25T08:41:36Z</time>
      </trkpt>
      <trkpt lat="46.8042" lon="5.62899">
        <ele>434</ele>
        <time>2020-10-25T08:41:41Z</time>
      </trkpt>
      <trkpt lat="46.80422" lon="5.62905">
        <ele>434.2</ele>
        <time>2020-10-25T08:41:46Z</time>
      </trkpt>
      <trkpt lat="46.80425" lon="5.62911">
        <ele>434.3</ele>
        <time>2020-10-25T08:41:52Z</time>
      </trkpt>
      <trkpt lat="46.80428" lon="5.62917">
        <ele>434.5</ele>
        <time>2020-10-25T08:41:57Z</time>
      </trkpt>
      <trkpt lat="46.80431" lon="5.62922">
        <ele>434.8</ele>
        <time>2020-10-25T08:42:02Z</time>
      </trkpt>
      <trkpt lat="46.80435" lon="5.62926">
        <ele>435.2</ele>
        <time>2020-10-25T08:42:07Z</time>
      </trkpt>
      <trkpt lat="46.80438" lon="5.62931">
        <ele>435.8</ele>
        <time>2020-10-25T08:42:13Z</time>
      </trkpt>
      <trkpt lat="46.80442" lon="5.62936">
        <ele>436.5</ele>
        <time>2020-10-25T08:42:19Z</time>
      </trkpt>
      <trkpt lat="46.80445" lon="5.62942">
        <ele>437</ele>
        <time>2020-10-25T08:42:24Z</time>
      </trkpt>
      <trkpt lat="46.80446" lon="5.62949">
        <ele>437.4</ele>
        <time>2020-10-25T08:42:35Z</time>
      </trkpt>
      <trkpt lat="46.80448" lon="5.62955">
        <ele>439.1</ele>
        <time>2020-10-25T08:43:07Z</time>
      </trkpt>
      <trkpt lat="46.80452" lon="5.62953">
        <ele>442</ele>
        <time>2020-10-25T08:43:57Z</time>
      </trkpt>
      <trkpt lat="46.80448" lon="5.62949">
        <ele>444.5</ele>
        <time>2020-10-25T08:44:29Z</time>
      </trkpt>
      <trkpt lat="46.80452" lon="5.62954">
        <ele>449.6</ele>
        <time>2020-10-25T08:46:30Z</time>
      </trkpt>
      <trkpt lat="46.80455" lon="5.62958">
        <ele>450.4</ele>
        <time>2020-10-25T08:46:37Z</time>
      </trkpt>
      <trkpt lat="46.80459" lon="5.62962">
        <ele>450.8</ele>
        <time>2020-10-25T08:46:44Z</time>
      </trkpt>
      <trkpt lat="46.80463" lon="5.62967">
        <ele>450.5</ele>
        <time>2020-10-25T08:46:51Z</time>
      </trkpt>
      <trkpt lat="46.80466" lon="5.62974">
        <ele>450.2</ele>
        <time>2020-10-25T08:46:58Z</time>
      </trkpt>
      <trkpt lat="46.80468" lon="5.62981">
        <ele>450.3</ele>
        <time>2020-10-25T08:47:04Z</time>
      </trkpt>
      <trkpt lat="46.8047" lon="5.62987">
        <ele>450.6</ele>
        <time>2020-10-25T08:47:10Z</time>
      </trkpt>
      <trkpt lat="46.80473" lon="5.62993">
        <ele>450.9</ele>
        <time>2020-10-25T08:47:16Z</time>
      </trkpt>
      <trkpt lat="46.80477" lon="5.62999">
        <ele>451.3</ele>
        <time>2020-10-25T08:47:23Z</time>
      </trkpt>
      <trkpt lat="46.8048" lon="5.63005">
        <ele>451.4</ele>
        <time>2020-10-25T08:47:28Z</time>
      </trkpt>
      <trkpt lat="46.80484" lon="5.63009">
        <ele>451.7</ele>
        <time>2020-10-25T08:47:33Z</time>
      </trkpt>
      <trkpt lat="46.80487" lon="5.63015">
        <ele>452.4</ele>
        <time>2020-10-25T08:47:38Z</time>
      </trkpt>
      <trkpt lat="46.80492" lon="5.63019">
        <ele>454.8</ele>
        <time>2020-10-25T08:47:44Z</time>
      </trkpt>
      <trkpt lat="46.80496" lon="5.63023">
        <ele>457.5</ele>
        <time>2020-10-25T08:47:50Z</time>
      </trkpt>
      <trkpt lat="46.805" lon="5.63026">
        <ele>459.5</ele>
        <time>2020-10-25T08:47:55Z</time>
      </trkpt>
      <trkpt lat="46.80504" lon="5.63031">
        <ele>461.9</ele>
        <time>2020-10-25T08:48:01Z</time>
      </trkpt>
      <trkpt lat="46.80507" lon="5.63037">
        <ele>463.7</ele>
        <time>2020-10-25T08:48:06Z</time>
      </trkpt>
      <trkpt lat="46.80511" lon="5.63042">
        <ele>465.3</ele>
        <time>2020-10-25T08:48:11Z</time>
      </trkpt>
      <trkpt lat="46.80515" lon="5.63045">
        <ele>467</ele>
        <time>2020-10-25T08:48:17Z</time>
      </trkpt>
      <trkpt lat="46.80518" lon="5.63051">
        <ele>468.8</ele>
        <time>2020-10-25T08:48:24Z</time>
      </trkpt>
      <trkpt lat="46.8052" lon="5.63058">
        <ele>470.1</ele>
        <time>2020-10-25T08:48:29Z</time>
      </trkpt>
      <trkpt lat="46.80522" lon="5.63064">
        <ele>471</ele>
        <time>2020-10-25T08:48:34Z</time>
      </trkpt>
      <trkpt lat="46.80525" lon="5.6307">
        <ele>471.2</ele>
        <time>2020-10-25T08:48:40Z</time>
      </trkpt>
      <trkpt lat="46.80529" lon="5.63075">
        <ele>470.8</ele>
        <time>2020-10-25T08:48:45Z</time>
      </trkpt>
      <trkpt lat="46.80534" lon="5.63079">
        <ele>470</ele>
        <time>2020-10-25T08:48:50Z</time>
      </trkpt>
      <trkpt lat="46.80536" lon="5.63085">
        <ele>469.2</ele>
        <time>2020-10-25T08:48:54Z</time>
      </trkpt>
      <trkpt lat="46.80539" lon="5.63091">
        <ele>468.7</ele>
        <time>2020-10-25T08:48:58Z</time>
      </trkpt>
      <trkpt lat="46.80541" lon="5.63097">
        <ele>468.2</ele>
        <time>2020-10-25T08:49:02Z</time>
      </trkpt>
      <trkpt lat="46.80544" lon="5.63103">
        <ele>467.6</ele>
        <time>2020-10-25T08:49:07Z</time>
      </trkpt>
      <trkpt lat="46.80548" lon="5.63109">
        <ele>467.2</ele>
        <time>2020-10-25T08:49:13Z</time>
      </trkpt>
      <trkpt lat="46.80552" lon="5.63114">
        <ele>467.1</ele>
        <time>2020-10-25T08:49:17Z</time>
      </trkpt>
      <trkpt lat="46.80553" lon="5.6312">
        <ele>467.5</ele>
        <time>2020-10-25T08:49:22Z</time>
      </trkpt>
      <trkpt lat="46.80554" lon="5.63127">
        <ele>468.5</ele>
        <time>2020-10-25T08:49:29Z</time>
      </trkpt>
      <trkpt lat="46.80556" lon="5.63133">
        <ele>469.2</ele>
        <time>2020-10-25T08:49:35Z</time>
      </trkpt>
      <trkpt lat="46.80558" lon="5.63139">
        <ele>470.5</ele>
        <time>2020-10-25T08:49:42Z</time>
      </trkpt>
      <trkpt lat="46.80559" lon="5.63146">
        <ele>471.3</ele>
        <time>2020-10-25T08:49:47Z</time>
      </trkpt>
      <trkpt lat="46.80558" lon="5.63155">
        <ele>471.8</ele>
        <time>2020-10-25T08:49:50Z</time>
      </trkpt>
      <trkpt lat="46.80557" lon="5.63162">
        <ele>472.2</ele>
        <time>2020-10-25T08:49:53Z</time>
      </trkpt>
      <trkpt lat="46.80557" lon="5.63169">
        <ele>473</ele>
        <time>2020-10-25T08:49:57Z</time>
      </trkpt>
      <trkpt lat="46.80559" lon="5.63177">
        <ele>474.2</ele>
        <time>2020-10-25T08:50:02Z</time>
      </trkpt>
      <trkpt lat="46.80561" lon="5.63184">
        <ele>475.4</ele>
        <time>2020-10-25T08:50:06Z</time>
      </trkpt>
      <trkpt lat="46.80562" lon="5.63191">
        <ele>476.8</ele>
        <time>2020-10-25T08:50:12Z</time>
      </trkpt>
      <trkpt lat="46.80561" lon="5.63199">
        <ele>477.1</ele>
        <time>2020-10-25T08:50:16Z</time>
      </trkpt>
      <trkpt lat="46.8056" lon="5.63206">
        <ele>476.7</ele>
        <time>2020-10-25T08:50:21Z</time>
      </trkpt>
      <trkpt lat="46.80561" lon="5.63212">
        <ele>476.1</ele>
        <time>2020-10-25T08:50:25Z</time>
      </trkpt>
      <trkpt lat="46.80562" lon="5.63206">
        <ele>474.1</ele>
        <time>2020-10-25T08:50:54Z</time>
      </trkpt>
      <trkpt lat="46.80559" lon="5.63211">
        <ele>473.9</ele>
        <time>2020-10-25T08:51:13Z</time>
      </trkpt>
      <trkpt lat="46.80558" lon="5.63218">
        <ele>474.6</ele>
        <time>2020-10-25T08:51:20Z</time>
      </trkpt>
      <trkpt lat="46.80556" lon="5.63224">
        <ele>477</ele>
        <time>2020-10-25T08:52:02Z</time>
      </trkpt>
      <trkpt lat="46.80552" lon="5.6323">
        <ele>477.8</ele>
        <time>2020-10-25T08:52:09Z</time>
      </trkpt>
      <trkpt lat="46.80551" lon="5.63237">
        <ele>478.4</ele>
        <time>2020-10-25T08:52:14Z</time>
      </trkpt>
      <trkpt lat="46.80548" lon="5.63242">
        <ele>478.6</ele>
        <time>2020-10-25T08:52:27Z</time>
      </trkpt>
      <trkpt lat="46.80545" lon="5.63248">
        <ele>478</ele>
        <time>2020-10-25T08:52:35Z</time>
      </trkpt>
      <trkpt lat="46.80543" lon="5.63255">
        <ele>477.6</ele>
        <time>2020-10-25T08:52:39Z</time>
      </trkpt>
      <trkpt lat="46.8054" lon="5.63261">
        <ele>477.4</ele>
        <time>2020-10-25T08:52:44Z</time>
      </trkpt>
      <trkpt lat="46.80537" lon="5.63267">
        <ele>477.2</ele>
        <time>2020-10-25T08:52:49Z</time>
      </trkpt>
      <trkpt lat="46.80534" lon="5.63272">
        <ele>476.5</ele>
        <time>2020-10-25T08:52:54Z</time>
      </trkpt>
      <trkpt lat="46.80531" lon="5.63278">
        <ele>475.9</ele>
        <time>2020-10-25T08:53:01Z</time>
      </trkpt>
      <trkpt lat="46.80529" lon="5.63285">
        <ele>475.4</ele>
        <time>2020-10-25T08:53:06Z</time>
      </trkpt>
      <trkpt lat="46.80527" lon="5.63292">
        <ele>475.3</ele>
        <time>2020-10-25T08:53:10Z</time>
      </trkpt>
      <trkpt lat="46.80525" lon="5.633">
        <ele>475.8</ele>
        <time>2020-10-25T08:53:14Z</time>
      </trkpt>
      <trkpt lat="46.80524" lon="5.63306">
        <ele>476.5</ele>
        <time>2020-10-25T08:53:18Z</time>
      </trkpt>
      <trkpt lat="46.80523" lon="5.63314">
        <ele>476.8</ele>
        <time>2020-10-25T08:53:26Z</time>
      </trkpt>
      <trkpt lat="46.80523" lon="5.63322">
        <ele>477.1</ele>
        <time>2020-10-25T08:53:31Z</time>
      </trkpt>
      <trkpt lat="46.80523" lon="5.63328">
        <ele>477.4</ele>
        <time>2020-10-25T08:53:36Z</time>
      </trkpt>
      <trkpt lat="46.80523" lon="5.63335">
        <ele>477.5</ele>
        <time>2020-10-25T08:53:40Z</time>
      </trkpt>
      <trkpt lat="46.80523" lon="5.63341">
        <ele>477.4</ele>
        <time>2020-10-25T08:53:44Z</time>
      </trkpt>
      <trkpt lat="46.80522" lon="5.63349">
        <ele>477.4</ele>
        <time>2020-10-25T08:53:49Z</time>
      </trkpt>
      <trkpt lat="46.80522" lon="5.63356">
        <ele>476.4</ele>
        <time>2020-10-25T08:53:57Z</time>
      </trkpt>
      <trkpt lat="46.80522" lon="5.63363">
        <ele>476</ele>
        <time>2020-10-25T08:54:03Z</time>
      </trkpt>
      <trkpt lat="46.80522" lon="5.6337">
        <ele>475.8</ele>
        <time>2020-10-25T08:54:08Z</time>
      </trkpt>
      <trkpt lat="46.80523" lon="5.63377">
        <ele>475.8</ele>
        <time>2020-10-25T08:54:14Z</time>
      </trkpt>
      <trkpt lat="46.80524" lon="5.63384">
        <ele>476.2</ele>
        <time>2020-10-25T08:54:26Z</time>
      </trkpt>
      <trkpt lat="46.80525" lon="5.63392">
        <ele>476.7</ele>
        <time>2020-10-25T08:54:34Z</time>
      </trkpt>
      <trkpt lat="46.80524" lon="5.63399">
        <ele>476.6</ele>
        <time>2020-10-25T08:54:39Z</time>
      </trkpt>
      <trkpt lat="46.80523" lon="5.63407">
        <ele>476.2</ele>
        <time>2020-10-25T08:54:44Z</time>
      </trkpt>
      <trkpt lat="46.80522" lon="5.63413">
        <ele>475</ele>
        <time>2020-10-25T08:54:49Z</time>
      </trkpt>
      <trkpt lat="46.80518" lon="5.63418">
        <ele>470.8</ele>
        <time>2020-10-25T08:54:59Z</time>
      </trkpt>
      <trkpt lat="46.80514" lon="5.63424">
        <ele>469.3</ele>
        <time>2020-10-25T08:55:06Z</time>
      </trkpt>
      <trkpt lat="46.80511" lon="5.6343">
        <ele>468.2</ele>
        <time>2020-10-25T08:55:11Z</time>
      </trkpt>
      <trkpt lat="46.80509" lon="5.63437">
        <ele>467.2</ele>
        <time>2020-10-25T08:55:17Z</time>
      </trkpt>
      <trkpt lat="46.80507" lon="5.63444">
        <ele>466.2</ele>
        <time>2020-10-25T08:55:21Z</time>
      </trkpt>
      <trkpt lat="46.80507" lon="5.63451">
        <ele>464.8</ele>
        <time>2020-10-25T08:55:26Z</time>
      </trkpt>
      <trkpt lat="46.80505" lon="5.63458">
        <ele>464.1</ele>
        <time>2020-10-25T08:55:31Z</time>
      </trkpt>
      <trkpt lat="46.80503" lon="5.63467">
        <ele>464.2</ele>
        <time>2020-10-25T08:55:35Z</time>
      </trkpt>
      <trkpt lat="46.80501" lon="5.63473">
        <ele>465.1</ele>
        <time>2020-10-25T08:55:39Z</time>
      </trkpt>
      <trkpt lat="46.80498" lon="5.63479">
        <ele>465.8</ele>
        <time>2020-10-25T08:55:43Z</time>
      </trkpt>
      <trkpt lat="46.80496" lon="5.63486">
        <ele>465.9</ele>
        <time>2020-10-25T08:55:46Z</time>
      </trkpt>
      <trkpt lat="46.80494" lon="5.63494">
        <ele>465.9</ele>
        <time>2020-10-25T08:55:49Z</time>
      </trkpt>
      <trkpt lat="46.80492" lon="5.63501">
        <ele>465.8</ele>
        <time>2020-10-25T08:55:53Z</time>
      </trkpt>
      <trkpt lat="46.8049" lon="5.63508">
        <ele>466</ele>
        <time>2020-10-25T08:55:58Z</time>
      </trkpt>
      <trkpt lat="46.80489" lon="5.63515">
        <ele>466.4</ele>
        <time>2020-10-25T08:56:01Z</time>
      </trkpt>
      <trkpt lat="46.80487" lon="5.63522">
        <ele>467.3</ele>
        <time>2020-10-25T08:56:05Z</time>
      </trkpt>
      <trkpt lat="46.80486" lon="5.63528">
        <ele>469.1</ele>
        <time>2020-10-25T08:56:12Z</time>
      </trkpt>
      <trkpt lat="46.80484" lon="5.63535">
        <ele>470.3</ele>
        <time>2020-10-25T08:56:16Z</time>
      </trkpt>
      <trkpt lat="46.80482" lon="5.63541">
        <ele>471.9</ele>
        <time>2020-10-25T08:56:19Z</time>
      </trkpt>
      <trkpt lat="46.80481" lon="5.63549">
        <ele>474.9</ele>
        <time>2020-10-25T08:56:24Z</time>
      </trkpt>
      <trkpt lat="46.80479" lon="5.63555">
        <ele>477.6</ele>
        <time>2020-10-25T08:56:28Z</time>
      </trkpt>
      <trkpt lat="46.80477" lon="5.63562">
        <ele>479.9</ele>
        <time>2020-10-25T08:56:33Z</time>
      </trkpt>
      <trkpt lat="46.80476" lon="5.63569">
        <ele>481.1</ele>
        <time>2020-10-25T08:56:38Z</time>
      </trkpt>
      <trkpt lat="46.80476" lon="5.63576">
        <ele>482.1</ele>
        <time>2020-10-25T08:56:45Z</time>
      </trkpt>
      <trkpt lat="46.80476" lon="5.63583">
        <ele>482.1</ele>
        <time>2020-10-25T08:56:52Z</time>
      </trkpt>
      <trkpt lat="46.80475" lon="5.63592">
        <ele>482.2</ele>
        <time>2020-10-25T08:56:57Z</time>
      </trkpt>
      <trkpt lat="46.80474" lon="5.63599">
        <ele>481</ele>
        <time>2020-10-25T08:57:03Z</time>
      </trkpt>
      <trkpt lat="46.80472" lon="5.63605">
        <ele>476.9</ele>
        <time>2020-10-25T08:57:15Z</time>
      </trkpt>
      <trkpt lat="46.80473" lon="5.63613">
        <ele>473.3</ele>
        <time>2020-10-25T08:57:23Z</time>
      </trkpt>
      <trkpt lat="46.80476" lon="5.63619">
        <ele>468.3</ele>
        <time>2020-10-25T08:57:29Z</time>
      </trkpt>
      <trkpt lat="46.80478" lon="5.63625">
        <ele>466.2</ele>
        <time>2020-10-25T08:57:33Z</time>
      </trkpt>
      <trkpt lat="46.80481" lon="5.6363">
        <ele>464.8</ele>
        <time>2020-10-25T08:57:37Z</time>
      </trkpt>
      <trkpt lat="46.80482" lon="5.63638">
        <ele>463.8</ele>
        <time>2020-10-25T08:57:42Z</time>
      </trkpt>
      <trkpt lat="46.8048" lon="5.63645">
        <ele>463.1</ele>
        <time>2020-10-25T08:57:46Z</time>
      </trkpt>
      <trkpt lat="46.80478" lon="5.63651">
        <ele>461</ele>
        <time>2020-10-25T08:57:52Z</time>
      </trkpt>
      <trkpt lat="46.80477" lon="5.63658">
        <ele>458.3</ele>
        <time>2020-10-25T08:57:59Z</time>
      </trkpt>
      <trkpt lat="46.80475" lon="5.63665">
        <ele>457.2</ele>
        <time>2020-10-25T08:58:03Z</time>
      </trkpt>
      <trkpt lat="46.80473" lon="5.63671">
        <ele>456.3</ele>
        <time>2020-10-25T08:58:07Z</time>
      </trkpt>
      <trkpt lat="46.80471" lon="5.63678">
        <ele>455.4</ele>
        <time>2020-10-25T08:58:11Z</time>
      </trkpt>
      <trkpt lat="46.80467" lon="5.63683">
        <ele>454.5</ele>
        <time>2020-10-25T08:58:16Z</time>
      </trkpt>
      <trkpt lat="46.80465" lon="5.63689">
        <ele>454</ele>
        <time>2020-10-25T08:58:20Z</time>
      </trkpt>
      <trkpt lat="46.8046" lon="5.63693">
        <ele>453.7</ele>
        <time>2020-10-25T08:58:26Z</time>
      </trkpt>
      <trkpt lat="46.80456" lon="5.63697">
        <ele>453.9</ele>
        <time>2020-10-25T08:58:31Z</time>
      </trkpt>
      <trkpt lat="46.80455" lon="5.63703">
        <ele>454</ele>
        <time>2020-10-25T08:58:36Z</time>
      </trkpt>
      <trkpt lat="46.80452" lon="5.63708">
        <ele>451.5</ele>
        <time>2020-10-25T08:58:42Z</time>
      </trkpt>
      <trkpt lat="46.8045" lon="5.63715">
        <ele>445.9</ele>
        <time>2020-10-25T08:58:51Z</time>
      </trkpt>
      <trkpt lat="46.80448" lon="5.63722">
        <ele>444.3</ele>
        <time>2020-10-25T08:59:22Z</time>
      </trkpt>
      <trkpt lat="46.80448" lon="5.63729">
        <ele>446.8</ele>
        <time>2020-10-25T08:59:27Z</time>
      </trkpt>
      <trkpt lat="46.80445" lon="5.63735">
        <ele>448.3</ele>
        <time>2020-10-25T08:59:34Z</time>
      </trkpt>
      <trkpt lat="46.80443" lon="5.6374">
        <ele>448.3</ele>
        <time>2020-10-25T08:59:39Z</time>
      </trkpt>
      <trkpt lat="46.80441" lon="5.63746">
        <ele>447.7</ele>
        <time>2020-10-25T08:59:43Z</time>
      </trkpt>
      <trkpt lat="46.80438" lon="5.63752">
        <ele>446.5</ele>
        <time>2020-10-25T08:59:47Z</time>
      </trkpt>
      <trkpt lat="46.80435" lon="5.63757">
        <ele>444.7</ele>
        <time>2020-10-25T08:59:53Z</time>
      </trkpt>
      <trkpt lat="46.80432" lon="5.63763">
        <ele>442.1</ele>
        <time>2020-10-25T09:00:02Z</time>
      </trkpt>
      <trkpt lat="46.80429" lon="5.63769">
        <ele>441.8</ele>
        <time>2020-10-25T09:00:07Z</time>
      </trkpt>
      <trkpt lat="46.80425" lon="5.63776">
        <ele>441.6</ele>
        <time>2020-10-25T09:00:11Z</time>
      </trkpt>
      <trkpt lat="46.80423" lon="5.63781">
        <ele>441.5</ele>
        <time>2020-10-25T09:00:14Z</time>
      </trkpt>
      <trkpt lat="46.8042" lon="5.63787">
        <ele>441.1</ele>
        <time>2020-10-25T09:00:18Z</time>
      </trkpt>
      <trkpt lat="46.80417" lon="5.63793">
        <ele>440.4</ele>
        <time>2020-10-25T09:00:24Z</time>
      </trkpt>
      <trkpt lat="46.80413" lon="5.63797">
        <ele>439.3</ele>
        <time>2020-10-25T09:00:31Z</time>
      </trkpt>
      <trkpt lat="46.80408" lon="5.638">
        <ele>439.6</ele>
        <time>2020-10-25T09:00:36Z</time>
      </trkpt>
      <trkpt lat="46.80405" lon="5.63807">
        <ele>440.7</ele>
        <time>2020-10-25T09:00:40Z</time>
      </trkpt>
      <trkpt lat="46.80402" lon="5.63814">
        <ele>442.1</ele>
        <time>2020-10-25T09:00:44Z</time>
      </trkpt>
      <trkpt lat="46.80399" lon="5.6382">
        <ele>444.4</ele>
        <time>2020-10-25T09:00:50Z</time>
      </trkpt>
      <trkpt lat="46.80397" lon="5.63827">
        <ele>446.1</ele>
        <time>2020-10-25T09:00:55Z</time>
      </trkpt>
      <trkpt lat="46.80394" lon="5.63834">
        <ele>447.2</ele>
        <time>2020-10-25T09:01:00Z</time>
      </trkpt>
      <trkpt lat="46.80392" lon="5.63841">
        <ele>448.1</ele>
        <time>2020-10-25T09:01:05Z</time>
      </trkpt>
      <trkpt lat="46.8039" lon="5.63847">
        <ele>448.5</ele>
        <time>2020-10-25T09:01:08Z</time>
      </trkpt>
      <trkpt lat="46.80388" lon="5.63854">
        <ele>449</ele>
        <time>2020-10-25T09:01:12Z</time>
      </trkpt>
      <trkpt lat="46.80386" lon="5.63859">
        <ele>449.7</ele>
        <time>2020-10-25T09:01:16Z</time>
      </trkpt>
      <trkpt lat="46.80384" lon="5.63865">
        <ele>450.4</ele>
        <time>2020-10-25T09:01:20Z</time>
      </trkpt>
      <trkpt lat="46.8038" lon="5.63871">
        <ele>451</ele>
        <time>2020-10-25T09:01:24Z</time>
      </trkpt>
      <trkpt lat="46.80377" lon="5.63877">
        <ele>451.4</ele>
        <time>2020-10-25T09:01:27Z</time>
      </trkpt>
      <trkpt lat="46.80374" lon="5.63882">
        <ele>451.8</ele>
        <time>2020-10-25T09:01:31Z</time>
      </trkpt>
      <trkpt lat="46.80372" lon="5.63889">
        <ele>451.2</ele>
        <time>2020-10-25T09:01:37Z</time>
      </trkpt>
      <trkpt lat="46.8037" lon="5.63895">
        <ele>450.9</ele>
        <time>2020-10-25T09:01:41Z</time>
      </trkpt>
      <trkpt lat="46.80368" lon="5.63902">
        <ele>450.8</ele>
        <time>2020-10-25T09:01:44Z</time>
      </trkpt>
      <trkpt lat="46.80364" lon="5.63909">
        <ele>450.6</ele>
        <time>2020-10-25T09:01:48Z</time>
      </trkpt>
      <trkpt lat="46.80361" lon="5.63915">
        <ele>451.2</ele>
        <time>2020-10-25T09:01:51Z</time>
      </trkpt>
      <trkpt lat="46.80358" lon="5.63921">
        <ele>451.4</ele>
        <time>2020-10-25T09:01:55Z</time>
      </trkpt>
      <trkpt lat="46.80356" lon="5.63927">
        <ele>451.6</ele>
        <time>2020-10-25T09:01:58Z</time>
      </trkpt>
      <trkpt lat="46.80353" lon="5.63934">
        <ele>451.6</ele>
        <time>2020-10-25T09:02:02Z</time>
      </trkpt>
      <trkpt lat="46.80351" lon="5.63941">
        <ele>451.9</ele>
        <time>2020-10-25T09:02:10Z</time>
      </trkpt>
      <trkpt lat="46.8035" lon="5.63948">
        <ele>451.8</ele>
        <time>2020-10-25T09:02:15Z</time>
      </trkpt>
      <trkpt lat="46.80349" lon="5.63955">
        <ele>450.8</ele>
        <time>2020-10-25T09:02:23Z</time>
      </trkpt>
      <trkpt lat="46.80348" lon="5.63962">
        <ele>447.3</ele>
        <time>2020-10-25T09:02:30Z</time>
      </trkpt>
      <trkpt lat="46.80346" lon="5.63968">
        <ele>445.6</ele>
        <time>2020-10-25T09:02:33Z</time>
      </trkpt>
      <trkpt lat="46.80342" lon="5.63975">
        <ele>443.2</ele>
        <time>2020-10-25T09:02:38Z</time>
      </trkpt>
      <trkpt lat="46.80339" lon="5.63981">
        <ele>441.3</ele>
        <time>2020-10-25T09:02:42Z</time>
      </trkpt>
      <trkpt lat="46.80337" lon="5.63988">
        <ele>440</ele>
        <time>2020-10-25T09:02:46Z</time>
      </trkpt>
      <trkpt lat="46.80335" lon="5.63994">
        <ele>440.4</ele>
        <time>2020-10-25T09:02:49Z</time>
      </trkpt>
      <trkpt lat="46.80332" lon="5.64">
        <ele>441.2</ele>
        <time>2020-10-25T09:02:52Z</time>
      </trkpt>
      <trkpt lat="46.80329" lon="5.64007">
        <ele>442.4</ele>
        <time>2020-10-25T09:02:56Z</time>
      </trkpt>
      <trkpt lat="46.80327" lon="5.64013">
        <ele>443.8</ele>
        <time>2020-10-25T09:03:01Z</time>
      </trkpt>
      <trkpt lat="46.80325" lon="5.64019">
        <ele>445.4</ele>
        <time>2020-10-25T09:03:06Z</time>
      </trkpt>
      <trkpt lat="46.80324" lon="5.64026">
        <ele>447.1</ele>
        <time>2020-10-25T09:03:12Z</time>
      </trkpt>
      <trkpt lat="46.80323" lon="5.64033">
        <ele>448.1</ele>
        <time>2020-10-25T09:03:17Z</time>
      </trkpt>
      <trkpt lat="46.80321" lon="5.6404">
        <ele>449</ele>
        <time>2020-10-25T09:03:22Z</time>
      </trkpt>
      <trkpt lat="46.8032" lon="5.64047">
        <ele>449.8</ele>
        <time>2020-10-25T09:03:28Z</time>
      </trkpt>
      <trkpt lat="46.80319" lon="5.64055">
        <ele>450.7</ele>
        <time>2020-10-25T09:03:35Z</time>
      </trkpt>
      <trkpt lat="46.80318" lon="5.64063">
        <ele>451.9</ele>
        <time>2020-10-25T09:03:41Z</time>
      </trkpt>
      <trkpt lat="46.80318" lon="5.6407">
        <ele>452.8</ele>
        <time>2020-10-25T09:03:47Z</time>
      </trkpt>
      <trkpt lat="46.80318" lon="5.64077">
        <ele>453.3</ele>
        <time>2020-10-25T09:03:55Z</time>
      </trkpt>
      <trkpt lat="46.8032" lon="5.64084">
        <ele>453</ele>
        <time>2020-10-25T09:04:00Z</time>
      </trkpt>
      <trkpt lat="46.80321" lon="5.64092">
        <ele>452.7</ele>
        <time>2020-10-25T09:04:04Z</time>
      </trkpt>
      <trkpt lat="46.80323" lon="5.64098">
        <ele>452.5</ele>
        <time>2020-10-25T09:04:08Z</time>
      </trkpt>
      <trkpt lat="46.80326" lon="5.64105">
        <ele>452.3</ele>
        <time>2020-10-25T09:04:12Z</time>
      </trkpt>
      <trkpt lat="46.80329" lon="5.6411">
        <ele>452.1</ele>
        <time>2020-10-25T09:04:16Z</time>
      </trkpt>
      <trkpt lat="46.80333" lon="5.64115">
        <ele>451.7</ele>
        <time>2020-10-25T09:04:20Z</time>
      </trkpt>
      <trkpt lat="46.80337" lon="5.64119">
        <ele>451.3</ele>
        <time>2020-10-25T09:04:24Z</time>
      </trkpt>
      <trkpt lat="46.8034" lon="5.64124">
        <ele>450.8</ele>
        <time>2020-10-25T09:04:29Z</time>
      </trkpt>
      <trkpt lat="46.80343" lon="5.64129">
        <ele>450.2</ele>
        <time>2020-10-25T09:04:33Z</time>
      </trkpt>
      <trkpt lat="46.80347" lon="5.64133">
        <ele>449.6</ele>
        <time>2020-10-25T09:04:38Z</time>
      </trkpt>
      <trkpt lat="46.80351" lon="5.64137">
        <ele>448.9</ele>
        <time>2020-10-25T09:04:44Z</time>
      </trkpt>
      <trkpt lat="46.80356" lon="5.64139">
        <ele>446.2</ele>
        <time>2020-10-25T09:04:52Z</time>
      </trkpt>
      <trkpt lat="46.8036" lon="5.64145">
        <ele>444.2</ele>
        <time>2020-10-25T09:04:57Z</time>
      </trkpt>
      <trkpt lat="46.80365" lon="5.64148">
        <ele>442.7</ele>
        <time>2020-10-25T09:05:01Z</time>
      </trkpt>
      <trkpt lat="46.8037" lon="5.64149">
        <ele>441.4</ele>
        <time>2020-10-25T09:05:05Z</time>
      </trkpt>
      <trkpt lat="46.80374" lon="5.64149">
        <ele>440.1</ele>
        <time>2020-10-25T09:05:09Z</time>
      </trkpt>
      <trkpt lat="46.80379" lon="5.64153">
        <ele>439.2</ele>
        <time>2020-10-25T09:05:13Z</time>
      </trkpt>
      <trkpt lat="46.80384" lon="5.64155">
        <ele>439</ele>
        <time>2020-10-25T09:05:18Z</time>
      </trkpt>
      <trkpt lat="46.80388" lon="5.64158">
        <ele>439</ele>
        <time>2020-10-25T09:05:22Z</time>
      </trkpt>
      <trkpt lat="46.80393" lon="5.64159">
        <ele>439.7</ele>
        <time>2020-10-25T09:05:24Z</time>
      </trkpt>
      <trkpt lat="46.80397" lon="5.64162">
        <ele>440</ele>
        <time>2020-10-25T09:05:27Z</time>
      </trkpt>
      <trkpt lat="46.80401" lon="5.64166">
        <ele>440.2</ele>
        <time>2020-10-25T09:05:31Z</time>
      </trkpt>
      <trkpt lat="46.80405" lon="5.64172">
        <ele>440</ele>
        <time>2020-10-25T09:05:36Z</time>
      </trkpt>
      <trkpt lat="46.80408" lon="5.64178">
        <ele>439.8</ele>
        <time>2020-10-25T09:05:41Z</time>
      </trkpt>
      <trkpt lat="46.80413" lon="5.64183">
        <ele>439.8</ele>
        <time>2020-10-25T09:05:46Z</time>
      </trkpt>
      <trkpt lat="46.80416" lon="5.64189">
        <ele>439.9</ele>
        <time>2020-10-25T09:05:51Z</time>
      </trkpt>
      <trkpt lat="46.80419" lon="5.64194">
        <ele>439.8</ele>
        <time>2020-10-25T09:05:56Z</time>
      </trkpt>
      <trkpt lat="46.80421" lon="5.642">
        <ele>439.6</ele>
        <time>2020-10-25T09:06:01Z</time>
      </trkpt>
      <trkpt lat="46.80425" lon="5.64205">
        <ele>439.2</ele>
        <time>2020-10-25T09:06:06Z</time>
      </trkpt>
      <trkpt lat="46.80428" lon="5.64211">
        <ele>439.1</ele>
        <time>2020-10-25T09:06:10Z</time>
      </trkpt>
      <trkpt lat="46.80433" lon="5.64215">
        <ele>438.9</ele>
        <time>2020-10-25T09:06:15Z</time>
      </trkpt>
      <trkpt lat="46.80437" lon="5.64218">
        <ele>438.4</ele>
        <time>2020-10-25T09:06:21Z</time>
      </trkpt>
      <trkpt lat="46.80441" lon="5.64223">
        <ele>439.2</ele>
        <time>2020-10-25T09:06:23Z</time>
      </trkpt>
      <trkpt lat="46.80444" lon="5.64228">
        <ele>439.6</ele>
        <time>2020-10-25T09:06:26Z</time>
      </trkpt>
      <trkpt lat="46.80447" lon="5.64235">
        <ele>440.1</ele>
        <time>2020-10-25T09:06:31Z</time>
      </trkpt>
      <trkpt lat="46.8045" lon="5.64241">
        <ele>440.1</ele>
        <time>2020-10-25T09:06:36Z</time>
      </trkpt>
      <trkpt lat="46.80453" lon="5.64246">
        <ele>440</ele>
        <time>2020-10-25T09:06:42Z</time>
      </trkpt>
      <trkpt lat="46.80456" lon="5.64252">
        <ele>440.1</ele>
        <time>2020-10-25T09:06:47Z</time>
      </trkpt>
      <trkpt lat="46.8046" lon="5.64257">
        <ele>439.4</ele>
        <time>2020-10-25T09:06:52Z</time>
      </trkpt>
      <trkpt lat="46.80464" lon="5.6426">
        <ele>437.3</ele>
        <time>2020-10-25T09:06:58Z</time>
      </trkpt>
      <trkpt lat="46.80469" lon="5.64263">
        <ele>434.5</ele>
        <time>2020-10-25T09:07:04Z</time>
      </trkpt>
      <trkpt lat="46.80473" lon="5.64268">
        <ele>432</ele>
        <time>2020-10-25T09:07:10Z</time>
      </trkpt>
      <trkpt lat="46.80477" lon="5.64274">
        <ele>429.9</ele>
        <time>2020-10-25T09:07:16Z</time>
      </trkpt>
      <trkpt lat="46.80481" lon="5.64279">
        <ele>428.3</ele>
        <time>2020-10-25T09:07:21Z</time>
      </trkpt>
      <trkpt lat="46.80484" lon="5.64284">
        <ele>426.8</ele>
        <time>2020-10-25T09:07:26Z</time>
      </trkpt>
      <trkpt lat="46.80487" lon="5.6429">
        <ele>425.8</ele>
        <time>2020-10-25T09:07:30Z</time>
      </trkpt>
      <trkpt lat="46.8049" lon="5.64295">
        <ele>425</ele>
        <time>2020-10-25T09:07:33Z</time>
      </trkpt>
      <trkpt lat="46.80493" lon="5.64301">
        <ele>423.4</ele>
        <time>2020-10-25T09:07:38Z</time>
      </trkpt>
      <trkpt lat="46.80496" lon="5.64307">
        <ele>422</ele>
        <time>2020-10-25T09:07:43Z</time>
      </trkpt>
      <trkpt lat="46.80498" lon="5.64314">
        <ele>421.1</ele>
        <time>2020-10-25T09:07:47Z</time>
      </trkpt>
      <trkpt lat="46.80499" lon="5.64321">
        <ele>419.9</ele>
        <time>2020-10-25T09:07:52Z</time>
      </trkpt>
      <trkpt lat="46.80502" lon="5.64326">
        <ele>419.3</ele>
        <time>2020-10-25T09:07:57Z</time>
      </trkpt>
      <trkpt lat="46.80506" lon="5.6433">
        <ele>419.3</ele>
        <time>2020-10-25T09:08:04Z</time>
      </trkpt>
      <trkpt lat="46.8051" lon="5.64334">
        <ele>419.7</ele>
        <time>2020-10-25T09:08:11Z</time>
      </trkpt>
      <trkpt lat="46.80515" lon="5.64339">
        <ele>420.2</ele>
        <time>2020-10-25T09:08:17Z</time>
      </trkpt>
      <trkpt lat="46.80518" lon="5.64343">
        <ele>420.9</ele>
        <time>2020-10-25T09:08:21Z</time>
      </trkpt>
      <trkpt lat="46.80522" lon="5.64347">
        <ele>422.1</ele>
        <time>2020-10-25T09:08:24Z</time>
      </trkpt>
      <trkpt lat="46.80528" lon="5.64352">
        <ele>424.6</ele>
        <time>2020-10-25T09:08:27Z</time>
      </trkpt>
      <trkpt lat="46.80535" lon="5.64355">
        <ele>426.6</ele>
        <time>2020-10-25T09:08:29Z</time>
      </trkpt>
      <trkpt lat="46.80541" lon="5.64358">
        <ele>428.9</ele>
        <time>2020-10-25T09:08:31Z</time>
      </trkpt>
      <trkpt lat="46.80545" lon="5.64361">
        <ele>431.5</ele>
        <time>2020-10-25T09:08:33Z</time>
      </trkpt>
      <trkpt lat="46.8055" lon="5.64365">
        <ele>435.8</ele>
        <time>2020-10-25T09:08:37Z</time>
      </trkpt>
      <trkpt lat="46.80555" lon="5.64367">
        <ele>439.3</ele>
        <time>2020-10-25T09:08:41Z</time>
      </trkpt>
      <trkpt lat="46.80559" lon="5.6437">
        <ele>442.4</ele>
        <time>2020-10-25T09:08:46Z</time>
      </trkpt>
      <trkpt lat="46.80554" lon="5.64372">
        <ele>443.5</ele>
        <time>2020-10-25T09:09:00Z</time>
      </trkpt>
      <trkpt lat="46.8055" lon="5.64375">
        <ele>441.2</ele>
        <time>2020-10-25T09:09:12Z</time>
      </trkpt>
      <trkpt lat="46.80554" lon="5.64376">
        <ele>433.1</ele>
        <time>2020-10-25T09:09:45Z</time>
      </trkpt>
      <trkpt lat="46.80553" lon="5.64383">
        <ele>430.3</ele>
        <time>2020-10-25T09:09:57Z</time>
      </trkpt>
      <trkpt lat="46.80549" lon="5.64388">
        <ele>428</ele>
        <time>2020-10-25T09:10:08Z</time>
      </trkpt>
      <trkpt lat="46.8055" lon="5.64394">
        <ele>427.1</ele>
        <time>2020-10-25T09:10:18Z</time>
      </trkpt>
      <trkpt lat="46.80548" lon="5.64402">
        <ele>427.4</ele>
        <time>2020-10-25T09:10:27Z</time>
      </trkpt>
      <trkpt lat="46.80546" lon="5.64407">
        <ele>427.5</ele>
        <time>2020-10-25T09:10:33Z</time>
      </trkpt>
      <trkpt lat="46.80542" lon="5.64412">
        <ele>427.9</ele>
        <time>2020-10-25T09:10:40Z</time>
      </trkpt>
      <trkpt lat="46.80538" lon="5.64416">
        <ele>428.8</ele>
        <time>2020-10-25T09:10:47Z</time>
      </trkpt>
      <trkpt lat="46.80536" lon="5.64422">
        <ele>429.9</ele>
        <time>2020-10-25T09:10:57Z</time>
      </trkpt>
      <trkpt lat="46.80533" lon="5.64426">
        <ele>430.7</ele>
        <time>2020-10-25T09:11:11Z</time>
      </trkpt>
      <trkpt lat="46.80529" lon="5.64432">
        <ele>431.8</ele>
        <time>2020-10-25T09:11:20Z</time>
      </trkpt>
      <trkpt lat="46.80524" lon="5.64435">
        <ele>433.2</ele>
        <time>2020-10-25T09:11:40Z</time>
      </trkpt>
      <trkpt lat="46.8052" lon="5.64438">
        <ele>432.3</ele>
        <time>2020-10-25T09:11:55Z</time>
      </trkpt>
      <trkpt lat="46.80514" lon="5.64442">
        <ele>430.1</ele>
        <time>2020-10-25T09:12:19Z</time>
      </trkpt>
      <trkpt lat="46.80509" lon="5.64441">
        <ele>428.7</ele>
        <time>2020-10-25T09:12:26Z</time>
      </trkpt>
      <trkpt lat="46.80505" lon="5.64446">
        <ele>427.3</ele>
        <time>2020-10-25T09:12:28Z</time>
      </trkpt>
      <trkpt lat="46.80501" lon="5.64451">
        <ele>425.4</ele>
        <time>2020-10-25T09:12:32Z</time>
      </trkpt>
      <trkpt lat="46.80497" lon="5.6445">
        <ele>420.7</ele>
        <time>2020-10-25T09:13:13Z</time>
      </trkpt>
      <trkpt lat="46.80492" lon="5.64447">
        <ele>419.6</ele>
        <time>2020-10-25T09:13:33Z</time>
      </trkpt>
      <trkpt lat="46.80487" lon="5.64449">
        <ele>418.4</ele>
        <time>2020-10-25T09:13:37Z</time>
      </trkpt>
      <trkpt lat="46.80482" lon="5.6445">
        <ele>416.4</ele>
        <time>2020-10-25T09:13:42Z</time>
      </trkpt>
      <trkpt lat="46.80477" lon="5.6445">
        <ele>414.1</ele>
        <time>2020-10-25T09:13:49Z</time>
      </trkpt>
      <trkpt lat="46.80473" lon="5.64451">
        <ele>413.5</ele>
        <time>2020-10-25T09:13:54Z</time>
      </trkpt>
      <trkpt lat="46.80468" lon="5.64451">
        <ele>412.7</ele>
        <time>2020-10-25T09:14:01Z</time>
      </trkpt>
      <trkpt lat="46.80466" lon="5.64457">
        <ele>412.5</ele>
        <time>2020-10-25T09:14:09Z</time>
      </trkpt>
      <trkpt lat="46.80469" lon="5.64462">
        <ele>411</ele>
        <time>2020-10-25T09:14:19Z</time>
      </trkpt>
      <trkpt lat="46.80471" lon="5.64469">
        <ele>410</ele>
        <time>2020-10-25T09:14:23Z</time>
      </trkpt>
      <trkpt lat="46.80473" lon="5.64475">
        <ele>408.7</ele>
        <time>2020-10-25T09:14:30Z</time>
      </trkpt>
      <trkpt lat="46.80476" lon="5.64481">
        <ele>407.8</ele>
        <time>2020-10-25T09:14:35Z</time>
      </trkpt>
      <trkpt lat="46.80479" lon="5.64487">
        <ele>406.4</ele>
        <time>2020-10-25T09:14:40Z</time>
      </trkpt>
      <trkpt lat="46.80483" lon="5.64488">
        <ele>404.6</ele>
        <time>2020-10-25T09:14:45Z</time>
      </trkpt>
      <trkpt lat="46.80488" lon="5.64491">
        <ele>403.6</ele>
        <time>2020-10-25T09:14:50Z</time>
      </trkpt>
      <trkpt lat="46.80492" lon="5.64488">
        <ele>402.1</ele>
        <time>2020-10-25T09:14:57Z</time>
      </trkpt>
      <trkpt lat="46.80497" lon="5.64486">
        <ele>400.8</ele>
        <time>2020-10-25T09:15:04Z</time>
      </trkpt>
      <trkpt lat="46.80502" lon="5.64488">
        <ele>401.3</ele>
        <time>2020-10-25T09:15:09Z</time>
      </trkpt>
      <trkpt lat="46.80506" lon="5.6449">
        <ele>403.6</ele>
        <time>2020-10-25T09:15:18Z</time>
      </trkpt>
      <trkpt lat="46.80511" lon="5.64493">
        <ele>404.7</ele>
        <time>2020-10-25T09:15:25Z</time>
      </trkpt>
      <trkpt lat="46.80514" lon="5.64497">
        <ele>405.3</ele>
        <time>2020-10-25T09:15:30Z</time>
      </trkpt>
      <trkpt lat="46.80519" lon="5.64498">
        <ele>406</ele>
        <time>2020-10-25T09:15:35Z</time>
      </trkpt>
      <trkpt lat="46.80524" lon="5.645">
        <ele>406.9</ele>
        <time>2020-10-25T09:15:41Z</time>
      </trkpt>
      <trkpt lat="46.80528" lon="5.64503">
        <ele>407.7</ele>
        <time>2020-10-25T09:15:48Z</time>
      </trkpt>
      <trkpt lat="46.80533" lon="5.64505">
        <ele>408.9</ele>
        <time>2020-10-25T09:15:55Z</time>
      </trkpt>
      <trkpt lat="46.80538" lon="5.64504">
        <ele>409.9</ele>
        <time>2020-10-25T09:16:02Z</time>
      </trkpt>
      <trkpt lat="46.80539" lon="5.6451">
        <ele>410.2</ele>
        <time>2020-10-25T09:16:08Z</time>
      </trkpt>
      <trkpt lat="46.80543" lon="5.64515">
        <ele>410.8</ele>
        <time>2020-10-25T09:16:14Z</time>
      </trkpt>
      <trkpt lat="46.80548" lon="5.64514">
        <ele>410.9</ele>
        <time>2020-10-25T09:16:19Z</time>
      </trkpt>
      <trkpt lat="46.80553" lon="5.64517">
        <ele>410.7</ele>
        <time>2020-10-25T09:16:24Z</time>
      </trkpt>
      <trkpt lat="46.80556" lon="5.64521">
        <ele>410.4</ele>
        <time>2020-10-25T09:16:28Z</time>
      </trkpt>
      <trkpt lat="46.80561" lon="5.64522">
        <ele>409.7</ele>
        <time>2020-10-25T09:16:33Z</time>
      </trkpt>
      <trkpt lat="46.80565" lon="5.64524">
        <ele>407.7</ele>
        <time>2020-10-25T09:16:39Z</time>
      </trkpt>
      <trkpt lat="46.80567" lon="5.64531">
        <ele>406</ele>
        <time>2020-10-25T09:16:45Z</time>
      </trkpt>
      <trkpt lat="46.80571" lon="5.64533">
        <ele>403.6</ele>
        <time>2020-10-25T09:16:53Z</time>
      </trkpt>
      <trkpt lat="46.80576" lon="5.64537">
        <ele>401.6</ele>
        <time>2020-10-25T09:17:00Z</time>
      </trkpt>
      <trkpt lat="46.80581" lon="5.64539">
        <ele>399.8</ele>
        <time>2020-10-25T09:17:07Z</time>
      </trkpt>
      <trkpt lat="46.80585" lon="5.64539">
        <ele>398.2</ele>
        <time>2020-10-25T09:17:15Z</time>
      </trkpt>
      <trkpt lat="46.8059" lon="5.64539">
        <ele>397</ele>
        <time>2020-10-25T09:17:17Z</time>
      </trkpt>
      <trkpt lat="46.80595" lon="5.64538">
        <ele>395.1</ele>
        <time>2020-10-25T09:17:21Z</time>
      </trkpt>
      <trkpt lat="46.80599" lon="5.64535">
        <ele>393.2</ele>
        <time>2020-10-25T09:17:28Z</time>
      </trkpt>
      <trkpt lat="46.80603" lon="5.64536">
        <ele>391.8</ele>
        <time>2020-10-25T09:17:35Z</time>
      </trkpt>
      <trkpt lat="46.80608" lon="5.64538">
        <ele>390.7</ele>
        <time>2020-10-25T09:17:42Z</time>
      </trkpt>
      <trkpt lat="46.80613" lon="5.64535">
        <ele>389.9</ele>
        <time>2020-10-25T09:17:49Z</time>
      </trkpt>
      <trkpt lat="46.80616" lon="5.64531">
        <ele>389</ele>
        <time>2020-10-25T09:17:57Z</time>
      </trkpt>
      <trkpt lat="46.8062" lon="5.64526">
        <ele>388.4</ele>
        <time>2020-10-25T09:18:03Z</time>
      </trkpt>
      <trkpt lat="46.80625" lon="5.64526">
        <ele>387.3</ele>
        <time>2020-10-25T09:18:11Z</time>
      </trkpt>
      <trkpt lat="46.8063" lon="5.64528">
        <ele>386.5</ele>
        <time>2020-10-25T09:18:18Z</time>
      </trkpt>
      <trkpt lat="46.80635" lon="5.64529">
        <ele>385.1</ele>
        <time>2020-10-25T09:18:30Z</time>
      </trkpt>
      <trkpt lat="46.80639" lon="5.64533">
        <ele>384.4</ele>
        <time>2020-10-25T09:18:37Z</time>
      </trkpt>
      <trkpt lat="46.80644" lon="5.64532">
        <ele>383.9</ele>
        <time>2020-10-25T09:18:43Z</time>
      </trkpt>
      <trkpt lat="46.80648" lon="5.64533">
        <ele>383.4</ele>
        <time>2020-10-25T09:18:49Z</time>
      </trkpt>
      <trkpt lat="46.80653" lon="5.64531">
        <ele>382.8</ele>
        <time>2020-10-25T09:18:55Z</time>
      </trkpt>
      <trkpt lat="46.80658" lon="5.6453">
        <ele>381.7</ele>
        <time>2020-10-25T09:19:02Z</time>
      </trkpt>
      <trkpt lat="46.80661" lon="5.64537">
        <ele>380.8</ele>
        <time>2020-10-25T09:19:07Z</time>
      </trkpt>
      <trkpt lat="46.80662" lon="5.64543">
        <ele>380.2</ele>
        <time>2020-10-25T09:19:14Z</time>
      </trkpt>
      <trkpt lat="46.80663" lon="5.6455">
        <ele>379.6</ele>
        <time>2020-10-25T09:19:21Z</time>
      </trkpt>
      <trkpt lat="46.80662" lon="5.64558">
        <ele>379.1</ele>
        <time>2020-10-25T09:19:26Z</time>
      </trkpt>
      <trkpt lat="46.80661" lon="5.64565">
        <ele>378.6</ele>
        <time>2020-10-25T09:19:32Z</time>
      </trkpt>
      <trkpt lat="46.80666" lon="5.64566">
        <ele>378.2</ele>
        <time>2020-10-25T09:19:44Z</time>
      </trkpt>
      <trkpt lat="46.8067" lon="5.64562">
        <ele>377.6</ele>
        <time>2020-10-25T09:19:50Z</time>
      </trkpt>
      <trkpt lat="46.80674" lon="5.64561">
        <ele>376.2</ele>
        <time>2020-10-25T09:20:10Z</time>
      </trkpt>
      <trkpt lat="46.80678" lon="5.64557">
        <ele>376.7</ele>
        <time>2020-10-25T09:20:16Z</time>
      </trkpt>
      <trkpt lat="46.8068" lon="5.64549">
        <ele>377.3</ele>
        <time>2020-10-25T09:20:22Z</time>
      </trkpt>
      <trkpt lat="46.80682" lon="5.64543">
        <ele>377.7</ele>
        <time>2020-10-25T09:20:27Z</time>
      </trkpt>
      <trkpt lat="46.80683" lon="5.64536">
        <ele>377.7</ele>
        <time>2020-10-25T09:20:32Z</time>
      </trkpt>
      <trkpt lat="46.80686" lon="5.64531">
        <ele>377.9</ele>
        <time>2020-10-25T09:20:42Z</time>
      </trkpt>
      <trkpt lat="46.80688" lon="5.64525">
        <ele>378.1</ele>
        <time>2020-10-25T09:20:49Z</time>
      </trkpt>
      <trkpt lat="46.80693" lon="5.64527">
        <ele>378.5</ele>
        <time>2020-10-25T09:21:38Z</time>
      </trkpt>
      <trkpt lat="46.80697" lon="5.64527">
        <ele>379.9</ele>
        <time>2020-10-25T09:21:46Z</time>
      </trkpt>
      <trkpt lat="46.807" lon="5.64533">
        <ele>380.7</ele>
        <time>2020-10-25T09:22:17Z</time>
      </trkpt>
      <trkpt lat="46.80702" lon="5.64538">
        <ele>380.7</ele>
        <time>2020-10-25T09:22:25Z</time>
      </trkpt>
      <trkpt lat="46.80704" lon="5.64544">
        <ele>381</ele>
        <time>2020-10-25T09:22:31Z</time>
      </trkpt>
      <trkpt lat="46.80708" lon="5.64547">
        <ele>381.3</ele>
        <time>2020-10-25T09:22:38Z</time>
      </trkpt>
      <trkpt lat="46.80711" lon="5.64552">
        <ele>381.1</ele>
        <time>2020-10-25T09:22:48Z</time>
      </trkpt>
      <trkpt lat="46.80711" lon="5.64559">
        <ele>381.3</ele>
        <time>2020-10-25T09:22:58Z</time>
      </trkpt>
      <trkpt lat="46.80713" lon="5.64567">
        <ele>382.7</ele>
        <time>2020-10-25T09:23:04Z</time>
      </trkpt>
      <trkpt lat="46.80716" lon="5.64572">
        <ele>385.2</ele>
        <time>2020-10-25T09:23:10Z</time>
      </trkpt>
      <trkpt lat="46.80721" lon="5.64575">
        <ele>387.3</ele>
        <time>2020-10-25T09:23:15Z</time>
      </trkpt>
      <trkpt lat="46.80725" lon="5.64578">
        <ele>389.3</ele>
        <time>2020-10-25T09:23:20Z</time>
      </trkpt>
      <trkpt lat="46.8073" lon="5.64576">
        <ele>390.9</ele>
        <time>2020-10-25T09:23:25Z</time>
      </trkpt>
      <trkpt lat="46.80735" lon="5.64576">
        <ele>393.1</ele>
        <time>2020-10-25T09:23:32Z</time>
      </trkpt>
      <trkpt lat="46.80739" lon="5.64578">
        <ele>396</ele>
        <time>2020-10-25T09:23:39Z</time>
      </trkpt>
      <trkpt lat="46.80744" lon="5.64582">
        <ele>398.3</ele>
        <time>2020-10-25T09:23:44Z</time>
      </trkpt>
      <trkpt lat="46.80748" lon="5.64585">
        <ele>403.2</ele>
        <time>2020-10-25T09:24:01Z</time>
      </trkpt>
      <trkpt lat="46.80751" lon="5.6458">
        <ele>399.4</ele>
        <time>2020-10-25T09:24:46Z</time>
      </trkpt>
      <trkpt lat="46.80754" lon="5.64573">
        <ele>397.6</ele>
        <time>2020-10-25T09:24:52Z</time>
      </trkpt>
      <trkpt lat="46.80755" lon="5.64567">
        <ele>391.8</ele>
        <time>2020-10-25T09:25:08Z</time>
      </trkpt>
      <trkpt lat="46.80756" lon="5.6456">
        <ele>388.3</ele>
        <time>2020-10-25T09:25:11Z</time>
      </trkpt>
      <trkpt lat="46.80759" lon="5.64565">
        <ele>383.1</ele>
        <time>2020-10-25T09:25:29Z</time>
      </trkpt>
      <trkpt lat="46.80762" lon="5.6457">
        <ele>384</ele>
        <time>2020-10-25T09:25:35Z</time>
      </trkpt>
      <trkpt lat="46.80765" lon="5.64576">
        <ele>385</ele>
        <time>2020-10-25T09:25:41Z</time>
      </trkpt>
      <trkpt lat="46.80768" lon="5.64583">
        <ele>387.2</ele>
        <time>2020-10-25T09:25:48Z</time>
      </trkpt>
      <trkpt lat="46.8077" lon="5.64589">
        <ele>389.2</ele>
        <time>2020-10-25T09:25:54Z</time>
      </trkpt>
      <trkpt lat="46.80773" lon="5.64594">
        <ele>390.9</ele>
        <time>2020-10-25T09:25:59Z</time>
      </trkpt>
      <trkpt lat="46.80775" lon="5.64601">
        <ele>393.2</ele>
        <time>2020-10-25T09:26:35Z</time>
      </trkpt>
      <trkpt lat="46.80776" lon="5.64608">
        <ele>394.2</ele>
        <time>2020-10-25T09:26:40Z</time>
      </trkpt>
      <trkpt lat="46.8078" lon="5.64612">
        <ele>397.3</ele>
        <time>2020-10-25T09:29:26Z</time>
      </trkpt>
      <trkpt lat="46.80782" lon="5.64619">
        <ele>397.5</ele>
        <time>2020-10-25T09:29:32Z</time>
      </trkpt>
      <trkpt lat="46.80786" lon="5.64623">
        <ele>397.7</ele>
        <time>2020-10-25T09:29:40Z</time>
      </trkpt>
      <trkpt lat="46.80791" lon="5.64624">
        <ele>397.6</ele>
        <time>2020-10-25T09:29:48Z</time>
      </trkpt>
      <trkpt lat="46.80795" lon="5.64622">
        <ele>397</ele>
        <time>2020-10-25T09:29:53Z</time>
      </trkpt>
      <trkpt lat="46.80799" lon="5.64626">
        <ele>395.9</ele>
        <time>2020-10-25T09:30:01Z</time>
      </trkpt>
      <trkpt lat="46.80803" lon="5.6463">
        <ele>395.5</ele>
        <time>2020-10-25T09:30:05Z</time>
      </trkpt>
      <trkpt lat="46.80807" lon="5.64635">
        <ele>395.3</ele>
        <time>2020-10-25T09:30:09Z</time>
      </trkpt>
      <trkpt lat="46.80811" lon="5.64639">
        <ele>394.5</ele>
        <time>2020-10-25T09:30:15Z</time>
      </trkpt>
      <trkpt lat="46.80815" lon="5.64642">
        <ele>393.7</ele>
        <time>2020-10-25T09:30:20Z</time>
      </trkpt>
      <trkpt lat="46.80819" lon="5.64644">
        <ele>392.6</ele>
        <time>2020-10-25T09:30:26Z</time>
      </trkpt>
      <trkpt lat="46.80823" lon="5.64648">
        <ele>391.7</ele>
        <time>2020-10-25T09:30:31Z</time>
      </trkpt>
      <trkpt lat="46.80826" lon="5.64653">
        <ele>390.8</ele>
        <time>2020-10-25T09:30:36Z</time>
      </trkpt>
      <trkpt lat="46.80831" lon="5.64657">
        <ele>389.5</ele>
        <time>2020-10-25T09:30:43Z</time>
      </trkpt>
      <trkpt lat="46.80835" lon="5.64662">
        <ele>388.7</ele>
        <time>2020-10-25T09:30:50Z</time>
      </trkpt>
      <trkpt lat="46.80839" lon="5.64661">
        <ele>388.1</ele>
        <time>2020-10-25T09:30:58Z</time>
      </trkpt>
      <trkpt lat="46.80844" lon="5.64662">
        <ele>387.7</ele>
        <time>2020-10-25T09:31:04Z</time>
      </trkpt>
      <trkpt lat="46.80849" lon="5.64661">
        <ele>387.3</ele>
        <time>2020-10-25T09:31:11Z</time>
      </trkpt>
      <trkpt lat="46.80853" lon="5.64659">
        <ele>386.6</ele>
        <time>2020-10-25T09:31:19Z</time>
      </trkpt>
      <trkpt lat="46.80858" lon="5.64659">
        <ele>385.8</ele>
        <time>2020-10-25T09:31:30Z</time>
      </trkpt>
      <trkpt lat="46.80862" lon="5.64662">
        <ele>385.1</ele>
        <time>2020-10-25T09:31:40Z</time>
      </trkpt>
      <trkpt lat="46.80867" lon="5.64663">
        <ele>384.6</ele>
        <time>2020-10-25T09:31:46Z</time>
      </trkpt>
      <trkpt lat="46.80876" lon="5.64661">
        <ele>384.4</ele>
        <time>2020-10-25T09:31:56Z</time>
      </trkpt>
      <trkpt lat="46.80882" lon="5.64661">
        <ele>384.9</ele>
        <time>2020-10-25T09:31:59Z</time>
      </trkpt>
      <trkpt lat="46.80887" lon="5.64663">
        <ele>385</ele>
        <time>2020-10-25T09:32:05Z</time>
      </trkpt>
      <trkpt lat="46.80891" lon="5.64662">
        <ele>384.2</ele>
        <time>2020-10-25T09:32:14Z</time>
      </trkpt>
      <trkpt lat="46.80896" lon="5.6466">
        <ele>383.1</ele>
        <time>2020-10-25T09:32:20Z</time>
      </trkpt>
      <trkpt lat="46.809" lon="5.64657">
        <ele>382</ele>
        <time>2020-10-25T09:32:25Z</time>
      </trkpt>
      <trkpt lat="46.80905" lon="5.64659">
        <ele>380.6</ele>
        <time>2020-10-25T09:32:32Z</time>
      </trkpt>
      <trkpt lat="46.80909" lon="5.64656">
        <ele>379.3</ele>
        <time>2020-10-25T09:32:40Z</time>
      </trkpt>
      <trkpt lat="46.80915" lon="5.64653">
        <ele>377.6</ele>
        <time>2020-10-25T09:32:46Z</time>
      </trkpt>
      <trkpt lat="46.80919" lon="5.64652">
        <ele>376.6</ele>
        <time>2020-10-25T09:32:50Z</time>
      </trkpt>
      <trkpt lat="46.80925" lon="5.64651">
        <ele>375.5</ele>
        <time>2020-10-25T09:32:57Z</time>
      </trkpt>
      <trkpt lat="46.80929" lon="5.64652">
        <ele>374.8</ele>
        <time>2020-10-25T09:33:02Z</time>
      </trkpt>
      <trkpt lat="46.80933" lon="5.6465">
        <ele>373.8</ele>
        <time>2020-10-25T09:33:08Z</time>
      </trkpt>
      <trkpt lat="46.80938" lon="5.64651">
        <ele>373.6</ele>
        <time>2020-10-25T09:33:13Z</time>
      </trkpt>
      <trkpt lat="46.80942" lon="5.64653">
        <ele>373.9</ele>
        <time>2020-10-25T09:33:17Z</time>
      </trkpt>
      <trkpt lat="46.80947" lon="5.64652">
        <ele>374</ele>
        <time>2020-10-25T09:33:23Z</time>
      </trkpt>
      <trkpt lat="46.80952" lon="5.64653">
        <ele>373.6</ele>
        <time>2020-10-25T09:33:29Z</time>
      </trkpt>
      <trkpt lat="46.80958" lon="5.64653">
        <ele>373.4</ele>
        <time>2020-10-25T09:33:34Z</time>
      </trkpt>
      <trkpt lat="46.80963" lon="5.64652">
        <ele>373.3</ele>
        <time>2020-10-25T09:33:39Z</time>
      </trkpt>
      <trkpt lat="46.80968" lon="5.6465">
        <ele>373.5</ele>
        <time>2020-10-25T09:33:43Z</time>
      </trkpt>
      <trkpt lat="46.80972" lon="5.64649">
        <ele>373.6</ele>
        <time>2020-10-25T09:33:47Z</time>
      </trkpt>
      <trkpt lat="46.80977" lon="5.64646">
        <ele>373.6</ele>
        <time>2020-10-25T09:33:52Z</time>
      </trkpt>
      <trkpt lat="46.8098" lon="5.64641">
        <ele>373.3</ele>
        <time>2020-10-25T09:33:58Z</time>
      </trkpt>
      <trkpt lat="46.80983" lon="5.64634">
        <ele>373.2</ele>
        <time>2020-10-25T09:34:03Z</time>
      </trkpt>
      <trkpt lat="46.80984" lon="5.64626">
        <ele>373.1</ele>
        <time>2020-10-25T09:34:08Z</time>
      </trkpt>
      <trkpt lat="46.80987" lon="5.64621">
        <ele>373.5</ele>
        <time>2020-10-25T09:34:14Z</time>
      </trkpt>
      <trkpt lat="46.80989" lon="5.64614">
        <ele>374.4</ele>
        <time>2020-10-25T09:34:20Z</time>
      </trkpt>
      <trkpt lat="46.80992" lon="5.64609">
        <ele>375.3</ele>
        <time>2020-10-25T09:34:26Z</time>
      </trkpt>
      <trkpt lat="46.80995" lon="5.64604">
        <ele>382.6</ele>
        <time>2020-10-25T09:34:32Z</time>
      </trkpt>
      <trkpt lat="46.81" lon="5.64601">
        <ele>390.3</ele>
        <time>2020-10-25T09:34:43Z</time>
      </trkpt>
      <trkpt lat="46.81003" lon="5.64597">
        <ele>391.1</ele>
        <time>2020-10-25T09:34:50Z</time>
      </trkpt>
      <trkpt lat="46.81004" lon="5.64589">
        <ele>391.6</ele>
        <time>2020-10-25T09:35:14Z</time>
      </trkpt>
      <trkpt lat="46.81004" lon="5.64582">
        <ele>390.6</ele>
        <time>2020-10-25T09:35:19Z</time>
      </trkpt>
      <trkpt lat="46.81009" lon="5.64582">
        <ele>388.8</ele>
        <time>2020-10-25T09:35:28Z</time>
      </trkpt>
      <trkpt lat="46.81014" lon="5.64582">
        <ele>386.6</ele>
        <time>2020-10-25T09:35:37Z</time>
      </trkpt>
      <trkpt lat="46.81019" lon="5.64578">
        <ele>384.9</ele>
        <time>2020-10-25T09:35:44Z</time>
      </trkpt>
      <trkpt lat="46.81023" lon="5.64575">
        <ele>383.3</ele>
        <time>2020-10-25T09:35:52Z</time>
      </trkpt>
      <trkpt lat="46.81031" lon="5.64581">
        <ele>387.9</ele>
        <time>2020-10-25T09:35:54Z</time>
      </trkpt>
      <trkpt lat="46.81036" lon="5.64585">
        <ele>390</ele>
        <time>2020-10-25T09:35:56Z</time>
      </trkpt>
      <trkpt lat="46.8104" lon="5.64587">
        <ele>394.4</ele>
        <time>2020-10-25T09:36:00Z</time>
      </trkpt>
      <trkpt lat="46.81044" lon="5.64584">
        <ele>397.8</ele>
        <time>2020-10-25T09:36:06Z</time>
      </trkpt>
      <trkpt lat="46.81049" lon="5.64582">
        <ele>399.1</ele>
        <time>2020-10-25T09:36:12Z</time>
      </trkpt>
      <trkpt lat="46.81054" lon="5.64583">
        <ele>399.2</ele>
        <time>2020-10-25T09:36:18Z</time>
      </trkpt>
      <trkpt lat="46.81059" lon="5.64581">
        <ele>398.9</ele>
        <time>2020-10-25T09:36:23Z</time>
      </trkpt>
      <trkpt lat="46.81064" lon="5.64579">
        <ele>398.2</ele>
        <time>2020-10-25T09:36:30Z</time>
      </trkpt>
      <trkpt lat="46.81069" lon="5.64579">
        <ele>397</ele>
        <time>2020-10-25T09:36:36Z</time>
      </trkpt>
      <trkpt lat="46.81073" lon="5.64576">
        <ele>396.2</ele>
        <time>2020-10-25T09:36:42Z</time>
      </trkpt>
      <trkpt lat="46.81078" lon="5.64574">
        <ele>395.2</ele>
        <time>2020-10-25T09:36:52Z</time>
      </trkpt>
      <trkpt lat="46.81083" lon="5.64569">
        <ele>394.9</ele>
        <time>2020-10-25T09:36:54Z</time>
      </trkpt>
      <trkpt lat="46.81087" lon="5.64565">
        <ele>394.5</ele>
        <time>2020-10-25T09:36:57Z</time>
      </trkpt>
      <trkpt lat="46.8109" lon="5.6456">
        <ele>390.2</ele>
        <time>2020-10-25T09:37:34Z</time>
      </trkpt>
      <trkpt lat="46.81093" lon="5.64555">
        <ele>389.4</ele>
        <time>2020-10-25T09:37:39Z</time>
      </trkpt>
      <trkpt lat="46.81096" lon="5.64551">
        <ele>388.9</ele>
        <time>2020-10-25T09:37:45Z</time>
      </trkpt>
      <trkpt lat="46.81101" lon="5.64548">
        <ele>388.9</ele>
        <time>2020-10-25T09:37:53Z</time>
      </trkpt>
      <trkpt lat="46.81105" lon="5.64546">
        <ele>388</ele>
        <time>2020-10-25T09:38:01Z</time>
      </trkpt>
      <trkpt lat="46.8111" lon="5.64545">
        <ele>387.5</ele>
        <time>2020-10-25T09:38:06Z</time>
      </trkpt>
      <trkpt lat="46.81115" lon="5.64547">
        <ele>386.9</ele>
        <time>2020-10-25T09:38:12Z</time>
      </trkpt>
      <trkpt lat="46.8112" lon="5.64549">
        <ele>386.3</ele>
        <time>2020-10-25T09:38:18Z</time>
      </trkpt>
      <trkpt lat="46.81125" lon="5.64549">
        <ele>386.1</ele>
        <time>2020-10-25T09:38:24Z</time>
      </trkpt>
      <trkpt lat="46.8113" lon="5.64549">
        <ele>386</ele>
        <time>2020-10-25T09:38:29Z</time>
      </trkpt>
      <trkpt lat="46.81135" lon="5.64548">
        <ele>385.7</ele>
        <time>2020-10-25T09:38:35Z</time>
      </trkpt>
      <trkpt lat="46.8114" lon="5.64546">
        <ele>385.1</ele>
        <time>2020-10-25T09:38:41Z</time>
      </trkpt>
      <trkpt lat="46.81144" lon="5.64545">
        <ele>384.5</ele>
        <time>2020-10-25T09:38:46Z</time>
      </trkpt>
      <trkpt lat="46.81149" lon="5.64543">
        <ele>383.9</ele>
        <time>2020-10-25T09:38:51Z</time>
      </trkpt>
      <trkpt lat="46.81153" lon="5.6454">
        <ele>383</ele>
        <time>2020-10-25T09:38:58Z</time>
      </trkpt>
      <trkpt lat="46.81158" lon="5.6454">
        <ele>382.3</ele>
        <time>2020-10-25T09:39:04Z</time>
      </trkpt>
      <trkpt lat="46.81163" lon="5.64538">
        <ele>381.7</ele>
        <time>2020-10-25T09:39:09Z</time>
      </trkpt>
      <trkpt lat="46.81167" lon="5.64535">
        <ele>380.8</ele>
        <time>2020-10-25T09:39:14Z</time>
      </trkpt>
      <trkpt lat="46.81172" lon="5.64533">
        <ele>379.9</ele>
        <time>2020-10-25T09:39:20Z</time>
      </trkpt>
      <trkpt lat="46.81177" lon="5.64532">
        <ele>379.3</ele>
        <time>2020-10-25T09:39:25Z</time>
      </trkpt>
      <trkpt lat="46.81182" lon="5.6453">
        <ele>378.7</ele>
        <time>2020-10-25T09:39:31Z</time>
      </trkpt>
      <trkpt lat="46.81187" lon="5.6453">
        <ele>378</ele>
        <time>2020-10-25T09:39:36Z</time>
      </trkpt>
      <trkpt lat="46.81192" lon="5.64531">
        <ele>377.6</ele>
        <time>2020-10-25T09:39:41Z</time>
      </trkpt>
      <trkpt lat="46.81199" lon="5.6453">
        <ele>377.6</ele>
        <time>2020-10-25T09:39:45Z</time>
      </trkpt>
      <trkpt lat="46.81205" lon="5.64529">
        <ele>377.5</ele>
        <time>2020-10-25T09:39:48Z</time>
      </trkpt>
      <trkpt lat="46.81209" lon="5.64529">
        <ele>377.5</ele>
        <time>2020-10-25T09:39:53Z</time>
      </trkpt>
      <trkpt lat="46.81214" lon="5.6453">
        <ele>377.2</ele>
        <time>2020-10-25T09:39:59Z</time>
      </trkpt>
      <trkpt lat="46.81219" lon="5.6453">
        <ele>376.6</ele>
        <time>2020-10-25T09:40:06Z</time>
      </trkpt>
      <trkpt lat="46.81224" lon="5.64529">
        <ele>376</ele>
        <time>2020-10-25T09:40:11Z</time>
      </trkpt>
      <trkpt lat="46.81227" lon="5.64524">
        <ele>375.3</ele>
        <time>2020-10-25T09:40:17Z</time>
      </trkpt>
      <trkpt lat="46.81231" lon="5.6452">
        <ele>374.6</ele>
        <time>2020-10-25T09:40:22Z</time>
      </trkpt>
      <trkpt lat="46.81236" lon="5.64517">
        <ele>374</ele>
        <time>2020-10-25T09:40:27Z</time>
      </trkpt>
      <trkpt lat="46.8124" lon="5.64514">
        <ele>373.3</ele>
        <time>2020-10-25T09:40:32Z</time>
      </trkpt>
      <trkpt lat="46.81244" lon="5.6451">
        <ele>372.7</ele>
        <time>2020-10-25T09:40:37Z</time>
      </trkpt>
      <trkpt lat="46.81249" lon="5.64505">
        <ele>371.9</ele>
        <time>2020-10-25T09:40:43Z</time>
      </trkpt>
      <trkpt lat="46.81253" lon="5.645">
        <ele>371.1</ele>
        <time>2020-10-25T09:40:49Z</time>
      </trkpt>
      <trkpt lat="46.81256" lon="5.64496">
        <ele>370.5</ele>
        <time>2020-10-25T09:40:54Z</time>
      </trkpt>
      <trkpt lat="46.8126" lon="5.64493">
        <ele>370.1</ele>
        <time>2020-10-25T09:41:00Z</time>
      </trkpt>
      <trkpt lat="46.81265" lon="5.64491">
        <ele>369.9</ele>
        <time>2020-10-25T09:41:04Z</time>
      </trkpt>
      <trkpt lat="46.8127" lon="5.6449">
        <ele>369.4</ele>
        <time>2020-10-25T09:41:09Z</time>
      </trkpt>
      <trkpt lat="46.81274" lon="5.64491">
        <ele>369.3</ele>
        <time>2020-10-25T09:41:14Z</time>
      </trkpt>
      <trkpt lat="46.8128" lon="5.64491">
        <ele>369</ele>
        <time>2020-10-25T09:41:20Z</time>
      </trkpt>
      <trkpt lat="46.81285" lon="5.64491">
        <ele>368.7</ele>
        <time>2020-10-25T09:41:25Z</time>
      </trkpt>
      <trkpt lat="46.8129" lon="5.64492">
        <ele>368.8</ele>
        <time>2020-10-25T09:41:39Z</time>
      </trkpt>
      <trkpt lat="46.81295" lon="5.64492">
        <ele>369.6</ele>
        <time>2020-10-25T09:41:45Z</time>
      </trkpt>
      <trkpt lat="46.81295" lon="5.64499">
        <ele>370.1</ele>
        <time>2020-10-25T09:41:51Z</time>
      </trkpt>
      <trkpt lat="46.81295" lon="5.64507">
        <ele>370.2</ele>
        <time>2020-10-25T09:41:56Z</time>
      </trkpt>
      <trkpt lat="46.81295" lon="5.64514">
        <ele>370.3</ele>
        <time>2020-10-25T09:42:00Z</time>
      </trkpt>
      <trkpt lat="46.81295" lon="5.64521">
        <ele>370.3</ele>
        <time>2020-10-25T09:42:04Z</time>
      </trkpt>
      <trkpt lat="46.81294" lon="5.64528">
        <ele>370.1</ele>
        <time>2020-10-25T09:42:08Z</time>
      </trkpt>
      <trkpt lat="46.81294" lon="5.64535">
        <ele>369.4</ele>
        <time>2020-10-25T09:42:14Z</time>
      </trkpt>
      <trkpt lat="46.81295" lon="5.64542">
        <ele>368.4</ele>
        <time>2020-10-25T09:42:22Z</time>
      </trkpt>
      <trkpt lat="46.81298" lon="5.64548">
        <ele>367.7</ele>
        <time>2020-10-25T09:42:30Z</time>
      </trkpt>
      <trkpt lat="46.81301" lon="5.64553">
        <ele>367</ele>
        <time>2020-10-25T09:42:37Z</time>
      </trkpt>
      <trkpt lat="46.81303" lon="5.64559">
        <ele>366.6</ele>
        <time>2020-10-25T09:42:43Z</time>
      </trkpt>
      <trkpt lat="46.81307" lon="5.64563">
        <ele>366.4</ele>
        <time>2020-10-25T09:42:48Z</time>
      </trkpt>
      <trkpt lat="46.81309" lon="5.64569">
        <ele>366.2</ele>
        <time>2020-10-25T09:42:52Z</time>
      </trkpt>
      <trkpt lat="46.81311" lon="5.64576">
        <ele>365.9</ele>
        <time>2020-10-25T09:42:57Z</time>
      </trkpt>
      <trkpt lat="46.81314" lon="5.64582">
        <ele>365.8</ele>
        <time>2020-10-25T09:43:03Z</time>
      </trkpt>
      <trkpt lat="46.81318" lon="5.64587">
        <ele>365.7</ele>
        <time>2020-10-25T09:43:09Z</time>
      </trkpt>
      <trkpt lat="46.81322" lon="5.6459">
        <ele>365.4</ele>
        <time>2020-10-25T09:43:14Z</time>
      </trkpt>
      <trkpt lat="46.81327" lon="5.6459">
        <ele>365</ele>
        <time>2020-10-25T09:43:21Z</time>
      </trkpt>
      <trkpt lat="46.81332" lon="5.64586">
        <ele>364.4</ele>
        <time>2020-10-25T09:43:27Z</time>
      </trkpt>
      <trkpt lat="46.81336" lon="5.64582">
        <ele>363.8</ele>
        <time>2020-10-25T09:43:33Z</time>
      </trkpt>
      <trkpt lat="46.81341" lon="5.6458">
        <ele>363.2</ele>
        <time>2020-10-25T09:43:38Z</time>
      </trkpt>
      <trkpt lat="46.81345" lon="5.64575">
        <ele>362.6</ele>
        <time>2020-10-25T09:43:44Z</time>
      </trkpt>
      <trkpt lat="46.81349" lon="5.64571">
        <ele>362.1</ele>
        <time>2020-10-25T09:43:50Z</time>
      </trkpt>
      <trkpt lat="46.81354" lon="5.64569">
        <ele>361.9</ele>
        <time>2020-10-25T09:43:56Z</time>
      </trkpt>
      <trkpt lat="46.81359" lon="5.64566">
        <ele>361.7</ele>
        <time>2020-10-25T09:44:01Z</time>
      </trkpt>
      <trkpt lat="46.81363" lon="5.64563">
        <ele>361.7</ele>
        <time>2020-10-25T09:44:07Z</time>
      </trkpt>
      <trkpt lat="46.81367" lon="5.6456">
        <ele>361</ele>
        <time>2020-10-25T09:44:23Z</time>
      </trkpt>
      <trkpt lat="46.81371" lon="5.64555">
        <ele>357.6</ele>
        <time>2020-10-25T09:44:57Z</time>
      </trkpt>
      <trkpt lat="46.81372" lon="5.64549">
        <ele>356.2</ele>
        <time>2020-10-25T09:45:09Z</time>
      </trkpt>
      <trkpt lat="46.81376" lon="5.64543">
        <ele>355.6</ele>
        <time>2020-10-25T09:45:16Z</time>
      </trkpt>
      <trkpt lat="46.81379" lon="5.64537">
        <ele>355</ele>
        <time>2020-10-25T09:45:20Z</time>
      </trkpt>
      <trkpt lat="46.81384" lon="5.64533">
        <ele>353.1</ele>
        <time>2020-10-25T09:45:26Z</time>
      </trkpt>
      <trkpt lat="46.81387" lon="5.64528">
        <ele>349.1</ele>
        <time>2020-10-25T09:45:35Z</time>
      </trkpt>
      <trkpt lat="46.81392" lon="5.64524">
        <ele>346.9</ele>
        <time>2020-10-25T09:45:41Z</time>
      </trkpt>
      <trkpt lat="46.81396" lon="5.64521">
        <ele>346</ele>
        <time>2020-10-25T09:45:46Z</time>
      </trkpt>
      <trkpt lat="46.814" lon="5.64518">
        <ele>345.1</ele>
        <time>2020-10-25T09:45:54Z</time>
      </trkpt>
      <trkpt lat="46.81409" lon="5.64508">
        <ele>345.1</ele>
        <time>2020-10-25T09:46:03Z</time>
      </trkpt>
      <trkpt lat="46.81414" lon="5.64502">
        <ele>345.2</ele>
        <time>2020-10-25T09:46:05Z</time>
      </trkpt>
      <trkpt lat="46.81418" lon="5.64497">
        <ele>345.4</ele>
        <time>2020-10-25T09:46:08Z</time>
      </trkpt>
      <trkpt lat="46.81422" lon="5.64492">
        <ele>345.5</ele>
        <time>2020-10-25T09:46:14Z</time>
      </trkpt>
      <trkpt lat="46.81424" lon="5.64486">
        <ele>345.3</ele>
        <time>2020-10-25T09:46:23Z</time>
      </trkpt>
      <trkpt lat="46.81428" lon="5.64482">
        <ele>344.8</ele>
        <time>2020-10-25T09:46:29Z</time>
      </trkpt>
      <trkpt lat="46.81435" lon="5.64476">
        <ele>345.9</ele>
        <time>2020-10-25T09:46:32Z</time>
      </trkpt>
      <trkpt lat="46.81439" lon="5.64473">
        <ele>346.3</ele>
        <time>2020-10-25T09:46:34Z</time>
      </trkpt>
      <trkpt lat="46.81443" lon="5.64469">
        <ele>347.5</ele>
        <time>2020-10-25T09:46:39Z</time>
      </trkpt>
      <trkpt lat="46.81447" lon="5.64466">
        <ele>348.2</ele>
        <time>2020-10-25T09:46:47Z</time>
      </trkpt>
      <trkpt lat="46.81451" lon="5.64462">
        <ele>348.4</ele>
        <time>2020-10-25T09:46:52Z</time>
      </trkpt>
      <trkpt lat="46.81456" lon="5.64459">
        <ele>348.6</ele>
        <time>2020-10-25T09:46:59Z</time>
      </trkpt>
      <trkpt lat="46.8146" lon="5.64455">
        <ele>348.5</ele>
        <time>2020-10-25T09:47:05Z</time>
      </trkpt>
      <trkpt lat="46.81464" lon="5.64452">
        <ele>348.7</ele>
        <time>2020-10-25T09:47:09Z</time>
      </trkpt>
      <trkpt lat="46.81469" lon="5.64449">
        <ele>348.7</ele>
        <time>2020-10-25T09:47:13Z</time>
      </trkpt>
      <trkpt lat="46.81474" lon="5.64448">
        <ele>348.6</ele>
        <time>2020-10-25T09:47:18Z</time>
      </trkpt>
      <trkpt lat="46.81479" lon="5.64447">
        <ele>348.3</ele>
        <time>2020-10-25T09:47:24Z</time>
      </trkpt>
      <trkpt lat="46.81484" lon="5.64447">
        <ele>347.6</ele>
        <time>2020-10-25T09:47:32Z</time>
      </trkpt>
      <trkpt lat="46.81489" lon="5.64447">
        <ele>347.2</ele>
        <time>2020-10-25T09:47:38Z</time>
      </trkpt>
      <trkpt lat="46.81494" lon="5.64447">
        <ele>346.5</ele>
        <time>2020-10-25T09:47:44Z</time>
      </trkpt>
      <trkpt lat="46.81498" lon="5.64447">
        <ele>345.4</ele>
        <time>2020-10-25T09:47:51Z</time>
      </trkpt>
      <trkpt lat="46.81503" lon="5.64448">
        <ele>344.4</ele>
        <time>2020-10-25T09:47:57Z</time>
      </trkpt>
      <trkpt lat="46.81509" lon="5.64448">
        <ele>343.4</ele>
        <time>2020-10-25T09:48:03Z</time>
      </trkpt>
      <trkpt lat="46.81514" lon="5.64447">
        <ele>342.5</ele>
        <time>2020-10-25T09:48:08Z</time>
      </trkpt>
      <trkpt lat="46.81519" lon="5.64446">
        <ele>342</ele>
        <time>2020-10-25T09:48:12Z</time>
      </trkpt>
      <trkpt lat="46.81523" lon="5.64446">
        <ele>341.2</ele>
        <time>2020-10-25T09:48:17Z</time>
      </trkpt>
      <trkpt lat="46.81528" lon="5.64446">
        <ele>340.2</ele>
        <time>2020-10-25T09:48:24Z</time>
      </trkpt>
      <trkpt lat="46.81534" lon="5.64447">
        <ele>339.6</ele>
        <time>2020-10-25T09:48:30Z</time>
      </trkpt>
      <trkpt lat="46.81538" lon="5.64447">
        <ele>339.1</ele>
        <time>2020-10-25T09:48:34Z</time>
      </trkpt>
      <trkpt lat="46.81543" lon="5.64448">
        <ele>338.5</ele>
        <time>2020-10-25T09:48:38Z</time>
      </trkpt>
      <trkpt lat="46.81548" lon="5.64449">
        <ele>337.9</ele>
        <time>2020-10-25T09:48:42Z</time>
      </trkpt>
      <trkpt lat="46.81553" lon="5.6445">
        <ele>337.2</ele>
        <time>2020-10-25T09:48:46Z</time>
      </trkpt>
      <trkpt lat="46.81558" lon="5.64452">
        <ele>336.7</ele>
        <time>2020-10-25T09:48:50Z</time>
      </trkpt>
      <trkpt lat="46.81563" lon="5.64454">
        <ele>336.4</ele>
        <time>2020-10-25T09:48:54Z</time>
      </trkpt>
      <trkpt lat="46.81568" lon="5.64455">
        <ele>336.3</ele>
        <time>2020-10-25T09:48:59Z</time>
      </trkpt>
      <trkpt lat="46.81572" lon="5.64455">
        <ele>336.3</ele>
        <time>2020-10-25T09:49:08Z</time>
      </trkpt>
      <trkpt lat="46.81572" lon="5.64447">
        <ele>337</ele>
        <time>2020-10-25T09:49:41Z</time>
      </trkpt>
      <trkpt lat="46.81581" lon="5.64432">
        <ele>341.4</ele>
        <time>2020-10-25T09:49:45Z</time>
      </trkpt>
      <trkpt lat="46.81585" lon="5.64427">
        <ele>343.9</ele>
        <time>2020-10-25T09:49:47Z</time>
      </trkpt>
      <trkpt lat="46.81586" lon="5.64434">
        <ele>349.4</ele>
        <time>2020-10-25T09:49:53Z</time>
      </trkpt>
      <trkpt lat="46.81583" lon="5.64445">
        <ele>350.5</ele>
        <time>2020-10-25T09:50:13Z</time>
      </trkpt>
      <trkpt lat="46.8158" lon="5.64451">
        <ele>349.5</ele>
        <time>2020-10-25T09:50:18Z</time>
      </trkpt>
      <trkpt lat="46.81576" lon="5.64448">
        <ele>346.5</ele>
        <time>2020-10-25T09:50:46Z</time>
      </trkpt>
      <trkpt lat="46.81578" lon="5.64454">
        <ele>339.1</ele>
        <time>2020-10-25T09:51:37Z</time>
      </trkpt>
      <trkpt lat="46.81583" lon="5.64456">
        <ele>337</ele>
        <time>2020-10-25T09:51:45Z</time>
      </trkpt>
      <trkpt lat="46.81587" lon="5.64458">
        <ele>335.9</ele>
        <time>2020-10-25T09:51:50Z</time>
      </trkpt>
      <trkpt lat="46.81592" lon="5.64459">
        <ele>335.1</ele>
        <time>2020-10-25T09:51:54Z</time>
      </trkpt>
      <trkpt lat="46.81597" lon="5.6446">
        <ele>334.3</ele>
        <time>2020-10-25T09:51:59Z</time>
      </trkpt>
      <trkpt lat="46.81601" lon="5.6446">
        <ele>333</ele>
        <time>2020-10-25T09:52:05Z</time>
      </trkpt>
      <trkpt lat="46.81606" lon="5.6446">
        <ele>331.8</ele>
        <time>2020-10-25T09:52:10Z</time>
      </trkpt>
      <trkpt lat="46.81611" lon="5.64461">
        <ele>329.8</ele>
        <time>2020-10-25T09:52:17Z</time>
      </trkpt>
      <trkpt lat="46.81616" lon="5.64461">
        <ele>328.6</ele>
        <time>2020-10-25T09:52:22Z</time>
      </trkpt>
      <trkpt lat="46.81621" lon="5.64461">
        <ele>328.2</ele>
        <time>2020-10-25T09:52:27Z</time>
      </trkpt>
      <trkpt lat="46.81626" lon="5.6446">
        <ele>327.9</ele>
        <time>2020-10-25T09:52:32Z</time>
      </trkpt>
      <trkpt lat="46.8163" lon="5.64459">
        <ele>327.9</ele>
        <time>2020-10-25T09:52:37Z</time>
      </trkpt>
      <trkpt lat="46.81635" lon="5.64457">
        <ele>327.6</ele>
        <time>2020-10-25T09:52:43Z</time>
      </trkpt>
      <trkpt lat="46.8164" lon="5.64455">
        <ele>326.5</ele>
        <time>2020-10-25T09:52:49Z</time>
      </trkpt>
      <trkpt lat="46.81644" lon="5.64453">
        <ele>325.7</ele>
        <time>2020-10-25T09:52:54Z</time>
      </trkpt>
      <trkpt lat="46.81649" lon="5.64451">
        <ele>324.9</ele>
        <time>2020-10-25T09:52:59Z</time>
      </trkpt>
      <trkpt lat="46.81654" lon="5.64448">
        <ele>323.7</ele>
        <time>2020-10-25T09:53:05Z</time>
      </trkpt>
      <trkpt lat="46.81658" lon="5.64445">
        <ele>322.6</ele>
        <time>2020-10-25T09:53:11Z</time>
      </trkpt>
      <trkpt lat="46.81664" lon="5.64443">
        <ele>321.3</ele>
        <time>2020-10-25T09:53:17Z</time>
      </trkpt>
      <trkpt lat="46.81668" lon="5.64441">
        <ele>320.2</ele>
        <time>2020-10-25T09:53:22Z</time>
      </trkpt>
      <trkpt lat="46.81673" lon="5.64439">
        <ele>319.1</ele>
        <time>2020-10-25T09:53:27Z</time>
      </trkpt>
      <trkpt lat="46.81677" lon="5.64437">
        <ele>317.9</ele>
        <time>2020-10-25T09:53:32Z</time>
      </trkpt>
      <trkpt lat="46.81682" lon="5.64435">
        <ele>316.9</ele>
        <time>2020-10-25T09:53:37Z</time>
      </trkpt>
      <trkpt lat="46.81687" lon="5.64432">
        <ele>316.1</ele>
        <time>2020-10-25T09:53:42Z</time>
      </trkpt>
      <trkpt lat="46.81691" lon="5.6443">
        <ele>315.5</ele>
        <time>2020-10-25T09:53:47Z</time>
      </trkpt>
      <trkpt lat="46.81696" lon="5.64428">
        <ele>314.8</ele>
        <time>2020-10-25T09:53:52Z</time>
      </trkpt>
      <trkpt lat="46.81701" lon="5.64427">
        <ele>314</ele>
        <time>2020-10-25T09:53:58Z</time>
      </trkpt>
      <trkpt lat="46.81707" lon="5.64426">
        <ele>313.2</ele>
        <time>2020-10-25T09:54:04Z</time>
      </trkpt>
      <trkpt lat="46.81711" lon="5.64424">
        <ele>312</ele>
        <time>2020-10-25T09:54:11Z</time>
      </trkpt>
      <trkpt lat="46.81714" lon="5.6443">
        <ele>309.3</ele>
        <time>2020-10-25T09:54:27Z</time>
      </trkpt>
      <trkpt lat="46.81717" lon="5.64425">
        <ele>308.9</ele>
        <time>2020-10-25T09:55:16Z</time>
      </trkpt>
      <trkpt lat="46.81722" lon="5.64422">
        <ele>308.7</ele>
        <time>2020-10-25T09:55:21Z</time>
      </trkpt>
      <trkpt lat="46.81726" lon="5.6442">
        <ele>308.3</ele>
        <time>2020-10-25T09:55:26Z</time>
      </trkpt>
      <trkpt lat="46.81731" lon="5.64418">
        <ele>308</ele>
        <time>2020-10-25T09:55:30Z</time>
      </trkpt>
      <trkpt lat="46.81734" lon="5.64414">
        <ele>307.1</ele>
        <time>2020-10-25T09:55:36Z</time>
      </trkpt>
      <trkpt lat="46.8174" lon="5.64412">
        <ele>305.5</ele>
        <time>2020-10-25T09:55:42Z</time>
      </trkpt>
      <trkpt lat="46.81744" lon="5.6441">
        <ele>304.2</ele>
        <time>2020-10-25T09:55:47Z</time>
      </trkpt>
      <trkpt lat="46.81749" lon="5.64408">
        <ele>303</ele>
        <time>2020-10-25T09:55:53Z</time>
      </trkpt>
      <trkpt lat="46.81754" lon="5.64409">
        <ele>302.2</ele>
        <time>2020-10-25T09:55:58Z</time>
      </trkpt>
      <trkpt lat="46.81759" lon="5.6441">
        <ele>301.8</ele>
        <time>2020-10-25T09:56:03Z</time>
      </trkpt>
      <trkpt lat="46.81765" lon="5.64411">
        <ele>301.6</ele>
        <time>2020-10-25T09:56:08Z</time>
      </trkpt>
      <trkpt lat="46.8177" lon="5.64412">
        <ele>301.3</ele>
        <time>2020-10-25T09:56:14Z</time>
      </trkpt>
      <trkpt lat="46.81774" lon="5.64415">
        <ele>300.2</ele>
        <time>2020-10-25T09:56:26Z</time>
      </trkpt>
      <trkpt lat="46.81779" lon="5.64417">
        <ele>300.8</ele>
        <time>2020-10-25T09:56:32Z</time>
      </trkpt>
      <trkpt lat="46.81784" lon="5.64419">
        <ele>301.3</ele>
        <time>2020-10-25T09:56:37Z</time>
      </trkpt>
      <trkpt lat="46.81789" lon="5.64421">
        <ele>301.5</ele>
        <time>2020-10-25T09:56:42Z</time>
      </trkpt>
      <trkpt lat="46.81793" lon="5.64424">
        <ele>301.2</ele>
        <time>2020-10-25T09:56:47Z</time>
      </trkpt>
      <trkpt lat="46.81798" lon="5.64426">
        <ele>301</ele>
        <time>2020-10-25T09:56:52Z</time>
      </trkpt>
      <trkpt lat="46.81803" lon="5.6443">
        <ele>300.8</ele>
        <time>2020-10-25T09:56:57Z</time>
      </trkpt>
      <trkpt lat="46.81807" lon="5.64434">
        <ele>300.6</ele>
        <time>2020-10-25T09:57:02Z</time>
      </trkpt>
      <trkpt lat="46.81812" lon="5.64437">
        <ele>299.9</ele>
        <time>2020-10-25T09:57:07Z</time>
      </trkpt>
      <trkpt lat="46.81817" lon="5.6444">
        <ele>298.7</ele>
        <time>2020-10-25T09:57:12Z</time>
      </trkpt>
      <trkpt lat="46.81821" lon="5.64443">
        <ele>297.9</ele>
        <time>2020-10-25T09:57:17Z</time>
      </trkpt>
      <trkpt lat="46.81826" lon="5.64445">
        <ele>297.7</ele>
        <time>2020-10-25T09:57:22Z</time>
      </trkpt>
      <trkpt lat="46.8183" lon="5.64449">
        <ele>297.4</ele>
        <time>2020-10-25T09:57:28Z</time>
      </trkpt>
      <trkpt lat="46.81834" lon="5.64452">
        <ele>296.9</ele>
        <time>2020-10-25T09:57:33Z</time>
      </trkpt>
      <trkpt lat="46.81839" lon="5.64454">
        <ele>296.2</ele>
        <time>2020-10-25T09:57:38Z</time>
      </trkpt>
      <trkpt lat="46.81844" lon="5.64458">
        <ele>295.3</ele>
        <time>2020-10-25T09:57:43Z</time>
      </trkpt>
      <trkpt lat="46.81848" lon="5.64461">
        <ele>294.5</ele>
        <time>2020-10-25T09:57:48Z</time>
      </trkpt>
      <trkpt lat="46.81852" lon="5.64464">
        <ele>293.7</ele>
        <time>2020-10-25T09:57:53Z</time>
      </trkpt>
      <trkpt lat="46.81857" lon="5.64466">
        <ele>292.9</ele>
        <time>2020-10-25T09:57:58Z</time>
      </trkpt>
      <trkpt lat="46.81861" lon="5.64467">
        <ele>292.4</ele>
        <time>2020-10-25T09:58:02Z</time>
      </trkpt>
      <trkpt lat="46.81866" lon="5.64467">
        <ele>292</ele>
        <time>2020-10-25T09:58:07Z</time>
      </trkpt>
      <trkpt lat="46.81871" lon="5.64465">
        <ele>291</ele>
        <time>2020-10-25T09:58:12Z</time>
      </trkpt>
      <trkpt lat="46.81876" lon="5.64464">
        <ele>289.7</ele>
        <time>2020-10-25T09:58:17Z</time>
      </trkpt>
      <trkpt lat="46.81881" lon="5.64461">
        <ele>288.4</ele>
        <time>2020-10-25T09:58:22Z</time>
      </trkpt>
      <trkpt lat="46.81885" lon="5.64457">
        <ele>287.6</ele>
        <time>2020-10-25T09:58:26Z</time>
      </trkpt>
      <trkpt lat="46.81889" lon="5.64453">
        <ele>287</ele>
        <time>2020-10-25T09:58:30Z</time>
      </trkpt>
      <trkpt lat="46.81893" lon="5.64449">
        <ele>286.2</ele>
        <time>2020-10-25T09:58:35Z</time>
      </trkpt>
      <trkpt lat="46.81898" lon="5.64444">
        <ele>285.3</ele>
        <time>2020-10-25T09:58:40Z</time>
      </trkpt>
      <trkpt lat="46.81902" lon="5.64441">
        <ele>284.2</ele>
        <time>2020-10-25T09:58:44Z</time>
      </trkpt>
      <trkpt lat="46.81906" lon="5.64438">
        <ele>283.2</ele>
        <time>2020-10-25T09:58:48Z</time>
      </trkpt>
      <trkpt lat="46.81911" lon="5.64434">
        <ele>282.4</ele>
        <time>2020-10-25T09:58:53Z</time>
      </trkpt>
      <trkpt lat="46.81915" lon="5.6443">
        <ele>282.3</ele>
        <time>2020-10-25T09:58:58Z</time>
      </trkpt>
      <trkpt lat="46.8192" lon="5.64427">
        <ele>282.7</ele>
        <time>2020-10-25T09:59:03Z</time>
      </trkpt>
      <trkpt lat="46.81925" lon="5.64424">
        <ele>283.4</ele>
        <time>2020-10-25T09:59:08Z</time>
      </trkpt>
      <trkpt lat="46.81929" lon="5.64421">
        <ele>284.1</ele>
        <time>2020-10-25T09:59:12Z</time>
      </trkpt>
      <trkpt lat="46.81935" lon="5.64421">
        <ele>284.7</ele>
        <time>2020-10-25T09:59:17Z</time>
      </trkpt>
      <trkpt lat="46.81939" lon="5.64421">
        <ele>285</ele>
        <time>2020-10-25T09:59:22Z</time>
      </trkpt>
      <trkpt lat="46.81944" lon="5.64421">
        <ele>284.9</ele>
        <time>2020-10-25T09:59:27Z</time>
      </trkpt>
      <trkpt lat="46.8195" lon="5.6442">
        <ele>284.6</ele>
        <time>2020-10-25T09:59:32Z</time>
      </trkpt>
      <trkpt lat="46.81954" lon="5.64419">
        <ele>284.3</ele>
        <time>2020-10-25T09:59:37Z</time>
      </trkpt>
      <trkpt lat="46.81959" lon="5.64418">
        <ele>283.9</ele>
        <time>2020-10-25T09:59:41Z</time>
      </trkpt>
      <trkpt lat="46.81964" lon="5.64418">
        <ele>283.4</ele>
        <time>2020-10-25T09:59:45Z</time>
      </trkpt>
      <trkpt lat="46.81969" lon="5.64418">
        <ele>282.7</ele>
        <time>2020-10-25T09:59:49Z</time>
      </trkpt>
      <trkpt lat="46.81974" lon="5.64417">
        <ele>282.1</ele>
        <time>2020-10-25T09:59:53Z</time>
      </trkpt>
      <trkpt lat="46.81979" lon="5.64416">
        <ele>281.7</ele>
        <time>2020-10-25T09:59:57Z</time>
      </trkpt>
      <trkpt lat="46.81984" lon="5.64416">
        <ele>281.5</ele>
        <time>2020-10-25T10:00:02Z</time>
      </trkpt>
      <trkpt lat="46.81989" lon="5.64414">
        <ele>281.5</ele>
        <time>2020-10-25T10:00:08Z</time>
      </trkpt>
      <trkpt lat="46.81993" lon="5.64411">
        <ele>281.6</ele>
        <time>2020-10-25T10:00:12Z</time>
      </trkpt>
      <trkpt lat="46.81998" lon="5.64407">
        <ele>281.8</ele>
        <time>2020-10-25T10:00:16Z</time>
      </trkpt>
      <trkpt lat="46.82003" lon="5.64403">
        <ele>281.5</ele>
        <time>2020-10-25T10:00:20Z</time>
      </trkpt>
      <trkpt lat="46.82007" lon="5.644">
        <ele>280.3</ele>
        <time>2020-10-25T10:00:25Z</time>
      </trkpt>
      <trkpt lat="46.82012" lon="5.64398">
        <ele>279.5</ele>
        <time>2020-10-25T10:00:29Z</time>
      </trkpt>
      <trkpt lat="46.82016" lon="5.64394">
        <ele>278.7</ele>
        <time>2020-10-25T10:00:34Z</time>
      </trkpt>
      <trkpt lat="46.8202" lon="5.64389">
        <ele>278.1</ele>
        <time>2020-10-25T10:00:39Z</time>
      </trkpt>
      <trkpt lat="46.82024" lon="5.64385">
        <ele>277.9</ele>
        <time>2020-10-25T10:00:43Z</time>
      </trkpt>
      <trkpt lat="46.82028" lon="5.6438">
        <ele>277.8</ele>
        <time>2020-10-25T10:00:47Z</time>
      </trkpt>
      <trkpt lat="46.82031" lon="5.64376">
        <ele>277.9</ele>
        <time>2020-10-25T10:00:51Z</time>
      </trkpt>
      <trkpt lat="46.82036" lon="5.64372">
        <ele>278.3</ele>
        <time>2020-10-25T10:00:56Z</time>
      </trkpt>
      <trkpt lat="46.8204" lon="5.64368">
        <ele>278.8</ele>
        <time>2020-10-25T10:01:01Z</time>
      </trkpt>
      <trkpt lat="46.82043" lon="5.64363">
        <ele>279.1</ele>
        <time>2020-10-25T10:01:06Z</time>
      </trkpt>
      <trkpt lat="46.82046" lon="5.64357">
        <ele>279.5</ele>
        <time>2020-10-25T10:01:11Z</time>
      </trkpt>
      <trkpt lat="46.82049" lon="5.64351">
        <ele>279.6</ele>
        <time>2020-10-25T10:01:17Z</time>
      </trkpt>
      <trkpt lat="46.82051" lon="5.64344">
        <ele>278.8</ele>
        <time>2020-10-25T10:01:30Z</time>
      </trkpt>
      <trkpt lat="46.82054" lon="5.64338">
        <ele>279</ele>
        <time>2020-10-25T10:01:36Z</time>
      </trkpt>
      <trkpt lat="46.82056" lon="5.64331">
        <ele>279.1</ele>
        <time>2020-10-25T10:01:41Z</time>
      </trkpt>
      <trkpt lat="46.82059" lon="5.64325">
        <ele>279.4</ele>
        <time>2020-10-25T10:01:46Z</time>
      </trkpt>
      <trkpt lat="46.8206" lon="5.64318">
        <ele>280.3</ele>
        <time>2020-10-25T10:02:02Z</time>
      </trkpt>
      <trkpt lat="46.82063" lon="5.64312">
        <ele>279.7</ele>
        <time>2020-10-25T10:02:07Z</time>
      </trkpt>
      <trkpt lat="46.82066" lon="5.64307">
        <ele>279.1</ele>
        <time>2020-10-25T10:02:11Z</time>
      </trkpt>
      <trkpt lat="46.82069" lon="5.64302">
        <ele>278.7</ele>
        <time>2020-10-25T10:02:15Z</time>
      </trkpt>
      <trkpt lat="46.82073" lon="5.64298">
        <ele>278.3</ele>
        <time>2020-10-25T10:02:19Z</time>
      </trkpt>
      <trkpt lat="46.82078" lon="5.64297">
        <ele>277.7</ele>
        <time>2020-10-25T10:02:25Z</time>
      </trkpt>
      <trkpt lat="46.82082" lon="5.64297">
        <ele>277.4</ele>
        <time>2020-10-25T10:02:30Z</time>
      </trkpt>
      <trkpt lat="46.82087" lon="5.643">
        <ele>277.8</ele>
        <time>2020-10-25T10:02:35Z</time>
      </trkpt>
      <trkpt lat="46.82092" lon="5.64301">
        <ele>278.1</ele>
        <time>2020-10-25T10:02:40Z</time>
      </trkpt>
      <trkpt lat="46.82097" lon="5.64302">
        <ele>278.3</ele>
        <time>2020-10-25T10:02:45Z</time>
      </trkpt>
      <trkpt lat="46.82102" lon="5.64302">
        <ele>278.5</ele>
        <time>2020-10-25T10:02:50Z</time>
      </trkpt>
      <trkpt lat="46.82107" lon="5.64302">
        <ele>278.4</ele>
        <time>2020-10-25T10:02:54Z</time>
      </trkpt>
      <trkpt lat="46.82112" lon="5.64301">
        <ele>278.3</ele>
        <time>2020-10-25T10:02:58Z</time>
      </trkpt>
      <trkpt lat="46.82116" lon="5.64301">
        <ele>278</ele>
        <time>2020-10-25T10:03:02Z</time>
      </trkpt>
      <trkpt lat="46.82122" lon="5.643">
        <ele>277.8</ele>
        <time>2020-10-25T10:03:06Z</time>
      </trkpt>
      <trkpt lat="46.82127" lon="5.64299">
        <ele>277.9</ele>
        <time>2020-10-25T10:03:10Z</time>
      </trkpt>
      <trkpt lat="46.82132" lon="5.64299">
        <ele>278.3</ele>
        <time>2020-10-25T10:03:15Z</time>
      </trkpt>
      <trkpt lat="46.82138" lon="5.643">
        <ele>278.6</ele>
        <time>2020-10-25T10:03:20Z</time>
      </trkpt>
      <trkpt lat="46.82142" lon="5.64299">
        <ele>279.1</ele>
        <time>2020-10-25T10:03:24Z</time>
      </trkpt>
      <trkpt lat="46.82147" lon="5.643">
        <ele>279.8</ele>
        <time>2020-10-25T10:03:28Z</time>
      </trkpt>
      <trkpt lat="46.82153" lon="5.64301">
        <ele>280.8</ele>
        <time>2020-10-25T10:03:33Z</time>
      </trkpt>
      <trkpt lat="46.82158" lon="5.643">
        <ele>281.6</ele>
        <time>2020-10-25T10:03:37Z</time>
      </trkpt>
      <trkpt lat="46.82163" lon="5.643">
        <ele>282.4</ele>
        <time>2020-10-25T10:03:41Z</time>
      </trkpt>
      <trkpt lat="46.82168" lon="5.64301">
        <ele>283.2</ele>
        <time>2020-10-25T10:03:45Z</time>
      </trkpt>
      <trkpt lat="46.82173" lon="5.64302">
        <ele>284.2</ele>
        <time>2020-10-25T10:03:50Z</time>
      </trkpt>
      <trkpt lat="46.82178" lon="5.64306">
        <ele>284.9</ele>
        <time>2020-10-25T10:03:55Z</time>
      </trkpt>
      <trkpt lat="46.82181" lon="5.64311">
        <ele>284.8</ele>
        <time>2020-10-25T10:04:00Z</time>
      </trkpt>
      <trkpt lat="46.82185" lon="5.64314">
        <ele>284.2</ele>
        <time>2020-10-25T10:04:05Z</time>
      </trkpt>
      <trkpt lat="46.8219" lon="5.64317">
        <ele>283.4</ele>
        <time>2020-10-25T10:04:10Z</time>
      </trkpt>
      <trkpt lat="46.82195" lon="5.6432">
        <ele>283.4</ele>
        <time>2020-10-25T10:04:14Z</time>
      </trkpt>
      <trkpt lat="46.82199" lon="5.64324">
        <ele>284.3</ele>
        <time>2020-10-25T10:04:19Z</time>
      </trkpt>
      <trkpt lat="46.82204" lon="5.64328">
        <ele>285</ele>
        <time>2020-10-25T10:04:24Z</time>
      </trkpt>
      <trkpt lat="46.82208" lon="5.6433">
        <ele>285.3</ele>
        <time>2020-10-25T10:04:28Z</time>
      </trkpt>
      <trkpt lat="46.82214" lon="5.64333">
        <ele>285.5</ele>
        <time>2020-10-25T10:04:33Z</time>
      </trkpt>
      <trkpt lat="46.82219" lon="5.64336">
        <ele>285.5</ele>
        <time>2020-10-25T10:04:38Z</time>
      </trkpt>
      <trkpt lat="46.82223" lon="5.6434">
        <ele>285.5</ele>
        <time>2020-10-25T10:04:43Z</time>
      </trkpt>
      <trkpt lat="46.82228" lon="5.64342">
        <ele>285.6</ele>
        <time>2020-10-25T10:04:47Z</time>
      </trkpt>
      <trkpt lat="46.82232" lon="5.64345">
        <ele>285.6</ele>
        <time>2020-10-25T10:04:51Z</time>
      </trkpt>
      <trkpt lat="46.82237" lon="5.64348">
        <ele>285.7</ele>
        <time>2020-10-25T10:04:56Z</time>
      </trkpt>
      <trkpt lat="46.82241" lon="5.64352">
        <ele>285.7</ele>
        <time>2020-10-25T10:05:00Z</time>
      </trkpt>
      <trkpt lat="46.82245" lon="5.64356">
        <ele>285.5</ele>
        <time>2020-10-25T10:05:05Z</time>
      </trkpt>
      <trkpt lat="46.8225" lon="5.64357">
        <ele>285.3</ele>
        <time>2020-10-25T10:05:10Z</time>
      </trkpt>
      <trkpt lat="46.82255" lon="5.6436">
        <ele>285.3</ele>
        <time>2020-10-25T10:05:15Z</time>
      </trkpt>
      <trkpt lat="46.8226" lon="5.64361">
        <ele>285.7</ele>
        <time>2020-10-25T10:05:20Z</time>
      </trkpt>
      <trkpt lat="46.82265" lon="5.64362">
        <ele>286.7</ele>
        <time>2020-10-25T10:05:25Z</time>
      </trkpt>
      <trkpt lat="46.8227" lon="5.64364">
        <ele>288</ele>
        <time>2020-10-25T10:05:30Z</time>
      </trkpt>
      <trkpt lat="46.82275" lon="5.64363">
        <ele>288.9</ele>
        <time>2020-10-25T10:05:34Z</time>
      </trkpt>
      <trkpt lat="46.8228" lon="5.64363">
        <ele>289.6</ele>
        <time>2020-10-25T10:05:39Z</time>
      </trkpt>
      <trkpt lat="46.82284" lon="5.64364">
        <ele>290.2</ele>
        <time>2020-10-25T10:05:43Z</time>
      </trkpt>
      <trkpt lat="46.82288" lon="5.64367">
        <ele>290.2</ele>
        <time>2020-10-25T10:05:47Z</time>
      </trkpt>
      <trkpt lat="46.82293" lon="5.6437">
        <ele>289.7</ele>
        <time>2020-10-25T10:05:52Z</time>
      </trkpt>
      <trkpt lat="46.82296" lon="5.64376">
        <ele>288.9</ele>
        <time>2020-10-25T10:05:57Z</time>
      </trkpt>
      <trkpt lat="46.82299" lon="5.64381">
        <ele>288.1</ele>
        <time>2020-10-25T10:06:01Z</time>
      </trkpt>
      <trkpt lat="46.82303" lon="5.64387">
        <ele>287.2</ele>
        <time>2020-10-25T10:06:06Z</time>
      </trkpt>
      <trkpt lat="46.82306" lon="5.64392">
        <ele>286.7</ele>
        <time>2020-10-25T10:06:11Z</time>
      </trkpt>
      <trkpt lat="46.82308" lon="5.64399">
        <ele>286.6</ele>
        <time>2020-10-25T10:06:17Z</time>
      </trkpt>
      <trkpt lat="46.8231" lon="5.64405">
        <ele>287.1</ele>
        <time>2020-10-25T10:06:22Z</time>
      </trkpt>
      <trkpt lat="46.82312" lon="5.64413">
        <ele>288.2</ele>
        <time>2020-10-25T10:06:27Z</time>
      </trkpt>
      <trkpt lat="46.82314" lon="5.64419">
        <ele>289.4</ele>
        <time>2020-10-25T10:06:31Z</time>
      </trkpt>
      <trkpt lat="46.82316" lon="5.64426">
        <ele>291</ele>
        <time>2020-10-25T10:06:36Z</time>
      </trkpt>
      <trkpt lat="46.82317" lon="5.64432">
        <ele>292.2</ele>
        <time>2020-10-25T10:06:41Z</time>
      </trkpt>
      <trkpt lat="46.82319" lon="5.64438">
        <ele>293.2</ele>
        <time>2020-10-25T10:06:46Z</time>
      </trkpt>
      <trkpt lat="46.82321" lon="5.64445">
        <ele>294.1</ele>
        <time>2020-10-25T10:06:52Z</time>
      </trkpt>
      <trkpt lat="46.82322" lon="5.64453">
        <ele>294.4</ele>
        <time>2020-10-25T10:06:57Z</time>
      </trkpt>
      <trkpt lat="46.82323" lon="5.6446">
        <ele>294.2</ele>
        <time>2020-10-25T10:07:02Z</time>
      </trkpt>
      <trkpt lat="46.82324" lon="5.64468">
        <ele>293.4</ele>
        <time>2020-10-25T10:07:07Z</time>
      </trkpt>
      <trkpt lat="46.82324" lon="5.64475">
        <ele>292.8</ele>
        <time>2020-10-25T10:07:11Z</time>
      </trkpt>
      <trkpt lat="46.82325" lon="5.64482">
        <ele>292.4</ele>
        <time>2020-10-25T10:07:16Z</time>
      </trkpt>
      <trkpt lat="46.82328" lon="5.64487">
        <ele>292</ele>
        <time>2020-10-25T10:07:21Z</time>
      </trkpt>
      <trkpt lat="46.82331" lon="5.64492">
        <ele>291.8</ele>
        <time>2020-10-25T10:07:26Z</time>
      </trkpt>
      <trkpt lat="46.82333" lon="5.64498">
        <ele>291.5</ele>
        <time>2020-10-25T10:07:31Z</time>
      </trkpt>
      <trkpt lat="46.82336" lon="5.64505">
        <ele>291.4</ele>
        <time>2020-10-25T10:07:36Z</time>
      </trkpt>
      <trkpt lat="46.8234" lon="5.64511">
        <ele>291.7</ele>
        <time>2020-10-25T10:07:41Z</time>
      </trkpt>
      <trkpt lat="46.82343" lon="5.64517">
        <ele>291.8</ele>
        <time>2020-10-25T10:07:47Z</time>
      </trkpt>
      <trkpt lat="46.82346" lon="5.64523">
        <ele>291.5</ele>
        <time>2020-10-25T10:07:52Z</time>
      </trkpt>
      <trkpt lat="46.8235" lon="5.64527">
        <ele>291.4</ele>
        <time>2020-10-25T10:07:56Z</time>
      </trkpt>
      <trkpt lat="46.82354" lon="5.64531">
        <ele>291.9</ele>
        <time>2020-10-25T10:08:01Z</time>
      </trkpt>
      <trkpt lat="46.82358" lon="5.64537">
        <ele>292.2</ele>
        <time>2020-10-25T10:08:06Z</time>
      </trkpt>
      <trkpt lat="46.82362" lon="5.6454">
        <ele>292.6</ele>
        <time>2020-10-25T10:08:14Z</time>
      </trkpt>
      <trkpt lat="46.82367" lon="5.6454">
        <ele>293.3</ele>
        <time>2020-10-25T10:08:21Z</time>
      </trkpt>
      <trkpt lat="46.82372" lon="5.64537">
        <ele>293.7</ele>
        <time>2020-10-25T10:08:26Z</time>
      </trkpt>
      <trkpt lat="46.82376" lon="5.64532">
        <ele>294.3</ele>
        <time>2020-10-25T10:08:30Z</time>
      </trkpt>
      <trkpt lat="46.82381" lon="5.64528">
        <ele>295.8</ele>
        <time>2020-10-25T10:08:35Z</time>
      </trkpt>
      <trkpt lat="46.82385" lon="5.64524">
        <ele>297</ele>
        <time>2020-10-25T10:08:39Z</time>
      </trkpt>
      <trkpt lat="46.82389" lon="5.64519">
        <ele>298.6</ele>
        <time>2020-10-25T10:08:45Z</time>
      </trkpt>
      <trkpt lat="46.82393" lon="5.64517">
        <ele>300.1</ele>
        <time>2020-10-25T10:08:50Z</time>
      </trkpt>
      <trkpt lat="46.82398" lon="5.64514">
        <ele>301.4</ele>
        <time>2020-10-25T10:08:55Z</time>
      </trkpt>
      <trkpt lat="46.82402" lon="5.64511">
        <ele>302.5</ele>
        <time>2020-10-25T10:09:00Z</time>
      </trkpt>
      <trkpt lat="46.82406" lon="5.64507">
        <ele>303.2</ele>
        <time>2020-10-25T10:09:05Z</time>
      </trkpt>
      <trkpt lat="46.82409" lon="5.64501">
        <ele>303.6</ele>
        <time>2020-10-25T10:09:10Z</time>
      </trkpt>
      <trkpt lat="46.82413" lon="5.64495">
        <ele>304</ele>
        <time>2020-10-25T10:09:15Z</time>
      </trkpt>
      <trkpt lat="46.82417" lon="5.64491">
        <ele>304.6</ele>
        <time>2020-10-25T10:09:21Z</time>
      </trkpt>
      <trkpt lat="46.82421" lon="5.64486">
        <ele>305.2</ele>
        <time>2020-10-25T10:09:29Z</time>
      </trkpt>
      <trkpt lat="46.82424" lon="5.64481">
        <ele>306.3</ele>
        <time>2020-10-25T10:09:33Z</time>
      </trkpt>
      <trkpt lat="46.82427" lon="5.64475">
        <ele>308</ele>
        <time>2020-10-25T10:09:38Z</time>
      </trkpt>
      <trkpt lat="46.82432" lon="5.64471">
        <ele>309.1</ele>
        <time>2020-10-25T10:09:43Z</time>
      </trkpt>
      <trkpt lat="46.82435" lon="5.64466">
        <ele>309.9</ele>
        <time>2020-10-25T10:09:48Z</time>
      </trkpt>
      <trkpt lat="46.82438" lon="5.64461">
        <ele>310.4</ele>
        <time>2020-10-25T10:09:53Z</time>
      </trkpt>
      <trkpt lat="46.82441" lon="5.64455">
        <ele>310</ele>
        <time>2020-10-25T10:09:57Z</time>
      </trkpt>
      <trkpt lat="46.82444" lon="5.6445">
        <ele>308.8</ele>
        <time>2020-10-25T10:10:02Z</time>
      </trkpt>
      <trkpt lat="46.82448" lon="5.64446">
        <ele>307.8</ele>
        <time>2020-10-25T10:10:07Z</time>
      </trkpt>
      <trkpt lat="46.82452" lon="5.64441">
        <ele>306.8</ele>
        <time>2020-10-25T10:10:12Z</time>
      </trkpt>
      <trkpt lat="46.82456" lon="5.64436">
        <ele>305.9</ele>
        <time>2020-10-25T10:10:17Z</time>
      </trkpt>
      <trkpt lat="46.8246" lon="5.64431">
        <ele>305</ele>
        <time>2020-10-25T10:10:22Z</time>
      </trkpt>
      <trkpt lat="46.82464" lon="5.64426">
        <ele>304.2</ele>
        <time>2020-10-25T10:10:27Z</time>
      </trkpt>
      <trkpt lat="46.82467" lon="5.6442">
        <ele>303.4</ele>
        <time>2020-10-25T10:10:32Z</time>
      </trkpt>
      <trkpt lat="46.8247" lon="5.64415">
        <ele>302.6</ele>
        <time>2020-10-25T10:10:37Z</time>
      </trkpt>
      <trkpt lat="46.82474" lon="5.64411">
        <ele>302</ele>
        <time>2020-10-25T10:10:41Z</time>
      </trkpt>
      <trkpt lat="46.82477" lon="5.64405">
        <ele>301.5</ele>
        <time>2020-10-25T10:10:46Z</time>
      </trkpt>
      <trkpt lat="46.82481" lon="5.64399">
        <ele>301.9</ele>
        <time>2020-10-25T10:10:51Z</time>
      </trkpt>
      <trkpt lat="46.82485" lon="5.64395">
        <ele>302.4</ele>
        <time>2020-10-25T10:10:55Z</time>
      </trkpt>
      <trkpt lat="46.82489" lon="5.64391">
        <ele>303</ele>
        <time>2020-10-25T10:10:59Z</time>
      </trkpt>
      <trkpt lat="46.82492" lon="5.64387">
        <ele>303.3</ele>
        <time>2020-10-25T10:11:03Z</time>
      </trkpt>
      <trkpt lat="46.82496" lon="5.64383">
        <ele>303.7</ele>
        <time>2020-10-25T10:11:08Z</time>
      </trkpt>
      <trkpt lat="46.825" lon="5.64377">
        <ele>304.2</ele>
        <time>2020-10-25T10:11:14Z</time>
      </trkpt>
      <trkpt lat="46.82502" lon="5.64371">
        <ele>304.8</ele>
        <time>2020-10-25T10:11:19Z</time>
      </trkpt>
      <trkpt lat="46.82505" lon="5.64366">
        <ele>305.5</ele>
        <time>2020-10-25T10:11:25Z</time>
      </trkpt>
      <trkpt lat="46.82504" lon="5.64359">
        <ele>305.6</ele>
        <time>2020-10-25T10:11:36Z</time>
      </trkpt>
      <trkpt lat="46.82501" lon="5.64352">
        <ele>305.9</ele>
        <time>2020-10-25T10:11:44Z</time>
      </trkpt>
      <trkpt lat="46.82498" lon="5.64347">
        <ele>306.2</ele>
        <time>2020-10-25T10:11:51Z</time>
      </trkpt>
      <trkpt lat="46.82494" lon="5.64344">
        <ele>306.2</ele>
        <time>2020-10-25T10:11:58Z</time>
      </trkpt>
      <trkpt lat="46.8249" lon="5.6434">
        <ele>306</ele>
        <time>2020-10-25T10:12:04Z</time>
      </trkpt>
      <trkpt lat="46.82486" lon="5.64337">
        <ele>305.5</ele>
        <time>2020-10-25T10:12:08Z</time>
      </trkpt>
      <trkpt lat="46.82482" lon="5.64334">
        <ele>306</ele>
        <time>2020-10-25T10:12:13Z</time>
      </trkpt>
      <trkpt lat="46.82477" lon="5.64333">
        <ele>306.1</ele>
        <time>2020-10-25T10:12:24Z</time>
      </trkpt>
      <trkpt lat="46.82472" lon="5.64329">
        <ele>307.3</ele>
        <time>2020-10-25T10:12:29Z</time>
      </trkpt>
      <trkpt lat="46.82471" lon="5.64322">
        <ele>311</ele>
        <time>2020-10-25T10:12:36Z</time>
      </trkpt>
      <trkpt lat="46.82468" lon="5.64317">
        <ele>313</ele>
        <time>2020-10-25T10:13:13Z</time>
      </trkpt>
      <trkpt lat="46.82463" lon="5.64316">
        <ele>311.4</ele>
        <time>2020-10-25T10:13:18Z</time>
      </trkpt>
      <trkpt lat="46.82458" lon="5.64313">
        <ele>310.1</ele>
        <time>2020-10-25T10:13:23Z</time>
      </trkpt>
      <trkpt lat="46.82453" lon="5.64312">
        <ele>310.5</ele>
        <time>2020-10-25T10:13:29Z</time>
      </trkpt>
      <trkpt lat="46.82448" lon="5.64309">
        <ele>311.2</ele>
        <time>2020-10-25T10:13:40Z</time>
      </trkpt>
      <trkpt lat="46.82443" lon="5.64307">
        <ele>310.4</ele>
        <time>2020-10-25T10:13:46Z</time>
      </trkpt>
      <trkpt lat="46.82438" lon="5.64304">
        <ele>309.3</ele>
        <time>2020-10-25T10:13:51Z</time>
      </trkpt>
      <trkpt lat="46.82436" lon="5.64298">
        <ele>307.8</ele>
        <time>2020-10-25T10:13:56Z</time>
      </trkpt>
      <trkpt lat="46.8244" lon="5.64301">
        <ele>305.7</ele>
        <time>2020-10-25T10:14:16Z</time>
      </trkpt>
      <trkpt lat="46.82444" lon="5.64304">
        <ele>305.3</ele>
        <time>2020-10-25T10:14:20Z</time>
      </trkpt>
      <trkpt lat="46.82449" lon="5.64308">
        <ele>305.3</ele>
        <time>2020-10-25T10:14:25Z</time>
      </trkpt>
      <trkpt lat="46.82454" lon="5.6431">
        <ele>305.5</ele>
        <time>2020-10-25T10:14:31Z</time>
      </trkpt>
      <trkpt lat="46.82459" lon="5.64313">
        <ele>305</ele>
        <time>2020-10-25T10:14:36Z</time>
      </trkpt>
      <trkpt lat="46.82464" lon="5.64316">
        <ele>304.6</ele>
        <time>2020-10-25T10:14:41Z</time>
      </trkpt>
      <trkpt lat="46.82469" lon="5.64319">
        <ele>304.4</ele>
        <time>2020-10-25T10:14:46Z</time>
      </trkpt>
      <trkpt lat="46.82473" lon="5.64323">
        <ele>304.5</ele>
        <time>2020-10-25T10:14:51Z</time>
      </trkpt>
      <trkpt lat="46.82477" lon="5.64327">
        <ele>304.7</ele>
        <time>2020-10-25T10:14:56Z</time>
      </trkpt>
      <trkpt lat="46.82482" lon="5.6433">
        <ele>305.9</ele>
        <time>2020-10-25T10:15:14Z</time>
      </trkpt>
      <trkpt lat="46.82486" lon="5.64335">
        <ele>306.3</ele>
        <time>2020-10-25T10:15:19Z</time>
      </trkpt>
      <trkpt lat="46.82489" lon="5.64341">
        <ele>306.6</ele>
        <time>2020-10-25T10:15:25Z</time>
      </trkpt>
      <trkpt lat="46.82493" lon="5.64344">
        <ele>305.9</ele>
        <time>2020-10-25T10:15:31Z</time>
      </trkpt>
      <trkpt lat="46.82498" lon="5.64347">
        <ele>306.3</ele>
        <time>2020-10-25T10:15:35Z</time>
      </trkpt>
      <trkpt lat="46.82502" lon="5.64352">
        <ele>307</ele>
        <time>2020-10-25T10:15:39Z</time>
      </trkpt>
      <trkpt lat="46.82508" lon="5.64354">
        <ele>307.8</ele>
        <time>2020-10-25T10:15:45Z</time>
      </trkpt>
      <trkpt lat="46.82513" lon="5.64356">
        <ele>308.3</ele>
        <time>2020-10-25T10:15:49Z</time>
      </trkpt>
      <trkpt lat="46.82517" lon="5.64359">
        <ele>309.1</ele>
        <time>2020-10-25T10:15:53Z</time>
      </trkpt>
      <trkpt lat="46.82522" lon="5.64363">
        <ele>309.7</ele>
        <time>2020-10-25T10:15:58Z</time>
      </trkpt>
      <trkpt lat="46.82527" lon="5.64366">
        <ele>310</ele>
        <time>2020-10-25T10:16:02Z</time>
      </trkpt>
      <trkpt lat="46.82532" lon="5.64369">
        <ele>310.6</ele>
        <time>2020-10-25T10:16:07Z</time>
      </trkpt>
      <trkpt lat="46.82536" lon="5.64372">
        <ele>311.4</ele>
        <time>2020-10-25T10:16:12Z</time>
      </trkpt>
      <trkpt lat="46.82541" lon="5.64375">
        <ele>312</ele>
        <time>2020-10-25T10:16:17Z</time>
      </trkpt>
      <trkpt lat="46.82545" lon="5.64378">
        <ele>312.9</ele>
        <time>2020-10-25T10:16:22Z</time>
      </trkpt>
      <trkpt lat="46.82549" lon="5.64383">
        <ele>314.1</ele>
        <time>2020-10-25T10:16:27Z</time>
      </trkpt>
      <trkpt lat="46.82553" lon="5.64386">
        <ele>314.6</ele>
        <time>2020-10-25T10:16:33Z</time>
      </trkpt>
      <trkpt lat="46.82557" lon="5.64387">
        <ele>313.8</ele>
        <time>2020-10-25T10:16:37Z</time>
      </trkpt>
      <trkpt lat="46.82562" lon="5.64386">
        <ele>312.2</ele>
        <time>2020-10-25T10:16:42Z</time>
      </trkpt>
      <trkpt lat="46.82567" lon="5.64389">
        <ele>312.3</ele>
        <time>2020-10-25T10:16:46Z</time>
      </trkpt>
      <trkpt lat="46.82571" lon="5.6439">
        <ele>314.2</ele>
        <time>2020-10-25T10:16:50Z</time>
      </trkpt>
      <trkpt lat="46.82577" lon="5.64388">
        <ele>316.9</ele>
        <time>2020-10-25T10:16:55Z</time>
      </trkpt>
      <trkpt lat="46.8258" lon="5.64383">
        <ele>318.2</ele>
        <time>2020-10-25T10:16:59Z</time>
      </trkpt>
      <trkpt lat="46.82584" lon="5.64377">
        <ele>319.2</ele>
        <time>2020-10-25T10:17:03Z</time>
      </trkpt>
      <trkpt lat="46.82586" lon="5.6437">
        <ele>319.6</ele>
        <time>2020-10-25T10:17:07Z</time>
      </trkpt>
      <trkpt lat="46.82586" lon="5.64363">
        <ele>319.4</ele>
        <time>2020-10-25T10:17:11Z</time>
      </trkpt>
      <trkpt lat="46.82588" lon="5.64355">
        <ele>318.4</ele>
        <time>2020-10-25T10:17:17Z</time>
      </trkpt>
      <trkpt lat="46.82588" lon="5.64349">
        <ele>317.6</ele>
        <time>2020-10-25T10:17:25Z</time>
      </trkpt>
      <trkpt lat="46.82586" lon="5.64342">
        <ele>317.7</ele>
        <time>2020-10-25T10:17:31Z</time>
      </trkpt>
      <trkpt lat="46.82584" lon="5.64336">
        <ele>318.2</ele>
        <time>2020-10-25T10:17:35Z</time>
      </trkpt>
      <trkpt lat="46.82581" lon="5.64329">
        <ele>318.1</ele>
        <time>2020-10-25T10:17:41Z</time>
      </trkpt>
      <trkpt lat="46.82579" lon="5.64323">
        <ele>316.8</ele>
        <time>2020-10-25T10:17:46Z</time>
      </trkpt>
      <trkpt lat="46.82575" lon="5.64318">
        <ele>315.3</ele>
        <time>2020-10-25T10:17:51Z</time>
      </trkpt>
      <trkpt lat="46.82572" lon="5.64312">
        <ele>314</ele>
        <time>2020-10-25T10:17:56Z</time>
      </trkpt>
      <trkpt lat="46.82569" lon="5.64306">
        <ele>313.2</ele>
        <time>2020-10-25T10:18:01Z</time>
      </trkpt>
      <trkpt lat="46.82567" lon="5.643">
        <ele>312.8</ele>
        <time>2020-10-25T10:18:06Z</time>
      </trkpt>
      <trkpt lat="46.82565" lon="5.64293">
        <ele>312.8</ele>
        <time>2020-10-25T10:18:12Z</time>
      </trkpt>
      <trkpt lat="46.82562" lon="5.64286">
        <ele>313</ele>
        <time>2020-10-25T10:18:17Z</time>
      </trkpt>
      <trkpt lat="46.8256" lon="5.6428">
        <ele>313.8</ele>
        <time>2020-10-25T10:18:27Z</time>
      </trkpt>
      <trkpt lat="46.82559" lon="5.64274">
        <ele>314</ele>
        <time>2020-10-25T10:18:33Z</time>
      </trkpt>
      <trkpt lat="46.8256" lon="5.64267">
        <ele>314.1</ele>
        <time>2020-10-25T10:18:38Z</time>
      </trkpt>
      <trkpt lat="46.82558" lon="5.6426">
        <ele>314.1</ele>
        <time>2020-10-25T10:18:43Z</time>
      </trkpt>
      <trkpt lat="46.82558" lon="5.64252">
        <ele>313.5</ele>
        <time>2020-10-25T10:18:48Z</time>
      </trkpt>
      <trkpt lat="46.82557" lon="5.64245">
        <ele>313.1</ele>
        <time>2020-10-25T10:18:53Z</time>
      </trkpt>
      <trkpt lat="46.8256" lon="5.64239">
        <ele>312.9</ele>
        <time>2020-10-25T10:18:58Z</time>
      </trkpt>
      <trkpt lat="46.82563" lon="5.64234">
        <ele>313.2</ele>
        <time>2020-10-25T10:19:05Z</time>
      </trkpt>
      <trkpt lat="46.8256" lon="5.64228">
        <ele>313.5</ele>
        <time>2020-10-25T10:19:16Z</time>
      </trkpt>
      <trkpt lat="46.82556" lon="5.64223">
        <ele>313.7</ele>
        <time>2020-10-25T10:19:21Z</time>
      </trkpt>
      <trkpt lat="46.82554" lon="5.64217">
        <ele>314.7</ele>
        <time>2020-10-25T10:19:28Z</time>
      </trkpt>
      <trkpt lat="46.82549" lon="5.64214">
        <ele>315.2</ele>
        <time>2020-10-25T10:19:33Z</time>
      </trkpt>
      <trkpt lat="46.82545" lon="5.6421">
        <ele>315.4</ele>
        <time>2020-10-25T10:19:37Z</time>
      </trkpt>
      <trkpt lat="46.8254" lon="5.64207">
        <ele>316</ele>
        <time>2020-10-25T10:19:42Z</time>
      </trkpt>
      <trkpt lat="46.82536" lon="5.64203">
        <ele>316.5</ele>
        <time>2020-10-25T10:19:46Z</time>
      </trkpt>
      <trkpt lat="46.82531" lon="5.642">
        <ele>317.5</ele>
        <time>2020-10-25T10:19:51Z</time>
      </trkpt>
      <trkpt lat="46.82527" lon="5.64197">
        <ele>318.7</ele>
        <time>2020-10-25T10:19:57Z</time>
      </trkpt>
      <trkpt lat="46.82522" lon="5.64194">
        <ele>320.7</ele>
        <time>2020-10-25T10:20:08Z</time>
      </trkpt>
      <trkpt lat="46.82518" lon="5.6419">
        <ele>321.7</ele>
        <time>2020-10-25T10:20:14Z</time>
      </trkpt>
      <trkpt lat="46.82514" lon="5.64186">
        <ele>322.3</ele>
        <time>2020-10-25T10:20:21Z</time>
      </trkpt>
      <trkpt lat="46.82511" lon="5.64182">
        <ele>322.6</ele>
        <time>2020-10-25T10:20:26Z</time>
      </trkpt>
      <trkpt lat="46.82506" lon="5.64179">
        <ele>323.2</ele>
        <time>2020-10-25T10:20:30Z</time>
      </trkpt>
      <trkpt lat="46.82501" lon="5.64177">
        <ele>324.2</ele>
        <time>2020-10-25T10:20:34Z</time>
      </trkpt>
      <trkpt lat="46.82497" lon="5.64173">
        <ele>326.5</ele>
        <time>2020-10-25T10:20:39Z</time>
      </trkpt>
      <trkpt lat="46.82493" lon="5.64168">
        <ele>328.5</ele>
        <time>2020-10-25T10:20:44Z</time>
      </trkpt>
      <trkpt lat="46.82491" lon="5.64161">
        <ele>329.7</ele>
        <time>2020-10-25T10:20:49Z</time>
      </trkpt>
      <trkpt lat="46.82491" lon="5.64154">
        <ele>330.4</ele>
        <time>2020-10-25T10:20:53Z</time>
      </trkpt>
      <trkpt lat="46.82492" lon="5.64147">
        <ele>330.7</ele>
        <time>2020-10-25T10:20:57Z</time>
      </trkpt>
      <trkpt lat="46.82493" lon="5.6414">
        <ele>330.8</ele>
        <time>2020-10-25T10:21:01Z</time>
      </trkpt>
      <trkpt lat="46.82495" lon="5.64133">
        <ele>330.7</ele>
        <time>2020-10-25T10:21:06Z</time>
      </trkpt>
      <trkpt lat="46.82497" lon="5.64126">
        <ele>330.8</ele>
        <time>2020-10-25T10:21:11Z</time>
      </trkpt>
      <trkpt lat="46.82496" lon="5.64118">
        <ele>331.6</ele>
        <time>2020-10-25T10:21:17Z</time>
      </trkpt>
      <trkpt lat="46.82493" lon="5.64112">
        <ele>332.9</ele>
        <time>2020-10-25T10:21:24Z</time>
      </trkpt>
      <trkpt lat="46.8249" lon="5.64107">
        <ele>334.7</ele>
        <time>2020-10-25T10:21:31Z</time>
      </trkpt>
      <trkpt lat="46.8249" lon="5.641">
        <ele>336.1</ele>
        <time>2020-10-25T10:21:37Z</time>
      </trkpt>
      <trkpt lat="46.82488" lon="5.64093">
        <ele>337.2</ele>
        <time>2020-10-25T10:21:42Z</time>
      </trkpt>
      <trkpt lat="46.82485" lon="5.64089">
        <ele>337.2</ele>
        <time>2020-10-25T10:21:51Z</time>
      </trkpt>
      <trkpt lat="46.82481" lon="5.64083">
        <ele>333.2</ele>
        <time>2020-10-25T10:22:10Z</time>
      </trkpt>
      <trkpt lat="46.82478" lon="5.64077">
        <ele>331.7</ele>
        <time>2020-10-25T10:22:15Z</time>
      </trkpt>
      <trkpt lat="46.82475" lon="5.64072">
        <ele>330.9</ele>
        <time>2020-10-25T10:22:19Z</time>
      </trkpt>
      <trkpt lat="46.82472" lon="5.64066">
        <ele>330.1</ele>
        <time>2020-10-25T10:22:24Z</time>
      </trkpt>
      <trkpt lat="46.82468" lon="5.64061">
        <ele>329.6</ele>
        <time>2020-10-25T10:22:29Z</time>
      </trkpt>
      <trkpt lat="46.82464" lon="5.64057">
        <ele>329.2</ele>
        <time>2020-10-25T10:22:34Z</time>
      </trkpt>
      <trkpt lat="46.82461" lon="5.6405">
        <ele>329</ele>
        <time>2020-10-25T10:22:39Z</time>
      </trkpt>
      <trkpt lat="46.82457" lon="5.64045">
        <ele>329</ele>
        <time>2020-10-25T10:22:43Z</time>
      </trkpt>
      <trkpt lat="46.82452" lon="5.64041">
        <ele>328.7</ele>
        <time>2020-10-25T10:22:48Z</time>
      </trkpt>
      <trkpt lat="46.82448" lon="5.64038">
        <ele>328.5</ele>
        <time>2020-10-25T10:22:54Z</time>
      </trkpt>
      <trkpt lat="46.82444" lon="5.64035">
        <ele>328.5</ele>
        <time>2020-10-25T10:22:59Z</time>
      </trkpt>
      <trkpt lat="46.82439" lon="5.6403">
        <ele>329</ele>
        <time>2020-10-25T10:23:04Z</time>
      </trkpt>
      <trkpt lat="46.82435" lon="5.64027">
        <ele>329.6</ele>
        <time>2020-10-25T10:23:09Z</time>
      </trkpt>
      <trkpt lat="46.82431" lon="5.64024">
        <ele>330.3</ele>
        <time>2020-10-25T10:23:14Z</time>
      </trkpt>
      <trkpt lat="46.82427" lon="5.6402">
        <ele>331</ele>
        <time>2020-10-25T10:23:19Z</time>
      </trkpt>
      <trkpt lat="46.82423" lon="5.64016">
        <ele>331.7</ele>
        <time>2020-10-25T10:23:24Z</time>
      </trkpt>
      <trkpt lat="46.82418" lon="5.64011">
        <ele>332.3</ele>
        <time>2020-10-25T10:23:29Z</time>
      </trkpt>
      <trkpt lat="46.82415" lon="5.64005">
        <ele>332.6</ele>
        <time>2020-10-25T10:23:34Z</time>
      </trkpt>
      <trkpt lat="46.82412" lon="5.63999">
        <ele>332.6</ele>
        <time>2020-10-25T10:23:39Z</time>
      </trkpt>
      <trkpt lat="46.8241" lon="5.63992">
        <ele>332.2</ele>
        <time>2020-10-25T10:23:44Z</time>
      </trkpt>
      <trkpt lat="46.82409" lon="5.63986">
        <ele>332.1</ele>
        <time>2020-10-25T10:23:48Z</time>
      </trkpt>
      <trkpt lat="46.82409" lon="5.63979">
        <ele>332.4</ele>
        <time>2020-10-25T10:23:53Z</time>
      </trkpt>
      <trkpt lat="46.82409" lon="5.63971">
        <ele>332.5</ele>
        <time>2020-10-25T10:24:00Z</time>
      </trkpt>
      <trkpt lat="46.82407" lon="5.63966">
        <ele>333</ele>
        <time>2020-10-25T10:24:08Z</time>
      </trkpt>
      <trkpt lat="46.82406" lon="5.63959">
        <ele>332.4</ele>
        <time>2020-10-25T10:24:16Z</time>
      </trkpt>
      <trkpt lat="46.8241" lon="5.63956">
        <ele>331.1</ele>
        <time>2020-10-25T10:24:24Z</time>
      </trkpt>
      <trkpt lat="46.82415" lon="5.63956">
        <ele>328.8</ele>
        <time>2020-10-25T10:24:32Z</time>
      </trkpt>
      <trkpt lat="46.82412" lon="5.63951">
        <ele>327.4</ele>
        <time>2020-10-25T10:24:50Z</time>
      </trkpt>
      <trkpt lat="46.8241" lon="5.63945">
        <ele>326.8</ele>
        <time>2020-10-25T10:25:01Z</time>
      </trkpt>
      <trkpt lat="46.82409" lon="5.63951">
        <ele>326.9</ele>
        <time>2020-10-25T10:27:06Z</time>
      </trkpt>
      <trkpt lat="46.82397" lon="5.63954">
        <ele>344.4</ele>
        <time>2020-10-25T11:03:38Z</time>
      </trkpt>
      <trkpt lat="46.82402" lon="5.63952">
        <ele>340.4</ele>
        <time>2020-10-25T11:03:50Z</time>
      </trkpt>
      <trkpt lat="46.82407" lon="5.63952">
        <ele>336.1</ele>
        <time>2020-10-25T11:07:39Z</time>
      </trkpt>
      <trkpt lat="46.8241" lon="5.63946">
        <ele>335.3</ele>
        <time>2020-10-25T11:07:49Z</time>
      </trkpt>
      <trkpt lat="46.82414" lon="5.63944">
        <ele>336.7</ele>
        <time>2020-10-25T11:09:19Z</time>
      </trkpt>
      <trkpt lat="46.82417" lon="5.63939">
        <ele>335.5</ele>
        <time>2020-10-25T11:09:23Z</time>
      </trkpt>
      <trkpt lat="46.8242" lon="5.63934">
        <ele>333.9</ele>
        <time>2020-10-25T11:09:28Z</time>
      </trkpt>
      <trkpt lat="46.82425" lon="5.6393">
        <ele>332.6</ele>
        <time>2020-10-25T11:09:34Z</time>
      </trkpt>
      <trkpt lat="46.82429" lon="5.63929">
        <ele>331.1</ele>
        <time>2020-10-25T11:09:40Z</time>
      </trkpt>
      <trkpt lat="46.82434" lon="5.6393">
        <ele>329.6</ele>
        <time>2020-10-25T11:09:48Z</time>
      </trkpt>
      <trkpt lat="46.82439" lon="5.63932">
        <ele>328.7</ele>
        <time>2020-10-25T11:09:56Z</time>
      </trkpt>
      <trkpt lat="46.82443" lon="5.63936">
        <ele>327.8</ele>
        <time>2020-10-25T11:10:05Z</time>
      </trkpt>
      <trkpt lat="46.82447" lon="5.6394">
        <ele>327.1</ele>
        <time>2020-10-25T11:10:15Z</time>
      </trkpt>
      <trkpt lat="46.82453" lon="5.63941">
        <ele>331.5</ele>
        <time>2020-10-25T11:10:27Z</time>
      </trkpt>
      <trkpt lat="46.82458" lon="5.6394">
        <ele>335.9</ele>
        <time>2020-10-25T11:10:31Z</time>
      </trkpt>
      <trkpt lat="46.82462" lon="5.6394">
        <ele>340</ele>
        <time>2020-10-25T11:10:38Z</time>
      </trkpt>
      <trkpt lat="46.82468" lon="5.63943">
        <ele>342.8</ele>
        <time>2020-10-25T11:11:02Z</time>
      </trkpt>
      <trkpt lat="46.82472" lon="5.63947">
        <ele>343.4</ele>
        <time>2020-10-25T11:11:09Z</time>
      </trkpt>
      <trkpt lat="46.82477" lon="5.63947">
        <ele>343.9</ele>
        <time>2020-10-25T11:11:28Z</time>
      </trkpt>
      <trkpt lat="46.82481" lon="5.63949">
        <ele>344.6</ele>
        <time>2020-10-25T11:11:38Z</time>
      </trkpt>
      <trkpt lat="46.82486" lon="5.63948">
        <ele>344.8</ele>
        <time>2020-10-25T11:11:51Z</time>
      </trkpt>
      <trkpt lat="46.82491" lon="5.63948">
        <ele>344.8</ele>
        <time>2020-10-25T11:11:56Z</time>
      </trkpt>
      <trkpt lat="46.82497" lon="5.63949">
        <ele>344.6</ele>
        <time>2020-10-25T11:12:11Z</time>
      </trkpt>
      <trkpt lat="46.82501" lon="5.63947">
        <ele>344.6</ele>
        <time>2020-10-25T11:12:17Z</time>
      </trkpt>
      <trkpt lat="46.82507" lon="5.63949">
        <ele>344.4</ele>
        <time>2020-10-25T11:12:36Z</time>
      </trkpt>
      <trkpt lat="46.82511" lon="5.63947">
        <ele>345.1</ele>
        <time>2020-10-25T11:12:43Z</time>
      </trkpt>
      <trkpt lat="46.82516" lon="5.63946">
        <ele>346.1</ele>
        <time>2020-10-25T11:12:50Z</time>
      </trkpt>
      <trkpt lat="46.82521" lon="5.63944">
        <ele>347.6</ele>
        <time>2020-10-25T11:12:58Z</time>
      </trkpt>
      <trkpt lat="46.82525" lon="5.63941">
        <ele>348.6</ele>
        <time>2020-10-25T11:13:04Z</time>
      </trkpt>
      <trkpt lat="46.8253" lon="5.63938">
        <ele>349.2</ele>
        <time>2020-10-25T11:13:09Z</time>
      </trkpt>
      <trkpt lat="46.82535" lon="5.63937">
        <ele>350.2</ele>
        <time>2020-10-25T11:13:15Z</time>
      </trkpt>
      <trkpt lat="46.82539" lon="5.63937">
        <ele>351.9</ele>
        <time>2020-10-25T11:13:22Z</time>
      </trkpt>
      <trkpt lat="46.82544" lon="5.63935">
        <ele>353.8</ele>
        <time>2020-10-25T11:13:30Z</time>
      </trkpt>
      <trkpt lat="46.82548" lon="5.63932">
        <ele>355.6</ele>
        <time>2020-10-25T11:13:39Z</time>
      </trkpt>
      <trkpt lat="46.82552" lon="5.63932">
        <ele>356.5</ele>
        <time>2020-10-25T11:13:45Z</time>
      </trkpt>
      <trkpt lat="46.82557" lon="5.63931">
        <ele>357.6</ele>
        <time>2020-10-25T11:13:52Z</time>
      </trkpt>
      <trkpt lat="46.82562" lon="5.63932">
        <ele>359.2</ele>
        <time>2020-10-25T11:14:00Z</time>
      </trkpt>
      <trkpt lat="46.82566" lon="5.63933">
        <ele>371.3</ele>
        <time>2020-10-25T11:14:45Z</time>
      </trkpt>
      <trkpt lat="46.82572" lon="5.63934">
        <ele>371.9</ele>
        <time>2020-10-25T11:14:52Z</time>
      </trkpt>
      <trkpt lat="46.82577" lon="5.63933">
        <ele>374</ele>
        <time>2020-10-25T11:15:05Z</time>
      </trkpt>
      <trkpt lat="46.82583" lon="5.63932">
        <ele>377.4</ele>
        <time>2020-10-25T11:15:08Z</time>
      </trkpt>
      <trkpt lat="46.82588" lon="5.63931">
        <ele>379.9</ele>
        <time>2020-10-25T11:15:11Z</time>
      </trkpt>
      <trkpt lat="46.82593" lon="5.63932">
        <ele>383.4</ele>
        <time>2020-10-25T11:15:18Z</time>
      </trkpt>
      <trkpt lat="46.82598" lon="5.6393">
        <ele>385</ele>
        <time>2020-10-25T11:15:29Z</time>
      </trkpt>
      <trkpt lat="46.82603" lon="5.63927">
        <ele>384.7</ele>
        <time>2020-10-25T11:15:33Z</time>
      </trkpt>
      <trkpt lat="46.82607" lon="5.63924">
        <ele>384.5</ele>
        <time>2020-10-25T11:15:37Z</time>
      </trkpt>
      <trkpt lat="46.82611" lon="5.63921">
        <ele>384.3</ele>
        <time>2020-10-25T11:15:41Z</time>
      </trkpt>
      <trkpt lat="46.82616" lon="5.63919">
        <ele>383.4</ele>
        <time>2020-10-25T11:15:46Z</time>
      </trkpt>
      <trkpt lat="46.82621" lon="5.6392">
        <ele>381.8</ele>
        <time>2020-10-25T11:15:52Z</time>
      </trkpt>
      <trkpt lat="46.82626" lon="5.6392">
        <ele>379.7</ele>
        <time>2020-10-25T11:16:01Z</time>
      </trkpt>
      <trkpt lat="46.82631" lon="5.63922">
        <ele>378.4</ele>
        <time>2020-10-25T11:16:06Z</time>
      </trkpt>
      <trkpt lat="46.82636" lon="5.63923">
        <ele>377.4</ele>
        <time>2020-10-25T11:16:10Z</time>
      </trkpt>
      <trkpt lat="46.82641" lon="5.63923">
        <ele>377.1</ele>
        <time>2020-10-25T11:16:14Z</time>
      </trkpt>
      <trkpt lat="46.82646" lon="5.63924">
        <ele>377.8</ele>
        <time>2020-10-25T11:16:21Z</time>
      </trkpt>
      <trkpt lat="46.82651" lon="5.63925">
        <ele>378.5</ele>
        <time>2020-10-25T11:16:26Z</time>
      </trkpt>
      <trkpt lat="46.82656" lon="5.63928">
        <ele>378.7</ele>
        <time>2020-10-25T11:16:32Z</time>
      </trkpt>
      <trkpt lat="46.8266" lon="5.6393">
        <ele>378.2</ele>
        <time>2020-10-25T11:16:36Z</time>
      </trkpt>
      <trkpt lat="46.82665" lon="5.63931">
        <ele>377.5</ele>
        <time>2020-10-25T11:16:41Z</time>
      </trkpt>
      <trkpt lat="46.82669" lon="5.63933">
        <ele>377</ele>
        <time>2020-10-25T11:16:47Z</time>
      </trkpt>
      <trkpt lat="46.82674" lon="5.63935">
        <ele>377.1</ele>
        <time>2020-10-25T11:16:52Z</time>
      </trkpt>
      <trkpt lat="46.82679" lon="5.63936">
        <ele>377.4</ele>
        <time>2020-10-25T11:16:57Z</time>
      </trkpt>
      <trkpt lat="46.82684" lon="5.63938">
        <ele>378</ele>
        <time>2020-10-25T11:17:03Z</time>
      </trkpt>
      <trkpt lat="46.82689" lon="5.6394">
        <ele>379.2</ele>
        <time>2020-10-25T11:17:11Z</time>
      </trkpt>
      <trkpt lat="46.82694" lon="5.63941">
        <ele>379.6</ele>
        <time>2020-10-25T11:17:15Z</time>
      </trkpt>
      <trkpt lat="46.82698" lon="5.63942">
        <ele>379.9</ele>
        <time>2020-10-25T11:17:19Z</time>
      </trkpt>
      <trkpt lat="46.82703" lon="5.63943">
        <ele>379.8</ele>
        <time>2020-10-25T11:17:25Z</time>
      </trkpt>
      <trkpt lat="46.82707" lon="5.63944">
        <ele>379.7</ele>
        <time>2020-10-25T11:17:30Z</time>
      </trkpt>
      <trkpt lat="46.82712" lon="5.63944">
        <ele>379.3</ele>
        <time>2020-10-25T11:17:35Z</time>
      </trkpt>
      <trkpt lat="46.82717" lon="5.63946">
        <ele>379.2</ele>
        <time>2020-10-25T11:17:41Z</time>
      </trkpt>
      <trkpt lat="46.82723" lon="5.63946">
        <ele>379</ele>
        <time>2020-10-25T11:17:45Z</time>
      </trkpt>
      <trkpt lat="46.82727" lon="5.63949">
        <ele>378.9</ele>
        <time>2020-10-25T11:17:49Z</time>
      </trkpt>
      <trkpt lat="46.82732" lon="5.63952">
        <ele>377.4</ele>
        <time>2020-10-25T11:17:53Z</time>
      </trkpt>
      <trkpt lat="46.82737" lon="5.63953">
        <ele>372.3</ele>
        <time>2020-10-25T11:18:01Z</time>
      </trkpt>
      <trkpt lat="46.82742" lon="5.63954">
        <ele>370</ele>
        <time>2020-10-25T11:18:05Z</time>
      </trkpt>
      <trkpt lat="46.82747" lon="5.63957">
        <ele>367.9</ele>
        <time>2020-10-25T11:18:10Z</time>
      </trkpt>
      <trkpt lat="46.82752" lon="5.63958">
        <ele>366.1</ele>
        <time>2020-10-25T11:18:16Z</time>
      </trkpt>
      <trkpt lat="46.82757" lon="5.63959">
        <ele>364.3</ele>
        <time>2020-10-25T11:18:24Z</time>
      </trkpt>
      <trkpt lat="46.82761" lon="5.63962">
        <ele>363.4</ele>
        <time>2020-10-25T11:18:30Z</time>
      </trkpt>
      <trkpt lat="46.82766" lon="5.63963">
        <ele>362.7</ele>
        <time>2020-10-25T11:18:35Z</time>
      </trkpt>
      <trkpt lat="46.82771" lon="5.63965">
        <ele>362.2</ele>
        <time>2020-10-25T11:18:39Z</time>
      </trkpt>
      <trkpt lat="46.82776" lon="5.63966">
        <ele>361.7</ele>
        <time>2020-10-25T11:18:44Z</time>
      </trkpt>
      <trkpt lat="46.8278" lon="5.63969">
        <ele>361.3</ele>
        <time>2020-10-25T11:18:50Z</time>
      </trkpt>
      <trkpt lat="46.82784" lon="5.63971">
        <ele>361</ele>
        <time>2020-10-25T11:18:55Z</time>
      </trkpt>
      <trkpt lat="46.82789" lon="5.63974">
        <ele>360.8</ele>
        <time>2020-10-25T11:19:01Z</time>
      </trkpt>
      <trkpt lat="46.82793" lon="5.63975">
        <ele>361.2</ele>
        <time>2020-10-25T11:19:06Z</time>
      </trkpt>
      <trkpt lat="46.82798" lon="5.63977">
        <ele>361.6</ele>
        <time>2020-10-25T11:19:10Z</time>
      </trkpt>
      <trkpt lat="46.82804" lon="5.63978">
        <ele>361.9</ele>
        <time>2020-10-25T11:19:14Z</time>
      </trkpt>
      <trkpt lat="46.82808" lon="5.6398">
        <ele>362.1</ele>
        <time>2020-10-25T11:19:18Z</time>
      </trkpt>
      <trkpt lat="46.82812" lon="5.63983">
        <ele>362.3</ele>
        <time>2020-10-25T11:19:23Z</time>
      </trkpt>
      <trkpt lat="46.82817" lon="5.63983">
        <ele>363.2</ele>
        <time>2020-10-25T11:19:29Z</time>
      </trkpt>
      <trkpt lat="46.82822" lon="5.63984">
        <ele>363.9</ele>
        <time>2020-10-25T11:19:35Z</time>
      </trkpt>
      <trkpt lat="46.82827" lon="5.63983">
        <ele>365.6</ele>
        <time>2020-10-25T11:19:41Z</time>
      </trkpt>
      <trkpt lat="46.82832" lon="5.63985">
        <ele>367.7</ele>
        <time>2020-10-25T11:19:48Z</time>
      </trkpt>
      <trkpt lat="46.82837" lon="5.63987">
        <ele>369</ele>
        <time>2020-10-25T11:19:54Z</time>
      </trkpt>
      <trkpt lat="46.82842" lon="5.63987">
        <ele>370.2</ele>
        <time>2020-10-25T11:20:00Z</time>
      </trkpt>
      <trkpt lat="46.82847" lon="5.63988">
        <ele>370.8</ele>
        <time>2020-10-25T11:20:04Z</time>
      </trkpt>
      <trkpt lat="46.82852" lon="5.63989">
        <ele>371.3</ele>
        <time>2020-10-25T11:20:10Z</time>
      </trkpt>
      <trkpt lat="46.82857" lon="5.63989">
        <ele>371.5</ele>
        <time>2020-10-25T11:20:16Z</time>
      </trkpt>
      <trkpt lat="46.82862" lon="5.6399">
        <ele>371.8</ele>
        <time>2020-10-25T11:20:22Z</time>
      </trkpt>
      <trkpt lat="46.82867" lon="5.63992">
        <ele>372.2</ele>
        <time>2020-10-25T11:20:27Z</time>
      </trkpt>
      <trkpt lat="46.82871" lon="5.63994">
        <ele>372.9</ele>
        <time>2020-10-25T11:20:32Z</time>
      </trkpt>
      <trkpt lat="46.82876" lon="5.63997">
        <ele>373.8</ele>
        <time>2020-10-25T11:20:37Z</time>
      </trkpt>
      <trkpt lat="46.8288" lon="5.63999">
        <ele>374.9</ele>
        <time>2020-10-25T11:20:42Z</time>
      </trkpt>
      <trkpt lat="46.82885" lon="5.64002">
        <ele>376</ele>
        <time>2020-10-25T11:20:47Z</time>
      </trkpt>
      <trkpt lat="46.8289" lon="5.64003">
        <ele>377.7</ele>
        <time>2020-10-25T11:20:53Z</time>
      </trkpt>
      <trkpt lat="46.82895" lon="5.64004">
        <ele>378.9</ele>
        <time>2020-10-25T11:21:00Z</time>
      </trkpt>
      <trkpt lat="46.829" lon="5.64003">
        <ele>379.4</ele>
        <time>2020-10-25T11:21:14Z</time>
      </trkpt>
      <trkpt lat="46.82904" lon="5.64007">
        <ele>379.5</ele>
        <time>2020-10-25T11:21:20Z</time>
      </trkpt>
      <trkpt lat="46.82908" lon="5.64012">
        <ele>379.3</ele>
        <time>2020-10-25T11:21:25Z</time>
      </trkpt>
      <trkpt lat="46.82913" lon="5.64011">
        <ele>383.9</ele>
        <time>2020-10-25T11:22:46Z</time>
      </trkpt>
      <trkpt lat="46.82918" lon="5.64015">
        <ele>384.6</ele>
        <time>2020-10-25T11:22:53Z</time>
      </trkpt>
      <trkpt lat="46.82923" lon="5.64017">
        <ele>385</ele>
        <time>2020-10-25T11:23:00Z</time>
      </trkpt>
      <trkpt lat="46.82926" lon="5.64022">
        <ele>385.2</ele>
        <time>2020-10-25T11:23:14Z</time>
      </trkpt>
      <trkpt lat="46.82931" lon="5.64025">
        <ele>384.7</ele>
        <time>2020-10-25T11:23:21Z</time>
      </trkpt>
      <trkpt lat="46.82934" lon="5.64031">
        <ele>384.3</ele>
        <time>2020-10-25T11:23:27Z</time>
      </trkpt>
      <trkpt lat="46.82937" lon="5.64037">
        <ele>383.8</ele>
        <time>2020-10-25T11:23:32Z</time>
      </trkpt>
      <trkpt lat="46.8294" lon="5.64042">
        <ele>383.3</ele>
        <time>2020-10-25T11:23:38Z</time>
      </trkpt>
      <trkpt lat="46.82944" lon="5.64047">
        <ele>382.8</ele>
        <time>2020-10-25T11:23:44Z</time>
      </trkpt>
      <trkpt lat="46.82948" lon="5.6405">
        <ele>382.4</ele>
        <time>2020-10-25T11:23:50Z</time>
      </trkpt>
      <trkpt lat="46.82953" lon="5.64053">
        <ele>381.3</ele>
        <time>2020-10-25T11:23:59Z</time>
      </trkpt>
      <trkpt lat="46.82958" lon="5.64053">
        <ele>380.4</ele>
        <time>2020-10-25T11:24:05Z</time>
      </trkpt>
      <trkpt lat="46.82962" lon="5.64054">
        <ele>379.8</ele>
        <time>2020-10-25T11:24:09Z</time>
      </trkpt>
      <trkpt lat="46.82967" lon="5.64059">
        <ele>378.5</ele>
        <time>2020-10-25T11:24:18Z</time>
      </trkpt>
      <trkpt lat="46.82972" lon="5.64059">
        <ele>377.8</ele>
        <time>2020-10-25T11:24:22Z</time>
      </trkpt>
      <trkpt lat="46.82977" lon="5.6406">
        <ele>377.1</ele>
        <time>2020-10-25T11:24:26Z</time>
      </trkpt>
      <trkpt lat="46.82981" lon="5.64061">
        <ele>376.8</ele>
        <time>2020-10-25T11:24:30Z</time>
      </trkpt>
      <trkpt lat="46.82986" lon="5.64062">
        <ele>376.7</ele>
        <time>2020-10-25T11:24:35Z</time>
      </trkpt>
      <trkpt lat="46.82992" lon="5.64062">
        <ele>377.2</ele>
        <time>2020-10-25T11:24:39Z</time>
      </trkpt>
      <trkpt lat="46.82998" lon="5.64062">
        <ele>377.6</ele>
        <time>2020-10-25T11:24:43Z</time>
      </trkpt>
      <trkpt lat="46.83002" lon="5.64064">
        <ele>377.3</ele>
        <time>2020-10-25T11:24:49Z</time>
      </trkpt>
      <trkpt lat="46.83007" lon="5.64066">
        <ele>375.8</ele>
        <time>2020-10-25T11:24:59Z</time>
      </trkpt>
      <trkpt lat="46.83012" lon="5.64067">
        <ele>374.6</ele>
        <time>2020-10-25T11:25:06Z</time>
      </trkpt>
      <trkpt lat="46.83017" lon="5.64066">
        <ele>373.4</ele>
        <time>2020-10-25T11:25:12Z</time>
      </trkpt>
      <trkpt lat="46.83021" lon="5.64066">
        <ele>372.7</ele>
        <time>2020-10-25T11:25:16Z</time>
      </trkpt>
      <trkpt lat="46.83026" lon="5.64066">
        <ele>372.1</ele>
        <time>2020-10-25T11:25:20Z</time>
      </trkpt>
      <trkpt lat="46.83031" lon="5.64067">
        <ele>371.3</ele>
        <time>2020-10-25T11:25:25Z</time>
      </trkpt>
      <trkpt lat="46.83036" lon="5.64068">
        <ele>370.5</ele>
        <time>2020-10-25T11:25:30Z</time>
      </trkpt>
      <trkpt lat="46.8304" lon="5.64069">
        <ele>369.6</ele>
        <time>2020-10-25T11:25:36Z</time>
      </trkpt>
      <trkpt lat="46.83044" lon="5.64073">
        <ele>368.6</ele>
        <time>2020-10-25T11:25:43Z</time>
      </trkpt>
      <trkpt lat="46.83048" lon="5.64078">
        <ele>367.8</ele>
        <time>2020-10-25T11:25:49Z</time>
      </trkpt>
      <trkpt lat="46.83052" lon="5.64082">
        <ele>367.2</ele>
        <time>2020-10-25T11:25:55Z</time>
      </trkpt>
      <trkpt lat="46.83057" lon="5.64084">
        <ele>366.2</ele>
        <time>2020-10-25T11:26:02Z</time>
      </trkpt>
      <trkpt lat="46.83061" lon="5.64087">
        <ele>365.2</ele>
        <time>2020-10-25T11:26:08Z</time>
      </trkpt>
      <trkpt lat="46.83066" lon="5.64088">
        <ele>364</ele>
        <time>2020-10-25T11:26:13Z</time>
      </trkpt>
      <trkpt lat="46.8307" lon="5.64093">
        <ele>362.6</ele>
        <time>2020-10-25T11:26:20Z</time>
      </trkpt>
      <trkpt lat="46.83074" lon="5.64099">
        <ele>361.5</ele>
        <time>2020-10-25T11:26:26Z</time>
      </trkpt>
      <trkpt lat="46.83078" lon="5.64102">
        <ele>360.8</ele>
        <time>2020-10-25T11:26:30Z</time>
      </trkpt>
      <trkpt lat="46.83082" lon="5.64105">
        <ele>359.9</ele>
        <time>2020-10-25T11:26:35Z</time>
      </trkpt>
      <trkpt lat="46.83086" lon="5.64108">
        <ele>359</ele>
        <time>2020-10-25T11:26:40Z</time>
      </trkpt>
      <trkpt lat="46.8309" lon="5.64113">
        <ele>358.1</ele>
        <time>2020-10-25T11:26:46Z</time>
      </trkpt>
      <trkpt lat="46.83094" lon="5.64118">
        <ele>357.4</ele>
        <time>2020-10-25T11:26:51Z</time>
      </trkpt>
      <trkpt lat="46.83098" lon="5.64123">
        <ele>356.5</ele>
        <time>2020-10-25T11:26:57Z</time>
      </trkpt>
      <trkpt lat="46.83102" lon="5.64126">
        <ele>355.7</ele>
        <time>2020-10-25T11:27:02Z</time>
      </trkpt>
      <trkpt lat="46.83106" lon="5.64129">
        <ele>354.9</ele>
        <time>2020-10-25T11:27:07Z</time>
      </trkpt>
      <trkpt lat="46.8311" lon="5.64132">
        <ele>354.1</ele>
        <time>2020-10-25T11:27:13Z</time>
      </trkpt>
      <trkpt lat="46.83117" lon="5.64135">
        <ele>353.7</ele>
        <time>2020-10-25T11:27:19Z</time>
      </trkpt>
      <trkpt lat="46.83122" lon="5.64136">
        <ele>353.8</ele>
        <time>2020-10-25T11:27:22Z</time>
      </trkpt>
      <trkpt lat="46.83126" lon="5.64139">
        <ele>353.6</ele>
        <time>2020-10-25T11:27:27Z</time>
      </trkpt>
      <trkpt lat="46.8313" lon="5.64143">
        <ele>353</ele>
        <time>2020-10-25T11:27:34Z</time>
      </trkpt>
      <trkpt lat="46.83134" lon="5.64147">
        <ele>352.4</ele>
        <time>2020-10-25T11:27:40Z</time>
      </trkpt>
      <trkpt lat="46.83137" lon="5.64151">
        <ele>351.4</ele>
        <time>2020-10-25T11:27:47Z</time>
      </trkpt>
      <trkpt lat="46.83142" lon="5.64154">
        <ele>350.4</ele>
        <time>2020-10-25T11:27:53Z</time>
      </trkpt>
      <trkpt lat="46.83147" lon="5.64157">
        <ele>349.8</ele>
        <time>2020-10-25T11:27:58Z</time>
      </trkpt>
      <trkpt lat="46.83148" lon="5.64164">
        <ele>347.7</ele>
        <time>2020-10-25T11:28:05Z</time>
      </trkpt>
      <trkpt lat="46.83154" lon="5.64163">
        <ele>347.4</ele>
        <time>2020-10-25T11:28:08Z</time>
      </trkpt>
      <trkpt lat="46.83158" lon="5.64162">
        <ele>345.6</ele>
        <time>2020-10-25T11:28:14Z</time>
      </trkpt>
      <trkpt lat="46.83164" lon="5.64162">
        <ele>345.9</ele>
        <time>2020-10-25T11:28:17Z</time>
      </trkpt>
      <trkpt lat="46.8317" lon="5.64163">
        <ele>346</ele>
        <time>2020-10-25T11:28:21Z</time>
      </trkpt>
      <trkpt lat="46.83175" lon="5.64165">
        <ele>345.8</ele>
        <time>2020-10-25T11:28:26Z</time>
      </trkpt>
      <trkpt lat="46.8318" lon="5.64166">
        <ele>345.3</ele>
        <time>2020-10-25T11:28:31Z</time>
      </trkpt>
      <trkpt lat="46.83185" lon="5.64168">
        <ele>344.6</ele>
        <time>2020-10-25T11:28:36Z</time>
      </trkpt>
      <trkpt lat="46.83189" lon="5.64169">
        <ele>343.8</ele>
        <time>2020-10-25T11:28:41Z</time>
      </trkpt>
      <trkpt lat="46.83194" lon="5.64171">
        <ele>342.9</ele>
        <time>2020-10-25T11:28:46Z</time>
      </trkpt>
      <trkpt lat="46.83199" lon="5.64172">
        <ele>341.7</ele>
        <time>2020-10-25T11:28:52Z</time>
      </trkpt>
      <trkpt lat="46.83204" lon="5.64171">
        <ele>340.8</ele>
        <time>2020-10-25T11:28:57Z</time>
      </trkpt>
      <trkpt lat="46.83209" lon="5.64171">
        <ele>339.7</ele>
        <time>2020-10-25T11:29:05Z</time>
      </trkpt>
      <trkpt lat="46.83215" lon="5.64171">
        <ele>339.3</ele>
        <time>2020-10-25T11:29:10Z</time>
      </trkpt>
      <trkpt lat="46.83216" lon="5.64164">
        <ele>334.9</ele>
        <time>2020-10-25T11:29:44Z</time>
      </trkpt>
      <trkpt lat="46.83217" lon="5.64157">
        <ele>332.9</ele>
        <time>2020-10-25T11:29:55Z</time>
      </trkpt>
      <trkpt lat="46.83219" lon="5.64151">
        <ele>331.8</ele>
        <time>2020-10-25T11:30:00Z</time>
      </trkpt>
      <trkpt lat="46.83222" lon="5.64145">
        <ele>331.4</ele>
        <time>2020-10-25T11:30:04Z</time>
      </trkpt>
      <trkpt lat="46.83223" lon="5.64138">
        <ele>331.5</ele>
        <time>2020-10-25T11:30:08Z</time>
      </trkpt>
      <trkpt lat="46.83221" lon="5.6413">
        <ele>331.8</ele>
        <time>2020-10-25T11:30:12Z</time>
      </trkpt>
      <trkpt lat="46.83221" lon="5.64124">
        <ele>332.7</ele>
        <time>2020-10-25T11:30:16Z</time>
      </trkpt>
      <trkpt lat="46.83222" lon="5.64115">
        <ele>333.8</ele>
        <time>2020-10-25T11:30:21Z</time>
      </trkpt>
      <trkpt lat="46.83222" lon="5.64107">
        <ele>335</ele>
        <time>2020-10-25T11:30:25Z</time>
      </trkpt>
      <trkpt lat="46.83224" lon="5.641">
        <ele>336.1</ele>
        <time>2020-10-25T11:30:29Z</time>
      </trkpt>
      <trkpt lat="46.83226" lon="5.64094">
        <ele>336.9</ele>
        <time>2020-10-25T11:30:33Z</time>
      </trkpt>
      <trkpt lat="46.83226" lon="5.64088">
        <ele>337</ele>
        <time>2020-10-25T11:30:40Z</time>
      </trkpt>
      <trkpt lat="46.83221" lon="5.64087">
        <ele>336.7</ele>
        <time>2020-10-25T11:30:46Z</time>
      </trkpt>
      <trkpt lat="46.83217" lon="5.64084">
        <ele>336.2</ele>
        <time>2020-10-25T11:30:51Z</time>
      </trkpt>
      <trkpt lat="46.83212" lon="5.64081">
        <ele>335.8</ele>
        <time>2020-10-25T11:30:54Z</time>
      </trkpt>
      <trkpt lat="46.83206" lon="5.64079">
        <ele>335.2</ele>
        <time>2020-10-25T11:30:57Z</time>
      </trkpt>
      <trkpt lat="46.83201" lon="5.64078">
        <ele>334.7</ele>
        <time>2020-10-25T11:31:01Z</time>
      </trkpt>
      <trkpt lat="46.83196" lon="5.64075">
        <ele>334.4</ele>
        <time>2020-10-25T11:31:05Z</time>
      </trkpt>
      <trkpt lat="46.83191" lon="5.64073">
        <ele>334.3</ele>
        <time>2020-10-25T11:31:09Z</time>
      </trkpt>
      <trkpt lat="46.83188" lon="5.64069">
        <ele>334.1</ele>
        <time>2020-10-25T11:31:15Z</time>
      </trkpt>
      <trkpt lat="46.83185" lon="5.64062">
        <ele>333.4</ele>
        <time>2020-10-25T11:31:20Z</time>
      </trkpt>
      <trkpt lat="46.83181" lon="5.64058">
        <ele>331.5</ele>
        <time>2020-10-25T11:31:26Z</time>
      </trkpt>
      <trkpt lat="46.83177" lon="5.64053">
        <ele>329.3</ele>
        <time>2020-10-25T11:31:33Z</time>
      </trkpt>
      <trkpt lat="46.83175" lon="5.64045">
        <ele>329</ele>
        <time>2020-10-25T11:31:38Z</time>
      </trkpt>
      <trkpt lat="46.83172" lon="5.6404">
        <ele>329.3</ele>
        <time>2020-10-25T11:31:42Z</time>
      </trkpt>
      <trkpt lat="46.83168" lon="5.64034">
        <ele>330</ele>
        <time>2020-10-25T11:31:47Z</time>
      </trkpt>
      <trkpt lat="46.83165" lon="5.64029">
        <ele>330.4</ele>
        <time>2020-10-25T11:31:51Z</time>
      </trkpt>
      <trkpt lat="46.83161" lon="5.64023">
        <ele>330.4</ele>
        <time>2020-10-25T11:31:57Z</time>
      </trkpt>
      <trkpt lat="46.83157" lon="5.64018">
        <ele>330.4</ele>
        <time>2020-10-25T11:32:02Z</time>
      </trkpt>
      <trkpt lat="46.83153" lon="5.64015">
        <ele>330.1</ele>
        <time>2020-10-25T11:32:07Z</time>
      </trkpt>
      <trkpt lat="46.83149" lon="5.64011">
        <ele>329.8</ele>
        <time>2020-10-25T11:32:12Z</time>
      </trkpt>
      <trkpt lat="46.83145" lon="5.64005">
        <ele>329.3</ele>
        <time>2020-10-25T11:32:17Z</time>
      </trkpt>
      <trkpt lat="46.83141" lon="5.64001">
        <ele>328.7</ele>
        <time>2020-10-25T11:32:22Z</time>
      </trkpt>
      <trkpt lat="46.83137" lon="5.63997">
        <ele>328</ele>
        <time>2020-10-25T11:32:27Z</time>
      </trkpt>
      <trkpt lat="46.83132" lon="5.63995">
        <ele>326.9</ele>
        <time>2020-10-25T11:32:33Z</time>
      </trkpt>
      <trkpt lat="46.83128" lon="5.63991">
        <ele>326</ele>
        <time>2020-10-25T11:32:38Z</time>
      </trkpt>
      <trkpt lat="46.83124" lon="5.63988">
        <ele>325.6</ele>
        <time>2020-10-25T11:32:42Z</time>
      </trkpt>
      <trkpt lat="46.83119" lon="5.63985">
        <ele>325.8</ele>
        <time>2020-10-25T11:32:47Z</time>
      </trkpt>
      <trkpt lat="46.83116" lon="5.63978">
        <ele>326.1</ele>
        <time>2020-10-25T11:32:54Z</time>
      </trkpt>
      <trkpt lat="46.83112" lon="5.63973">
        <ele>326.4</ele>
        <time>2020-10-25T11:32:59Z</time>
      </trkpt>
      <trkpt lat="46.83108" lon="5.6397">
        <ele>326.4</ele>
        <time>2020-10-25T11:33:04Z</time>
      </trkpt>
      <trkpt lat="46.83103" lon="5.63965">
        <ele>326.1</ele>
        <time>2020-10-25T11:33:10Z</time>
      </trkpt>
      <trkpt lat="46.83099" lon="5.63961">
        <ele>325.7</ele>
        <time>2020-10-25T11:33:16Z</time>
      </trkpt>
      <trkpt lat="46.83094" lon="5.63956">
        <ele>325.2</ele>
        <time>2020-10-25T11:33:21Z</time>
      </trkpt>
      <trkpt lat="46.8309" lon="5.63952">
        <ele>324.7</ele>
        <time>2020-10-25T11:33:26Z</time>
      </trkpt>
      <trkpt lat="46.83086" lon="5.63947">
        <ele>324</ele>
        <time>2020-10-25T11:33:31Z</time>
      </trkpt>
      <trkpt lat="46.83082" lon="5.63943">
        <ele>323.3</ele>
        <time>2020-10-25T11:33:36Z</time>
      </trkpt>
      <trkpt lat="46.83079" lon="5.63937">
        <ele>322.9</ele>
        <time>2020-10-25T11:33:42Z</time>
      </trkpt>
      <trkpt lat="46.83074" lon="5.63933">
        <ele>322.7</ele>
        <time>2020-10-25T11:33:47Z</time>
      </trkpt>
      <trkpt lat="46.8307" lon="5.63928">
        <ele>322.5</ele>
        <time>2020-10-25T11:33:52Z</time>
      </trkpt>
      <trkpt lat="46.83066" lon="5.63924">
        <ele>322.6</ele>
        <time>2020-10-25T11:33:56Z</time>
      </trkpt>
      <trkpt lat="46.83061" lon="5.63921">
        <ele>322.7</ele>
        <time>2020-10-25T11:34:00Z</time>
      </trkpt>
      <trkpt lat="46.83057" lon="5.63916">
        <ele>322.9</ele>
        <time>2020-10-25T11:34:05Z</time>
      </trkpt>
      <trkpt lat="46.83054" lon="5.63911">
        <ele>322.8</ele>
        <time>2020-10-25T11:34:11Z</time>
      </trkpt>
      <trkpt lat="46.8305" lon="5.63907">
        <ele>322.8</ele>
        <time>2020-10-25T11:34:16Z</time>
      </trkpt>
      <trkpt lat="46.83046" lon="5.63904">
        <ele>322.8</ele>
        <time>2020-10-25T11:34:20Z</time>
      </trkpt>
      <trkpt lat="46.83042" lon="5.639">
        <ele>322.7</ele>
        <time>2020-10-25T11:34:26Z</time>
      </trkpt>
      <trkpt lat="46.83037" lon="5.63897">
        <ele>322.5</ele>
        <time>2020-10-25T11:34:32Z</time>
      </trkpt>
      <trkpt lat="46.83033" lon="5.63893">
        <ele>322.4</ele>
        <time>2020-10-25T11:34:37Z</time>
      </trkpt>
      <trkpt lat="46.83028" lon="5.63889">
        <ele>322.3</ele>
        <time>2020-10-25T11:34:42Z</time>
      </trkpt>
      <trkpt lat="46.83023" lon="5.63886">
        <ele>322</ele>
        <time>2020-10-25T11:34:47Z</time>
      </trkpt>
      <trkpt lat="46.83018" lon="5.63882">
        <ele>321.5</ele>
        <time>2020-10-25T11:34:52Z</time>
      </trkpt>
      <trkpt lat="46.83014" lon="5.63878">
        <ele>320.9</ele>
        <time>2020-10-25T11:34:57Z</time>
      </trkpt>
      <trkpt lat="46.8301" lon="5.63875">
        <ele>320.5</ele>
        <time>2020-10-25T11:35:02Z</time>
      </trkpt>
      <trkpt lat="46.83006" lon="5.6387">
        <ele>320.4</ele>
        <time>2020-10-25T11:35:08Z</time>
      </trkpt>
      <trkpt lat="46.83003" lon="5.63864">
        <ele>320.3</ele>
        <time>2020-10-25T11:35:14Z</time>
      </trkpt>
      <trkpt lat="46.82999" lon="5.6386">
        <ele>320.3</ele>
        <time>2020-10-25T11:35:19Z</time>
      </trkpt>
      <trkpt lat="46.82995" lon="5.63856">
        <ele>320.3</ele>
        <time>2020-10-25T11:35:23Z</time>
      </trkpt>
      <trkpt lat="46.82991" lon="5.63852">
        <ele>320.5</ele>
        <time>2020-10-25T11:35:27Z</time>
      </trkpt>
      <trkpt lat="46.82987" lon="5.63849">
        <ele>320.6</ele>
        <time>2020-10-25T11:35:32Z</time>
      </trkpt>
      <trkpt lat="46.82982" lon="5.63846">
        <ele>320.9</ele>
        <time>2020-10-25T11:35:37Z</time>
      </trkpt>
      <trkpt lat="46.82978" lon="5.63842">
        <ele>320.9</ele>
        <time>2020-10-25T11:35:42Z</time>
      </trkpt>
      <trkpt lat="46.82972" lon="5.63839">
        <ele>320.9</ele>
        <time>2020-10-25T11:35:47Z</time>
      </trkpt>
      <trkpt lat="46.82967" lon="5.63838">
        <ele>320.7</ele>
        <time>2020-10-25T11:35:52Z</time>
      </trkpt>
      <trkpt lat="46.82962" lon="5.63837">
        <ele>320.2</ele>
        <time>2020-10-25T11:35:57Z</time>
      </trkpt>
      <trkpt lat="46.82957" lon="5.63835">
        <ele>319.7</ele>
        <time>2020-10-25T11:36:02Z</time>
      </trkpt>
      <trkpt lat="46.82953" lon="5.63833">
        <ele>319.2</ele>
        <time>2020-10-25T11:36:07Z</time>
      </trkpt>
      <trkpt lat="46.82949" lon="5.63829">
        <ele>318.4</ele>
        <time>2020-10-25T11:36:16Z</time>
      </trkpt>
      <trkpt lat="46.82944" lon="5.63827">
        <ele>318.4</ele>
        <time>2020-10-25T11:36:22Z</time>
      </trkpt>
      <trkpt lat="46.82938" lon="5.63825">
        <ele>318.4</ele>
        <time>2020-10-25T11:36:27Z</time>
      </trkpt>
      <trkpt lat="46.82933" lon="5.63825">
        <ele>318.3</ele>
        <time>2020-10-25T11:36:31Z</time>
      </trkpt>
      <trkpt lat="46.82929" lon="5.63822">
        <ele>318.5</ele>
        <time>2020-10-25T11:36:35Z</time>
      </trkpt>
      <trkpt lat="46.82925" lon="5.6382">
        <ele>318.6</ele>
        <time>2020-10-25T11:36:39Z</time>
      </trkpt>
      <trkpt lat="46.8292" lon="5.63817">
        <ele>318.6</ele>
        <time>2020-10-25T11:36:44Z</time>
      </trkpt>
      <trkpt lat="46.82915" lon="5.63816">
        <ele>319</ele>
        <time>2020-10-25T11:36:49Z</time>
      </trkpt>
      <trkpt lat="46.82909" lon="5.63814">
        <ele>319.7</ele>
        <time>2020-10-25T11:36:53Z</time>
      </trkpt>
      <trkpt lat="46.82904" lon="5.63813">
        <ele>320.5</ele>
        <time>2020-10-25T11:36:56Z</time>
      </trkpt>
      <trkpt lat="46.829" lon="5.63809">
        <ele>321.2</ele>
        <time>2020-10-25T11:37:01Z</time>
      </trkpt>
      <trkpt lat="46.82896" lon="5.63806">
        <ele>321.4</ele>
        <time>2020-10-25T11:37:05Z</time>
      </trkpt>
      <trkpt lat="46.82891" lon="5.63804">
        <ele>321.6</ele>
        <time>2020-10-25T11:37:09Z</time>
      </trkpt>
      <trkpt lat="46.82886" lon="5.63803">
        <ele>321.9</ele>
        <time>2020-10-25T11:37:13Z</time>
      </trkpt>
      <trkpt lat="46.82881" lon="5.63802">
        <ele>322.2</ele>
        <time>2020-10-25T11:37:17Z</time>
      </trkpt>
      <trkpt lat="46.82876" lon="5.63804">
        <ele>322.5</ele>
        <time>2020-10-25T11:37:21Z</time>
      </trkpt>
      <trkpt lat="46.82871" lon="5.63805">
        <ele>322.7</ele>
        <time>2020-10-25T11:37:25Z</time>
      </trkpt>
      <trkpt lat="46.82866" lon="5.63806">
        <ele>322.7</ele>
        <time>2020-10-25T11:37:30Z</time>
      </trkpt>
      <trkpt lat="46.82861" lon="5.63805">
        <ele>322.7</ele>
        <time>2020-10-25T11:37:35Z</time>
      </trkpt>
      <trkpt lat="46.82856" lon="5.63806">
        <ele>322.7</ele>
        <time>2020-10-25T11:37:40Z</time>
      </trkpt>
      <trkpt lat="46.82851" lon="5.63805">
        <ele>323</ele>
        <time>2020-10-25T11:37:45Z</time>
      </trkpt>
      <trkpt lat="46.82846" lon="5.63804">
        <ele>323.7</ele>
        <time>2020-10-25T11:37:50Z</time>
      </trkpt>
      <trkpt lat="46.82841" lon="5.63803">
        <ele>324.2</ele>
        <time>2020-10-25T11:37:54Z</time>
      </trkpt>
      <trkpt lat="46.82836" lon="5.63803">
        <ele>324.7</ele>
        <time>2020-10-25T11:37:59Z</time>
      </trkpt>
      <trkpt lat="46.82831" lon="5.63801">
        <ele>325.4</ele>
        <time>2020-10-25T11:38:04Z</time>
      </trkpt>
      <trkpt lat="46.82826" lon="5.638">
        <ele>326.3</ele>
        <time>2020-10-25T11:38:10Z</time>
      </trkpt>
      <trkpt lat="46.82821" lon="5.638">
        <ele>326.2</ele>
        <time>2020-10-25T11:38:16Z</time>
      </trkpt>
      <trkpt lat="46.82816" lon="5.63799">
        <ele>326.3</ele>
        <time>2020-10-25T11:38:20Z</time>
      </trkpt>
      <trkpt lat="46.82811" lon="5.63797">
        <ele>327.2</ele>
        <time>2020-10-25T11:38:24Z</time>
      </trkpt>
      <trkpt lat="46.82806" lon="5.63797">
        <ele>328.5</ele>
        <time>2020-10-25T11:38:27Z</time>
      </trkpt>
      <trkpt lat="46.82801" lon="5.63797">
        <ele>331.3</ele>
        <time>2020-10-25T11:38:33Z</time>
      </trkpt>
      <trkpt lat="46.82795" lon="5.63795">
        <ele>333.5</ele>
        <time>2020-10-25T11:38:38Z</time>
      </trkpt>
      <trkpt lat="46.8279" lon="5.63794">
        <ele>335.1</ele>
        <time>2020-10-25T11:38:42Z</time>
      </trkpt>
      <trkpt lat="46.82785" lon="5.63794">
        <ele>336.6</ele>
        <time>2020-10-25T11:38:46Z</time>
      </trkpt>
      <trkpt lat="46.8278" lon="5.63792">
        <ele>338</ele>
        <time>2020-10-25T11:38:52Z</time>
      </trkpt>
      <trkpt lat="46.82775" lon="5.63791">
        <ele>338.2</ele>
        <time>2020-10-25T11:39:13Z</time>
      </trkpt>
      <trkpt lat="46.82771" lon="5.6379">
        <ele>337.9</ele>
        <time>2020-10-25T11:39:18Z</time>
      </trkpt>
      <trkpt lat="46.82766" lon="5.63789">
        <ele>338.1</ele>
        <time>2020-10-25T11:39:23Z</time>
      </trkpt>
      <trkpt lat="46.82761" lon="5.63787">
        <ele>338.6</ele>
        <time>2020-10-25T11:39:38Z</time>
      </trkpt>
      <trkpt lat="46.82756" lon="5.63785">
        <ele>338.4</ele>
        <time>2020-10-25T11:39:43Z</time>
      </trkpt>
      <trkpt lat="46.82751" lon="5.63784">
        <ele>338</ele>
        <time>2020-10-25T11:39:48Z</time>
      </trkpt>
      <trkpt lat="46.82746" lon="5.63784">
        <ele>337.5</ele>
        <time>2020-10-25T11:39:54Z</time>
      </trkpt>
      <trkpt lat="46.8274" lon="5.63784">
        <ele>337.4</ele>
        <time>2020-10-25T11:39:59Z</time>
      </trkpt>
      <trkpt lat="46.82736" lon="5.63783">
        <ele>337.3</ele>
        <time>2020-10-25T11:40:03Z</time>
      </trkpt>
      <trkpt lat="46.82731" lon="5.63783">
        <ele>337.3</ele>
        <time>2020-10-25T11:40:07Z</time>
      </trkpt>
      <trkpt lat="46.82727" lon="5.63782">
        <ele>337.4</ele>
        <time>2020-10-25T11:40:11Z</time>
      </trkpt>
      <trkpt lat="46.82722" lon="5.63781">
        <ele>337.3</ele>
        <time>2020-10-25T11:40:16Z</time>
      </trkpt>
      <trkpt lat="46.82717" lon="5.63781">
        <ele>337.3</ele>
        <time>2020-10-25T11:40:22Z</time>
      </trkpt>
      <trkpt lat="46.82713" lon="5.6378">
        <ele>337</ele>
        <time>2020-10-25T11:40:27Z</time>
      </trkpt>
      <trkpt lat="46.82707" lon="5.63778">
        <ele>336.6</ele>
        <time>2020-10-25T11:40:32Z</time>
      </trkpt>
      <trkpt lat="46.82703" lon="5.63776">
        <ele>336.3</ele>
        <time>2020-10-25T11:40:37Z</time>
      </trkpt>
      <trkpt lat="46.82698" lon="5.63773">
        <ele>336.1</ele>
        <time>2020-10-25T11:40:42Z</time>
      </trkpt>
      <trkpt lat="46.82694" lon="5.6377">
        <ele>336.1</ele>
        <time>2020-10-25T11:40:47Z</time>
      </trkpt>
      <trkpt lat="46.82689" lon="5.63766">
        <ele>336.4</ele>
        <time>2020-10-25T11:40:52Z</time>
      </trkpt>
      <trkpt lat="46.82684" lon="5.63764">
        <ele>336.6</ele>
        <time>2020-10-25T11:40:58Z</time>
      </trkpt>
      <trkpt lat="46.8268" lon="5.63763">
        <ele>336.6</ele>
        <time>2020-10-25T11:41:03Z</time>
      </trkpt>
      <trkpt lat="46.82675" lon="5.63761">
        <ele>336.2</ele>
        <time>2020-10-25T11:41:08Z</time>
      </trkpt>
      <trkpt lat="46.8267" lon="5.63758">
        <ele>335.6</ele>
        <time>2020-10-25T11:41:13Z</time>
      </trkpt>
      <trkpt lat="46.82666" lon="5.63755">
        <ele>334.6</ele>
        <time>2020-10-25T11:41:18Z</time>
      </trkpt>
      <trkpt lat="46.82664" lon="5.63749">
        <ele>333</ele>
        <time>2020-10-25T11:41:54Z</time>
      </trkpt>
      <trkpt lat="46.82661" lon="5.63743">
        <ele>332.4</ele>
        <time>2020-10-25T11:42:05Z</time>
      </trkpt>
      <trkpt lat="46.82658" lon="5.63736">
        <ele>332.6</ele>
        <time>2020-10-25T11:42:10Z</time>
      </trkpt>
      <trkpt lat="46.82655" lon="5.6373">
        <ele>332.6</ele>
        <time>2020-10-25T11:42:16Z</time>
      </trkpt>
      <trkpt lat="46.82652" lon="5.63725">
        <ele>332.5</ele>
        <time>2020-10-25T11:42:22Z</time>
      </trkpt>
      <trkpt lat="46.8265" lon="5.63718">
        <ele>331.8</ele>
        <time>2020-10-25T11:42:29Z</time>
      </trkpt>
      <trkpt lat="46.8265" lon="5.6371">
        <ele>330.6</ele>
        <time>2020-10-25T11:42:36Z</time>
      </trkpt>
      <trkpt lat="46.82649" lon="5.63703">
        <ele>329.6</ele>
        <time>2020-10-25T11:42:42Z</time>
      </trkpt>
      <trkpt lat="46.82648" lon="5.63697">
        <ele>329.1</ele>
        <time>2020-10-25T11:42:47Z</time>
      </trkpt>
      <trkpt lat="46.82645" lon="5.6369">
        <ele>329.2</ele>
        <time>2020-10-25T11:42:52Z</time>
      </trkpt>
      <trkpt lat="46.82643" lon="5.63684">
        <ele>329</ele>
        <time>2020-10-25T11:42:57Z</time>
      </trkpt>
      <trkpt lat="46.8264" lon="5.63678">
        <ele>326.8</ele>
        <time>2020-10-25T11:43:04Z</time>
      </trkpt>
      <trkpt lat="46.82642" lon="5.63672">
        <ele>325.4</ele>
        <time>2020-10-25T11:43:10Z</time>
      </trkpt>
      <trkpt lat="46.82645" lon="5.63667">
        <ele>325</ele>
        <time>2020-10-25T11:43:18Z</time>
      </trkpt>
      <trkpt lat="46.82649" lon="5.63665">
        <ele>324.3</ele>
        <time>2020-10-25T11:43:23Z</time>
      </trkpt>
      <trkpt lat="46.82654" lon="5.63663">
        <ele>323</ele>
        <time>2020-10-25T11:43:30Z</time>
      </trkpt>
      <trkpt lat="46.82659" lon="5.63663">
        <ele>322.6</ele>
        <time>2020-10-25T11:43:40Z</time>
      </trkpt>
      <trkpt lat="46.82664" lon="5.6366">
        <ele>323</ele>
        <time>2020-10-25T11:43:45Z</time>
      </trkpt>
      <trkpt lat="46.82669" lon="5.63658">
        <ele>324</ele>
        <time>2020-10-25T11:43:50Z</time>
      </trkpt>
      <trkpt lat="46.82673" lon="5.63656">
        <ele>324.1</ele>
        <time>2020-10-25T11:43:55Z</time>
      </trkpt>
      <trkpt lat="46.82679" lon="5.63655">
        <ele>323.1</ele>
        <time>2020-10-25T11:44:00Z</time>
      </trkpt>
      <trkpt lat="46.82684" lon="5.63655">
        <ele>321.8</ele>
        <time>2020-10-25T11:44:06Z</time>
      </trkpt>
      <trkpt lat="46.82689" lon="5.63655">
        <ele>320.9</ele>
        <time>2020-10-25T11:44:11Z</time>
      </trkpt>
      <trkpt lat="46.82694" lon="5.63654">
        <ele>320.6</ele>
        <time>2020-10-25T11:44:15Z</time>
      </trkpt>
      <trkpt lat="46.82699" lon="5.63652">
        <ele>320.2</ele>
        <time>2020-10-25T11:44:20Z</time>
      </trkpt>
      <trkpt lat="46.82704" lon="5.63649">
        <ele>319.8</ele>
        <time>2020-10-25T11:44:25Z</time>
      </trkpt>
      <trkpt lat="46.82709" lon="5.63647">
        <ele>319.2</ele>
        <time>2020-10-25T11:44:30Z</time>
      </trkpt>
      <trkpt lat="46.82714" lon="5.63645">
        <ele>318.8</ele>
        <time>2020-10-25T11:44:35Z</time>
      </trkpt>
      <trkpt lat="46.82719" lon="5.63643">
        <ele>318.4</ele>
        <time>2020-10-25T11:44:39Z</time>
      </trkpt>
      <trkpt lat="46.82724" lon="5.6364">
        <ele>317.7</ele>
        <time>2020-10-25T11:44:44Z</time>
      </trkpt>
      <trkpt lat="46.82728" lon="5.63637">
        <ele>317.3</ele>
        <time>2020-10-25T11:44:49Z</time>
      </trkpt>
      <trkpt lat="46.82733" lon="5.63634">
        <ele>316.7</ele>
        <time>2020-10-25T11:44:54Z</time>
      </trkpt>
      <trkpt lat="46.82738" lon="5.63631">
        <ele>316.1</ele>
        <time>2020-10-25T11:44:59Z</time>
      </trkpt>
      <trkpt lat="46.82743" lon="5.63629">
        <ele>315.7</ele>
        <time>2020-10-25T11:45:04Z</time>
      </trkpt>
      <trkpt lat="46.82748" lon="5.63628">
        <ele>315</ele>
        <time>2020-10-25T11:45:09Z</time>
      </trkpt>
      <trkpt lat="46.82752" lon="5.63626">
        <ele>314.5</ele>
        <time>2020-10-25T11:45:13Z</time>
      </trkpt>
      <trkpt lat="46.82757" lon="5.63626">
        <ele>314.3</ele>
        <time>2020-10-25T11:45:17Z</time>
      </trkpt>
      <trkpt lat="46.82762" lon="5.63626">
        <ele>314.2</ele>
        <time>2020-10-25T11:45:21Z</time>
      </trkpt>
      <trkpt lat="46.82767" lon="5.63627">
        <ele>314.3</ele>
        <time>2020-10-25T11:45:25Z</time>
      </trkpt>
      <trkpt lat="46.82771" lon="5.63628">
        <ele>314.7</ele>
        <time>2020-10-25T11:45:29Z</time>
      </trkpt>
      <trkpt lat="46.82776" lon="5.6363">
        <ele>315.3</ele>
        <time>2020-10-25T11:45:34Z</time>
      </trkpt>
      <trkpt lat="46.82781" lon="5.63631">
        <ele>315.4</ele>
        <time>2020-10-25T11:45:39Z</time>
      </trkpt>
      <trkpt lat="46.82786" lon="5.63634">
        <ele>315.1</ele>
        <time>2020-10-25T11:45:44Z</time>
      </trkpt>
      <trkpt lat="46.82791" lon="5.63634">
        <ele>314.7</ele>
        <time>2020-10-25T11:45:49Z</time>
      </trkpt>
      <trkpt lat="46.82794" lon="5.63637">
        <ele>315.8</ele>
        <time>2020-10-25T11:46:48Z</time>
      </trkpt>
      <trkpt lat="46.82799" lon="5.63638">
        <ele>314.6</ele>
        <time>2020-10-25T11:48:54Z</time>
      </trkpt>
      <trkpt lat="46.82804" lon="5.63636">
        <ele>315.3</ele>
        <time>2020-10-25T11:49:30Z</time>
      </trkpt>
      <trkpt lat="46.82808" lon="5.63637">
        <ele>315.7</ele>
        <time>2020-10-25T11:49:35Z</time>
      </trkpt>
      <trkpt lat="46.82813" lon="5.63639">
        <ele>315.6</ele>
        <time>2020-10-25T11:49:44Z</time>
      </trkpt>
      <trkpt lat="46.82817" lon="5.6364">
        <ele>314.7</ele>
        <time>2020-10-25T11:49:54Z</time>
      </trkpt>
      <trkpt lat="46.82822" lon="5.63642">
        <ele>314.8</ele>
        <time>2020-10-25T11:50:01Z</time>
      </trkpt>
      <trkpt lat="46.82826" lon="5.63643">
        <ele>314.9</ele>
        <time>2020-10-25T11:50:06Z</time>
      </trkpt>
      <trkpt lat="46.82832" lon="5.63645">
        <ele>314.8</ele>
        <time>2020-10-25T11:50:11Z</time>
      </trkpt>
      <trkpt lat="46.82836" lon="5.63647">
        <ele>314.6</ele>
        <time>2020-10-25T11:50:15Z</time>
      </trkpt>
      <trkpt lat="46.8284" lon="5.63647">
        <ele>314.5</ele>
        <time>2020-10-25T11:50:19Z</time>
      </trkpt>
      <trkpt lat="46.82846" lon="5.63648">
        <ele>314.6</ele>
        <time>2020-10-25T11:50:24Z</time>
      </trkpt>
      <trkpt lat="46.8285" lon="5.6365">
        <ele>314.7</ele>
        <time>2020-10-25T11:50:28Z</time>
      </trkpt>
      <trkpt lat="46.82855" lon="5.63651">
        <ele>314.8</ele>
        <time>2020-10-25T11:50:32Z</time>
      </trkpt>
      <trkpt lat="46.82859" lon="5.63652">
        <ele>314.8</ele>
        <time>2020-10-25T11:50:36Z</time>
      </trkpt>
      <trkpt lat="46.82864" lon="5.63654">
        <ele>314.8</ele>
        <time>2020-10-25T11:50:41Z</time>
      </trkpt>
      <trkpt lat="46.82868" lon="5.63656">
        <ele>315.3</ele>
        <time>2020-10-25T11:51:02Z</time>
      </trkpt>
      <trkpt lat="46.82873" lon="5.63659">
        <ele>316</ele>
        <time>2020-10-25T11:51:07Z</time>
      </trkpt>
      <trkpt lat="46.82878" lon="5.63661">
        <ele>315.9</ele>
        <time>2020-10-25T11:51:12Z</time>
      </trkpt>
      <trkpt lat="46.82883" lon="5.63661">
        <ele>315.4</ele>
        <time>2020-10-25T11:51:16Z</time>
      </trkpt>
      <trkpt lat="46.82888" lon="5.63662">
        <ele>315.2</ele>
        <time>2020-10-25T11:51:20Z</time>
      </trkpt>
      <trkpt lat="46.82893" lon="5.63663">
        <ele>315</ele>
        <time>2020-10-25T11:51:24Z</time>
      </trkpt>
      <trkpt lat="46.82898" lon="5.63666">
        <ele>314.8</ele>
        <time>2020-10-25T11:51:28Z</time>
      </trkpt>
      <trkpt lat="46.82902" lon="5.63669">
        <ele>314.7</ele>
        <time>2020-10-25T11:51:33Z</time>
      </trkpt>
      <trkpt lat="46.82907" lon="5.63672">
        <ele>314.7</ele>
        <time>2020-10-25T11:51:37Z</time>
      </trkpt>
      <trkpt lat="46.82911" lon="5.63674">
        <ele>314.9</ele>
        <time>2020-10-25T11:51:41Z</time>
      </trkpt>
      <trkpt lat="46.82916" lon="5.63675">
        <ele>315.3</ele>
        <time>2020-10-25T11:51:46Z</time>
      </trkpt>
      <trkpt lat="46.82921" lon="5.63677">
        <ele>315.2</ele>
        <time>2020-10-25T11:51:51Z</time>
      </trkpt>
      <trkpt lat="46.82926" lon="5.63679">
        <ele>315</ele>
        <time>2020-10-25T11:51:55Z</time>
      </trkpt>
      <trkpt lat="46.82931" lon="5.6368">
        <ele>314.7</ele>
        <time>2020-10-25T11:52:00Z</time>
      </trkpt>
      <trkpt lat="46.82936" lon="5.63682">
        <ele>314.4</ele>
        <time>2020-10-25T11:52:05Z</time>
      </trkpt>
      <trkpt lat="46.82941" lon="5.63684">
        <ele>314.1</ele>
        <time>2020-10-25T11:52:10Z</time>
      </trkpt>
      <trkpt lat="46.82945" lon="5.63686">
        <ele>313.8</ele>
        <time>2020-10-25T11:52:15Z</time>
      </trkpt>
      <trkpt lat="46.82949" lon="5.63689">
        <ele>313.7</ele>
        <time>2020-10-25T11:52:20Z</time>
      </trkpt>
      <trkpt lat="46.82954" lon="5.63691">
        <ele>313.4</ele>
        <time>2020-10-25T11:52:25Z</time>
      </trkpt>
      <trkpt lat="46.8296" lon="5.63691">
        <ele>313</ele>
        <time>2020-10-25T11:52:30Z</time>
      </trkpt>
      <trkpt lat="46.82965" lon="5.63694">
        <ele>312.9</ele>
        <time>2020-10-25T11:52:35Z</time>
      </trkpt>
      <trkpt lat="46.8297" lon="5.63696">
        <ele>312.8</ele>
        <time>2020-10-25T11:52:40Z</time>
      </trkpt>
      <trkpt lat="46.82975" lon="5.63697">
        <ele>312.3</ele>
        <time>2020-10-25T11:52:45Z</time>
      </trkpt>
      <trkpt lat="46.8298" lon="5.63699">
        <ele>311.9</ele>
        <time>2020-10-25T11:52:50Z</time>
      </trkpt>
      <trkpt lat="46.82986" lon="5.63701">
        <ele>311.4</ele>
        <time>2020-10-25T11:52:55Z</time>
      </trkpt>
      <trkpt lat="46.82991" lon="5.63702">
        <ele>311.2</ele>
        <time>2020-10-25T11:53:00Z</time>
      </trkpt>
      <trkpt lat="46.82996" lon="5.63704">
        <ele>311.2</ele>
        <time>2020-10-25T11:53:05Z</time>
      </trkpt>
      <trkpt lat="46.83001" lon="5.63706">
        <ele>311</ele>
        <time>2020-10-25T11:53:10Z</time>
      </trkpt>
      <trkpt lat="46.83006" lon="5.63707">
        <ele>310.6</ele>
        <time>2020-10-25T11:53:15Z</time>
      </trkpt>
      <trkpt lat="46.8301" lon="5.63707">
        <ele>310.1</ele>
        <time>2020-10-25T11:53:20Z</time>
      </trkpt>
      <trkpt lat="46.83016" lon="5.63708">
        <ele>309.7</ele>
        <time>2020-10-25T11:53:25Z</time>
      </trkpt>
      <trkpt lat="46.83021" lon="5.63707">
        <ele>309.1</ele>
        <time>2020-10-25T11:53:30Z</time>
      </trkpt>
      <trkpt lat="46.83025" lon="5.63704">
        <ele>308.1</ele>
        <time>2020-10-25T11:53:36Z</time>
      </trkpt>
      <trkpt lat="46.8303" lon="5.63702">
        <ele>307.2</ele>
        <time>2020-10-25T11:53:42Z</time>
      </trkpt>
      <trkpt lat="46.83034" lon="5.63698">
        <ele>306.6</ele>
        <time>2020-10-25T11:53:47Z</time>
      </trkpt>
      <trkpt lat="46.83038" lon="5.63694">
        <ele>305.6</ele>
        <time>2020-10-25T11:53:53Z</time>
      </trkpt>
      <trkpt lat="46.83042" lon="5.6369">
        <ele>304.5</ele>
        <time>2020-10-25T11:53:59Z</time>
      </trkpt>
      <trkpt lat="46.83047" lon="5.63686">
        <ele>303.5</ele>
        <time>2020-10-25T11:54:05Z</time>
      </trkpt>
      <trkpt lat="46.83051" lon="5.6368">
        <ele>302.4</ele>
        <time>2020-10-25T11:54:11Z</time>
      </trkpt>
      <trkpt lat="46.8305" lon="5.63674">
        <ele>301.6</ele>
        <time>2020-10-25T11:54:19Z</time>
      </trkpt>
      <trkpt lat="46.83055" lon="5.63673">
        <ele>299.6</ele>
        <time>2020-10-25T11:54:48Z</time>
      </trkpt>
      <trkpt lat="46.8306" lon="5.63671">
        <ele>299.6</ele>
        <time>2020-10-25T11:54:53Z</time>
      </trkpt>
      <trkpt lat="46.83065" lon="5.63668">
        <ele>299.8</ele>
        <time>2020-10-25T11:54:58Z</time>
      </trkpt>
      <trkpt lat="46.83069" lon="5.63663">
        <ele>299.9</ele>
        <time>2020-10-25T11:55:03Z</time>
      </trkpt>
      <trkpt lat="46.83072" lon="5.63657">
        <ele>300</ele>
        <time>2020-10-25T11:55:17Z</time>
      </trkpt>
      <trkpt lat="46.83073" lon="5.6365">
        <ele>299.8</ele>
        <time>2020-10-25T11:55:22Z</time>
      </trkpt>
      <trkpt lat="46.83074" lon="5.63643">
        <ele>299.7</ele>
        <time>2020-10-25T11:55:30Z</time>
      </trkpt>
      <trkpt lat="46.83074" lon="5.63636">
        <ele>299.6</ele>
        <time>2020-10-25T11:55:37Z</time>
      </trkpt>
      <trkpt lat="46.83074" lon="5.6363">
        <ele>299.3</ele>
        <time>2020-10-25T11:55:42Z</time>
      </trkpt>
      <trkpt lat="46.83074" lon="5.63622">
        <ele>298.9</ele>
        <time>2020-10-25T11:55:47Z</time>
      </trkpt>
      <trkpt lat="46.83072" lon="5.63616">
        <ele>298.3</ele>
        <time>2020-10-25T11:55:52Z</time>
      </trkpt>
      <trkpt lat="46.83071" lon="5.63609">
        <ele>297.2</ele>
        <time>2020-10-25T11:55:57Z</time>
      </trkpt>
      <trkpt lat="46.83069" lon="5.63602">
        <ele>296.2</ele>
        <time>2020-10-25T11:56:02Z</time>
      </trkpt>
      <trkpt lat="46.83069" lon="5.63594">
        <ele>295.1</ele>
        <time>2020-10-25T11:56:07Z</time>
      </trkpt>
      <trkpt lat="46.83069" lon="5.63587">
        <ele>293.8</ele>
        <time>2020-10-25T11:56:12Z</time>
      </trkpt>
      <trkpt lat="46.83069" lon="5.63579">
        <ele>292.3</ele>
        <time>2020-10-25T11:56:17Z</time>
      </trkpt>
      <trkpt lat="46.8307" lon="5.63572">
        <ele>290.9</ele>
        <time>2020-10-25T11:56:22Z</time>
      </trkpt>
      <trkpt lat="46.83071" lon="5.63564">
        <ele>289.9</ele>
        <time>2020-10-25T11:56:27Z</time>
      </trkpt>
      <trkpt lat="46.83071" lon="5.63557">
        <ele>289.1</ele>
        <time>2020-10-25T11:56:32Z</time>
      </trkpt>
      <trkpt lat="46.83071" lon="5.63549">
        <ele>288.5</ele>
        <time>2020-10-25T11:56:37Z</time>
      </trkpt>
      <trkpt lat="46.83072" lon="5.63541">
        <ele>287.9</ele>
        <time>2020-10-25T11:56:42Z</time>
      </trkpt>
      <trkpt lat="46.83072" lon="5.63534">
        <ele>287.3</ele>
        <time>2020-10-25T11:56:47Z</time>
      </trkpt>
      <trkpt lat="46.83072" lon="5.63526">
        <ele>286.8</ele>
        <time>2020-10-25T11:56:52Z</time>
      </trkpt>
      <trkpt lat="46.83072" lon="5.63518">
        <ele>286.4</ele>
        <time>2020-10-25T11:56:57Z</time>
      </trkpt>
      <trkpt lat="46.83073" lon="5.63511">
        <ele>286.2</ele>
        <time>2020-10-25T11:57:02Z</time>
      </trkpt>
      <trkpt lat="46.83074" lon="5.63503">
        <ele>285.9</ele>
        <time>2020-10-25T11:57:07Z</time>
      </trkpt>
      <trkpt lat="46.83074" lon="5.63496">
        <ele>285.2</ele>
        <time>2020-10-25T11:57:12Z</time>
      </trkpt>
      <trkpt lat="46.83074" lon="5.63489">
        <ele>284.6</ele>
        <time>2020-10-25T11:57:17Z</time>
      </trkpt>
      <trkpt lat="46.83074" lon="5.63482">
        <ele>283.7</ele>
        <time>2020-10-25T11:57:22Z</time>
      </trkpt>
      <trkpt lat="46.83074" lon="5.63475">
        <ele>282.9</ele>
        <time>2020-10-25T11:57:27Z</time>
      </trkpt>
      <trkpt lat="46.83074" lon="5.63468">
        <ele>282.5</ele>
        <time>2020-10-25T11:57:32Z</time>
      </trkpt>
      <trkpt lat="46.83075" lon="5.63461">
        <ele>282.2</ele>
        <time>2020-10-25T11:57:37Z</time>
      </trkpt>
      <trkpt lat="46.83075" lon="5.63453">
        <ele>282.3</ele>
        <time>2020-10-25T11:57:42Z</time>
      </trkpt>
      <trkpt lat="46.83075" lon="5.63446">
        <ele>282.3</ele>
        <time>2020-10-25T11:57:46Z</time>
      </trkpt>
      <trkpt lat="46.83075" lon="5.6344">
        <ele>282.5</ele>
        <time>2020-10-25T11:57:50Z</time>
      </trkpt>
      <trkpt lat="46.83074" lon="5.63432">
        <ele>282.5</ele>
        <time>2020-10-25T11:57:56Z</time>
      </trkpt>
      <trkpt lat="46.83074" lon="5.63425">
        <ele>282</ele>
        <time>2020-10-25T11:58:01Z</time>
      </trkpt>
      <trkpt lat="46.83071" lon="5.63418">
        <ele>281.5</ele>
        <time>2020-10-25T11:58:06Z</time>
      </trkpt>
      <trkpt lat="46.83068" lon="5.63413">
        <ele>280.9</ele>
        <time>2020-10-25T11:58:11Z</time>
      </trkpt>
      <trkpt lat="46.83064" lon="5.63408">
        <ele>280.4</ele>
        <time>2020-10-25T11:58:16Z</time>
      </trkpt>
      <trkpt lat="46.8306" lon="5.63402">
        <ele>280</ele>
        <time>2020-10-25T11:58:21Z</time>
      </trkpt>
      <trkpt lat="46.83057" lon="5.63396">
        <ele>279.8</ele>
        <time>2020-10-25T11:58:26Z</time>
      </trkpt>
      <trkpt lat="46.83054" lon="5.63391">
        <ele>279.8</ele>
        <time>2020-10-25T11:58:30Z</time>
      </trkpt>
      <trkpt lat="46.83051" lon="5.63385">
        <ele>279.8</ele>
        <time>2020-10-25T11:58:35Z</time>
      </trkpt>
      <trkpt lat="46.83047" lon="5.63381">
        <ele>279.9</ele>
        <time>2020-10-25T11:58:39Z</time>
      </trkpt>
      <trkpt lat="46.83043" lon="5.63377">
        <ele>279.7</ele>
        <time>2020-10-25T11:58:43Z</time>
      </trkpt>
      <trkpt lat="46.83039" lon="5.63373">
        <ele>279.3</ele>
        <time>2020-10-25T11:58:47Z</time>
      </trkpt>
      <trkpt lat="46.83035" lon="5.6337">
        <ele>279</ele>
        <time>2020-10-25T11:58:51Z</time>
      </trkpt>
      <trkpt lat="46.8303" lon="5.63367">
        <ele>278.6</ele>
        <time>2020-10-25T11:58:56Z</time>
      </trkpt>
      <trkpt lat="46.83025" lon="5.63365">
        <ele>278.4</ele>
        <time>2020-10-25T11:59:01Z</time>
      </trkpt>
      <trkpt lat="46.83019" lon="5.63362">
        <ele>278.4</ele>
        <time>2020-10-25T11:59:06Z</time>
      </trkpt>
      <trkpt lat="46.83015" lon="5.6336">
        <ele>278.4</ele>
        <time>2020-10-25T11:59:11Z</time>
      </trkpt>
      <trkpt lat="46.83009" lon="5.63359">
        <ele>278.7</ele>
        <time>2020-10-25T11:59:16Z</time>
      </trkpt>
      <trkpt lat="46.83005" lon="5.63357">
        <ele>279.3</ele>
        <time>2020-10-25T11:59:21Z</time>
      </trkpt>
      <trkpt lat="46.83" lon="5.63355">
        <ele>279.9</ele>
        <time>2020-10-25T11:59:25Z</time>
      </trkpt>
      <trkpt lat="46.82995" lon="5.63353">
        <ele>280.5</ele>
        <time>2020-10-25T11:59:29Z</time>
      </trkpt>
      <trkpt lat="46.8299" lon="5.6335">
        <ele>281.3</ele>
        <time>2020-10-25T11:59:33Z</time>
      </trkpt>
      <trkpt lat="46.82986" lon="5.63348">
        <ele>282.2</ele>
        <time>2020-10-25T11:59:37Z</time>
      </trkpt>
      <trkpt lat="46.82981" lon="5.63345">
        <ele>282.9</ele>
        <time>2020-10-25T11:59:41Z</time>
      </trkpt>
      <trkpt lat="46.82976" lon="5.63343">
        <ele>283.6</ele>
        <time>2020-10-25T11:59:45Z</time>
      </trkpt>
      <trkpt lat="46.82972" lon="5.63341">
        <ele>284.2</ele>
        <time>2020-10-25T11:59:49Z</time>
      </trkpt>
      <trkpt lat="46.82968" lon="5.63339">
        <ele>284.7</ele>
        <time>2020-10-25T11:59:53Z</time>
      </trkpt>
      <trkpt lat="46.82962" lon="5.63336">
        <ele>285.1</ele>
        <time>2020-10-25T11:59:58Z</time>
      </trkpt>
      <trkpt lat="46.82958" lon="5.63333">
        <ele>285.3</ele>
        <time>2020-10-25T12:00:02Z</time>
      </trkpt>
      <trkpt lat="46.82954" lon="5.6333">
        <ele>285.4</ele>
        <time>2020-10-25T12:00:06Z</time>
      </trkpt>
      <trkpt lat="46.82949" lon="5.63326">
        <ele>285.4</ele>
        <time>2020-10-25T12:00:10Z</time>
      </trkpt>
      <trkpt lat="46.82945" lon="5.63324">
        <ele>285.5</ele>
        <time>2020-10-25T12:00:14Z</time>
      </trkpt>
      <trkpt lat="46.82941" lon="5.63321">
        <ele>285.9</ele>
        <time>2020-10-25T12:00:18Z</time>
      </trkpt>
      <trkpt lat="46.82936" lon="5.63319">
        <ele>286.3</ele>
        <time>2020-10-25T12:00:22Z</time>
      </trkpt>
      <trkpt lat="46.82932" lon="5.63316">
        <ele>286.6</ele>
        <time>2020-10-25T12:00:26Z</time>
      </trkpt>
      <trkpt lat="46.82928" lon="5.63313">
        <ele>286.6</ele>
        <time>2020-10-25T12:00:30Z</time>
      </trkpt>
      <trkpt lat="46.82923" lon="5.63309">
        <ele>286.5</ele>
        <time>2020-10-25T12:00:35Z</time>
      </trkpt>
      <trkpt lat="46.82918" lon="5.63305">
        <ele>286.1</ele>
        <time>2020-10-25T12:00:40Z</time>
      </trkpt>
      <trkpt lat="46.82914" lon="5.63302">
        <ele>285.9</ele>
        <time>2020-10-25T12:00:44Z</time>
      </trkpt>
      <trkpt lat="46.8291" lon="5.63298">
        <ele>285.9</ele>
        <time>2020-10-25T12:00:49Z</time>
      </trkpt>
      <trkpt lat="46.82905" lon="5.63294">
        <ele>285.8</ele>
        <time>2020-10-25T12:00:54Z</time>
      </trkpt>
      <trkpt lat="46.829" lon="5.63289">
        <ele>285</ele>
        <time>2020-10-25T12:00:59Z</time>
      </trkpt>
      <trkpt lat="46.82896" lon="5.63285">
        <ele>284.4</ele>
        <time>2020-10-25T12:01:03Z</time>
      </trkpt>
      <trkpt lat="46.82893" lon="5.63281">
        <ele>283.7</ele>
        <time>2020-10-25T12:01:07Z</time>
      </trkpt>
      <trkpt lat="46.8289" lon="5.63274">
        <ele>283.1</ele>
        <time>2020-10-25T12:01:12Z</time>
      </trkpt>
      <trkpt lat="46.82892" lon="5.63267">
        <ele>282.9</ele>
        <time>2020-10-25T12:01:19Z</time>
      </trkpt>
      <trkpt lat="46.82895" lon="5.63264">
        <ele>282.2</ele>
        <time>2020-10-25T12:01:45Z</time>
      </trkpt>
      <trkpt lat="46.82899" lon="5.63259">
        <ele>281.6</ele>
        <time>2020-10-25T12:01:50Z</time>
      </trkpt>
      <trkpt lat="46.82902" lon="5.63254">
        <ele>281.4</ele>
        <time>2020-10-25T12:01:55Z</time>
      </trkpt>
      <trkpt lat="46.82906" lon="5.6325">
        <ele>281.3</ele>
        <time>2020-10-25T12:02:00Z</time>
      </trkpt>
      <trkpt lat="46.8291" lon="5.63247">
        <ele>281</ele>
        <time>2020-10-25T12:02:04Z</time>
      </trkpt>
      <trkpt lat="46.82914" lon="5.63242">
        <ele>280.8</ele>
        <time>2020-10-25T12:02:08Z</time>
      </trkpt>
      <trkpt lat="46.82918" lon="5.63241">
        <ele>280.8</ele>
        <time>2020-10-25T12:02:13Z</time>
      </trkpt>
      <trkpt lat="46.82923" lon="5.63238">
        <ele>280.9</ele>
        <time>2020-10-25T12:02:18Z</time>
      </trkpt>
      <trkpt lat="46.82927" lon="5.63234">
        <ele>281</ele>
        <time>2020-10-25T12:02:23Z</time>
      </trkpt>
      <trkpt lat="46.82931" lon="5.63231">
        <ele>280.9</ele>
        <time>2020-10-25T12:02:28Z</time>
      </trkpt>
      <trkpt lat="46.82936" lon="5.63227">
        <ele>280.6</ele>
        <time>2020-10-25T12:02:33Z</time>
      </trkpt>
      <trkpt lat="46.82941" lon="5.63224">
        <ele>280.6</ele>
        <time>2020-10-25T12:02:38Z</time>
      </trkpt>
      <trkpt lat="46.82945" lon="5.63222">
        <ele>280.3</ele>
        <time>2020-10-25T12:02:42Z</time>
      </trkpt>
      <trkpt lat="46.82949" lon="5.63218">
        <ele>279.9</ele>
        <time>2020-10-25T12:02:46Z</time>
      </trkpt>
      <trkpt lat="46.82953" lon="5.63215">
        <ele>279.5</ele>
        <time>2020-10-25T12:02:50Z</time>
      </trkpt>
      <trkpt lat="46.82957" lon="5.63211">
        <ele>279.2</ele>
        <time>2020-10-25T12:02:54Z</time>
      </trkpt>
      <trkpt lat="46.8296" lon="5.63207">
        <ele>278.8</ele>
        <time>2020-10-25T12:03:10Z</time>
      </trkpt>
      <trkpt lat="46.82965" lon="5.63205">
        <ele>278.5</ele>
        <time>2020-10-25T12:03:15Z</time>
      </trkpt>
      <trkpt lat="46.82969" lon="5.63201">
        <ele>277.8</ele>
        <time>2020-10-25T12:03:21Z</time>
      </trkpt>
      <trkpt lat="46.82973" lon="5.63196">
        <ele>277.5</ele>
        <time>2020-10-25T12:03:26Z</time>
      </trkpt>
      <trkpt lat="46.82977" lon="5.63191">
        <ele>278</ele>
        <time>2020-10-25T12:06:28Z</time>
      </trkpt>
      <trkpt lat="46.82982" lon="5.63188">
        <ele>279.1</ele>
        <time>2020-10-25T12:06:33Z</time>
      </trkpt>
      <trkpt lat="46.82986" lon="5.63185">
        <ele>279.5</ele>
        <time>2020-10-25T12:06:37Z</time>
      </trkpt>
      <trkpt lat="46.82991" lon="5.63181">
        <ele>279.8</ele>
        <time>2020-10-25T12:06:42Z</time>
      </trkpt>
      <trkpt lat="46.82996" lon="5.63177">
        <ele>279.1</ele>
        <time>2020-10-25T12:06:47Z</time>
      </trkpt>
      <trkpt lat="46.83001" lon="5.63178">
        <ele>278.2</ele>
        <time>2020-10-25T12:06:52Z</time>
      </trkpt>
      <trkpt lat="46.83005" lon="5.63174">
        <ele>277</ele>
        <time>2020-10-25T12:06:57Z</time>
      </trkpt>
      <trkpt lat="46.83008" lon="5.63169">
        <ele>276.9</ele>
        <time>2020-10-25T12:07:01Z</time>
      </trkpt>
      <trkpt lat="46.83012" lon="5.63163">
        <ele>277.5</ele>
        <time>2020-10-25T12:07:06Z</time>
      </trkpt>
      <trkpt lat="46.83016" lon="5.63159">
        <ele>278.3</ele>
        <time>2020-10-25T12:07:11Z</time>
      </trkpt>
      <trkpt lat="46.83021" lon="5.63154">
        <ele>279</ele>
        <time>2020-10-25T12:07:16Z</time>
      </trkpt>
      <trkpt lat="46.83024" lon="5.6315">
        <ele>279.7</ele>
        <time>2020-10-25T12:07:20Z</time>
      </trkpt>
      <trkpt lat="46.83028" lon="5.63146">
        <ele>280</ele>
        <time>2020-10-25T12:07:24Z</time>
      </trkpt>
      <trkpt lat="46.83032" lon="5.63142">
        <ele>280.3</ele>
        <time>2020-10-25T12:07:30Z</time>
      </trkpt>
      <trkpt lat="46.83036" lon="5.63139">
        <ele>280.4</ele>
        <time>2020-10-25T12:07:35Z</time>
      </trkpt>
      <trkpt lat="46.83041" lon="5.63137">
        <ele>280.1</ele>
        <time>2020-10-25T12:07:39Z</time>
      </trkpt>
      <trkpt lat="46.83046" lon="5.63134">
        <ele>279.5</ele>
        <time>2020-10-25T12:07:44Z</time>
      </trkpt>
      <trkpt lat="46.8305" lon="5.63131">
        <ele>279.1</ele>
        <time>2020-10-25T12:07:48Z</time>
      </trkpt>
      <trkpt lat="46.83055" lon="5.63128">
        <ele>278.9</ele>
        <time>2020-10-25T12:07:52Z</time>
      </trkpt>
      <trkpt lat="46.83058" lon="5.63124">
        <ele>279</ele>
        <time>2020-10-25T12:07:56Z</time>
      </trkpt>
      <trkpt lat="46.83063" lon="5.6312">
        <ele>280</ele>
        <time>2020-10-25T12:08:01Z</time>
      </trkpt>
      <trkpt lat="46.83067" lon="5.63117">
        <ele>280.9</ele>
        <time>2020-10-25T12:08:05Z</time>
      </trkpt>
      <trkpt lat="46.83071" lon="5.63112">
        <ele>281.7</ele>
        <time>2020-10-25T12:08:09Z</time>
      </trkpt>
      <trkpt lat="46.83075" lon="5.63109">
        <ele>282.4</ele>
        <time>2020-10-25T12:08:13Z</time>
      </trkpt>
      <trkpt lat="46.8308" lon="5.63105">
        <ele>283.4</ele>
        <time>2020-10-25T12:08:18Z</time>
      </trkpt>
      <trkpt lat="46.83084" lon="5.63102">
        <ele>284.3</ele>
        <time>2020-10-25T12:08:22Z</time>
      </trkpt>
      <trkpt lat="46.83088" lon="5.63098">
        <ele>285.1</ele>
        <time>2020-10-25T12:08:26Z</time>
      </trkpt>
      <trkpt lat="46.83092" lon="5.63092">
        <ele>285.9</ele>
        <time>2020-10-25T12:08:30Z</time>
      </trkpt>
      <trkpt lat="46.83096" lon="5.63088">
        <ele>286.5</ele>
        <time>2020-10-25T12:08:35Z</time>
      </trkpt>
      <trkpt lat="46.83101" lon="5.63087">
        <ele>286.8</ele>
        <time>2020-10-25T12:08:40Z</time>
      </trkpt>
      <trkpt lat="46.83106" lon="5.63085">
        <ele>286.6</ele>
        <time>2020-10-25T12:08:45Z</time>
      </trkpt>
      <trkpt lat="46.8311" lon="5.63081">
        <ele>286.2</ele>
        <time>2020-10-25T12:08:49Z</time>
      </trkpt>
      <trkpt lat="46.83114" lon="5.63075">
        <ele>286</ele>
        <time>2020-10-25T12:08:53Z</time>
      </trkpt>
      <trkpt lat="46.83119" lon="5.63071">
        <ele>285.8</ele>
        <time>2020-10-25T12:08:58Z</time>
      </trkpt>
      <trkpt lat="46.83124" lon="5.63068">
        <ele>285.8</ele>
        <time>2020-10-25T12:09:03Z</time>
      </trkpt>
      <trkpt lat="46.83129" lon="5.63064">
        <ele>285.8</ele>
        <time>2020-10-25T12:09:08Z</time>
      </trkpt>
      <trkpt lat="46.83133" lon="5.6306">
        <ele>285.9</ele>
        <time>2020-10-25T12:09:12Z</time>
      </trkpt>
      <trkpt lat="46.83137" lon="5.63056">
        <ele>286.3</ele>
        <time>2020-10-25T12:09:17Z</time>
      </trkpt>
      <trkpt lat="46.83142" lon="5.63052">
        <ele>286.8</ele>
        <time>2020-10-25T12:09:22Z</time>
      </trkpt>
      <trkpt lat="46.83146" lon="5.63049">
        <ele>287.2</ele>
        <time>2020-10-25T12:09:27Z</time>
      </trkpt>
      <trkpt lat="46.8315" lon="5.63045">
        <ele>287.5</ele>
        <time>2020-10-25T12:09:32Z</time>
      </trkpt>
      <trkpt lat="46.83154" lon="5.63042">
        <ele>287.7</ele>
        <time>2020-10-25T12:09:37Z</time>
      </trkpt>
      <trkpt lat="46.83159" lon="5.63039">
        <ele>287.2</ele>
        <time>2020-10-25T12:09:42Z</time>
      </trkpt>
      <trkpt lat="46.83163" lon="5.63035">
        <ele>286.6</ele>
        <time>2020-10-25T12:09:46Z</time>
      </trkpt>
      <trkpt lat="46.83167" lon="5.6303">
        <ele>286.1</ele>
        <time>2020-10-25T12:09:50Z</time>
      </trkpt>
      <trkpt lat="46.83172" lon="5.63026">
        <ele>286.2</ele>
        <time>2020-10-25T12:09:55Z</time>
      </trkpt>
      <trkpt lat="46.83176" lon="5.63022">
        <ele>286.7</ele>
        <time>2020-10-25T12:10:00Z</time>
      </trkpt>
      <trkpt lat="46.8318" lon="5.63018">
        <ele>287.5</ele>
        <time>2020-10-25T12:10:05Z</time>
      </trkpt>
      <trkpt lat="46.83184" lon="5.63013">
        <ele>288.4</ele>
        <time>2020-10-25T12:10:10Z</time>
      </trkpt>
      <trkpt lat="46.83188" lon="5.63008">
        <ele>289.4</ele>
        <time>2020-10-25T12:10:15Z</time>
      </trkpt>
      <trkpt lat="46.83193" lon="5.63005">
        <ele>290.4</ele>
        <time>2020-10-25T12:10:21Z</time>
      </trkpt>
      <trkpt lat="46.83197" lon="5.63002">
        <ele>290.9</ele>
        <time>2020-10-25T12:10:25Z</time>
      </trkpt>
      <trkpt lat="46.83202" lon="5.63">
        <ele>291.2</ele>
        <time>2020-10-25T12:10:29Z</time>
      </trkpt>
      <trkpt lat="46.83207" lon="5.62997">
        <ele>291.5</ele>
        <time>2020-10-25T12:10:33Z</time>
      </trkpt>
      <trkpt lat="46.83211" lon="5.62994">
        <ele>291.9</ele>
        <time>2020-10-25T12:10:37Z</time>
      </trkpt>
      <trkpt lat="46.83215" lon="5.6299">
        <ele>292.1</ele>
        <time>2020-10-25T12:10:41Z</time>
      </trkpt>
      <trkpt lat="46.8322" lon="5.62987">
        <ele>292.4</ele>
        <time>2020-10-25T12:10:45Z</time>
      </trkpt>
      <trkpt lat="46.83224" lon="5.62984">
        <ele>291.8</ele>
        <time>2020-10-25T12:10:51Z</time>
      </trkpt>
      <trkpt lat="46.83226" lon="5.62978">
        <ele>289.8</ele>
        <time>2020-10-25T12:10:57Z</time>
      </trkpt>
      <trkpt lat="46.8323" lon="5.62974">
        <ele>287.7</ele>
        <time>2020-10-25T12:11:02Z</time>
      </trkpt>
      <trkpt lat="46.83234" lon="5.62969">
        <ele>285.9</ele>
        <time>2020-10-25T12:11:07Z</time>
      </trkpt>
      <trkpt lat="46.83238" lon="5.62967">
        <ele>284.7</ele>
        <time>2020-10-25T12:11:12Z</time>
      </trkpt>
      <trkpt lat="46.83242" lon="5.62962">
        <ele>284.2</ele>
        <time>2020-10-25T12:11:26Z</time>
      </trkpt>
      <trkpt lat="46.83246" lon="5.62959">
        <ele>284.1</ele>
        <time>2020-10-25T12:11:32Z</time>
      </trkpt>
      <trkpt lat="46.83251" lon="5.62956">
        <ele>284.3</ele>
        <time>2020-10-25T12:11:38Z</time>
      </trkpt>
      <trkpt lat="46.83255" lon="5.62952">
        <ele>284.8</ele>
        <time>2020-10-25T12:11:44Z</time>
      </trkpt>
      <trkpt lat="46.83257" lon="5.62946">
        <ele>283.6</ele>
        <time>2020-10-25T12:11:53Z</time>
      </trkpt>
      <trkpt lat="46.83261" lon="5.62941">
        <ele>283.5</ele>
        <time>2020-10-25T12:11:58Z</time>
      </trkpt>
      <trkpt lat="46.83263" lon="5.62935">
        <ele>283.8</ele>
        <time>2020-10-25T12:12:03Z</time>
      </trkpt>
      <trkpt lat="46.83267" lon="5.6293">
        <ele>283.8</ele>
        <time>2020-10-25T12:12:08Z</time>
      </trkpt>
      <trkpt lat="46.83272" lon="5.62925">
        <ele>283.4</ele>
        <time>2020-10-25T12:12:12Z</time>
      </trkpt>
      <trkpt lat="46.83275" lon="5.62921">
        <ele>283.2</ele>
        <time>2020-10-25T12:12:16Z</time>
      </trkpt>
      <trkpt lat="46.83279" lon="5.62916">
        <ele>282.6</ele>
        <time>2020-10-25T12:12:22Z</time>
      </trkpt>
      <trkpt lat="46.83282" lon="5.62911">
        <ele>281.8</ele>
        <time>2020-10-25T12:12:27Z</time>
      </trkpt>
      <trkpt lat="46.83287" lon="5.62907">
        <ele>281.1</ele>
        <time>2020-10-25T12:12:33Z</time>
      </trkpt>
      <trkpt lat="46.83291" lon="5.62904">
        <ele>281.3</ele>
        <time>2020-10-25T12:12:38Z</time>
      </trkpt>
      <trkpt lat="46.83295" lon="5.62899">
        <ele>282.5</ele>
        <time>2020-10-25T12:12:45Z</time>
      </trkpt>
      <trkpt lat="46.83298" lon="5.62894">
        <ele>283.5</ele>
        <time>2020-10-25T12:12:52Z</time>
      </trkpt>
      <trkpt lat="46.83303" lon="5.6289">
        <ele>283.7</ele>
        <time>2020-10-25T12:12:56Z</time>
      </trkpt>
      <trkpt lat="46.83306" lon="5.62885">
        <ele>284.5</ele>
        <time>2020-10-25T12:13:09Z</time>
      </trkpt>
      <trkpt lat="46.8331" lon="5.6288">
        <ele>284.9</ele>
        <time>2020-10-25T12:13:15Z</time>
      </trkpt>
      <trkpt lat="46.83315" lon="5.62876">
        <ele>284.9</ele>
        <time>2020-10-25T12:13:21Z</time>
      </trkpt>
      <trkpt lat="46.8332" lon="5.62872">
        <ele>285.9</ele>
        <time>2020-10-25T12:13:26Z</time>
      </trkpt>
      <trkpt lat="46.83324" lon="5.62868">
        <ele>287.1</ele>
        <time>2020-10-25T12:13:30Z</time>
      </trkpt>
      <trkpt lat="46.83329" lon="5.62864">
        <ele>288.7</ele>
        <time>2020-10-25T12:13:35Z</time>
      </trkpt>
      <trkpt lat="46.83333" lon="5.6286">
        <ele>289.9</ele>
        <time>2020-10-25T12:13:41Z</time>
      </trkpt>
      <trkpt lat="46.83335" lon="5.62854">
        <ele>291.5</ele>
        <time>2020-10-25T12:13:57Z</time>
      </trkpt>
      <trkpt lat="46.83337" lon="5.62847">
        <ele>291.4</ele>
        <time>2020-10-25T12:14:05Z</time>
      </trkpt>
      <trkpt lat="46.8334" lon="5.62841">
        <ele>290.7</ele>
        <time>2020-10-25T12:14:13Z</time>
      </trkpt>
      <trkpt lat="46.8334" lon="5.62834">
        <ele>289.7</ele>
        <time>2020-10-25T12:14:19Z</time>
      </trkpt>
      <trkpt lat="46.83343" lon="5.62828">
        <ele>288.2</ele>
        <time>2020-10-25T12:14:25Z</time>
      </trkpt>
      <trkpt lat="46.83348" lon="5.62825">
        <ele>286.6</ele>
        <time>2020-10-25T12:14:32Z</time>
      </trkpt>
      <trkpt lat="46.83352" lon="5.62822">
        <ele>285.7</ele>
        <time>2020-10-25T12:14:51Z</time>
      </trkpt>
      <trkpt lat="46.83354" lon="5.62815">
        <ele>286</ele>
        <time>2020-10-25T12:14:57Z</time>
      </trkpt>
      <trkpt lat="46.83357" lon="5.62809">
        <ele>286.3</ele>
        <time>2020-10-25T12:15:02Z</time>
      </trkpt>
      <trkpt lat="46.8336" lon="5.62803">
        <ele>286.5</ele>
        <time>2020-10-25T12:15:07Z</time>
      </trkpt>
      <trkpt lat="46.83363" lon="5.62798">
        <ele>286.9</ele>
        <time>2020-10-25T12:15:12Z</time>
      </trkpt>
      <trkpt lat="46.83366" lon="5.62793">
        <ele>287.1</ele>
        <time>2020-10-25T12:15:17Z</time>
      </trkpt>
      <trkpt lat="46.83367" lon="5.62786">
        <ele>286.7</ele>
        <time>2020-10-25T12:15:25Z</time>
      </trkpt>
      <trkpt lat="46.83369" lon="5.6278">
        <ele>286.8</ele>
        <time>2020-10-25T12:15:32Z</time>
      </trkpt>
      <trkpt lat="46.83371" lon="5.62773">
        <ele>286.9</ele>
        <time>2020-10-25T12:15:38Z</time>
      </trkpt>
      <trkpt lat="46.83373" lon="5.62766">
        <ele>287.1</ele>
        <time>2020-10-25T12:15:43Z</time>
      </trkpt>
      <trkpt lat="46.83375" lon="5.6276">
        <ele>286.4</ele>
        <time>2020-10-25T12:15:49Z</time>
      </trkpt>
      <trkpt lat="46.83378" lon="5.62755">
        <ele>285.7</ele>
        <time>2020-10-25T12:15:54Z</time>
      </trkpt>
      <trkpt lat="46.8338" lon="5.62748">
        <ele>284.9</ele>
        <time>2020-10-25T12:15:59Z</time>
      </trkpt>
      <trkpt lat="46.83383" lon="5.62744">
        <ele>283.9</ele>
        <time>2020-10-25T12:16:04Z</time>
      </trkpt>
      <trkpt lat="46.83387" lon="5.6274">
        <ele>283.3</ele>
        <time>2020-10-25T12:16:09Z</time>
      </trkpt>
      <trkpt lat="46.83388" lon="5.62734">
        <ele>282.8</ele>
        <time>2020-10-25T12:16:15Z</time>
      </trkpt>
      <trkpt lat="46.83393" lon="5.62732">
        <ele>281.8</ele>
        <time>2020-10-25T12:16:23Z</time>
      </trkpt>
      <trkpt lat="46.83388" lon="5.62731">
        <ele>281</ele>
        <time>2020-10-25T12:17:00Z</time>
      </trkpt>
      <trkpt lat="46.83386" lon="5.62737">
        <ele>279.6</ele>
        <time>2020-10-25T12:17:11Z</time>
      </trkpt>
      <trkpt lat="46.83384" lon="5.62744">
        <ele>279.6</ele>
        <time>2020-10-25T12:17:17Z</time>
      </trkpt>
      <trkpt lat="46.8338" lon="5.6275">
        <ele>280.8</ele>
        <time>2020-10-25T12:17:23Z</time>
      </trkpt>
      <trkpt lat="46.83377" lon="5.62756">
        <ele>282</ele>
        <time>2020-10-25T12:17:28Z</time>
      </trkpt>
      <trkpt lat="46.83375" lon="5.62763">
        <ele>283.1</ele>
        <time>2020-10-25T12:17:32Z</time>
      </trkpt>
      <trkpt lat="46.83372" lon="5.62769">
        <ele>283.4</ele>
        <time>2020-10-25T12:17:37Z</time>
      </trkpt>
      <trkpt lat="46.8337" lon="5.62775">
        <ele>283.5</ele>
        <time>2020-10-25T12:17:41Z</time>
      </trkpt>
      <trkpt lat="46.83367" lon="5.62781">
        <ele>283.8</ele>
        <time>2020-10-25T12:17:46Z</time>
      </trkpt>
      <trkpt lat="46.83363" lon="5.62786">
        <ele>283.6</ele>
        <time>2020-10-25T12:17:52Z</time>
      </trkpt>
      <trkpt lat="46.8336" lon="5.62791">
        <ele>283.6</ele>
        <time>2020-10-25T12:17:57Z</time>
      </trkpt>
      <trkpt lat="46.83357" lon="5.62798">
        <ele>284.5</ele>
        <time>2020-10-25T12:18:03Z</time>
      </trkpt>
      <trkpt lat="46.83355" lon="5.62805">
        <ele>285.4</ele>
        <time>2020-10-25T12:18:07Z</time>
      </trkpt>
      <trkpt lat="46.83351" lon="5.62811">
        <ele>285.8</ele>
        <time>2020-10-25T12:18:11Z</time>
      </trkpt>
      <trkpt lat="46.83349" lon="5.62817">
        <ele>285.9</ele>
        <time>2020-10-25T12:18:15Z</time>
      </trkpt>
      <trkpt lat="46.83346" lon="5.62823">
        <ele>286.2</ele>
        <time>2020-10-25T12:18:19Z</time>
      </trkpt>
      <trkpt lat="46.83345" lon="5.62829">
        <ele>286.5</ele>
        <time>2020-10-25T12:18:23Z</time>
      </trkpt>
      <trkpt lat="46.83342" lon="5.62836">
        <ele>287.9</ele>
        <time>2020-10-25T12:18:28Z</time>
      </trkpt>
      <trkpt lat="46.83339" lon="5.62842">
        <ele>289.9</ele>
        <time>2020-10-25T12:18:32Z</time>
      </trkpt>
      <trkpt lat="46.83335" lon="5.62847">
        <ele>291.8</ele>
        <time>2020-10-25T12:18:36Z</time>
      </trkpt>
      <trkpt lat="46.8333" lon="5.62853">
        <ele>293.3</ele>
        <time>2020-10-25T12:18:40Z</time>
      </trkpt>
      <trkpt lat="46.83328" lon="5.62859">
        <ele>294</ele>
        <time>2020-10-25T12:18:46Z</time>
      </trkpt>
      <trkpt lat="46.83324" lon="5.62863">
        <ele>293.3</ele>
        <time>2020-10-25T12:18:51Z</time>
      </trkpt>
      <trkpt lat="46.83319" lon="5.62866">
        <ele>290.9</ele>
        <time>2020-10-25T12:18:56Z</time>
      </trkpt>
      <trkpt lat="46.83315" lon="5.62872">
        <ele>288.4</ele>
        <time>2020-10-25T12:19:01Z</time>
      </trkpt>
      <trkpt lat="46.83311" lon="5.62877">
        <ele>286.2</ele>
        <time>2020-10-25T12:19:06Z</time>
      </trkpt>
      <trkpt lat="46.83307" lon="5.6288">
        <ele>284.7</ele>
        <time>2020-10-25T12:19:10Z</time>
      </trkpt>
      <trkpt lat="46.83304" lon="5.62885">
        <ele>283.2</ele>
        <time>2020-10-25T12:19:15Z</time>
      </trkpt>
      <trkpt lat="46.833" lon="5.6289">
        <ele>283</ele>
        <time>2020-10-25T12:19:20Z</time>
      </trkpt>
      <trkpt lat="46.83296" lon="5.62896">
        <ele>283.9</ele>
        <time>2020-10-25T12:19:25Z</time>
      </trkpt>
      <trkpt lat="46.83292" lon="5.62902">
        <ele>285.1</ele>
        <time>2020-10-25T12:19:29Z</time>
      </trkpt>
      <trkpt lat="46.83288" lon="5.62906">
        <ele>285.9</ele>
        <time>2020-10-25T12:19:33Z</time>
      </trkpt>
      <trkpt lat="46.83283" lon="5.62909">
        <ele>285.6</ele>
        <time>2020-10-25T12:19:38Z</time>
      </trkpt>
      <trkpt lat="46.83279" lon="5.62914">
        <ele>285</ele>
        <time>2020-10-25T12:19:44Z</time>
      </trkpt>
      <trkpt lat="46.83276" lon="5.6292">
        <ele>284.7</ele>
        <time>2020-10-25T12:19:49Z</time>
      </trkpt>
      <trkpt lat="46.83272" lon="5.62926">
        <ele>284.5</ele>
        <time>2020-10-25T12:19:54Z</time>
      </trkpt>
      <trkpt lat="46.83269" lon="5.6293">
        <ele>283.9</ele>
        <time>2020-10-25T12:20:02Z</time>
      </trkpt>
      <trkpt lat="46.83265" lon="5.62935">
        <ele>283.6</ele>
        <time>2020-10-25T12:20:07Z</time>
      </trkpt>
      <trkpt lat="46.83262" lon="5.6294">
        <ele>283.2</ele>
        <time>2020-10-25T12:20:13Z</time>
      </trkpt>
      <trkpt lat="46.83258" lon="5.62944">
        <ele>283.4</ele>
        <time>2020-10-25T12:20:18Z</time>
      </trkpt>
      <trkpt lat="46.83254" lon="5.62949">
        <ele>283.7</ele>
        <time>2020-10-25T12:20:23Z</time>
      </trkpt>
      <trkpt lat="46.83251" lon="5.62953">
        <ele>284</ele>
        <time>2020-10-25T12:20:28Z</time>
      </trkpt>
      <trkpt lat="46.83248" lon="5.62958">
        <ele>284.3</ele>
        <time>2020-10-25T12:20:34Z</time>
      </trkpt>
      <trkpt lat="46.83245" lon="5.62964">
        <ele>284.5</ele>
        <time>2020-10-25T12:20:41Z</time>
      </trkpt>
      <trkpt lat="46.83242" lon="5.62969">
        <ele>284.9</ele>
        <time>2020-10-25T12:20:47Z</time>
      </trkpt>
      <trkpt lat="46.83237" lon="5.62972">
        <ele>285.5</ele>
        <time>2020-10-25T12:20:52Z</time>
      </trkpt>
      <trkpt lat="46.83233" lon="5.62976">
        <ele>286.1</ele>
        <time>2020-10-25T12:20:57Z</time>
      </trkpt>
      <trkpt lat="46.83229" lon="5.62981">
        <ele>287</ele>
        <time>2020-10-25T12:21:03Z</time>
      </trkpt>
      <trkpt lat="46.83224" lon="5.62984">
        <ele>287.7</ele>
        <time>2020-10-25T12:21:08Z</time>
      </trkpt>
      <trkpt lat="46.8322" lon="5.62987">
        <ele>288.1</ele>
        <time>2020-10-25T12:21:12Z</time>
      </trkpt>
      <trkpt lat="46.83216" lon="5.6299">
        <ele>288.5</ele>
        <time>2020-10-25T12:21:16Z</time>
      </trkpt>
      <trkpt lat="46.83211" lon="5.62994">
        <ele>289</ele>
        <time>2020-10-25T12:21:21Z</time>
      </trkpt>
      <trkpt lat="46.83207" lon="5.62997">
        <ele>289.4</ele>
        <time>2020-10-25T12:21:26Z</time>
      </trkpt>
      <trkpt lat="46.83202" lon="5.63">
        <ele>289.7</ele>
        <time>2020-10-25T12:21:33Z</time>
      </trkpt>
      <trkpt lat="46.83199" lon="5.63004">
        <ele>289.6</ele>
        <time>2020-10-25T12:21:38Z</time>
      </trkpt>
      <trkpt lat="46.83194" lon="5.63007">
        <ele>289.3</ele>
        <time>2020-10-25T12:21:43Z</time>
      </trkpt>
      <trkpt lat="46.8319" lon="5.6301">
        <ele>287.7</ele>
        <time>2020-10-25T12:21:48Z</time>
      </trkpt>
      <trkpt lat="46.83186" lon="5.63015">
        <ele>285.3</ele>
        <time>2020-10-25T12:21:54Z</time>
      </trkpt>
      <trkpt lat="46.83182" lon="5.63018">
        <ele>284.4</ele>
        <time>2020-10-25T12:22:01Z</time>
      </trkpt>
      <trkpt lat="46.83178" lon="5.63021">
        <ele>287.4</ele>
        <time>2020-10-25T12:22:15Z</time>
      </trkpt>
      <trkpt lat="46.83173" lon="5.63025">
        <ele>287.6</ele>
        <time>2020-10-25T12:22:20Z</time>
      </trkpt>
      <trkpt lat="46.83169" lon="5.63029">
        <ele>287.2</ele>
        <time>2020-10-25T12:22:25Z</time>
      </trkpt>
      <trkpt lat="46.83165" lon="5.63033">
        <ele>287.5</ele>
        <time>2020-10-25T12:22:30Z</time>
      </trkpt>
      <trkpt lat="46.83161" lon="5.63036">
        <ele>288.3</ele>
        <time>2020-10-25T12:22:34Z</time>
      </trkpt>
      <trkpt lat="46.83157" lon="5.6304">
        <ele>288.8</ele>
        <time>2020-10-25T12:22:39Z</time>
      </trkpt>
      <trkpt lat="46.83153" lon="5.63043">
        <ele>288.6</ele>
        <time>2020-10-25T12:22:48Z</time>
      </trkpt>
      <trkpt lat="46.83148" lon="5.63046">
        <ele>287.6</ele>
        <time>2020-10-25T12:22:54Z</time>
      </trkpt>
      <trkpt lat="46.83144" lon="5.6305">
        <ele>287.1</ele>
        <time>2020-10-25T12:23:00Z</time>
      </trkpt>
      <trkpt lat="46.8314" lon="5.63054">
        <ele>286.4</ele>
        <time>2020-10-25T12:23:05Z</time>
      </trkpt>
      <trkpt lat="46.83136" lon="5.63058">
        <ele>284.5</ele>
        <time>2020-10-25T12:23:11Z</time>
      </trkpt>
      <trkpt lat="46.83132" lon="5.63062">
        <ele>283.4</ele>
        <time>2020-10-25T12:23:15Z</time>
      </trkpt>
      <trkpt lat="46.83128" lon="5.63065">
        <ele>282.8</ele>
        <time>2020-10-25T12:23:19Z</time>
      </trkpt>
      <trkpt lat="46.83124" lon="5.6307">
        <ele>281.5</ele>
        <time>2020-10-25T12:23:24Z</time>
      </trkpt>
      <trkpt lat="46.83119" lon="5.63073">
        <ele>279.8</ele>
        <time>2020-10-25T12:23:30Z</time>
      </trkpt>
      <trkpt lat="46.83114" lon="5.63077">
        <ele>279.3</ele>
        <time>2020-10-25T12:23:35Z</time>
      </trkpt>
      <trkpt lat="46.8311" lon="5.6308">
        <ele>279.6</ele>
        <time>2020-10-25T12:23:38Z</time>
      </trkpt>
      <trkpt lat="46.83106" lon="5.63083">
        <ele>280</ele>
        <time>2020-10-25T12:23:41Z</time>
      </trkpt>
      <trkpt lat="46.83102" lon="5.63086">
        <ele>280.5</ele>
        <time>2020-10-25T12:23:45Z</time>
      </trkpt>
      <trkpt lat="46.83097" lon="5.63089">
        <ele>281</ele>
        <time>2020-10-25T12:23:49Z</time>
      </trkpt>
      <trkpt lat="46.83092" lon="5.63093">
        <ele>281.7</ele>
        <time>2020-10-25T12:23:53Z</time>
      </trkpt>
      <trkpt lat="46.83088" lon="5.63096">
        <ele>282.3</ele>
        <time>2020-10-25T12:23:57Z</time>
      </trkpt>
      <trkpt lat="46.83084" lon="5.631">
        <ele>282.5</ele>
        <time>2020-10-25T12:24:02Z</time>
      </trkpt>
      <trkpt lat="46.8308" lon="5.63104">
        <ele>282.5</ele>
        <time>2020-10-25T12:24:07Z</time>
      </trkpt>
      <trkpt lat="46.83075" lon="5.63107">
        <ele>283.2</ele>
        <time>2020-10-25T12:24:12Z</time>
      </trkpt>
      <trkpt lat="46.8307" lon="5.63111">
        <ele>283.2</ele>
        <time>2020-10-25T12:24:17Z</time>
      </trkpt>
      <trkpt lat="46.83066" lon="5.63114">
        <ele>281.9</ele>
        <time>2020-10-25T12:24:21Z</time>
      </trkpt>
      <trkpt lat="46.83062" lon="5.63117">
        <ele>280.2</ele>
        <time>2020-10-25T12:24:25Z</time>
      </trkpt>
      <trkpt lat="46.83058" lon="5.63122">
        <ele>278.3</ele>
        <time>2020-10-25T12:24:30Z</time>
      </trkpt>
      <trkpt lat="46.83054" lon="5.63126">
        <ele>277.2</ele>
        <time>2020-10-25T12:24:36Z</time>
      </trkpt>
      <trkpt lat="46.8305" lon="5.6313">
        <ele>277.4</ele>
        <time>2020-10-25T12:24:41Z</time>
      </trkpt>
      <trkpt lat="46.83045" lon="5.63134">
        <ele>277.8</ele>
        <time>2020-10-25T12:24:45Z</time>
      </trkpt>
      <trkpt lat="46.83041" lon="5.63137">
        <ele>277.9</ele>
        <time>2020-10-25T12:24:49Z</time>
      </trkpt>
      <trkpt lat="46.83036" lon="5.6314">
        <ele>278</ele>
        <time>2020-10-25T12:24:53Z</time>
      </trkpt>
      <trkpt lat="46.83032" lon="5.63144">
        <ele>278</ele>
        <time>2020-10-25T12:24:57Z</time>
      </trkpt>
      <trkpt lat="46.83027" lon="5.63148">
        <ele>278.6</ele>
        <time>2020-10-25T12:25:01Z</time>
      </trkpt>
      <trkpt lat="46.83023" lon="5.63151">
        <ele>279.4</ele>
        <time>2020-10-25T12:25:05Z</time>
      </trkpt>
      <trkpt lat="46.83018" lon="5.63155">
        <ele>280.4</ele>
        <time>2020-10-25T12:25:10Z</time>
      </trkpt>
      <trkpt lat="46.83013" lon="5.63159">
        <ele>279.8</ele>
        <time>2020-10-25T12:25:15Z</time>
      </trkpt>
      <trkpt lat="46.83009" lon="5.63165">
        <ele>277.2</ele>
        <time>2020-10-25T12:25:21Z</time>
      </trkpt>
      <trkpt lat="46.83006" lon="5.63169">
        <ele>275.1</ele>
        <time>2020-10-25T12:25:26Z</time>
      </trkpt>
      <trkpt lat="46.83001" lon="5.63174">
        <ele>274.2</ele>
        <time>2020-10-25T12:25:31Z</time>
      </trkpt>
      <trkpt lat="46.82997" lon="5.63177">
        <ele>273.9</ele>
        <time>2020-10-25T12:25:35Z</time>
      </trkpt>
      <trkpt lat="46.82992" lon="5.63182">
        <ele>274.5</ele>
        <time>2020-10-25T12:25:40Z</time>
      </trkpt>
      <trkpt lat="46.82988" lon="5.63186">
        <ele>275.8</ele>
        <time>2020-10-25T12:25:44Z</time>
      </trkpt>
      <trkpt lat="46.82983" lon="5.63189">
        <ele>277.1</ele>
        <time>2020-10-25T12:25:48Z</time>
      </trkpt>
      <trkpt lat="46.82978" lon="5.63189">
        <ele>278.1</ele>
        <time>2020-10-25T12:25:52Z</time>
      </trkpt>
      <trkpt lat="46.82973" lon="5.63187">
        <ele>278.8</ele>
        <time>2020-10-25T12:25:57Z</time>
      </trkpt>
      <trkpt lat="46.82969" lon="5.63184">
        <ele>279.7</ele>
        <time>2020-10-25T12:26:02Z</time>
      </trkpt>
      <trkpt lat="46.82964" lon="5.6318">
        <ele>280.4</ele>
        <time>2020-10-25T12:26:07Z</time>
      </trkpt>
      <trkpt lat="46.8296" lon="5.63176">
        <ele>280.8</ele>
        <time>2020-10-25T12:26:11Z</time>
      </trkpt>
      <trkpt lat="46.82955" lon="5.63172">
        <ele>281.8</ele>
        <time>2020-10-25T12:26:15Z</time>
      </trkpt>
      <trkpt lat="46.82951" lon="5.63168">
        <ele>283</ele>
        <time>2020-10-25T12:26:19Z</time>
      </trkpt>
      <trkpt lat="46.82947" lon="5.63164">
        <ele>283.9</ele>
        <time>2020-10-25T12:26:23Z</time>
      </trkpt>
      <trkpt lat="46.82943" lon="5.63161">
        <ele>284.4</ele>
        <time>2020-10-25T12:26:27Z</time>
      </trkpt>
      <trkpt lat="46.82938" lon="5.63157">
        <ele>285.6</ele>
        <time>2020-10-25T12:26:32Z</time>
      </trkpt>
      <trkpt lat="46.82933" lon="5.63154">
        <ele>286.4</ele>
        <time>2020-10-25T12:26:37Z</time>
      </trkpt>
      <trkpt lat="46.82929" lon="5.6315">
        <ele>286.5</ele>
        <time>2020-10-25T12:26:41Z</time>
      </trkpt>
      <trkpt lat="46.82924" lon="5.63146">
        <ele>286.4</ele>
        <time>2020-10-25T12:26:46Z</time>
      </trkpt>
      <trkpt lat="46.82919" lon="5.63143">
        <ele>286.1</ele>
        <time>2020-10-25T12:26:51Z</time>
      </trkpt>
      <trkpt lat="46.82915" lon="5.6314">
        <ele>286.1</ele>
        <time>2020-10-25T12:26:55Z</time>
      </trkpt>
      <trkpt lat="46.8291" lon="5.63136">
        <ele>286.2</ele>
        <time>2020-10-25T12:26:59Z</time>
      </trkpt>
      <trkpt lat="46.82907" lon="5.63131">
        <ele>285.8</ele>
        <time>2020-10-25T12:27:03Z</time>
      </trkpt>
      <trkpt lat="46.82902" lon="5.63126">
        <ele>284.9</ele>
        <time>2020-10-25T12:27:08Z</time>
      </trkpt>
      <trkpt lat="46.82897" lon="5.63123">
        <ele>284</ele>
        <time>2020-10-25T12:27:12Z</time>
      </trkpt>
      <trkpt lat="46.82892" lon="5.63119">
        <ele>283</ele>
        <time>2020-10-25T12:27:16Z</time>
      </trkpt>
      <trkpt lat="46.82888" lon="5.63116">
        <ele>281.6</ele>
        <time>2020-10-25T12:27:20Z</time>
      </trkpt>
      <trkpt lat="46.82884" lon="5.63113">
        <ele>280.4</ele>
        <time>2020-10-25T12:27:24Z</time>
      </trkpt>
      <trkpt lat="46.82879" lon="5.63109">
        <ele>279.4</ele>
        <time>2020-10-25T12:27:29Z</time>
      </trkpt>
      <trkpt lat="46.82875" lon="5.63105">
        <ele>279.1</ele>
        <time>2020-10-25T12:27:33Z</time>
      </trkpt>
      <trkpt lat="46.82871" lon="5.63102">
        <ele>279.1</ele>
        <time>2020-10-25T12:27:37Z</time>
      </trkpt>
      <trkpt lat="46.82866" lon="5.63099">
        <ele>279.4</ele>
        <time>2020-10-25T12:27:42Z</time>
      </trkpt>
      <trkpt lat="46.82862" lon="5.63093">
        <ele>279.5</ele>
        <time>2020-10-25T12:27:47Z</time>
      </trkpt>
      <trkpt lat="46.82857" lon="5.63088">
        <ele>279.3</ele>
        <time>2020-10-25T12:27:52Z</time>
      </trkpt>
      <trkpt lat="46.82853" lon="5.63084">
        <ele>279.2</ele>
        <time>2020-10-25T12:27:56Z</time>
      </trkpt>
      <trkpt lat="46.82849" lon="5.63079">
        <ele>279.1</ele>
        <time>2020-10-25T12:28:01Z</time>
      </trkpt>
      <trkpt lat="46.82845" lon="5.63074">
        <ele>278.9</ele>
        <time>2020-10-25T12:28:06Z</time>
      </trkpt>
      <trkpt lat="46.82841" lon="5.63069">
        <ele>278.8</ele>
        <time>2020-10-25T12:28:11Z</time>
      </trkpt>
      <trkpt lat="46.82837" lon="5.63064">
        <ele>278.6</ele>
        <time>2020-10-25T12:28:15Z</time>
      </trkpt>
      <trkpt lat="46.82834" lon="5.6306">
        <ele>278.4</ele>
        <time>2020-10-25T12:28:19Z</time>
      </trkpt>
      <trkpt lat="46.8283" lon="5.63055">
        <ele>278.2</ele>
        <time>2020-10-25T12:28:23Z</time>
      </trkpt>
      <trkpt lat="46.82827" lon="5.6305">
        <ele>278</ele>
        <time>2020-10-25T12:28:27Z</time>
      </trkpt>
      <trkpt lat="46.82824" lon="5.63045">
        <ele>277.9</ele>
        <time>2020-10-25T12:28:31Z</time>
      </trkpt>
      <trkpt lat="46.8282" lon="5.6304">
        <ele>277.9</ele>
        <time>2020-10-25T12:28:35Z</time>
      </trkpt>
      <trkpt lat="46.82817" lon="5.63035">
        <ele>278</ele>
        <time>2020-10-25T12:28:39Z</time>
      </trkpt>
      <trkpt lat="46.82814" lon="5.63029">
        <ele>278.3</ele>
        <time>2020-10-25T12:28:44Z</time>
      </trkpt>
      <trkpt lat="46.82811" lon="5.63024">
        <ele>280</ele>
        <time>2020-10-25T12:29:41Z</time>
      </trkpt>
      <trkpt lat="46.82808" lon="5.63018">
        <ele>280</ele>
        <time>2020-10-25T12:29:45Z</time>
      </trkpt>
      <trkpt lat="46.82804" lon="5.63013">
        <ele>279.8</ele>
        <time>2020-10-25T12:29:49Z</time>
      </trkpt>
      <trkpt lat="46.828" lon="5.63009">
        <ele>279.7</ele>
        <time>2020-10-25T12:29:53Z</time>
      </trkpt>
      <trkpt lat="46.82797" lon="5.63004">
        <ele>279.3</ele>
        <time>2020-10-25T12:29:57Z</time>
      </trkpt>
      <trkpt lat="46.82794" lon="5.62999">
        <ele>279.2</ele>
        <time>2020-10-25T12:30:01Z</time>
      </trkpt>
      <trkpt lat="46.8279" lon="5.62994">
        <ele>279.3</ele>
        <time>2020-10-25T12:30:06Z</time>
      </trkpt>
      <trkpt lat="46.82786" lon="5.62989">
        <ele>279.6</ele>
        <time>2020-10-25T12:30:10Z</time>
      </trkpt>
      <trkpt lat="46.82783" lon="5.62985">
        <ele>279.8</ele>
        <time>2020-10-25T12:30:14Z</time>
      </trkpt>
      <trkpt lat="46.82779" lon="5.62981">
        <ele>280</ele>
        <time>2020-10-25T12:30:18Z</time>
      </trkpt>
      <trkpt lat="46.82775" lon="5.62976">
        <ele>280</ele>
        <time>2020-10-25T12:30:22Z</time>
      </trkpt>
      <trkpt lat="46.82772" lon="5.62971">
        <ele>280.1</ele>
        <time>2020-10-25T12:30:27Z</time>
      </trkpt>
      <trkpt lat="46.82768" lon="5.62965">
        <ele>280.1</ele>
        <time>2020-10-25T12:30:32Z</time>
      </trkpt>
      <trkpt lat="46.82764" lon="5.6296">
        <ele>280.1</ele>
        <time>2020-10-25T12:30:37Z</time>
      </trkpt>
      <trkpt lat="46.8276" lon="5.62955">
        <ele>280.3</ele>
        <time>2020-10-25T12:30:42Z</time>
      </trkpt>
      <trkpt lat="46.82755" lon="5.62951">
        <ele>280.1</ele>
        <time>2020-10-25T12:30:47Z</time>
      </trkpt>
      <trkpt lat="46.82751" lon="5.62947">
        <ele>279.9</ele>
        <time>2020-10-25T12:30:52Z</time>
      </trkpt>
      <trkpt lat="46.82747" lon="5.62943">
        <ele>280.1</ele>
        <time>2020-10-25T12:30:56Z</time>
      </trkpt>
      <trkpt lat="46.82743" lon="5.62939">
        <ele>280.1</ele>
        <time>2020-10-25T12:31:00Z</time>
      </trkpt>
      <trkpt lat="46.8274" lon="5.62934">
        <ele>280.1</ele>
        <time>2020-10-25T12:31:04Z</time>
      </trkpt>
      <trkpt lat="46.82736" lon="5.62929">
        <ele>280.1</ele>
        <time>2020-10-25T12:31:09Z</time>
      </trkpt>
      <trkpt lat="46.82731" lon="5.62926">
        <ele>280.2</ele>
        <time>2020-10-25T12:31:13Z</time>
      </trkpt>
      <trkpt lat="46.82726" lon="5.62921">
        <ele>280.2</ele>
        <time>2020-10-25T12:31:18Z</time>
      </trkpt>
      <trkpt lat="46.82723" lon="5.62915">
        <ele>280</ele>
        <time>2020-10-25T12:31:23Z</time>
      </trkpt>
      <trkpt lat="46.82719" lon="5.6291">
        <ele>280.1</ele>
        <time>2020-10-25T12:31:27Z</time>
      </trkpt>
      <trkpt lat="46.82715" lon="5.62906">
        <ele>280.3</ele>
        <time>2020-10-25T12:31:32Z</time>
      </trkpt>
      <trkpt lat="46.82711" lon="5.62901">
        <ele>280.5</ele>
        <time>2020-10-25T12:31:37Z</time>
      </trkpt>
      <trkpt lat="46.82707" lon="5.62896">
        <ele>280.9</ele>
        <time>2020-10-25T12:31:42Z</time>
      </trkpt>
      <trkpt lat="46.82703" lon="5.62891">
        <ele>281.3</ele>
        <time>2020-10-25T12:31:47Z</time>
      </trkpt>
      <trkpt lat="46.82699" lon="5.62887">
        <ele>281.7</ele>
        <time>2020-10-25T12:31:51Z</time>
      </trkpt>
      <trkpt lat="46.82695" lon="5.62884">
        <ele>282.1</ele>
        <time>2020-10-25T12:31:55Z</time>
      </trkpt>
      <trkpt lat="46.8269" lon="5.62878">
        <ele>282.7</ele>
        <time>2020-10-25T12:32:00Z</time>
      </trkpt>
      <trkpt lat="46.82686" lon="5.62874">
        <ele>283.2</ele>
        <time>2020-10-25T12:32:05Z</time>
      </trkpt>
      <trkpt lat="46.8268" lon="5.62871">
        <ele>283.6</ele>
        <time>2020-10-25T12:32:10Z</time>
      </trkpt>
      <trkpt lat="46.82676" lon="5.62868">
        <ele>283.6</ele>
        <time>2020-10-25T12:32:14Z</time>
      </trkpt>
      <trkpt lat="46.82672" lon="5.62864">
        <ele>283.5</ele>
        <time>2020-10-25T12:32:18Z</time>
      </trkpt>
      <trkpt lat="46.82669" lon="5.6286">
        <ele>283.4</ele>
        <time>2020-10-25T12:32:22Z</time>
      </trkpt>
      <trkpt lat="46.82664" lon="5.62857">
        <ele>283.6</ele>
        <time>2020-10-25T12:32:26Z</time>
      </trkpt>
      <trkpt lat="46.82659" lon="5.62853">
        <ele>284.1</ele>
        <time>2020-10-25T12:32:31Z</time>
      </trkpt>
      <trkpt lat="46.82655" lon="5.6285">
        <ele>284.4</ele>
        <time>2020-10-25T12:32:35Z</time>
      </trkpt>
      <trkpt lat="46.8265" lon="5.62847">
        <ele>284.9</ele>
        <time>2020-10-25T12:32:40Z</time>
      </trkpt>
      <trkpt lat="46.82646" lon="5.62843">
        <ele>285.6</ele>
        <time>2020-10-25T12:32:45Z</time>
      </trkpt>
      <trkpt lat="46.8264" lon="5.62841">
        <ele>286.3</ele>
        <time>2020-10-25T12:32:50Z</time>
      </trkpt>
      <trkpt lat="46.82636" lon="5.62838">
        <ele>286.6</ele>
        <time>2020-10-25T12:32:54Z</time>
      </trkpt>
      <trkpt lat="46.82632" lon="5.62835">
        <ele>286.9</ele>
        <time>2020-10-25T12:32:58Z</time>
      </trkpt>
      <trkpt lat="46.82627" lon="5.62831">
        <ele>287</ele>
        <time>2020-10-25T12:33:03Z</time>
      </trkpt>
      <trkpt lat="46.82623" lon="5.62828">
        <ele>287</ele>
        <time>2020-10-25T12:33:07Z</time>
      </trkpt>
      <trkpt lat="46.82619" lon="5.62824">
        <ele>287.1</ele>
        <time>2020-10-25T12:33:12Z</time>
      </trkpt>
      <trkpt lat="46.82614" lon="5.62821">
        <ele>286.9</ele>
        <time>2020-10-25T12:33:17Z</time>
      </trkpt>
      <trkpt lat="46.82609" lon="5.62817">
        <ele>286.6</ele>
        <time>2020-10-25T12:33:22Z</time>
      </trkpt>
      <trkpt lat="46.82605" lon="5.62814">
        <ele>286.4</ele>
        <time>2020-10-25T12:33:26Z</time>
      </trkpt>
      <trkpt lat="46.826" lon="5.6281">
        <ele>286.3</ele>
        <time>2020-10-25T12:33:31Z</time>
      </trkpt>
      <trkpt lat="46.82595" lon="5.62806">
        <ele>286.2</ele>
        <time>2020-10-25T12:33:36Z</time>
      </trkpt>
      <trkpt lat="46.82591" lon="5.62803">
        <ele>286</ele>
        <time>2020-10-25T12:33:41Z</time>
      </trkpt>
      <trkpt lat="46.82586" lon="5.62799">
        <ele>285.7</ele>
        <time>2020-10-25T12:33:45Z</time>
      </trkpt>
      <trkpt lat="46.82582" lon="5.62796">
        <ele>285.9</ele>
        <time>2020-10-25T12:33:50Z</time>
      </trkpt>
      <trkpt lat="46.82578" lon="5.62793">
        <ele>286.1</ele>
        <time>2020-10-25T12:33:56Z</time>
      </trkpt>
      <trkpt lat="46.82574" lon="5.62787">
        <ele>286</ele>
        <time>2020-10-25T12:34:02Z</time>
      </trkpt>
      <trkpt lat="46.82573" lon="5.6278">
        <ele>285.9</ele>
        <time>2020-10-25T12:34:07Z</time>
      </trkpt>
      <trkpt lat="46.82572" lon="5.62772">
        <ele>285.9</ele>
        <time>2020-10-25T12:34:11Z</time>
      </trkpt>
      <trkpt lat="46.82572" lon="5.62765">
        <ele>286.1</ele>
        <time>2020-10-25T12:34:16Z</time>
      </trkpt>
      <trkpt lat="46.8257" lon="5.62758">
        <ele>286.6</ele>
        <time>2020-10-25T12:34:23Z</time>
      </trkpt>
      <trkpt lat="46.82569" lon="5.62751">
        <ele>286.4</ele>
        <time>2020-10-25T12:34:28Z</time>
      </trkpt>
      <trkpt lat="46.82569" lon="5.62744">
        <ele>286.2</ele>
        <time>2020-10-25T12:34:32Z</time>
      </trkpt>
      <trkpt lat="46.82569" lon="5.62737">
        <ele>286.1</ele>
        <time>2020-10-25T12:34:36Z</time>
      </trkpt>
      <trkpt lat="46.8257" lon="5.62729">
        <ele>286.3</ele>
        <time>2020-10-25T12:34:41Z</time>
      </trkpt>
      <trkpt lat="46.82572" lon="5.62721">
        <ele>286.4</ele>
        <time>2020-10-25T12:34:46Z</time>
      </trkpt>
      <trkpt lat="46.82574" lon="5.62714">
        <ele>286.7</ele>
        <time>2020-10-25T12:34:51Z</time>
      </trkpt>
      <trkpt lat="46.82575" lon="5.62707">
        <ele>287.1</ele>
        <time>2020-10-25T12:34:55Z</time>
      </trkpt>
      <trkpt lat="46.82575" lon="5.627">
        <ele>287.4</ele>
        <time>2020-10-25T12:34:59Z</time>
      </trkpt>
      <trkpt lat="46.82577" lon="5.62693">
        <ele>287.5</ele>
        <time>2020-10-25T12:35:03Z</time>
      </trkpt>
      <trkpt lat="46.82578" lon="5.62686">
        <ele>287.3</ele>
        <time>2020-10-25T12:35:08Z</time>
      </trkpt>
      <trkpt lat="46.82579" lon="5.62678">
        <ele>287.3</ele>
        <time>2020-10-25T12:35:13Z</time>
      </trkpt>
      <trkpt lat="46.82581" lon="5.62672">
        <ele>287.6</ele>
        <time>2020-10-25T12:35:17Z</time>
      </trkpt>
      <trkpt lat="46.82583" lon="5.62665">
        <ele>288.1</ele>
        <time>2020-10-25T12:35:21Z</time>
      </trkpt>
      <trkpt lat="46.82585" lon="5.62659">
        <ele>288.7</ele>
        <time>2020-10-25T12:35:25Z</time>
      </trkpt>
      <trkpt lat="46.82587" lon="5.62652">
        <ele>289.6</ele>
        <time>2020-10-25T12:35:30Z</time>
      </trkpt>
      <trkpt lat="46.82588" lon="5.62645">
        <ele>290.5</ele>
        <time>2020-10-25T12:35:34Z</time>
      </trkpt>
      <trkpt lat="46.8259" lon="5.62639">
        <ele>291.1</ele>
        <time>2020-10-25T12:35:38Z</time>
      </trkpt>
      <trkpt lat="46.82594" lon="5.62632">
        <ele>291.6</ele>
        <time>2020-10-25T12:35:43Z</time>
      </trkpt>
      <trkpt lat="46.82596" lon="5.62625">
        <ele>291.9</ele>
        <time>2020-10-25T12:35:47Z</time>
      </trkpt>
      <trkpt lat="46.82598" lon="5.62618">
        <ele>292</ele>
        <time>2020-10-25T12:35:51Z</time>
      </trkpt>
      <trkpt lat="46.826" lon="5.62611">
        <ele>291.9</ele>
        <time>2020-10-25T12:35:55Z</time>
      </trkpt>
      <trkpt lat="46.826" lon="5.62604">
        <ele>291.7</ele>
        <time>2020-10-25T12:35:59Z</time>
      </trkpt>
      <trkpt lat="46.826" lon="5.62598">
        <ele>291.4</ele>
        <time>2020-10-25T12:36:03Z</time>
      </trkpt>
      <trkpt lat="46.82601" lon="5.62591">
        <ele>291.3</ele>
        <time>2020-10-25T12:36:07Z</time>
      </trkpt>
      <trkpt lat="46.82602" lon="5.62584">
        <ele>291.3</ele>
        <time>2020-10-25T12:36:11Z</time>
      </trkpt>
      <trkpt lat="46.82602" lon="5.62577">
        <ele>291.3</ele>
        <time>2020-10-25T12:36:15Z</time>
      </trkpt>
      <trkpt lat="46.82602" lon="5.6257">
        <ele>291.3</ele>
        <time>2020-10-25T12:36:19Z</time>
      </trkpt>
      <trkpt lat="46.82601" lon="5.62562">
        <ele>291.7</ele>
        <time>2020-10-25T12:36:24Z</time>
      </trkpt>
      <trkpt lat="46.82601" lon="5.62554">
        <ele>292.4</ele>
        <time>2020-10-25T12:36:29Z</time>
      </trkpt>
      <trkpt lat="46.826" lon="5.62548">
        <ele>293.2</ele>
        <time>2020-10-25T12:36:33Z</time>
      </trkpt>
      <trkpt lat="46.82599" lon="5.62541">
        <ele>293.7</ele>
        <time>2020-10-25T12:36:37Z</time>
      </trkpt>
      <trkpt lat="46.82597" lon="5.62535">
        <ele>293.8</ele>
        <time>2020-10-25T12:36:41Z</time>
      </trkpt>
      <trkpt lat="46.82596" lon="5.62528">
        <ele>293.8</ele>
        <time>2020-10-25T12:36:45Z</time>
      </trkpt>
      <trkpt lat="46.82595" lon="5.6252">
        <ele>294.1</ele>
        <time>2020-10-25T12:36:50Z</time>
      </trkpt>
      <trkpt lat="46.82594" lon="5.62512">
        <ele>294.7</ele>
        <time>2020-10-25T12:36:55Z</time>
      </trkpt>
      <trkpt lat="46.82592" lon="5.62505">
        <ele>295.2</ele>
        <time>2020-10-25T12:37:00Z</time>
      </trkpt>
      <trkpt lat="46.8259" lon="5.62499">
        <ele>295.7</ele>
        <time>2020-10-25T12:37:04Z</time>
      </trkpt>
      <trkpt lat="46.82589" lon="5.62493">
        <ele>296.2</ele>
        <time>2020-10-25T12:37:08Z</time>
      </trkpt>
      <trkpt lat="46.82587" lon="5.62486">
        <ele>296.5</ele>
        <time>2020-10-25T12:37:12Z</time>
      </trkpt>
      <trkpt lat="46.82586" lon="5.6248">
        <ele>296.6</ele>
        <time>2020-10-25T12:37:16Z</time>
      </trkpt>
      <trkpt lat="46.82583" lon="5.62474">
        <ele>296.4</ele>
        <time>2020-10-25T12:37:20Z</time>
      </trkpt>
      <trkpt lat="46.82582" lon="5.62466">
        <ele>296</ele>
        <time>2020-10-25T12:37:25Z</time>
      </trkpt>
      <trkpt lat="46.8258" lon="5.62458">
        <ele>295.7</ele>
        <time>2020-10-25T12:37:30Z</time>
      </trkpt>
      <trkpt lat="46.82578" lon="5.62451">
        <ele>295.6</ele>
        <time>2020-10-25T12:37:35Z</time>
      </trkpt>
      <trkpt lat="46.82577" lon="5.62444">
        <ele>295.4</ele>
        <time>2020-10-25T12:37:39Z</time>
      </trkpt>
      <trkpt lat="46.82576" lon="5.62438">
        <ele>295.4</ele>
        <time>2020-10-25T12:37:43Z</time>
      </trkpt>
      <trkpt lat="46.82575" lon="5.62431">
        <ele>295.5</ele>
        <time>2020-10-25T12:37:47Z</time>
      </trkpt>
      <trkpt lat="46.82574" lon="5.62425">
        <ele>295.9</ele>
        <time>2020-10-25T12:37:51Z</time>
      </trkpt>
      <trkpt lat="46.82574" lon="5.62417">
        <ele>296.4</ele>
        <time>2020-10-25T12:37:56Z</time>
      </trkpt>
      <trkpt lat="46.82573" lon="5.6241">
        <ele>296.6</ele>
        <time>2020-10-25T12:38:00Z</time>
      </trkpt>
      <trkpt lat="46.82573" lon="5.62403">
        <ele>296.7</ele>
        <time>2020-10-25T12:38:04Z</time>
      </trkpt>
      <trkpt lat="46.82574" lon="5.62396">
        <ele>296.8</ele>
        <time>2020-10-25T12:38:08Z</time>
      </trkpt>
      <trkpt lat="46.82574" lon="5.62389">
        <ele>296.9</ele>
        <time>2020-10-25T12:38:12Z</time>
      </trkpt>
      <trkpt lat="46.82576" lon="5.62383">
        <ele>297.2</ele>
        <time>2020-10-25T12:38:16Z</time>
      </trkpt>
      <trkpt lat="46.82577" lon="5.62376">
        <ele>297.1</ele>
        <time>2020-10-25T12:38:20Z</time>
      </trkpt>
      <trkpt lat="46.82578" lon="5.62368">
        <ele>296.9</ele>
        <time>2020-10-25T12:38:25Z</time>
      </trkpt>
      <trkpt lat="46.82578" lon="5.6236">
        <ele>296.5</ele>
        <time>2020-10-25T12:38:29Z</time>
      </trkpt>
      <trkpt lat="46.82578" lon="5.62354">
        <ele>296.2</ele>
        <time>2020-10-25T12:38:33Z</time>
      </trkpt>
      <trkpt lat="46.82579" lon="5.62347">
        <ele>295.9</ele>
        <time>2020-10-25T12:38:37Z</time>
      </trkpt>
      <trkpt lat="46.8258" lon="5.6234">
        <ele>295.9</ele>
        <time>2020-10-25T12:38:41Z</time>
      </trkpt>
      <trkpt lat="46.82581" lon="5.62333">
        <ele>295.6</ele>
        <time>2020-10-25T12:38:45Z</time>
      </trkpt>
      <trkpt lat="46.82581" lon="5.62326">
        <ele>295.3</ele>
        <time>2020-10-25T12:38:49Z</time>
      </trkpt>
      <trkpt lat="46.82581" lon="5.62319">
        <ele>295.1</ele>
        <time>2020-10-25T12:38:53Z</time>
      </trkpt>
      <trkpt lat="46.82581" lon="5.62312">
        <ele>295</ele>
        <time>2020-10-25T12:38:57Z</time>
      </trkpt>
      <trkpt lat="46.82582" lon="5.62305">
        <ele>294.8</ele>
        <time>2020-10-25T12:39:01Z</time>
      </trkpt>
      <trkpt lat="46.82582" lon="5.62297">
        <ele>294.3</ele>
        <time>2020-10-25T12:39:06Z</time>
      </trkpt>
      <trkpt lat="46.82582" lon="5.62289">
        <ele>294.1</ele>
        <time>2020-10-25T12:39:11Z</time>
      </trkpt>
      <trkpt lat="46.82582" lon="5.62282">
        <ele>293.5</ele>
        <time>2020-10-25T12:39:16Z</time>
      </trkpt>
      <trkpt lat="46.82583" lon="5.62274">
        <ele>294.1</ele>
        <time>2020-10-25T12:39:22Z</time>
      </trkpt>
      <trkpt lat="46.82587" lon="5.62269">
        <ele>293.4</ele>
        <time>2020-10-25T12:39:27Z</time>
      </trkpt>
      <trkpt lat="46.82589" lon="5.62262">
        <ele>291.4</ele>
        <time>2020-10-25T12:39:31Z</time>
      </trkpt>
      <trkpt lat="46.8259" lon="5.62255">
        <ele>290</ele>
        <time>2020-10-25T12:39:34Z</time>
      </trkpt>
      <trkpt lat="46.82591" lon="5.62248">
        <ele>289.4</ele>
        <time>2020-10-25T12:39:37Z</time>
      </trkpt>
      <trkpt lat="46.82591" lon="5.62241">
        <ele>290.1</ele>
        <time>2020-10-25T12:39:42Z</time>
      </trkpt>
      <trkpt lat="46.82592" lon="5.62234">
        <ele>291.8</ele>
        <time>2020-10-25T12:39:48Z</time>
      </trkpt>
      <trkpt lat="46.82594" lon="5.62228">
        <ele>292.9</ele>
        <time>2020-10-25T12:39:54Z</time>
      </trkpt>
      <trkpt lat="46.82595" lon="5.62221">
        <ele>293.1</ele>
        <time>2020-10-25T12:39:59Z</time>
      </trkpt>
      <trkpt lat="46.82598" lon="5.62214">
        <ele>293.3</ele>
        <time>2020-10-25T12:40:04Z</time>
      </trkpt>
      <trkpt lat="46.82601" lon="5.62208">
        <ele>293.2</ele>
        <time>2020-10-25T12:40:09Z</time>
      </trkpt>
      <trkpt lat="46.82602" lon="5.62201">
        <ele>292.1</ele>
        <time>2020-10-25T12:40:14Z</time>
      </trkpt>
      <trkpt lat="46.82605" lon="5.62195">
        <ele>290.7</ele>
        <time>2020-10-25T12:40:19Z</time>
      </trkpt>
      <trkpt lat="46.82607" lon="5.62189">
        <ele>289.1</ele>
        <time>2020-10-25T12:40:25Z</time>
      </trkpt>
      <trkpt lat="46.8261" lon="5.62181">
        <ele>288.5</ele>
        <time>2020-10-25T12:40:30Z</time>
      </trkpt>
      <trkpt lat="46.82612" lon="5.62175">
        <ele>288.8</ele>
        <time>2020-10-25T12:40:34Z</time>
      </trkpt>
      <trkpt lat="46.82614" lon="5.62168">
        <ele>289.3</ele>
        <time>2020-10-25T12:40:39Z</time>
      </trkpt>
      <trkpt lat="46.82617" lon="5.62161">
        <ele>289.6</ele>
        <time>2020-10-25T12:40:44Z</time>
      </trkpt>
      <trkpt lat="46.8262" lon="5.62155">
        <ele>289.9</ele>
        <time>2020-10-25T12:40:49Z</time>
      </trkpt>
      <trkpt lat="46.82621" lon="5.62148">
        <ele>290.1</ele>
        <time>2020-10-25T12:40:54Z</time>
      </trkpt>
      <trkpt lat="46.82623" lon="5.62141">
        <ele>289.7</ele>
        <time>2020-10-25T12:40:59Z</time>
      </trkpt>
      <trkpt lat="46.82624" lon="5.62134">
        <ele>288.4</ele>
        <time>2020-10-25T12:41:09Z</time>
      </trkpt>
      <trkpt lat="46.82626" lon="5.62128">
        <ele>287.4</ele>
        <time>2020-10-25T12:41:13Z</time>
      </trkpt>
      <trkpt lat="46.82628" lon="5.62121">
        <ele>286.2</ele>
        <time>2020-10-25T12:41:18Z</time>
      </trkpt>
      <trkpt lat="46.82629" lon="5.62115">
        <ele>285</ele>
        <time>2020-10-25T12:41:25Z</time>
      </trkpt>
      <trkpt lat="46.82629" lon="5.62107">
        <ele>284.5</ele>
        <time>2020-10-25T12:41:30Z</time>
      </trkpt>
      <trkpt lat="46.8263" lon="5.621">
        <ele>284.5</ele>
        <time>2020-10-25T12:41:35Z</time>
      </trkpt>
      <trkpt lat="46.82629" lon="5.62093">
        <ele>284.7</ele>
        <time>2020-10-25T12:41:39Z</time>
      </trkpt>
      <trkpt lat="46.82628" lon="5.62086">
        <ele>285.2</ele>
        <time>2020-10-25T12:41:43Z</time>
      </trkpt>
      <trkpt lat="46.82626" lon="5.62079">
        <ele>285.9</ele>
        <time>2020-10-25T12:41:47Z</time>
      </trkpt>
      <trkpt lat="46.82624" lon="5.62073">
        <ele>286.9</ele>
        <time>2020-10-25T12:41:51Z</time>
      </trkpt>
      <trkpt lat="46.82623" lon="5.62066">
        <ele>288.1</ele>
        <time>2020-10-25T12:41:55Z</time>
      </trkpt>
      <trkpt lat="46.82622" lon="5.62058">
        <ele>289.5</ele>
        <time>2020-10-25T12:42:00Z</time>
      </trkpt>
      <trkpt lat="46.82619" lon="5.62053">
        <ele>290.1</ele>
        <time>2020-10-25T12:42:04Z</time>
      </trkpt>
      <trkpt lat="46.82616" lon="5.62047">
        <ele>290.7</ele>
        <time>2020-10-25T12:42:08Z</time>
      </trkpt>
      <trkpt lat="46.82613" lon="5.62042">
        <ele>291.9</ele>
        <time>2020-10-25T12:42:13Z</time>
      </trkpt>
      <trkpt lat="46.82609" lon="5.62038">
        <ele>293.3</ele>
        <time>2020-10-25T12:42:18Z</time>
      </trkpt>
      <trkpt lat="46.82605" lon="5.62034">
        <ele>294.6</ele>
        <time>2020-10-25T12:42:24Z</time>
      </trkpt>
      <trkpt lat="46.82601" lon="5.62028">
        <ele>294.9</ele>
        <time>2020-10-25T12:42:30Z</time>
      </trkpt>
      <trkpt lat="46.82598" lon="5.62023">
        <ele>294.6</ele>
        <time>2020-10-25T12:42:35Z</time>
      </trkpt>
      <trkpt lat="46.82594" lon="5.62019">
        <ele>294.2</ele>
        <time>2020-10-25T12:42:39Z</time>
      </trkpt>
      <trkpt lat="46.82591" lon="5.62013">
        <ele>293.4</ele>
        <time>2020-10-25T12:42:44Z</time>
      </trkpt>
      <trkpt lat="46.82587" lon="5.62007">
        <ele>292.5</ele>
        <time>2020-10-25T12:42:48Z</time>
      </trkpt>
      <trkpt lat="46.82583" lon="5.62002">
        <ele>291.5</ele>
        <time>2020-10-25T12:42:52Z</time>
      </trkpt>
      <trkpt lat="46.82579" lon="5.61998">
        <ele>290.6</ele>
        <time>2020-10-25T12:42:55Z</time>
      </trkpt>
      <trkpt lat="46.82575" lon="5.61992">
        <ele>289.3</ele>
        <time>2020-10-25T12:42:59Z</time>
      </trkpt>
      <trkpt lat="46.82571" lon="5.61987">
        <ele>288.1</ele>
        <time>2020-10-25T12:43:03Z</time>
      </trkpt>
      <trkpt lat="46.82568" lon="5.61981">
        <ele>286.9</ele>
        <time>2020-10-25T12:43:07Z</time>
      </trkpt>
      <trkpt lat="46.82565" lon="5.61974">
        <ele>285.5</ele>
        <time>2020-10-25T12:43:11Z</time>
      </trkpt>
      <trkpt lat="46.82562" lon="5.61968">
        <ele>284.1</ele>
        <time>2020-10-25T12:43:15Z</time>
      </trkpt>
      <trkpt lat="46.82559" lon="5.61962">
        <ele>282.8</ele>
        <time>2020-10-25T12:43:19Z</time>
      </trkpt>
      <trkpt lat="46.82556" lon="5.61957">
        <ele>281.7</ele>
        <time>2020-10-25T12:43:23Z</time>
      </trkpt>
      <trkpt lat="46.82554" lon="5.61949">
        <ele>280.6</ele>
        <time>2020-10-25T12:43:28Z</time>
      </trkpt>
      <trkpt lat="46.82552" lon="5.61942">
        <ele>279.5</ele>
        <time>2020-10-25T12:43:33Z</time>
      </trkpt>
      <trkpt lat="46.8255" lon="5.61936">
        <ele>278.6</ele>
        <time>2020-10-25T12:43:37Z</time>
      </trkpt>
      <trkpt lat="46.82548" lon="5.61929">
        <ele>278.4</ele>
        <time>2020-10-25T12:43:42Z</time>
      </trkpt>
      <trkpt lat="46.82544" lon="5.61923">
        <ele>278.5</ele>
        <time>2020-10-25T12:43:46Z</time>
      </trkpt>
      <trkpt lat="46.82541" lon="5.61918">
        <ele>278.4</ele>
        <time>2020-10-25T12:43:50Z</time>
      </trkpt>
      <trkpt lat="46.82539" lon="5.61912">
        <ele>278.1</ele>
        <time>2020-10-25T12:43:54Z</time>
      </trkpt>
      <trkpt lat="46.82536" lon="5.61906">
        <ele>277.6</ele>
        <time>2020-10-25T12:43:58Z</time>
      </trkpt>
      <trkpt lat="46.82534" lon="5.61899">
        <ele>277.3</ele>
        <time>2020-10-25T12:44:02Z</time>
      </trkpt>
      <trkpt lat="46.82532" lon="5.61892">
        <ele>276.8</ele>
        <time>2020-10-25T12:44:06Z</time>
      </trkpt>
      <trkpt lat="46.8253" lon="5.61885">
        <ele>276.5</ele>
        <time>2020-10-25T12:44:10Z</time>
      </trkpt>
      <trkpt lat="46.82528" lon="5.61879">
        <ele>276.3</ele>
        <time>2020-10-25T12:44:14Z</time>
      </trkpt>
      <trkpt lat="46.82525" lon="5.61873">
        <ele>276.2</ele>
        <time>2020-10-25T12:44:18Z</time>
      </trkpt>
      <trkpt lat="46.82523" lon="5.61867">
        <ele>276</ele>
        <time>2020-10-25T12:44:22Z</time>
      </trkpt>
      <trkpt lat="46.8252" lon="5.61862">
        <ele>275.8</ele>
        <time>2020-10-25T12:44:26Z</time>
      </trkpt>
      <trkpt lat="46.82517" lon="5.61856">
        <ele>275.7</ele>
        <time>2020-10-25T12:44:30Z</time>
      </trkpt>
      <trkpt lat="46.82514" lon="5.6185">
        <ele>275.6</ele>
        <time>2020-10-25T12:44:34Z</time>
      </trkpt>
      <trkpt lat="46.82511" lon="5.61844">
        <ele>275.7</ele>
        <time>2020-10-25T12:44:38Z</time>
      </trkpt>
      <trkpt lat="46.82507" lon="5.61839">
        <ele>275.7</ele>
        <time>2020-10-25T12:44:42Z</time>
      </trkpt>
      <trkpt lat="46.82504" lon="5.61834">
        <ele>275.6</ele>
        <time>2020-10-25T12:44:46Z</time>
      </trkpt>
      <trkpt lat="46.82499" lon="5.6183">
        <ele>275.3</ele>
        <time>2020-10-25T12:44:51Z</time>
      </trkpt>
      <trkpt lat="46.82495" lon="5.61826">
        <ele>275.4</ele>
        <time>2020-10-25T12:44:55Z</time>
      </trkpt>
      <trkpt lat="46.82492" lon="5.61821">
        <ele>275.4</ele>
        <time>2020-10-25T12:44:59Z</time>
      </trkpt>
      <trkpt lat="46.82488" lon="5.61816">
        <ele>275.4</ele>
        <time>2020-10-25T12:45:03Z</time>
      </trkpt>
      <trkpt lat="46.82485" lon="5.61811">
        <ele>275.4</ele>
        <time>2020-10-25T12:45:07Z</time>
      </trkpt>
      <trkpt lat="46.82482" lon="5.61804">
        <ele>275.5</ele>
        <time>2020-10-25T12:45:12Z</time>
      </trkpt>
      <trkpt lat="46.82479" lon="5.61798">
        <ele>275.7</ele>
        <time>2020-10-25T12:45:16Z</time>
      </trkpt>
      <trkpt lat="46.82477" lon="5.61791">
        <ele>276.5</ele>
        <time>2020-10-25T12:45:21Z</time>
      </trkpt>
      <trkpt lat="46.82474" lon="5.61787">
        <ele>278.4</ele>
        <time>2020-10-25T12:45:26Z</time>
      </trkpt>
      <trkpt lat="46.8247" lon="5.61783">
        <ele>280.7</ele>
        <time>2020-10-25T12:45:31Z</time>
      </trkpt>
      <trkpt lat="46.82466" lon="5.61778">
        <ele>282.4</ele>
        <time>2020-10-25T12:45:35Z</time>
      </trkpt>
      <trkpt lat="46.82462" lon="5.61773">
        <ele>284</ele>
        <time>2020-10-25T12:45:39Z</time>
      </trkpt>
      <trkpt lat="46.8246" lon="5.61767">
        <ele>285.2</ele>
        <time>2020-10-25T12:45:43Z</time>
      </trkpt>
      <trkpt lat="46.82457" lon="5.61762">
        <ele>286.5</ele>
        <time>2020-10-25T12:45:47Z</time>
      </trkpt>
      <trkpt lat="46.82453" lon="5.61756">
        <ele>287.4</ele>
        <time>2020-10-25T12:45:51Z</time>
      </trkpt>
      <trkpt lat="46.8245" lon="5.61751">
        <ele>288</ele>
        <time>2020-10-25T12:45:55Z</time>
      </trkpt>
      <trkpt lat="46.82446" lon="5.61746">
        <ele>288.6</ele>
        <time>2020-10-25T12:45:59Z</time>
      </trkpt>
      <trkpt lat="46.82442" lon="5.61742">
        <ele>289.2</ele>
        <time>2020-10-25T12:46:04Z</time>
      </trkpt>
      <trkpt lat="46.82439" lon="5.61737">
        <ele>289.8</ele>
        <time>2020-10-25T12:46:08Z</time>
      </trkpt>
      <trkpt lat="46.82438" lon="5.6173">
        <ele>290.3</ele>
        <time>2020-10-25T12:46:12Z</time>
      </trkpt>
      <trkpt lat="46.82436" lon="5.61724">
        <ele>290.8</ele>
        <time>2020-10-25T12:46:16Z</time>
      </trkpt>
      <trkpt lat="46.82432" lon="5.61719">
        <ele>291.2</ele>
        <time>2020-10-25T12:46:21Z</time>
      </trkpt>
      <trkpt lat="46.82428" lon="5.61714">
        <ele>291.2</ele>
        <time>2020-10-25T12:46:25Z</time>
      </trkpt>
      <trkpt lat="46.82425" lon="5.61707">
        <ele>290.8</ele>
        <time>2020-10-25T12:46:29Z</time>
      </trkpt>
      <trkpt lat="46.82423" lon="5.61701">
        <ele>290.3</ele>
        <time>2020-10-25T12:46:33Z</time>
      </trkpt>
      <trkpt lat="46.82421" lon="5.61695">
        <ele>289.8</ele>
        <time>2020-10-25T12:46:37Z</time>
      </trkpt>
      <trkpt lat="46.82418" lon="5.61688">
        <ele>289.5</ele>
        <time>2020-10-25T12:46:42Z</time>
      </trkpt>
      <trkpt lat="46.82416" lon="5.61682">
        <ele>289.6</ele>
        <time>2020-10-25T12:46:46Z</time>
      </trkpt>
      <trkpt lat="46.82414" lon="5.61674">
        <ele>289.7</ele>
        <time>2020-10-25T12:46:51Z</time>
      </trkpt>
      <trkpt lat="46.82412" lon="5.61667">
        <ele>289.8</ele>
        <time>2020-10-25T12:46:55Z</time>
      </trkpt>
      <trkpt lat="46.82412" lon="5.6166">
        <ele>289.9</ele>
        <time>2020-10-25T12:46:59Z</time>
      </trkpt>
      <trkpt lat="46.82411" lon="5.61653">
        <ele>290</ele>
        <time>2020-10-25T12:47:04Z</time>
      </trkpt>
      <trkpt lat="46.82409" lon="5.61646">
        <ele>290.1</ele>
        <time>2020-10-25T12:47:08Z</time>
      </trkpt>
      <trkpt lat="46.82408" lon="5.6164">
        <ele>290.4</ele>
        <time>2020-10-25T12:47:12Z</time>
      </trkpt>
      <trkpt lat="46.82406" lon="5.61633">
        <ele>290.6</ele>
        <time>2020-10-25T12:47:16Z</time>
      </trkpt>
      <trkpt lat="46.82405" lon="5.61627">
        <ele>290.7</ele>
        <time>2020-10-25T12:47:20Z</time>
      </trkpt>
      <trkpt lat="46.82404" lon="5.6162">
        <ele>290.6</ele>
        <time>2020-10-25T12:47:24Z</time>
      </trkpt>
      <trkpt lat="46.82403" lon="5.61613">
        <ele>290.3</ele>
        <time>2020-10-25T12:47:28Z</time>
      </trkpt>
      <trkpt lat="46.82403" lon="5.61605">
        <ele>290.2</ele>
        <time>2020-10-25T12:47:33Z</time>
      </trkpt>
      <trkpt lat="46.82401" lon="5.61597">
        <ele>290.4</ele>
        <time>2020-10-25T12:47:38Z</time>
      </trkpt>
      <trkpt lat="46.824" lon="5.6159">
        <ele>290.7</ele>
        <time>2020-10-25T12:47:43Z</time>
      </trkpt>
      <trkpt lat="46.82399" lon="5.61583">
        <ele>290.8</ele>
        <time>2020-10-25T12:47:47Z</time>
      </trkpt>
      <trkpt lat="46.82398" lon="5.61576">
        <ele>290.7</ele>
        <time>2020-10-25T12:47:51Z</time>
      </trkpt>
      <trkpt lat="46.82397" lon="5.61569">
        <ele>290.5</ele>
        <time>2020-10-25T12:47:55Z</time>
      </trkpt>
      <trkpt lat="46.82396" lon="5.61562">
        <ele>290.2</ele>
        <time>2020-10-25T12:47:59Z</time>
      </trkpt>
      <trkpt lat="46.82395" lon="5.61555">
        <ele>289.6</ele>
        <time>2020-10-25T12:48:04Z</time>
      </trkpt>
      <trkpt lat="46.82394" lon="5.61547">
        <ele>289</ele>
        <time>2020-10-25T12:48:10Z</time>
      </trkpt>
      <trkpt lat="46.82393" lon="5.61541">
        <ele>288.6</ele>
        <time>2020-10-25T12:48:14Z</time>
      </trkpt>
      <trkpt lat="46.82392" lon="5.61533">
        <ele>288.6</ele>
        <time>2020-10-25T12:48:18Z</time>
      </trkpt>
      <trkpt lat="46.82391" lon="5.61526">
        <ele>288.4</ele>
        <time>2020-10-25T12:48:22Z</time>
      </trkpt>
      <trkpt lat="46.8239" lon="5.61519">
        <ele>288.1</ele>
        <time>2020-10-25T12:48:26Z</time>
      </trkpt>
      <trkpt lat="46.82389" lon="5.61512">
        <ele>288</ele>
        <time>2020-10-25T12:48:30Z</time>
      </trkpt>
      <trkpt lat="46.82388" lon="5.61505">
        <ele>288</ele>
        <time>2020-10-25T12:48:34Z</time>
      </trkpt>
      <trkpt lat="46.82388" lon="5.61497">
        <ele>288.1</ele>
        <time>2020-10-25T12:48:39Z</time>
      </trkpt>
      <trkpt lat="46.82389" lon="5.6149">
        <ele>288.2</ele>
        <time>2020-10-25T12:48:43Z</time>
      </trkpt>
      <trkpt lat="46.82389" lon="5.61483">
        <ele>287.9</ele>
        <time>2020-10-25T12:48:47Z</time>
      </trkpt>
      <trkpt lat="46.82389" lon="5.61476">
        <ele>287.6</ele>
        <time>2020-10-25T12:48:51Z</time>
      </trkpt>
      <trkpt lat="46.82389" lon="5.61467">
        <ele>287.2</ele>
        <time>2020-10-25T12:48:56Z</time>
      </trkpt>
      <trkpt lat="46.82388" lon="5.6146">
        <ele>286.9</ele>
        <time>2020-10-25T12:49:00Z</time>
      </trkpt>
      <trkpt lat="46.82387" lon="5.61453">
        <ele>286.6</ele>
        <time>2020-10-25T12:49:04Z</time>
      </trkpt>
      <trkpt lat="46.82387" lon="5.61445">
        <ele>286.2</ele>
        <time>2020-10-25T12:49:09Z</time>
      </trkpt>
      <trkpt lat="46.82387" lon="5.61438">
        <ele>286</ele>
        <time>2020-10-25T12:49:13Z</time>
      </trkpt>
      <trkpt lat="46.82386" lon="5.6143">
        <ele>285.8</ele>
        <time>2020-10-25T12:49:17Z</time>
      </trkpt>
      <trkpt lat="46.82385" lon="5.61423">
        <ele>285.7</ele>
        <time>2020-10-25T12:49:21Z</time>
      </trkpt>
      <trkpt lat="46.82386" lon="5.61416">
        <ele>284.8</ele>
        <time>2020-10-25T12:49:25Z</time>
      </trkpt>
      <trkpt lat="46.82387" lon="5.61409">
        <ele>282.9</ele>
        <time>2020-10-25T12:49:29Z</time>
      </trkpt>
      <trkpt lat="46.82387" lon="5.61402">
        <ele>279.6</ele>
        <time>2020-10-25T12:49:36Z</time>
      </trkpt>
      <trkpt lat="46.82383" lon="5.61398">
        <ele>276.9</ele>
        <time>2020-10-25T12:49:48Z</time>
      </trkpt>
      <trkpt lat="46.82378" lon="5.61396">
        <ele>275.8</ele>
        <time>2020-10-25T12:49:53Z</time>
      </trkpt>
      <trkpt lat="46.82383" lon="5.61397">
        <ele>274.1</ele>
        <time>2020-10-25T12:50:05Z</time>
      </trkpt>
      <trkpt lat="46.82388" lon="5.61398">
        <ele>275.1</ele>
        <time>2020-10-25T12:50:11Z</time>
      </trkpt>
      <trkpt lat="46.82393" lon="5.61401">
        <ele>276.3</ele>
        <time>2020-10-25T12:50:15Z</time>
      </trkpt>
      <trkpt lat="46.82398" lon="5.61403">
        <ele>278</ele>
        <time>2020-10-25T12:50:21Z</time>
      </trkpt>
      <trkpt lat="46.82402" lon="5.61406">
        <ele>279.9</ele>
        <time>2020-10-25T12:50:27Z</time>
      </trkpt>
      <trkpt lat="46.82406" lon="5.6141">
        <ele>280.4</ele>
        <time>2020-10-25T12:50:32Z</time>
      </trkpt>
      <trkpt lat="46.8241" lon="5.61414">
        <ele>280.4</ele>
        <time>2020-10-25T12:50:38Z</time>
      </trkpt>
      <trkpt lat="46.82415" lon="5.61417">
        <ele>279.2</ele>
        <time>2020-10-25T12:50:44Z</time>
      </trkpt>
      <trkpt lat="46.82419" lon="5.61419">
        <ele>277.8</ele>
        <time>2020-10-25T12:50:50Z</time>
      </trkpt>
      <trkpt lat="46.82424" lon="5.61422">
        <ele>276.8</ele>
        <time>2020-10-25T12:50:56Z</time>
      </trkpt>
      <trkpt lat="46.82428" lon="5.61424">
        <ele>277.7</ele>
        <time>2020-10-25T12:51:07Z</time>
      </trkpt>
      <trkpt lat="46.82433" lon="5.61422">
        <ele>279.3</ele>
        <time>2020-10-25T12:51:13Z</time>
      </trkpt>
      <trkpt lat="46.82436" lon="5.61417">
        <ele>280.8</ele>
        <time>2020-10-25T12:51:18Z</time>
      </trkpt>
      <trkpt lat="46.82439" lon="5.61412">
        <ele>281.7</ele>
        <time>2020-10-25T12:51:22Z</time>
      </trkpt>
      <trkpt lat="46.82443" lon="5.61407">
        <ele>282.6</ele>
        <time>2020-10-25T12:51:26Z</time>
      </trkpt>
      <trkpt lat="46.82446" lon="5.61401">
        <ele>283.7</ele>
        <time>2020-10-25T12:51:30Z</time>
      </trkpt>
      <trkpt lat="46.8245" lon="5.61397">
        <ele>284.8</ele>
        <time>2020-10-25T12:51:34Z</time>
      </trkpt>
      <trkpt lat="46.82453" lon="5.61391">
        <ele>285.4</ele>
        <time>2020-10-25T12:51:39Z</time>
      </trkpt>
      <trkpt lat="46.82457" lon="5.61385">
        <ele>285.3</ele>
        <time>2020-10-25T12:51:44Z</time>
      </trkpt>
      <trkpt lat="46.82459" lon="5.61378">
        <ele>285.4</ele>
        <time>2020-10-25T12:51:48Z</time>
      </trkpt>
      <trkpt lat="46.82462" lon="5.61373">
        <ele>285.4</ele>
        <time>2020-10-25T12:51:52Z</time>
      </trkpt>
      <trkpt lat="46.82465" lon="5.61366">
        <ele>285.2</ele>
        <time>2020-10-25T12:51:57Z</time>
      </trkpt>
      <trkpt lat="46.82468" lon="5.6136">
        <ele>285</ele>
        <time>2020-10-25T12:52:02Z</time>
      </trkpt>
      <trkpt lat="46.8247" lon="5.61354">
        <ele>284.9</ele>
        <time>2020-10-25T12:52:08Z</time>
      </trkpt>
      <trkpt lat="46.82474" lon="5.61348">
        <ele>285</ele>
        <time>2020-10-25T12:52:14Z</time>
      </trkpt>
      <trkpt lat="46.82476" lon="5.61342">
        <ele>285.3</ele>
        <time>2020-10-25T12:52:20Z</time>
      </trkpt>
      <trkpt lat="46.8248" lon="5.61336">
        <ele>285.4</ele>
        <time>2020-10-25T12:52:25Z</time>
      </trkpt>
      <trkpt lat="46.82483" lon="5.61331">
        <ele>285.5</ele>
        <time>2020-10-25T12:52:30Z</time>
      </trkpt>
      <trkpt lat="46.82485" lon="5.61324">
        <ele>285.5</ele>
        <time>2020-10-25T12:52:35Z</time>
      </trkpt>
      <trkpt lat="46.82488" lon="5.61318">
        <ele>285.5</ele>
        <time>2020-10-25T12:52:39Z</time>
      </trkpt>
      <trkpt lat="46.82491" lon="5.61312">
        <ele>285.7</ele>
        <time>2020-10-25T12:52:43Z</time>
      </trkpt>
      <trkpt lat="46.82494" lon="5.61306">
        <ele>285.9</ele>
        <time>2020-10-25T12:52:47Z</time>
      </trkpt>
      <trkpt lat="46.82496" lon="5.613">
        <ele>286.1</ele>
        <time>2020-10-25T12:52:51Z</time>
      </trkpt>
      <trkpt lat="46.82498" lon="5.61292">
        <ele>286.4</ele>
        <time>2020-10-25T12:52:55Z</time>
      </trkpt>
      <trkpt lat="46.825" lon="5.61286">
        <ele>286.7</ele>
        <time>2020-10-25T12:52:59Z</time>
      </trkpt>
      <trkpt lat="46.82504" lon="5.6128">
        <ele>286.9</ele>
        <time>2020-10-25T12:53:03Z</time>
      </trkpt>
      <trkpt lat="46.82507" lon="5.61274">
        <ele>287</ele>
        <time>2020-10-25T12:53:07Z</time>
      </trkpt>
      <trkpt lat="46.82511" lon="5.61268">
        <ele>287.1</ele>
        <time>2020-10-25T12:53:11Z</time>
      </trkpt>
      <trkpt lat="46.82515" lon="5.61263">
        <ele>287</ele>
        <time>2020-10-25T12:53:16Z</time>
      </trkpt>
      <trkpt lat="46.82517" lon="5.61257">
        <ele>286.6</ele>
        <time>2020-10-25T12:53:20Z</time>
      </trkpt>
      <trkpt lat="46.8252" lon="5.61252">
        <ele>286.3</ele>
        <time>2020-10-25T12:53:24Z</time>
      </trkpt>
      <trkpt lat="46.82523" lon="5.61245">
        <ele>286</ele>
        <time>2020-10-25T12:53:29Z</time>
      </trkpt>
      <trkpt lat="46.82526" lon="5.61239">
        <ele>285.6</ele>
        <time>2020-10-25T12:53:34Z</time>
      </trkpt>
      <trkpt lat="46.82529" lon="5.61233">
        <ele>285.2</ele>
        <time>2020-10-25T12:53:38Z</time>
      </trkpt>
      <trkpt lat="46.82532" lon="5.61227">
        <ele>285</ele>
        <time>2020-10-25T12:53:42Z</time>
      </trkpt>
      <trkpt lat="46.82534" lon="5.61221">
        <ele>284.8</ele>
        <time>2020-10-25T12:53:46Z</time>
      </trkpt>
      <trkpt lat="46.82537" lon="5.61215">
        <ele>284.4</ele>
        <time>2020-10-25T12:53:50Z</time>
      </trkpt>
      <trkpt lat="46.8254" lon="5.61209">
        <ele>283.8</ele>
        <time>2020-10-25T12:53:55Z</time>
      </trkpt>
      <trkpt lat="46.82544" lon="5.61203">
        <ele>283.4</ele>
        <time>2020-10-25T12:54:00Z</time>
      </trkpt>
      <trkpt lat="46.82547" lon="5.61196">
        <ele>283.1</ele>
        <time>2020-10-25T12:54:05Z</time>
      </trkpt>
      <trkpt lat="46.82549" lon="5.6119">
        <ele>283</ele>
        <time>2020-10-25T12:54:09Z</time>
      </trkpt>
      <trkpt lat="46.82552" lon="5.61184">
        <ele>282.5</ele>
        <time>2020-10-25T12:54:14Z</time>
      </trkpt>
      <trkpt lat="46.82555" lon="5.61179">
        <ele>281.6</ele>
        <time>2020-10-25T12:54:19Z</time>
      </trkpt>
      <trkpt lat="46.82558" lon="5.61173">
        <ele>281.2</ele>
        <time>2020-10-25T12:54:23Z</time>
      </trkpt>
      <trkpt lat="46.82561" lon="5.61168">
        <ele>281.1</ele>
        <time>2020-10-25T12:54:27Z</time>
      </trkpt>
      <trkpt lat="46.82564" lon="5.61163">
        <ele>281.1</ele>
        <time>2020-10-25T12:54:31Z</time>
      </trkpt>
      <trkpt lat="46.82567" lon="5.61157">
        <ele>281.2</ele>
        <time>2020-10-25T12:54:36Z</time>
      </trkpt>
      <trkpt lat="46.82571" lon="5.61151">
        <ele>281.5</ele>
        <time>2020-10-25T12:54:41Z</time>
      </trkpt>
      <trkpt lat="46.82573" lon="5.61145">
        <ele>281.6</ele>
        <time>2020-10-25T12:54:45Z</time>
      </trkpt>
      <trkpt lat="46.82575" lon="5.61139">
        <ele>281.6</ele>
        <time>2020-10-25T12:54:49Z</time>
      </trkpt>
      <trkpt lat="46.82575" lon="5.61132">
        <ele>281.4</ele>
        <time>2020-10-25T12:54:53Z</time>
      </trkpt>
      <trkpt lat="46.82572" lon="5.61125">
        <ele>281.2</ele>
        <time>2020-10-25T12:54:58Z</time>
      </trkpt>
      <trkpt lat="46.82568" lon="5.6112">
        <ele>281.1</ele>
        <time>2020-10-25T12:55:02Z</time>
      </trkpt>
      <trkpt lat="46.82564" lon="5.61115">
        <ele>281.1</ele>
        <time>2020-10-25T12:55:06Z</time>
      </trkpt>
      <trkpt lat="46.8256" lon="5.61111">
        <ele>281</ele>
        <time>2020-10-25T12:55:10Z</time>
      </trkpt>
      <trkpt lat="46.82556" lon="5.61106">
        <ele>280.9</ele>
        <time>2020-10-25T12:55:14Z</time>
      </trkpt>
      <trkpt lat="46.82552" lon="5.61101">
        <ele>280.8</ele>
        <time>2020-10-25T12:55:18Z</time>
      </trkpt>
      <trkpt lat="46.82548" lon="5.61097">
        <ele>280.7</ele>
        <time>2020-10-25T12:55:22Z</time>
      </trkpt>
      <trkpt lat="46.82544" lon="5.61091">
        <ele>280.4</ele>
        <time>2020-10-25T12:55:27Z</time>
      </trkpt>
      <trkpt lat="46.82541" lon="5.61086">
        <ele>280.2</ele>
        <time>2020-10-25T12:55:31Z</time>
      </trkpt>
      <trkpt lat="46.82537" lon="5.6108">
        <ele>279.8</ele>
        <time>2020-10-25T12:55:36Z</time>
      </trkpt>
      <trkpt lat="46.82533" lon="5.61075">
        <ele>279.5</ele>
        <time>2020-10-25T12:55:41Z</time>
      </trkpt>
      <trkpt lat="46.82529" lon="5.6107">
        <ele>279.4</ele>
        <time>2020-10-25T12:55:45Z</time>
      </trkpt>
      <trkpt lat="46.82525" lon="5.61065">
        <ele>279.6</ele>
        <time>2020-10-25T12:55:49Z</time>
      </trkpt>
      <trkpt lat="46.82522" lon="5.6106">
        <ele>279.9</ele>
        <time>2020-10-25T12:55:53Z</time>
      </trkpt>
      <trkpt lat="46.82519" lon="5.61055">
        <ele>280.2</ele>
        <time>2020-10-25T12:55:57Z</time>
      </trkpt>
      <trkpt lat="46.82515" lon="5.61049">
        <ele>280.6</ele>
        <time>2020-10-25T12:56:02Z</time>
      </trkpt>
      <trkpt lat="46.82512" lon="5.61045">
        <ele>280.7</ele>
        <time>2020-10-25T12:56:06Z</time>
      </trkpt>
      <trkpt lat="46.82507" lon="5.6104">
        <ele>280.6</ele>
        <time>2020-10-25T12:56:10Z</time>
      </trkpt>
      <trkpt lat="46.82503" lon="5.61035">
        <ele>280.5</ele>
        <time>2020-10-25T12:56:14Z</time>
      </trkpt>
      <trkpt lat="46.825" lon="5.6103">
        <ele>280.6</ele>
        <time>2020-10-25T12:56:19Z</time>
      </trkpt>
      <trkpt lat="46.82495" lon="5.61025">
        <ele>280.8</ele>
        <time>2020-10-25T12:56:24Z</time>
      </trkpt>
      <trkpt lat="46.82492" lon="5.6102">
        <ele>281.1</ele>
        <time>2020-10-25T12:56:28Z</time>
      </trkpt>
      <trkpt lat="46.82488" lon="5.61015">
        <ele>281.5</ele>
        <time>2020-10-25T12:56:32Z</time>
      </trkpt>
      <trkpt lat="46.82484" lon="5.61011">
        <ele>281.7</ele>
        <time>2020-10-25T12:56:36Z</time>
      </trkpt>
      <trkpt lat="46.82481" lon="5.61006">
        <ele>282</ele>
        <time>2020-10-25T12:56:40Z</time>
      </trkpt>
      <trkpt lat="46.82477" lon="5.61002">
        <ele>282</ele>
        <time>2020-10-25T12:56:44Z</time>
      </trkpt>
      <trkpt lat="46.82473" lon="5.60997">
        <ele>282</ele>
        <time>2020-10-25T12:56:48Z</time>
      </trkpt>
      <trkpt lat="46.8247" lon="5.60992">
        <ele>282</ele>
        <time>2020-10-25T12:56:52Z</time>
      </trkpt>
      <trkpt lat="46.82466" lon="5.60988">
        <ele>281.8</ele>
        <time>2020-10-25T12:56:56Z</time>
      </trkpt>
      <trkpt lat="46.82463" lon="5.60982">
        <ele>281.8</ele>
        <time>2020-10-25T12:57:00Z</time>
      </trkpt>
      <trkpt lat="46.82459" lon="5.60978">
        <ele>281.7</ele>
        <time>2020-10-25T12:57:04Z</time>
      </trkpt>
      <trkpt lat="46.82456" lon="5.60973">
        <ele>281.4</ele>
        <time>2020-10-25T12:57:08Z</time>
      </trkpt>
      <trkpt lat="46.82452" lon="5.60968">
        <ele>281.1</ele>
        <time>2020-10-25T12:57:13Z</time>
      </trkpt>
      <trkpt lat="46.82449" lon="5.60963">
        <ele>281</ele>
        <time>2020-10-25T12:57:17Z</time>
      </trkpt>
      <trkpt lat="46.82445" lon="5.60958">
        <ele>280.8</ele>
        <time>2020-10-25T12:57:21Z</time>
      </trkpt>
      <trkpt lat="46.82441" lon="5.60953">
        <ele>280.4</ele>
        <time>2020-10-25T12:57:25Z</time>
      </trkpt>
      <trkpt lat="46.82437" lon="5.60948">
        <ele>280</ele>
        <time>2020-10-25T12:57:29Z</time>
      </trkpt>
      <trkpt lat="46.82434" lon="5.60942">
        <ele>279.7</ele>
        <time>2020-10-25T12:57:33Z</time>
      </trkpt>
      <trkpt lat="46.82431" lon="5.60937">
        <ele>279.4</ele>
        <time>2020-10-25T12:57:37Z</time>
      </trkpt>
      <trkpt lat="46.82427" lon="5.60933">
        <ele>278.9</ele>
        <time>2020-10-25T12:57:41Z</time>
      </trkpt>
      <trkpt lat="46.82423" lon="5.60928">
        <ele>278.5</ele>
        <time>2020-10-25T12:57:45Z</time>
      </trkpt>
      <trkpt lat="46.8242" lon="5.60923">
        <ele>278.1</ele>
        <time>2020-10-25T12:57:49Z</time>
      </trkpt>
      <trkpt lat="46.82416" lon="5.60918">
        <ele>277.7</ele>
        <time>2020-10-25T12:57:54Z</time>
      </trkpt>
      <trkpt lat="46.82412" lon="5.60913">
        <ele>277.5</ele>
        <time>2020-10-25T12:57:59Z</time>
      </trkpt>
      <trkpt lat="46.82408" lon="5.60907">
        <ele>277.7</ele>
        <time>2020-10-25T12:58:03Z</time>
      </trkpt>
      <trkpt lat="46.82405" lon="5.60903">
        <ele>277.8</ele>
        <time>2020-10-25T12:58:07Z</time>
      </trkpt>
      <trkpt lat="46.82401" lon="5.60898">
        <ele>277.9</ele>
        <time>2020-10-25T12:58:11Z</time>
      </trkpt>
      <trkpt lat="46.82398" lon="5.60893">
        <ele>277.9</ele>
        <time>2020-10-25T12:58:15Z</time>
      </trkpt>
      <trkpt lat="46.82394" lon="5.60888">
        <ele>277.7</ele>
        <time>2020-10-25T12:58:19Z</time>
      </trkpt>
      <trkpt lat="46.8239" lon="5.60884">
        <ele>277.3</ele>
        <time>2020-10-25T12:58:23Z</time>
      </trkpt>
      <trkpt lat="46.82386" lon="5.60879">
        <ele>276.9</ele>
        <time>2020-10-25T12:58:27Z</time>
      </trkpt>
      <trkpt lat="46.82383" lon="5.60874">
        <ele>276.4</ele>
        <time>2020-10-25T12:58:31Z</time>
      </trkpt>
      <trkpt lat="46.82379" lon="5.60869">
        <ele>276.1</ele>
        <time>2020-10-25T12:58:35Z</time>
      </trkpt>
      <trkpt lat="46.82376" lon="5.60864">
        <ele>275.8</ele>
        <time>2020-10-25T12:58:39Z</time>
      </trkpt>
      <trkpt lat="46.82372" lon="5.60859">
        <ele>275.9</ele>
        <time>2020-10-25T12:58:43Z</time>
      </trkpt>
      <trkpt lat="46.82369" lon="5.60854">
        <ele>276.1</ele>
        <time>2020-10-25T12:58:47Z</time>
      </trkpt>
      <trkpt lat="46.82365" lon="5.60849">
        <ele>276.4</ele>
        <time>2020-10-25T12:58:51Z</time>
      </trkpt>
      <trkpt lat="46.82362" lon="5.60844">
        <ele>276.7</ele>
        <time>2020-10-25T12:58:55Z</time>
      </trkpt>
      <trkpt lat="46.82358" lon="5.60839">
        <ele>276.9</ele>
        <time>2020-10-25T12:58:59Z</time>
      </trkpt>
      <trkpt lat="46.82355" lon="5.60833">
        <ele>277</ele>
        <time>2020-10-25T12:59:04Z</time>
      </trkpt>
      <trkpt lat="46.82351" lon="5.60829">
        <ele>277.1</ele>
        <time>2020-10-25T12:59:08Z</time>
      </trkpt>
      <trkpt lat="46.82347" lon="5.60824">
        <ele>277.1</ele>
        <time>2020-10-25T12:59:12Z</time>
      </trkpt>
      <trkpt lat="46.82344" lon="5.60819">
        <ele>277.1</ele>
        <time>2020-10-25T12:59:16Z</time>
      </trkpt>
      <trkpt lat="46.8234" lon="5.60814">
        <ele>277</ele>
        <time>2020-10-25T12:59:20Z</time>
      </trkpt>
      <trkpt lat="46.82336" lon="5.60809">
        <ele>277</ele>
        <time>2020-10-25T12:59:24Z</time>
      </trkpt>
      <trkpt lat="46.82332" lon="5.60804">
        <ele>277</ele>
        <time>2020-10-25T12:59:28Z</time>
      </trkpt>
      <trkpt lat="46.82329" lon="5.60799">
        <ele>277.1</ele>
        <time>2020-10-25T12:59:32Z</time>
      </trkpt>
      <trkpt lat="46.82326" lon="5.60793">
        <ele>277.3</ele>
        <time>2020-10-25T12:59:37Z</time>
      </trkpt>
      <trkpt lat="46.82321" lon="5.60789">
        <ele>277.2</ele>
        <time>2020-10-25T12:59:41Z</time>
      </trkpt>
      <trkpt lat="46.82317" lon="5.60784">
        <ele>276.9</ele>
        <time>2020-10-25T12:59:45Z</time>
      </trkpt>
      <trkpt lat="46.82313" lon="5.6078">
        <ele>276.6</ele>
        <time>2020-10-25T12:59:49Z</time>
      </trkpt>
      <trkpt lat="46.82309" lon="5.60775">
        <ele>276.3</ele>
        <time>2020-10-25T12:59:53Z</time>
      </trkpt>
      <trkpt lat="46.82305" lon="5.60772">
        <ele>276.4</ele>
        <time>2020-10-25T12:59:57Z</time>
      </trkpt>
      <trkpt lat="46.82301" lon="5.60769">
        <ele>276.5</ele>
        <time>2020-10-25T13:00:01Z</time>
      </trkpt>
      <trkpt lat="46.82296" lon="5.60766">
        <ele>276.3</ele>
        <time>2020-10-25T13:00:05Z</time>
      </trkpt>
      <trkpt lat="46.82291" lon="5.60764">
        <ele>276</ele>
        <time>2020-10-25T13:00:09Z</time>
      </trkpt>
      <trkpt lat="46.82286" lon="5.60762">
        <ele>275.5</ele>
        <time>2020-10-25T13:00:13Z</time>
      </trkpt>
      <trkpt lat="46.82281" lon="5.60758">
        <ele>274.8</ele>
        <time>2020-10-25T13:00:18Z</time>
      </trkpt>
      <trkpt lat="46.82276" lon="5.60755">
        <ele>274.2</ele>
        <time>2020-10-25T13:00:23Z</time>
      </trkpt>
      <trkpt lat="46.82272" lon="5.60751">
        <ele>273.9</ele>
        <time>2020-10-25T13:00:27Z</time>
      </trkpt>
      <trkpt lat="46.82268" lon="5.60748">
        <ele>273.8</ele>
        <time>2020-10-25T13:00:32Z</time>
      </trkpt>
      <trkpt lat="46.82264" lon="5.60744">
        <ele>273.1</ele>
        <time>2020-10-25T13:00:42Z</time>
      </trkpt>
      <trkpt lat="46.8226" lon="5.6074">
        <ele>272.5</ele>
        <time>2020-10-25T13:00:46Z</time>
      </trkpt>
      <trkpt lat="46.82255" lon="5.60736">
        <ele>272.1</ele>
        <time>2020-10-25T13:00:50Z</time>
      </trkpt>
      <trkpt lat="46.82251" lon="5.60733">
        <ele>271.8</ele>
        <time>2020-10-25T13:00:54Z</time>
      </trkpt>
      <trkpt lat="46.82246" lon="5.6073">
        <ele>271.6</ele>
        <time>2020-10-25T13:00:58Z</time>
      </trkpt>
      <trkpt lat="46.82242" lon="5.60728">
        <ele>271.4</ele>
        <time>2020-10-25T13:01:02Z</time>
      </trkpt>
      <trkpt lat="46.82237" lon="5.60725">
        <ele>271.1</ele>
        <time>2020-10-25T13:01:06Z</time>
      </trkpt>
      <trkpt lat="46.82233" lon="5.60722">
        <ele>270.5</ele>
        <time>2020-10-25T13:01:10Z</time>
      </trkpt>
      <trkpt lat="46.82228" lon="5.60719">
        <ele>269.9</ele>
        <time>2020-10-25T13:01:14Z</time>
      </trkpt>
      <trkpt lat="46.82224" lon="5.60716">
        <ele>269.6</ele>
        <time>2020-10-25T13:01:18Z</time>
      </trkpt>
      <trkpt lat="46.82219" lon="5.60713">
        <ele>269.5</ele>
        <time>2020-10-25T13:01:22Z</time>
      </trkpt>
      <trkpt lat="46.82215" lon="5.6071">
        <ele>269.4</ele>
        <time>2020-10-25T13:01:26Z</time>
      </trkpt>
      <trkpt lat="46.8221" lon="5.60708">
        <ele>269.4</ele>
        <time>2020-10-25T13:01:30Z</time>
      </trkpt>
      <trkpt lat="46.82205" lon="5.60704">
        <ele>269.5</ele>
        <time>2020-10-25T13:01:35Z</time>
      </trkpt>
      <trkpt lat="46.82201" lon="5.60702">
        <ele>269.4</ele>
        <time>2020-10-25T13:01:39Z</time>
      </trkpt>
      <trkpt lat="46.82197" lon="5.60699">
        <ele>269.4</ele>
        <time>2020-10-25T13:01:43Z</time>
      </trkpt>
      <trkpt lat="46.82192" lon="5.60696">
        <ele>269.2</ele>
        <time>2020-10-25T13:01:47Z</time>
      </trkpt>
      <trkpt lat="46.82187" lon="5.60694">
        <ele>268.9</ele>
        <time>2020-10-25T13:01:51Z</time>
      </trkpt>
      <trkpt lat="46.82183" lon="5.60691">
        <ele>268.7</ele>
        <time>2020-10-25T13:01:55Z</time>
      </trkpt>
      <trkpt lat="46.82178" lon="5.60688">
        <ele>268.6</ele>
        <time>2020-10-25T13:01:59Z</time>
      </trkpt>
      <trkpt lat="46.82174" lon="5.60685">
        <ele>268.4</ele>
        <time>2020-10-25T13:02:03Z</time>
      </trkpt>
      <trkpt lat="46.82169" lon="5.60681">
        <ele>268.2</ele>
        <time>2020-10-25T13:02:08Z</time>
      </trkpt>
      <trkpt lat="46.82165" lon="5.60678">
        <ele>268.3</ele>
        <time>2020-10-25T13:02:12Z</time>
      </trkpt>
      <trkpt lat="46.82161" lon="5.60675">
        <ele>268.6</ele>
        <time>2020-10-25T13:02:16Z</time>
      </trkpt>
      <trkpt lat="46.82156" lon="5.60673">
        <ele>268.9</ele>
        <time>2020-10-25T13:02:20Z</time>
      </trkpt>
      <trkpt lat="46.82151" lon="5.6067">
        <ele>268.7</ele>
        <time>2020-10-25T13:02:24Z</time>
      </trkpt>
      <trkpt lat="46.82147" lon="5.60667">
        <ele>268.4</ele>
        <time>2020-10-25T13:02:28Z</time>
      </trkpt>
      <trkpt lat="46.82143" lon="5.60665">
        <ele>268</ele>
        <time>2020-10-25T13:02:32Z</time>
      </trkpt>
      <trkpt lat="46.82138" lon="5.60662">
        <ele>267</ele>
        <time>2020-10-25T13:02:36Z</time>
      </trkpt>
      <trkpt lat="46.82133" lon="5.6066">
        <ele>266.4</ele>
        <time>2020-10-25T13:02:40Z</time>
      </trkpt>
      <trkpt lat="46.82129" lon="5.60657">
        <ele>265.9</ele>
        <time>2020-10-25T13:02:44Z</time>
      </trkpt>
      <trkpt lat="46.82124" lon="5.60654">
        <ele>265.3</ele>
        <time>2020-10-25T13:02:48Z</time>
      </trkpt>
      <trkpt lat="46.82119" lon="5.60651">
        <ele>264.8</ele>
        <time>2020-10-25T13:02:52Z</time>
      </trkpt>
      <trkpt lat="46.82115" lon="5.60649">
        <ele>264.4</ele>
        <time>2020-10-25T13:02:56Z</time>
      </trkpt>
      <trkpt lat="46.8211" lon="5.60646">
        <ele>264.2</ele>
        <time>2020-10-25T13:03:00Z</time>
      </trkpt>
      <trkpt lat="46.82105" lon="5.60643">
        <ele>264.1</ele>
        <time>2020-10-25T13:03:04Z</time>
      </trkpt>
      <trkpt lat="46.82101" lon="5.60641">
        <ele>264.3</ele>
        <time>2020-10-25T13:03:08Z</time>
      </trkpt>
      <trkpt lat="46.82095" lon="5.60638">
        <ele>264.5</ele>
        <time>2020-10-25T13:03:13Z</time>
      </trkpt>
      <trkpt lat="46.8209" lon="5.60636">
        <ele>264.7</ele>
        <time>2020-10-25T13:03:18Z</time>
      </trkpt>
      <trkpt lat="46.82085" lon="5.60635">
        <ele>264.6</ele>
        <time>2020-10-25T13:03:23Z</time>
      </trkpt>
      <trkpt lat="46.8208" lon="5.60632">
        <ele>264.6</ele>
        <time>2020-10-25T13:03:27Z</time>
      </trkpt>
      <trkpt lat="46.82076" lon="5.60629">
        <ele>264.7</ele>
        <time>2020-10-25T13:03:31Z</time>
      </trkpt>
      <trkpt lat="46.82071" lon="5.60627">
        <ele>264.6</ele>
        <time>2020-10-25T13:03:35Z</time>
      </trkpt>
      <trkpt lat="46.82067" lon="5.60626">
        <ele>264.3</ele>
        <time>2020-10-25T13:03:40Z</time>
      </trkpt>
      <trkpt lat="46.82061" lon="5.60624">
        <ele>263.8</ele>
        <time>2020-10-25T13:03:45Z</time>
      </trkpt>
      <trkpt lat="46.82056" lon="5.60622">
        <ele>263.4</ele>
        <time>2020-10-25T13:03:49Z</time>
      </trkpt>
      <trkpt lat="46.8205" lon="5.6062">
        <ele>263.3</ele>
        <time>2020-10-25T13:03:54Z</time>
      </trkpt>
      <trkpt lat="46.82045" lon="5.60619">
        <ele>263.2</ele>
        <time>2020-10-25T13:03:58Z</time>
      </trkpt>
      <trkpt lat="46.82041" lon="5.60618">
        <ele>263.2</ele>
        <time>2020-10-25T13:04:02Z</time>
      </trkpt>
      <trkpt lat="46.82036" lon="5.60616">
        <ele>263.2</ele>
        <time>2020-10-25T13:04:06Z</time>
      </trkpt>
      <trkpt lat="46.82031" lon="5.60616">
        <ele>263.3</ele>
        <time>2020-10-25T13:04:10Z</time>
      </trkpt>
      <trkpt lat="46.82026" lon="5.60615">
        <ele>263.5</ele>
        <time>2020-10-25T13:04:14Z</time>
      </trkpt>
      <trkpt lat="46.82021" lon="5.60615">
        <ele>264.1</ele>
        <time>2020-10-25T13:04:19Z</time>
      </trkpt>
      <trkpt lat="46.82016" lon="5.60615">
        <ele>264.5</ele>
        <time>2020-10-25T13:04:24Z</time>
      </trkpt>
      <trkpt lat="46.82011" lon="5.60614">
        <ele>264.6</ele>
        <time>2020-10-25T13:04:29Z</time>
      </trkpt>
      <trkpt lat="46.82006" lon="5.60613">
        <ele>264.6</ele>
        <time>2020-10-25T13:04:34Z</time>
      </trkpt>
      <trkpt lat="46.82" lon="5.60611">
        <ele>264.9</ele>
        <time>2020-10-25T13:04:39Z</time>
      </trkpt>
      <trkpt lat="46.81996" lon="5.6061">
        <ele>265.2</ele>
        <time>2020-10-25T13:04:43Z</time>
      </trkpt>
      <trkpt lat="46.81991" lon="5.60609">
        <ele>265.7</ele>
        <time>2020-10-25T13:04:47Z</time>
      </trkpt>
      <trkpt lat="46.81985" lon="5.60607">
        <ele>266.2</ele>
        <time>2020-10-25T13:04:51Z</time>
      </trkpt>
      <trkpt lat="46.8198" lon="5.60605">
        <ele>266.8</ele>
        <time>2020-10-25T13:04:55Z</time>
      </trkpt>
      <trkpt lat="46.81975" lon="5.60602">
        <ele>267.1</ele>
        <time>2020-10-25T13:05:00Z</time>
      </trkpt>
      <trkpt lat="46.8197" lon="5.60599">
        <ele>267.3</ele>
        <time>2020-10-25T13:05:05Z</time>
      </trkpt>
      <trkpt lat="46.81965" lon="5.60596">
        <ele>267.3</ele>
        <time>2020-10-25T13:05:10Z</time>
      </trkpt>
      <trkpt lat="46.8196" lon="5.60593">
        <ele>267.5</ele>
        <time>2020-10-25T13:05:15Z</time>
      </trkpt>
      <trkpt lat="46.81956" lon="5.6059">
        <ele>267.7</ele>
        <time>2020-10-25T13:05:19Z</time>
      </trkpt>
      <trkpt lat="46.81952" lon="5.60588">
        <ele>268.1</ele>
        <time>2020-10-25T13:05:23Z</time>
      </trkpt>
      <trkpt lat="46.81948" lon="5.60584">
        <ele>268.1</ele>
        <time>2020-10-25T13:05:27Z</time>
      </trkpt>
      <trkpt lat="46.81944" lon="5.6058">
        <ele>268.2</ele>
        <time>2020-10-25T13:05:31Z</time>
      </trkpt>
      <trkpt lat="46.8194" lon="5.60576">
        <ele>268.5</ele>
        <time>2020-10-25T13:05:35Z</time>
      </trkpt>
      <trkpt lat="46.81936" lon="5.60573">
        <ele>268.8</ele>
        <time>2020-10-25T13:05:39Z</time>
      </trkpt>
      <trkpt lat="46.81931" lon="5.6057">
        <ele>269.2</ele>
        <time>2020-10-25T13:05:43Z</time>
      </trkpt>
      <trkpt lat="46.81927" lon="5.60567">
        <ele>269.5</ele>
        <time>2020-10-25T13:05:47Z</time>
      </trkpt>
      <trkpt lat="46.81922" lon="5.60564">
        <ele>269.8</ele>
        <time>2020-10-25T13:05:51Z</time>
      </trkpt>
      <trkpt lat="46.81917" lon="5.60562">
        <ele>270.1</ele>
        <time>2020-10-25T13:05:55Z</time>
      </trkpt>
      <trkpt lat="46.81913" lon="5.60559">
        <ele>270.3</ele>
        <time>2020-10-25T13:05:59Z</time>
      </trkpt>
      <trkpt lat="46.81908" lon="5.60558">
        <ele>270.6</ele>
        <time>2020-10-25T13:06:03Z</time>
      </trkpt>
      <trkpt lat="46.81903" lon="5.60559">
        <ele>271</ele>
        <time>2020-10-25T13:06:07Z</time>
      </trkpt>
      <trkpt lat="46.81898" lon="5.6056">
        <ele>271.4</ele>
        <time>2020-10-25T13:06:12Z</time>
      </trkpt>
      <trkpt lat="46.81894" lon="5.60562">
        <ele>271.7</ele>
        <time>2020-10-25T13:06:16Z</time>
      </trkpt>
      <trkpt lat="46.81889" lon="5.60566">
        <ele>272.2</ele>
        <time>2020-10-25T13:06:21Z</time>
      </trkpt>
      <trkpt lat="46.81885" lon="5.60571">
        <ele>272.9</ele>
        <time>2020-10-25T13:06:26Z</time>
      </trkpt>
      <trkpt lat="46.81882" lon="5.60577">
        <ele>273</ele>
        <time>2020-10-25T13:06:31Z</time>
      </trkpt>
      <trkpt lat="46.81879" lon="5.60583">
        <ele>273.1</ele>
        <time>2020-10-25T13:06:35Z</time>
      </trkpt>
      <trkpt lat="46.81876" lon="5.60589">
        <ele>273.3</ele>
        <time>2020-10-25T13:06:40Z</time>
      </trkpt>
      <trkpt lat="46.81873" lon="5.60596">
        <ele>273.4</ele>
        <time>2020-10-25T13:06:45Z</time>
      </trkpt>
      <trkpt lat="46.81871" lon="5.60603">
        <ele>273.4</ele>
        <time>2020-10-25T13:06:50Z</time>
      </trkpt>
      <trkpt lat="46.8187" lon="5.6061">
        <ele>273.4</ele>
        <time>2020-10-25T13:06:55Z</time>
      </trkpt>
      <trkpt lat="46.81867" lon="5.60617">
        <ele>273.1</ele>
        <time>2020-10-25T13:07:00Z</time>
      </trkpt>
      <trkpt lat="46.81864" lon="5.60623">
        <ele>272.9</ele>
        <time>2020-10-25T13:07:05Z</time>
      </trkpt>
      <trkpt lat="46.81862" lon="5.60629">
        <ele>272.8</ele>
        <time>2020-10-25T13:07:09Z</time>
      </trkpt>
      <trkpt lat="46.8186" lon="5.60636">
        <ele>273</ele>
        <time>2020-10-25T13:07:14Z</time>
      </trkpt>
      <trkpt lat="46.81857" lon="5.60643">
        <ele>273.4</ele>
        <time>2020-10-25T13:07:19Z</time>
      </trkpt>
      <trkpt lat="46.81854" lon="5.6065">
        <ele>273.7</ele>
        <time>2020-10-25T13:07:24Z</time>
      </trkpt>
      <trkpt lat="46.81851" lon="5.60656">
        <ele>273.4</ele>
        <time>2020-10-25T13:07:28Z</time>
      </trkpt>
      <trkpt lat="46.81848" lon="5.60661">
        <ele>273.2</ele>
        <time>2020-10-25T13:07:32Z</time>
      </trkpt>
      <trkpt lat="46.81845" lon="5.60667">
        <ele>273</ele>
        <time>2020-10-25T13:07:36Z</time>
      </trkpt>
      <trkpt lat="46.81842" lon="5.60672">
        <ele>272.8</ele>
        <time>2020-10-25T13:07:40Z</time>
      </trkpt>
      <trkpt lat="46.8184" lon="5.60678">
        <ele>272.9</ele>
        <time>2020-10-25T13:07:44Z</time>
      </trkpt>
      <trkpt lat="46.81838" lon="5.60685">
        <ele>272.9</ele>
        <time>2020-10-25T13:07:49Z</time>
      </trkpt>
      <trkpt lat="46.81836" lon="5.60692">
        <ele>273.1</ele>
        <time>2020-10-25T13:07:53Z</time>
      </trkpt>
      <trkpt lat="46.81833" lon="5.60697">
        <ele>273.5</ele>
        <time>2020-10-25T13:07:57Z</time>
      </trkpt>
      <trkpt lat="46.81831" lon="5.60703">
        <ele>274.3</ele>
        <time>2020-10-25T13:08:01Z</time>
      </trkpt>
      <trkpt lat="46.81828" lon="5.60709">
        <ele>275.6</ele>
        <time>2020-10-25T13:08:06Z</time>
      </trkpt>
      <trkpt lat="46.81823" lon="5.6071">
        <ele>277.4</ele>
        <time>2020-10-25T13:08:13Z</time>
      </trkpt>
      <trkpt lat="46.81818" lon="5.60708">
        <ele>278.3</ele>
        <time>2020-10-25T13:08:18Z</time>
      </trkpt>
      <trkpt lat="46.81812" lon="5.60706">
        <ele>278.7</ele>
        <time>2020-10-25T13:08:23Z</time>
      </trkpt>
      <trkpt lat="46.81807" lon="5.60703">
        <ele>278.8</ele>
        <time>2020-10-25T13:08:28Z</time>
      </trkpt>
      <trkpt lat="46.81803" lon="5.60701">
        <ele>278.8</ele>
        <time>2020-10-25T13:08:32Z</time>
      </trkpt>
      <trkpt lat="46.81798" lon="5.60698">
        <ele>278.8</ele>
        <time>2020-10-25T13:08:37Z</time>
      </trkpt>
      <trkpt lat="46.81794" lon="5.60694">
        <ele>278.9</ele>
        <time>2020-10-25T13:08:42Z</time>
      </trkpt>
      <trkpt lat="46.8179" lon="5.60689">
        <ele>279.6</ele>
        <time>2020-10-25T13:08:48Z</time>
      </trkpt>
      <trkpt lat="46.81786" lon="5.60683">
        <ele>280</ele>
        <time>2020-10-25T13:08:53Z</time>
      </trkpt>
      <trkpt lat="46.81783" lon="5.60676">
        <ele>280.3</ele>
        <time>2020-10-25T13:08:58Z</time>
      </trkpt>
      <trkpt lat="46.8178" lon="5.6067">
        <ele>280.6</ele>
        <time>2020-10-25T13:09:02Z</time>
      </trkpt>
      <trkpt lat="46.81777" lon="5.60666">
        <ele>280.5</ele>
        <time>2020-10-25T13:09:06Z</time>
      </trkpt>
      <trkpt lat="46.81773" lon="5.60662">
        <ele>279.9</ele>
        <time>2020-10-25T13:09:10Z</time>
      </trkpt>
      <trkpt lat="46.81769" lon="5.60656">
        <ele>278.4</ele>
        <time>2020-10-25T13:09:15Z</time>
      </trkpt>
      <trkpt lat="46.81765" lon="5.60652">
        <ele>276.5</ele>
        <time>2020-10-25T13:09:20Z</time>
      </trkpt>
      <trkpt lat="46.81761" lon="5.60647">
        <ele>275.1</ele>
        <time>2020-10-25T13:09:25Z</time>
      </trkpt>
      <trkpt lat="46.81758" lon="5.60643">
        <ele>274.6</ele>
        <time>2020-10-25T13:09:29Z</time>
      </trkpt>
      <trkpt lat="46.81754" lon="5.60637">
        <ele>273.8</ele>
        <time>2020-10-25T13:09:34Z</time>
      </trkpt>
      <trkpt lat="46.81751" lon="5.60633">
        <ele>273.1</ele>
        <time>2020-10-25T13:09:39Z</time>
      </trkpt>
      <trkpt lat="46.81747" lon="5.60628">
        <ele>273.3</ele>
        <time>2020-10-25T13:09:43Z</time>
      </trkpt>
      <trkpt lat="46.81743" lon="5.60623">
        <ele>273.4</ele>
        <time>2020-10-25T13:09:48Z</time>
      </trkpt>
      <trkpt lat="46.8174" lon="5.60617">
        <ele>273.8</ele>
        <time>2020-10-25T13:09:53Z</time>
      </trkpt>
      <trkpt lat="46.81737" lon="5.60612">
        <ele>274.3</ele>
        <time>2020-10-25T13:09:58Z</time>
      </trkpt>
      <trkpt lat="46.81734" lon="5.60606">
        <ele>274.3</ele>
        <time>2020-10-25T13:10:03Z</time>
      </trkpt>
      <trkpt lat="46.81731" lon="5.606">
        <ele>274.1</ele>
        <time>2020-10-25T13:10:08Z</time>
      </trkpt>
      <trkpt lat="46.81728" lon="5.60594">
        <ele>274.1</ele>
        <time>2020-10-25T13:10:14Z</time>
      </trkpt>
      <trkpt lat="46.81725" lon="5.60589">
        <ele>274.1</ele>
        <time>2020-10-25T13:10:20Z</time>
      </trkpt>
      <trkpt lat="46.81721" lon="5.60582">
        <ele>273.9</ele>
        <time>2020-10-25T13:10:25Z</time>
      </trkpt>
      <trkpt lat="46.81718" lon="5.60577">
        <ele>274</ele>
        <time>2020-10-25T13:10:30Z</time>
      </trkpt>
      <trkpt lat="46.81714" lon="5.60571">
        <ele>273.8</ele>
        <time>2020-10-25T13:10:35Z</time>
      </trkpt>
      <trkpt lat="46.81711" lon="5.60565">
        <ele>273.1</ele>
        <time>2020-10-25T13:10:39Z</time>
      </trkpt>
      <trkpt lat="46.81707" lon="5.6056">
        <ele>272.4</ele>
        <time>2020-10-25T13:10:44Z</time>
      </trkpt>
      <trkpt lat="46.81703" lon="5.60555">
        <ele>272.2</ele>
        <time>2020-10-25T13:10:49Z</time>
      </trkpt>
      <trkpt lat="46.81699" lon="5.6055">
        <ele>272.6</ele>
        <time>2020-10-25T13:10:54Z</time>
      </trkpt>
      <trkpt lat="46.81695" lon="5.60546">
        <ele>273.5</ele>
        <time>2020-10-25T13:10:58Z</time>
      </trkpt>
      <trkpt lat="46.81691" lon="5.60541">
        <ele>274.6</ele>
        <time>2020-10-25T13:11:02Z</time>
      </trkpt>
      <trkpt lat="46.81687" lon="5.60536">
        <ele>275.6</ele>
        <time>2020-10-25T13:11:07Z</time>
      </trkpt>
      <trkpt lat="46.81683" lon="5.60532">
        <ele>276.5</ele>
        <time>2020-10-25T13:11:11Z</time>
      </trkpt>
      <trkpt lat="46.8168" lon="5.60527">
        <ele>277.1</ele>
        <time>2020-10-25T13:11:15Z</time>
      </trkpt>
      <trkpt lat="46.81677" lon="5.60522">
        <ele>277.9</ele>
        <time>2020-10-25T13:11:19Z</time>
      </trkpt>
      <trkpt lat="46.81674" lon="5.60516">
        <ele>278.2</ele>
        <time>2020-10-25T13:11:24Z</time>
      </trkpt>
      <trkpt lat="46.8167" lon="5.60511">
        <ele>277.5</ele>
        <time>2020-10-25T13:11:29Z</time>
      </trkpt>
      <trkpt lat="46.81666" lon="5.60507">
        <ele>276.1</ele>
        <time>2020-10-25T13:11:33Z</time>
      </trkpt>
      <trkpt lat="46.81663" lon="5.60502">
        <ele>274.2</ele>
        <time>2020-10-25T13:11:38Z</time>
      </trkpt>
      <trkpt lat="46.81659" lon="5.60496">
        <ele>272.8</ele>
        <time>2020-10-25T13:11:43Z</time>
      </trkpt>
      <trkpt lat="46.81656" lon="5.6049">
        <ele>272</ele>
        <time>2020-10-25T13:11:48Z</time>
      </trkpt>
      <trkpt lat="46.81654" lon="5.60483">
        <ele>271.4</ele>
        <time>2020-10-25T13:11:53Z</time>
      </trkpt>
      <trkpt lat="46.8165" lon="5.60477">
        <ele>271.3</ele>
        <time>2020-10-25T13:11:58Z</time>
      </trkpt>
      <trkpt lat="46.81647" lon="5.60473">
        <ele>271.5</ele>
        <time>2020-10-25T13:12:02Z</time>
      </trkpt>
      <trkpt lat="46.81643" lon="5.60468">
        <ele>272.2</ele>
        <time>2020-10-25T13:12:07Z</time>
      </trkpt>
      <trkpt lat="46.81642" lon="5.60462">
        <ele>272.4</ele>
        <time>2020-10-25T13:12:13Z</time>
      </trkpt>
      <trkpt lat="46.8164" lon="5.60455">
        <ele>272.2</ele>
        <time>2020-10-25T13:12:18Z</time>
      </trkpt>
      <trkpt lat="46.81637" lon="5.60449">
        <ele>272.1</ele>
        <time>2020-10-25T13:12:23Z</time>
      </trkpt>
      <trkpt lat="46.81635" lon="5.60443">
        <ele>271</ele>
        <time>2020-10-25T13:12:28Z</time>
      </trkpt>
      <trkpt lat="46.81631" lon="5.60439">
        <ele>269.5</ele>
        <time>2020-10-25T13:12:35Z</time>
      </trkpt>
      <trkpt lat="46.81627" lon="5.60434">
        <ele>268.4</ele>
        <time>2020-10-25T13:12:42Z</time>
      </trkpt>
      <trkpt lat="46.81625" lon="5.60428">
        <ele>267.9</ele>
        <time>2020-10-25T13:12:48Z</time>
      </trkpt>
      <trkpt lat="46.81624" lon="5.6042">
        <ele>267.4</ele>
        <time>2020-10-25T13:12:53Z</time>
      </trkpt>
      <trkpt lat="46.81622" lon="5.60413">
        <ele>267</ele>
        <time>2020-10-25T13:12:57Z</time>
      </trkpt>
      <trkpt lat="46.81619" lon="5.60407">
        <ele>266.6</ele>
        <time>2020-10-25T13:13:01Z</time>
      </trkpt>
      <trkpt lat="46.81615" lon="5.60404">
        <ele>265.7</ele>
        <time>2020-10-25T13:13:06Z</time>
      </trkpt>
      <trkpt lat="46.8161" lon="5.60404">
        <ele>264.6</ele>
        <time>2020-10-25T13:13:11Z</time>
      </trkpt>
      <trkpt lat="46.81605" lon="5.60405">
        <ele>263.4</ele>
        <time>2020-10-25T13:13:15Z</time>
      </trkpt>
      <trkpt lat="46.81601" lon="5.60409">
        <ele>262.4</ele>
        <time>2020-10-25T13:13:19Z</time>
      </trkpt>
      <trkpt lat="46.81597" lon="5.60414">
        <ele>262.7</ele>
        <time>2020-10-25T13:13:23Z</time>
      </trkpt>
      <trkpt lat="46.81593" lon="5.60418">
        <ele>262.9</ele>
        <time>2020-10-25T13:13:27Z</time>
      </trkpt>
      <trkpt lat="46.81588" lon="5.60421">
        <ele>263.1</ele>
        <time>2020-10-25T13:13:31Z</time>
      </trkpt>
      <trkpt lat="46.81585" lon="5.60426">
        <ele>263.1</ele>
        <time>2020-10-25T13:13:36Z</time>
      </trkpt>
      <trkpt lat="46.81582" lon="5.60432">
        <ele>263.1</ele>
        <time>2020-10-25T13:13:41Z</time>
      </trkpt>
      <trkpt lat="46.81579" lon="5.60439">
        <ele>262.9</ele>
        <time>2020-10-25T13:13:46Z</time>
      </trkpt>
      <trkpt lat="46.81576" lon="5.60444">
        <ele>262.4</ele>
        <time>2020-10-25T13:13:51Z</time>
      </trkpt>
      <trkpt lat="46.81573" lon="5.6045">
        <ele>261.9</ele>
        <time>2020-10-25T13:13:55Z</time>
      </trkpt>
      <trkpt lat="46.8157" lon="5.60456">
        <ele>261.6</ele>
        <time>2020-10-25T13:14:00Z</time>
      </trkpt>
      <trkpt lat="46.81567" lon="5.60462">
        <ele>261.6</ele>
        <time>2020-10-25T13:14:04Z</time>
      </trkpt>
      <trkpt lat="46.81564" lon="5.60468">
        <ele>261.2</ele>
        <time>2020-10-25T13:14:09Z</time>
      </trkpt>
      <trkpt lat="46.81562" lon="5.60474">
        <ele>260.9</ele>
        <time>2020-10-25T13:14:13Z</time>
      </trkpt>
      <trkpt lat="46.81559" lon="5.60479">
        <ele>261</ele>
        <time>2020-10-25T13:14:17Z</time>
      </trkpt>
      <trkpt lat="46.81556" lon="5.60486">
        <ele>262.1</ele>
        <time>2020-10-25T13:14:21Z</time>
      </trkpt>
      <trkpt lat="46.81553" lon="5.60492">
        <ele>264</ele>
        <time>2020-10-25T13:14:25Z</time>
      </trkpt>
      <trkpt lat="46.81551" lon="5.60498">
        <ele>265.8</ele>
        <time>2020-10-25T13:14:29Z</time>
      </trkpt>
      <trkpt lat="46.81549" lon="5.60504">
        <ele>266.4</ele>
        <time>2020-10-25T13:14:34Z</time>
      </trkpt>
      <trkpt lat="46.81546" lon="5.60509">
        <ele>265.5</ele>
        <time>2020-10-25T13:14:39Z</time>
      </trkpt>
      <trkpt lat="46.81543" lon="5.60515">
        <ele>264.4</ele>
        <time>2020-10-25T13:14:44Z</time>
      </trkpt>
      <trkpt lat="46.81539" lon="5.60521">
        <ele>262.8</ele>
        <time>2020-10-25T13:14:49Z</time>
      </trkpt>
      <trkpt lat="46.81536" lon="5.60526">
        <ele>261.1</ele>
        <time>2020-10-25T13:14:54Z</time>
      </trkpt>
      <trkpt lat="46.81534" lon="5.60533">
        <ele>259.7</ele>
        <time>2020-10-25T13:14:59Z</time>
      </trkpt>
      <trkpt lat="46.81532" lon="5.6054">
        <ele>258.8</ele>
        <time>2020-10-25T13:15:04Z</time>
      </trkpt>
      <trkpt lat="46.81529" lon="5.60545">
        <ele>258.4</ele>
        <time>2020-10-25T13:15:08Z</time>
      </trkpt>
      <trkpt lat="46.81526" lon="5.6055">
        <ele>258.3</ele>
        <time>2020-10-25T13:15:12Z</time>
      </trkpt>
      <trkpt lat="46.81522" lon="5.60556">
        <ele>258.4</ele>
        <time>2020-10-25T13:15:16Z</time>
      </trkpt>
      <trkpt lat="46.81519" lon="5.60561">
        <ele>258.6</ele>
        <time>2020-10-25T13:15:20Z</time>
      </trkpt>
      <trkpt lat="46.81516" lon="5.60565">
        <ele>258.7</ele>
        <time>2020-10-25T13:15:24Z</time>
      </trkpt>
      <trkpt lat="46.81513" lon="5.60572">
        <ele>259.1</ele>
        <time>2020-10-25T13:15:29Z</time>
      </trkpt>
      <trkpt lat="46.81509" lon="5.60576">
        <ele>259.5</ele>
        <time>2020-10-25T13:15:33Z</time>
      </trkpt>
      <trkpt lat="46.81505" lon="5.60581">
        <ele>259.6</ele>
        <time>2020-10-25T13:15:37Z</time>
      </trkpt>
      <trkpt lat="46.81501" lon="5.60586">
        <ele>259.5</ele>
        <time>2020-10-25T13:15:42Z</time>
      </trkpt>
      <trkpt lat="46.81497" lon="5.60591">
        <ele>259.2</ele>
        <time>2020-10-25T13:15:47Z</time>
      </trkpt>
      <trkpt lat="46.81493" lon="5.60594">
        <ele>259.3</ele>
        <time>2020-10-25T13:15:53Z</time>
      </trkpt>
      <trkpt lat="46.81489" lon="5.60599">
        <ele>259.1</ele>
        <time>2020-10-25T13:15:58Z</time>
      </trkpt>
      <trkpt lat="46.81484" lon="5.60603">
        <ele>258.8</ele>
        <time>2020-10-25T13:16:02Z</time>
      </trkpt>
      <trkpt lat="46.8148" lon="5.60608">
        <ele>258.3</ele>
        <time>2020-10-25T13:16:07Z</time>
      </trkpt>
      <trkpt lat="46.81476" lon="5.60611">
        <ele>258.2</ele>
        <time>2020-10-25T13:16:12Z</time>
      </trkpt>
      <trkpt lat="46.81471" lon="5.60614">
        <ele>258.5</ele>
        <time>2020-10-25T13:16:17Z</time>
      </trkpt>
      <trkpt lat="46.81467" lon="5.60616">
        <ele>259</ele>
        <time>2020-10-25T13:16:21Z</time>
      </trkpt>
      <trkpt lat="46.81461" lon="5.60619">
        <ele>259.7</ele>
        <time>2020-10-25T13:16:26Z</time>
      </trkpt>
      <trkpt lat="46.81457" lon="5.60623">
        <ele>260.8</ele>
        <time>2020-10-25T13:16:29Z</time>
      </trkpt>
      <trkpt lat="46.81452" lon="5.60626">
        <ele>262.3</ele>
        <time>2020-10-25T13:16:32Z</time>
      </trkpt>
      <trkpt lat="46.81448" lon="5.60629">
        <ele>263.9</ele>
        <time>2020-10-25T13:16:36Z</time>
      </trkpt>
      <trkpt lat="46.81443" lon="5.60631">
        <ele>264.9</ele>
        <time>2020-10-25T13:16:41Z</time>
      </trkpt>
      <trkpt lat="46.81438" lon="5.60635">
        <ele>265.2</ele>
        <time>2020-10-25T13:16:45Z</time>
      </trkpt>
      <trkpt lat="46.81434" lon="5.60639">
        <ele>265.1</ele>
        <time>2020-10-25T13:16:50Z</time>
      </trkpt>
      <trkpt lat="46.8143" lon="5.60642">
        <ele>264.3</ele>
        <time>2020-10-25T13:16:55Z</time>
      </trkpt>
      <trkpt lat="46.81426" lon="5.60647">
        <ele>263</ele>
        <time>2020-10-25T13:17:00Z</time>
      </trkpt>
      <trkpt lat="46.81421" lon="5.60649">
        <ele>261.1</ele>
        <time>2020-10-25T13:17:06Z</time>
      </trkpt>
      <trkpt lat="46.81417" lon="5.60653">
        <ele>259.3</ele>
        <time>2020-10-25T13:17:11Z</time>
      </trkpt>
      <trkpt lat="46.81414" lon="5.60658">
        <ele>257.7</ele>
        <time>2020-10-25T13:17:16Z</time>
      </trkpt>
      <trkpt lat="46.81411" lon="5.60662">
        <ele>256.3</ele>
        <time>2020-10-25T13:17:20Z</time>
      </trkpt>
      <trkpt lat="46.81407" lon="5.60667">
        <ele>255.3</ele>
        <time>2020-10-25T13:17:24Z</time>
      </trkpt>
      <trkpt lat="46.81404" lon="5.60672">
        <ele>254.4</ele>
        <time>2020-10-25T13:17:28Z</time>
      </trkpt>
      <trkpt lat="46.81401" lon="5.60677">
        <ele>253.6</ele>
        <time>2020-10-25T13:17:32Z</time>
      </trkpt>
      <trkpt lat="46.81398" lon="5.60683">
        <ele>252.8</ele>
        <time>2020-10-25T13:17:36Z</time>
      </trkpt>
      <trkpt lat="46.81395" lon="5.6069">
        <ele>251.5</ele>
        <time>2020-10-25T13:17:41Z</time>
      </trkpt>
      <trkpt lat="46.81394" lon="5.60697">
        <ele>250.1</ele>
        <time>2020-10-25T13:17:46Z</time>
      </trkpt>
      <trkpt lat="46.81392" lon="5.60704">
        <ele>248.3</ele>
        <time>2020-10-25T13:17:52Z</time>
      </trkpt>
      <trkpt lat="46.81391" lon="5.60712">
        <ele>246.9</ele>
        <time>2020-10-25T13:17:57Z</time>
      </trkpt>
      <trkpt lat="46.8139" lon="5.60719">
        <ele>245.7</ele>
        <time>2020-10-25T13:18:02Z</time>
      </trkpt>
      <trkpt lat="46.81388" lon="5.60726">
        <ele>245.1</ele>
        <time>2020-10-25T13:18:06Z</time>
      </trkpt>
      <trkpt lat="46.81387" lon="5.60733">
        <ele>244.6</ele>
        <time>2020-10-25T13:18:10Z</time>
      </trkpt>
      <trkpt lat="46.81387" lon="5.60741">
        <ele>244.2</ele>
        <time>2020-10-25T13:18:14Z</time>
      </trkpt>
      <trkpt lat="46.81387" lon="5.60748">
        <ele>243.6</ele>
        <time>2020-10-25T13:18:19Z</time>
      </trkpt>
      <trkpt lat="46.81388" lon="5.60755">
        <ele>242.6</ele>
        <time>2020-10-25T13:18:24Z</time>
      </trkpt>
      <trkpt lat="46.81387" lon="5.60761">
        <ele>242.3</ele>
        <time>2020-10-25T13:18:28Z</time>
      </trkpt>
      <trkpt lat="46.81386" lon="5.60769">
        <ele>242.3</ele>
        <time>2020-10-25T13:18:32Z</time>
      </trkpt>
      <trkpt lat="46.81386" lon="5.60776">
        <ele>242.4</ele>
        <time>2020-10-25T13:18:36Z</time>
      </trkpt>
      <trkpt lat="46.81384" lon="5.60783">
        <ele>242.4</ele>
        <time>2020-10-25T13:18:41Z</time>
      </trkpt>
      <trkpt lat="46.81382" lon="5.60789">
        <ele>242.2</ele>
        <time>2020-10-25T13:18:46Z</time>
      </trkpt>
      <trkpt lat="46.81378" lon="5.60795">
        <ele>241.8</ele>
        <time>2020-10-25T13:18:51Z</time>
      </trkpt>
      <trkpt lat="46.81375" lon="5.60801">
        <ele>241.3</ele>
        <time>2020-10-25T13:18:56Z</time>
      </trkpt>
      <trkpt lat="46.81371" lon="5.60806">
        <ele>240.9</ele>
        <time>2020-10-25T13:19:01Z</time>
      </trkpt>
      <trkpt lat="46.81367" lon="5.60809">
        <ele>241.2</ele>
        <time>2020-10-25T13:19:05Z</time>
      </trkpt>
      <trkpt lat="46.81364" lon="5.60815">
        <ele>243.4</ele>
        <time>2020-10-25T13:19:09Z</time>
      </trkpt>
      <trkpt lat="46.8136" lon="5.6082">
        <ele>245.4</ele>
        <time>2020-10-25T13:19:14Z</time>
      </trkpt>
      <trkpt lat="46.81355" lon="5.60824">
        <ele>246.1</ele>
        <time>2020-10-25T13:19:19Z</time>
      </trkpt>
      <trkpt lat="46.81351" lon="5.60828">
        <ele>246.2</ele>
        <time>2020-10-25T13:19:23Z</time>
      </trkpt>
      <trkpt lat="46.81348" lon="5.60833">
        <ele>245.9</ele>
        <time>2020-10-25T13:19:27Z</time>
      </trkpt>
      <trkpt lat="46.81344" lon="5.60837">
        <ele>245.3</ele>
        <time>2020-10-25T13:19:32Z</time>
      </trkpt>
      <trkpt lat="46.8134" lon="5.60841">
        <ele>244.9</ele>
        <time>2020-10-25T13:19:36Z</time>
      </trkpt>
      <trkpt lat="46.81335" lon="5.60844">
        <ele>244.7</ele>
        <time>2020-10-25T13:19:41Z</time>
      </trkpt>
      <trkpt lat="46.81331" lon="5.60849">
        <ele>244.4</ele>
        <time>2020-10-25T13:19:45Z</time>
      </trkpt>
      <trkpt lat="46.81327" lon="5.60854">
        <ele>244.1</ele>
        <time>2020-10-25T13:19:49Z</time>
      </trkpt>
      <trkpt lat="46.81322" lon="5.60857">
        <ele>244.1</ele>
        <time>2020-10-25T13:19:53Z</time>
      </trkpt>
      <trkpt lat="46.81318" lon="5.6086">
        <ele>243.7</ele>
        <time>2020-10-25T13:20:00Z</time>
      </trkpt>
      <trkpt lat="46.81314" lon="5.60864">
        <ele>243.2</ele>
        <time>2020-10-25T13:20:05Z</time>
      </trkpt>
      <trkpt lat="46.81309" lon="5.60867">
        <ele>243</ele>
        <time>2020-10-25T13:20:09Z</time>
      </trkpt>
      <trkpt lat="46.81305" lon="5.60871">
        <ele>243</ele>
        <time>2020-10-25T13:20:13Z</time>
      </trkpt>
      <trkpt lat="46.81301" lon="5.60875">
        <ele>242.9</ele>
        <time>2020-10-25T13:20:17Z</time>
      </trkpt>
      <trkpt lat="46.81296" lon="5.60879">
        <ele>242.9</ele>
        <time>2020-10-25T13:20:21Z</time>
      </trkpt>
      <trkpt lat="46.81292" lon="5.60882">
        <ele>242.8</ele>
        <time>2020-10-25T13:20:25Z</time>
      </trkpt>
      <trkpt lat="46.81287" lon="5.60884">
        <ele>242.5</ele>
        <time>2020-10-25T13:20:31Z</time>
      </trkpt>
      <trkpt lat="46.81283" lon="5.60887">
        <ele>242.2</ele>
        <time>2020-10-25T13:20:37Z</time>
      </trkpt>
      <trkpt lat="46.81278" lon="5.60889">
        <ele>242</ele>
        <time>2020-10-25T13:20:42Z</time>
      </trkpt>
      <trkpt lat="46.81273" lon="5.60891">
        <ele>241.9</ele>
        <time>2020-10-25T13:20:46Z</time>
      </trkpt>
      <trkpt lat="46.81268" lon="5.60894">
        <ele>242.1</ele>
        <time>2020-10-25T13:20:51Z</time>
      </trkpt>
      <trkpt lat="46.81264" lon="5.60896">
        <ele>242.4</ele>
        <time>2020-10-25T13:20:56Z</time>
      </trkpt>
      <trkpt lat="46.8126" lon="5.60898">
        <ele>242.7</ele>
        <time>2020-10-25T13:21:00Z</time>
      </trkpt>
      <trkpt lat="46.81255" lon="5.60903">
        <ele>242.8</ele>
        <time>2020-10-25T13:21:05Z</time>
      </trkpt>
      <trkpt lat="46.8125" lon="5.60906">
        <ele>242.8</ele>
        <time>2020-10-25T13:21:09Z</time>
      </trkpt>
      <trkpt lat="46.81246" lon="5.60908">
        <ele>243.1</ele>
        <time>2020-10-25T13:21:14Z</time>
      </trkpt>
      <trkpt lat="46.81241" lon="5.60911">
        <ele>243.1</ele>
        <time>2020-10-25T13:21:19Z</time>
      </trkpt>
      <trkpt lat="46.81236" lon="5.60913">
        <ele>242.9</ele>
        <time>2020-10-25T13:21:23Z</time>
      </trkpt>
      <trkpt lat="46.81231" lon="5.60915">
        <ele>243</ele>
        <time>2020-10-25T13:21:27Z</time>
      </trkpt>
      <trkpt lat="46.81225" lon="5.60918">
        <ele>243.1</ele>
        <time>2020-10-25T13:21:31Z</time>
      </trkpt>
      <trkpt lat="46.81221" lon="5.6092">
        <ele>243.2</ele>
        <time>2020-10-25T13:21:34Z</time>
      </trkpt>
      <trkpt lat="46.81217" lon="5.60922">
        <ele>243.3</ele>
        <time>2020-10-25T13:21:37Z</time>
      </trkpt>
      <trkpt lat="46.81212" lon="5.60924">
        <ele>243.4</ele>
        <time>2020-10-25T13:21:40Z</time>
      </trkpt>
      <trkpt lat="46.81207" lon="5.60924">
        <ele>243.5</ele>
        <time>2020-10-25T13:21:43Z</time>
      </trkpt>
      <trkpt lat="46.81202" lon="5.60926">
        <ele>244</ele>
        <time>2020-10-25T13:21:47Z</time>
      </trkpt>
      <trkpt lat="46.81197" lon="5.60928">
        <ele>243.7</ele>
        <time>2020-10-25T13:21:52Z</time>
      </trkpt>
      <trkpt lat="46.81193" lon="5.60931">
        <ele>243.6</ele>
        <time>2020-10-25T13:21:54Z</time>
      </trkpt>
      <trkpt lat="46.81189" lon="5.60935">
        <ele>247.6</ele>
        <time>2020-10-25T13:22:07Z</time>
      </trkpt>
      <trkpt lat="46.81184" lon="5.60936">
        <ele>250.4</ele>
        <time>2020-10-25T13:22:17Z</time>
      </trkpt>
      <trkpt lat="46.8118" lon="5.6094">
        <ele>251.8</ele>
        <time>2020-10-25T13:22:29Z</time>
      </trkpt>
      <trkpt lat="46.81179" lon="5.60946">
        <ele>252.9</ele>
        <time>2020-10-25T13:22:34Z</time>
      </trkpt>
      <trkpt lat="46.81179" lon="5.60953">
        <ele>253.7</ele>
        <time>2020-10-25T13:22:39Z</time>
      </trkpt>
      <trkpt lat="46.81181" lon="5.6096">
        <ele>254.7</ele>
        <time>2020-10-25T13:22:44Z</time>
      </trkpt>
      <trkpt lat="46.81185" lon="5.60966">
        <ele>255.7</ele>
        <time>2020-10-25T13:22:49Z</time>
      </trkpt>
      <trkpt lat="46.81188" lon="5.6097">
        <ele>256.3</ele>
        <time>2020-10-25T13:22:54Z</time>
      </trkpt>
      <trkpt lat="46.81192" lon="5.60975">
        <ele>256.8</ele>
        <time>2020-10-25T13:22:59Z</time>
      </trkpt>
      <trkpt lat="46.81196" lon="5.6098">
        <ele>256.8</ele>
        <time>2020-10-25T13:23:04Z</time>
      </trkpt>
      <trkpt lat="46.812" lon="5.60984">
        <ele>256.3</ele>
        <time>2020-10-25T13:23:09Z</time>
      </trkpt>
      <trkpt lat="46.81203" lon="5.60989">
        <ele>255.5</ele>
        <time>2020-10-25T13:23:14Z</time>
      </trkpt>
      <trkpt lat="46.81208" lon="5.60993">
        <ele>254.5</ele>
        <time>2020-10-25T13:23:19Z</time>
      </trkpt>
      <trkpt lat="46.81212" lon="5.60997">
        <ele>253.6</ele>
        <time>2020-10-25T13:23:23Z</time>
      </trkpt>
      <trkpt lat="46.81216" lon="5.61001">
        <ele>253.1</ele>
        <time>2020-10-25T13:23:27Z</time>
      </trkpt>
      <trkpt lat="46.81221" lon="5.61006">
        <ele>252.8</ele>
        <time>2020-10-25T13:23:32Z</time>
      </trkpt>
      <trkpt lat="46.81226" lon="5.61009">
        <ele>252.8</ele>
        <time>2020-10-25T13:23:36Z</time>
      </trkpt>
      <trkpt lat="46.8123" lon="5.61013">
        <ele>252.9</ele>
        <time>2020-10-25T13:23:40Z</time>
      </trkpt>
      <trkpt lat="46.81234" lon="5.61017">
        <ele>252.3</ele>
        <time>2020-10-25T13:23:45Z</time>
      </trkpt>
      <trkpt lat="46.81239" lon="5.61021">
        <ele>251.4</ele>
        <time>2020-10-25T13:23:50Z</time>
      </trkpt>
      <trkpt lat="46.81243" lon="5.61025">
        <ele>251.1</ele>
        <time>2020-10-25T13:23:54Z</time>
      </trkpt>
      <trkpt lat="46.81247" lon="5.61029">
        <ele>251.1</ele>
        <time>2020-10-25T13:23:58Z</time>
      </trkpt>
      <trkpt lat="46.81252" lon="5.61033">
        <ele>251.1</ele>
        <time>2020-10-25T13:24:03Z</time>
      </trkpt>
      <trkpt lat="46.81255" lon="5.61038">
        <ele>250.5</ele>
        <time>2020-10-25T13:24:08Z</time>
      </trkpt>
      <trkpt lat="46.8126" lon="5.61043">
        <ele>250</ele>
        <time>2020-10-25T13:24:13Z</time>
      </trkpt>
      <trkpt lat="46.81264" lon="5.61047">
        <ele>250</ele>
        <time>2020-10-25T13:24:17Z</time>
      </trkpt>
      <trkpt lat="46.81268" lon="5.61051">
        <ele>250.1</ele>
        <time>2020-10-25T13:24:22Z</time>
      </trkpt>
      <trkpt lat="46.81272" lon="5.61055">
        <ele>250.5</ele>
        <time>2020-10-25T13:24:27Z</time>
      </trkpt>
      <trkpt lat="46.81276" lon="5.61058">
        <ele>250.6</ele>
        <time>2020-10-25T13:24:31Z</time>
      </trkpt>
      <trkpt lat="46.8128" lon="5.61061">
        <ele>251.2</ele>
        <time>2020-10-25T13:24:35Z</time>
      </trkpt>
      <trkpt lat="46.81284" lon="5.61066">
        <ele>251.6</ele>
        <time>2020-10-25T13:24:40Z</time>
      </trkpt>
      <trkpt lat="46.81287" lon="5.6107">
        <ele>251.8</ele>
        <time>2020-10-25T13:24:44Z</time>
      </trkpt>
      <trkpt lat="46.81293" lon="5.61074">
        <ele>251.9</ele>
        <time>2020-10-25T13:24:48Z</time>
      </trkpt>
      <trkpt lat="46.81297" lon="5.61078">
        <ele>252.1</ele>
        <time>2020-10-25T13:24:52Z</time>
      </trkpt>
      <trkpt lat="46.813" lon="5.61082">
        <ele>252.2</ele>
        <time>2020-10-25T13:24:56Z</time>
      </trkpt>
      <trkpt lat="46.81304" lon="5.61087">
        <ele>252</ele>
        <time>2020-10-25T13:25:02Z</time>
      </trkpt>
      <trkpt lat="46.81309" lon="5.61091">
        <ele>251.3</ele>
        <time>2020-10-25T13:25:06Z</time>
      </trkpt>
      <trkpt lat="46.81312" lon="5.61096">
        <ele>250.6</ele>
        <time>2020-10-25T13:25:10Z</time>
      </trkpt>
      <trkpt lat="46.81316" lon="5.611">
        <ele>249.8</ele>
        <time>2020-10-25T13:25:14Z</time>
      </trkpt>
      <trkpt lat="46.8132" lon="5.61104">
        <ele>249.5</ele>
        <time>2020-10-25T13:25:18Z</time>
      </trkpt>
      <trkpt lat="46.81325" lon="5.61109">
        <ele>249.4</ele>
        <time>2020-10-25T13:25:22Z</time>
      </trkpt>
      <trkpt lat="46.81328" lon="5.61115">
        <ele>249.3</ele>
        <time>2020-10-25T13:25:26Z</time>
      </trkpt>
      <trkpt lat="46.8133" lon="5.61122">
        <ele>249.2</ele>
        <time>2020-10-25T13:25:31Z</time>
      </trkpt>
      <trkpt lat="46.81329" lon="5.61129">
        <ele>249.4</ele>
        <time>2020-10-25T13:25:35Z</time>
      </trkpt>
      <trkpt lat="46.81328" lon="5.61136">
        <ele>249.4</ele>
        <time>2020-10-25T13:25:41Z</time>
      </trkpt>
      <trkpt lat="46.81326" lon="5.61142">
        <ele>248.6</ele>
        <time>2020-10-25T13:25:46Z</time>
      </trkpt>
      <trkpt lat="46.81324" lon="5.61149">
        <ele>248</ele>
        <time>2020-10-25T13:25:50Z</time>
      </trkpt>
      <trkpt lat="46.81322" lon="5.61156">
        <ele>247.7</ele>
        <time>2020-10-25T13:25:54Z</time>
      </trkpt>
      <trkpt lat="46.8132" lon="5.61163">
        <ele>247.6</ele>
        <time>2020-10-25T13:25:59Z</time>
      </trkpt>
      <trkpt lat="46.81318" lon="5.61169">
        <ele>247.9</ele>
        <time>2020-10-25T13:26:03Z</time>
      </trkpt>
      <trkpt lat="46.81314" lon="5.61175">
        <ele>248.1</ele>
        <time>2020-10-25T13:26:07Z</time>
      </trkpt>
      <trkpt lat="46.8131" lon="5.61182">
        <ele>248.4</ele>
        <time>2020-10-25T13:26:10Z</time>
      </trkpt>
      <trkpt lat="46.81307" lon="5.61189">
        <ele>248.5</ele>
        <time>2020-10-25T13:26:12Z</time>
      </trkpt>
      <trkpt lat="46.81306" lon="5.61196">
        <ele>248.6</ele>
        <time>2020-10-25T13:26:14Z</time>
      </trkpt>
      <trkpt lat="46.81306" lon="5.61204">
        <ele>248.7</ele>
        <time>2020-10-25T13:26:17Z</time>
      </trkpt>
      <trkpt lat="46.81307" lon="5.61214">
        <ele>249.5</ele>
        <time>2020-10-25T13:26:33Z</time>
      </trkpt>
      <trkpt lat="46.81305" lon="5.61221">
        <ele>250</ele>
        <time>2020-10-25T13:26:37Z</time>
      </trkpt>
      <trkpt lat="46.81306" lon="5.61229">
        <ele>250</ele>
        <time>2020-10-25T13:26:42Z</time>
      </trkpt>
      <trkpt lat="46.81308" lon="5.61236">
        <ele>249.6</ele>
        <time>2020-10-25T13:26:47Z</time>
      </trkpt>
      <trkpt lat="46.81308" lon="5.61244">
        <ele>249.1</ele>
        <time>2020-10-25T13:26:51Z</time>
      </trkpt>
      <trkpt lat="46.81306" lon="5.6125">
        <ele>248.3</ele>
        <time>2020-10-25T13:26:55Z</time>
      </trkpt>
      <trkpt lat="46.81306" lon="5.61257">
        <ele>247.5</ele>
        <time>2020-10-25T13:26:59Z</time>
      </trkpt>
      <trkpt lat="46.81306" lon="5.61264">
        <ele>246.2</ele>
        <time>2020-10-25T13:27:03Z</time>
      </trkpt>
      <trkpt lat="46.81306" lon="5.61272">
        <ele>245.4</ele>
        <time>2020-10-25T13:27:07Z</time>
      </trkpt>
      <trkpt lat="46.81304" lon="5.61279">
        <ele>244.9</ele>
        <time>2020-10-25T13:27:11Z</time>
      </trkpt>
      <trkpt lat="46.81301" lon="5.61284">
        <ele>244.3</ele>
        <time>2020-10-25T13:27:14Z</time>
      </trkpt>
      <trkpt lat="46.81299" lon="5.6129">
        <ele>243.9</ele>
        <time>2020-10-25T13:27:18Z</time>
      </trkpt>
      <trkpt lat="46.81298" lon="5.61297">
        <ele>243.5</ele>
        <time>2020-10-25T13:27:23Z</time>
      </trkpt>
      <trkpt lat="46.81297" lon="5.61304">
        <ele>243.8</ele>
        <time>2020-10-25T13:27:29Z</time>
      </trkpt>
      <trkpt lat="46.81295" lon="5.61311">
        <ele>244.4</ele>
        <time>2020-10-25T13:27:36Z</time>
      </trkpt>
      <trkpt lat="46.81291" lon="5.61313">
        <ele>249.5</ele>
        <time>2020-10-25T13:29:47Z</time>
      </trkpt>
      <trkpt lat="46.81286" lon="5.61315">
        <ele>253.2</ele>
        <time>2020-10-25T13:29:58Z</time>
      </trkpt>
      <trkpt lat="46.81281" lon="5.61315">
        <ele>255</ele>
        <time>2020-10-25T13:30:06Z</time>
      </trkpt>
      <trkpt lat="46.81276" lon="5.61315">
        <ele>254.3</ele>
        <time>2020-10-25T13:30:11Z</time>
      </trkpt>
      <trkpt lat="46.81271" lon="5.61316">
        <ele>252.9</ele>
        <time>2020-10-25T13:30:17Z</time>
      </trkpt>
      <trkpt lat="46.81265" lon="5.61317">
        <ele>251.3</ele>
        <time>2020-10-25T13:30:23Z</time>
      </trkpt>
      <trkpt lat="46.81261" lon="5.61318">
        <ele>250.3</ele>
        <time>2020-10-25T13:30:27Z</time>
      </trkpt>
      <trkpt lat="46.81256" lon="5.61318">
        <ele>249.5</ele>
        <time>2020-10-25T13:30:31Z</time>
      </trkpt>
      <trkpt lat="46.81251" lon="5.61319">
        <ele>249</ele>
        <time>2020-10-25T13:30:35Z</time>
      </trkpt>
      <trkpt lat="46.81246" lon="5.6132">
        <ele>248.7</ele>
        <time>2020-10-25T13:30:39Z</time>
      </trkpt>
      <trkpt lat="46.81241" lon="5.61322">
        <ele>249.1</ele>
        <time>2020-10-25T13:30:43Z</time>
      </trkpt>
      <trkpt lat="46.81236" lon="5.61322">
        <ele>249.9</ele>
        <time>2020-10-25T13:30:47Z</time>
      </trkpt>
      <trkpt lat="46.81231" lon="5.61323">
        <ele>250.4</ele>
        <time>2020-10-25T13:30:51Z</time>
      </trkpt>
      <trkpt lat="46.81226" lon="5.61327">
        <ele>250.7</ele>
        <time>2020-10-25T13:30:55Z</time>
      </trkpt>
      <trkpt lat="46.81221" lon="5.6133">
        <ele>251.7</ele>
        <time>2020-10-25T13:30:59Z</time>
      </trkpt>
      <trkpt lat="46.81217" lon="5.61326">
        <ele>257.7</ele>
        <time>2020-10-25T13:31:29Z</time>
      </trkpt>
      <trkpt lat="46.81212" lon="5.61326">
        <ele>258.1</ele>
        <time>2020-10-25T13:31:38Z</time>
      </trkpt>
      <trkpt lat="46.81208" lon="5.61328">
        <ele>257.6</ele>
        <time>2020-10-25T13:31:42Z</time>
      </trkpt>
      <trkpt lat="46.81204" lon="5.61332">
        <ele>256.9</ele>
        <time>2020-10-25T13:31:46Z</time>
      </trkpt>
      <trkpt lat="46.81201" lon="5.61337">
        <ele>256.5</ele>
        <time>2020-10-25T13:31:51Z</time>
      </trkpt>
      <trkpt lat="46.81198" lon="5.61343">
        <ele>256</ele>
        <time>2020-10-25T13:31:56Z</time>
      </trkpt>
      <trkpt lat="46.81195" lon="5.61349">
        <ele>255.8</ele>
        <time>2020-10-25T13:32:00Z</time>
      </trkpt>
      <trkpt lat="46.81193" lon="5.61355">
        <ele>255.4</ele>
        <time>2020-10-25T13:32:04Z</time>
      </trkpt>
      <trkpt lat="46.81191" lon="5.61362">
        <ele>255.4</ele>
        <time>2020-10-25T13:32:08Z</time>
      </trkpt>
      <trkpt lat="46.81188" lon="5.61369">
        <ele>255.7</ele>
        <time>2020-10-25T13:32:13Z</time>
      </trkpt>
      <trkpt lat="46.81186" lon="5.61375">
        <ele>255.9</ele>
        <time>2020-10-25T13:32:18Z</time>
      </trkpt>
      <trkpt lat="46.81184" lon="5.61383">
        <ele>256.4</ele>
        <time>2020-10-25T13:32:23Z</time>
      </trkpt>
      <trkpt lat="46.81183" lon="5.6139">
        <ele>256.7</ele>
        <time>2020-10-25T13:32:28Z</time>
      </trkpt>
      <trkpt lat="46.81182" lon="5.61398">
        <ele>257.2</ele>
        <time>2020-10-25T13:32:33Z</time>
      </trkpt>
      <trkpt lat="46.8118" lon="5.61405">
        <ele>257.8</ele>
        <time>2020-10-25T13:32:38Z</time>
      </trkpt>
      <trkpt lat="46.81177" lon="5.61412">
        <ele>258.3</ele>
        <time>2020-10-25T13:32:43Z</time>
      </trkpt>
      <trkpt lat="46.81174" lon="5.61418">
        <ele>259</ele>
        <time>2020-10-25T13:32:48Z</time>
      </trkpt>
      <trkpt lat="46.81171" lon="5.61425">
        <ele>259.1</ele>
        <time>2020-10-25T13:32:53Z</time>
      </trkpt>
      <trkpt lat="46.81169" lon="5.61432">
        <ele>259.1</ele>
        <time>2020-10-25T13:32:58Z</time>
      </trkpt>
      <trkpt lat="46.81166" lon="5.61439">
        <ele>259.1</ele>
        <time>2020-10-25T13:33:03Z</time>
      </trkpt>
      <trkpt lat="46.81163" lon="5.61446">
        <ele>259</ele>
        <time>2020-10-25T13:33:08Z</time>
      </trkpt>
      <trkpt lat="46.81161" lon="5.61451">
        <ele>259.3</ele>
        <time>2020-10-25T13:33:12Z</time>
      </trkpt>
      <trkpt lat="46.81158" lon="5.61457">
        <ele>259.9</ele>
        <time>2020-10-25T13:33:16Z</time>
      </trkpt>
      <trkpt lat="46.81156" lon="5.61463">
        <ele>260.5</ele>
        <time>2020-10-25T13:33:20Z</time>
      </trkpt>
      <trkpt lat="46.81153" lon="5.61469">
        <ele>261.3</ele>
        <time>2020-10-25T13:33:24Z</time>
      </trkpt>
      <trkpt lat="46.81151" lon="5.61475">
        <ele>262.1</ele>
        <time>2020-10-25T13:33:29Z</time>
      </trkpt>
      <trkpt lat="46.81149" lon="5.61482">
        <ele>262.4</ele>
        <time>2020-10-25T13:33:34Z</time>
      </trkpt>
      <trkpt lat="46.81147" lon="5.61488">
        <ele>262.8</ele>
        <time>2020-10-25T13:33:38Z</time>
      </trkpt>
      <trkpt lat="46.81145" lon="5.61495">
        <ele>263.2</ele>
        <time>2020-10-25T13:33:42Z</time>
      </trkpt>
      <trkpt lat="46.81143" lon="5.61501">
        <ele>263.5</ele>
        <time>2020-10-25T13:33:46Z</time>
      </trkpt>
      <trkpt lat="46.81142" lon="5.61509">
        <ele>263.6</ele>
        <time>2020-10-25T13:33:51Z</time>
      </trkpt>
      <trkpt lat="46.8114" lon="5.61516">
        <ele>263.5</ele>
        <time>2020-10-25T13:33:56Z</time>
      </trkpt>
      <trkpt lat="46.81139" lon="5.61522">
        <ele>263.3</ele>
        <time>2020-10-25T13:34:01Z</time>
      </trkpt>
      <trkpt lat="46.81136" lon="5.61529">
        <ele>263.1</ele>
        <time>2020-10-25T13:34:06Z</time>
      </trkpt>
      <trkpt lat="46.81133" lon="5.61534">
        <ele>263.2</ele>
        <time>2020-10-25T13:34:11Z</time>
      </trkpt>
      <trkpt lat="46.81128" lon="5.61536">
        <ele>263.5</ele>
        <time>2020-10-25T13:34:17Z</time>
      </trkpt>
      <trkpt lat="46.81123" lon="5.61536">
        <ele>263.8</ele>
        <time>2020-10-25T13:34:22Z</time>
      </trkpt>
      <trkpt lat="46.81119" lon="5.61537">
        <ele>264.2</ele>
        <time>2020-10-25T13:34:26Z</time>
      </trkpt>
      <trkpt lat="46.81114" lon="5.61539">
        <ele>264.3</ele>
        <time>2020-10-25T13:34:31Z</time>
      </trkpt>
      <trkpt lat="46.81109" lon="5.61541">
        <ele>264.3</ele>
        <time>2020-10-25T13:34:36Z</time>
      </trkpt>
      <trkpt lat="46.81104" lon="5.61542">
        <ele>264.3</ele>
        <time>2020-10-25T13:34:42Z</time>
      </trkpt>
      <trkpt lat="46.81099" lon="5.61545">
        <ele>264.9</ele>
        <time>2020-10-25T13:34:54Z</time>
      </trkpt>
      <trkpt lat="46.81095" lon="5.61547">
        <ele>265.4</ele>
        <time>2020-10-25T13:34:59Z</time>
      </trkpt>
      <trkpt lat="46.8109" lon="5.61548">
        <ele>265.8</ele>
        <time>2020-10-25T13:35:05Z</time>
      </trkpt>
      <trkpt lat="46.81085" lon="5.6155">
        <ele>265.5</ele>
        <time>2020-10-25T13:35:09Z</time>
      </trkpt>
      <trkpt lat="46.8108" lon="5.61552">
        <ele>265.1</ele>
        <time>2020-10-25T13:35:13Z</time>
      </trkpt>
      <trkpt lat="46.81075" lon="5.61553">
        <ele>265.1</ele>
        <time>2020-10-25T13:35:18Z</time>
      </trkpt>
      <trkpt lat="46.8107" lon="5.61553">
        <ele>265</ele>
        <time>2020-10-25T13:35:23Z</time>
      </trkpt>
      <trkpt lat="46.81065" lon="5.61555">
        <ele>264.9</ele>
        <time>2020-10-25T13:35:28Z</time>
      </trkpt>
      <trkpt lat="46.8106" lon="5.61557">
        <ele>265.1</ele>
        <time>2020-10-25T13:35:32Z</time>
      </trkpt>
      <trkpt lat="46.81055" lon="5.61559">
        <ele>265.5</ele>
        <time>2020-10-25T13:35:37Z</time>
      </trkpt>
      <trkpt lat="46.81051" lon="5.61561">
        <ele>265.6</ele>
        <time>2020-10-25T13:35:41Z</time>
      </trkpt>
      <trkpt lat="46.81046" lon="5.61561">
        <ele>265.4</ele>
        <time>2020-10-25T13:35:46Z</time>
      </trkpt>
      <trkpt lat="46.8104" lon="5.61561">
        <ele>265.8</ele>
        <time>2020-10-25T13:35:51Z</time>
      </trkpt>
      <trkpt lat="46.81036" lon="5.61562">
        <ele>266</ele>
        <time>2020-10-25T13:35:55Z</time>
      </trkpt>
      <trkpt lat="46.81031" lon="5.61562">
        <ele>266.4</ele>
        <time>2020-10-25T13:35:59Z</time>
      </trkpt>
      <trkpt lat="46.81026" lon="5.61563">
        <ele>267.3</ele>
        <time>2020-10-25T13:36:04Z</time>
      </trkpt>
      <trkpt lat="46.8102" lon="5.61565">
        <ele>268.3</ele>
        <time>2020-10-25T13:36:09Z</time>
      </trkpt>
      <trkpt lat="46.81015" lon="5.61566">
        <ele>269.1</ele>
        <time>2020-10-25T13:36:14Z</time>
      </trkpt>
      <trkpt lat="46.8101" lon="5.61566">
        <ele>269.7</ele>
        <time>2020-10-25T13:36:18Z</time>
      </trkpt>
      <trkpt lat="46.81005" lon="5.61566">
        <ele>270.2</ele>
        <time>2020-10-25T13:36:23Z</time>
      </trkpt>
      <trkpt lat="46.81001" lon="5.61566">
        <ele>271.1</ele>
        <time>2020-10-25T13:36:28Z</time>
      </trkpt>
      <trkpt lat="46.80995" lon="5.61567">
        <ele>272.4</ele>
        <time>2020-10-25T13:36:33Z</time>
      </trkpt>
      <trkpt lat="46.80991" lon="5.61568">
        <ele>273.6</ele>
        <time>2020-10-25T13:36:37Z</time>
      </trkpt>
      <trkpt lat="46.80985" lon="5.61569">
        <ele>274.8</ele>
        <time>2020-10-25T13:36:42Z</time>
      </trkpt>
      <trkpt lat="46.80981" lon="5.6157">
        <ele>275.3</ele>
        <time>2020-10-25T13:36:46Z</time>
      </trkpt>
      <trkpt lat="46.80975" lon="5.6157">
        <ele>275.2</ele>
        <time>2020-10-25T13:36:51Z</time>
      </trkpt>
      <trkpt lat="46.8097" lon="5.6157">
        <ele>275</ele>
        <time>2020-10-25T13:36:56Z</time>
      </trkpt>
      <trkpt lat="46.80965" lon="5.61569">
        <ele>275.2</ele>
        <time>2020-10-25T13:37:01Z</time>
      </trkpt>
      <trkpt lat="46.8096" lon="5.61569">
        <ele>275.1</ele>
        <time>2020-10-25T13:37:06Z</time>
      </trkpt>
      <trkpt lat="46.80955" lon="5.6157">
        <ele>274.9</ele>
        <time>2020-10-25T13:37:10Z</time>
      </trkpt>
      <trkpt lat="46.8095" lon="5.61571">
        <ele>274.5</ele>
        <time>2020-10-25T13:37:14Z</time>
      </trkpt>
      <trkpt lat="46.80945" lon="5.6157">
        <ele>273.9</ele>
        <time>2020-10-25T13:37:19Z</time>
      </trkpt>
      <trkpt lat="46.8094" lon="5.61568">
        <ele>273.3</ele>
        <time>2020-10-25T13:37:24Z</time>
      </trkpt>
      <trkpt lat="46.80935" lon="5.61565">
        <ele>272.9</ele>
        <time>2020-10-25T13:37:29Z</time>
      </trkpt>
      <trkpt lat="46.80931" lon="5.61561">
        <ele>272.4</ele>
        <time>2020-10-25T13:37:33Z</time>
      </trkpt>
      <trkpt lat="46.80927" lon="5.61558">
        <ele>272.1</ele>
        <time>2020-10-25T13:37:37Z</time>
      </trkpt>
      <trkpt lat="46.80922" lon="5.61555">
        <ele>271.9</ele>
        <time>2020-10-25T13:37:42Z</time>
      </trkpt>
      <trkpt lat="46.80919" lon="5.61551">
        <ele>270.8</ele>
        <time>2020-10-25T13:38:19Z</time>
      </trkpt>
      <trkpt lat="46.80913" lon="5.61552">
        <ele>270.4</ele>
        <time>2020-10-25T13:38:23Z</time>
      </trkpt>
      <trkpt lat="46.80909" lon="5.61554">
        <ele>270.2</ele>
        <time>2020-10-25T13:38:26Z</time>
      </trkpt>
      <trkpt lat="46.80905" lon="5.61558">
        <ele>270.3</ele>
        <time>2020-10-25T13:38:29Z</time>
      </trkpt>
      <trkpt lat="46.809" lon="5.6156">
        <ele>270.5</ele>
        <time>2020-10-25T13:38:32Z</time>
      </trkpt>
      <trkpt lat="46.80895" lon="5.61561">
        <ele>271.4</ele>
        <time>2020-10-25T13:38:37Z</time>
      </trkpt>
      <trkpt lat="46.8089" lon="5.61565">
        <ele>272.4</ele>
        <time>2020-10-25T13:38:42Z</time>
      </trkpt>
      <trkpt lat="46.80885" lon="5.61567">
        <ele>273.5</ele>
        <time>2020-10-25T13:38:47Z</time>
      </trkpt>
      <trkpt lat="46.8088" lon="5.61569">
        <ele>275.2</ele>
        <time>2020-10-25T13:38:53Z</time>
      </trkpt>
      <trkpt lat="46.80876" lon="5.61572">
        <ele>276.6</ele>
        <time>2020-10-25T13:38:58Z</time>
      </trkpt>
      <trkpt lat="46.8087" lon="5.61574">
        <ele>278</ele>
        <time>2020-10-25T13:39:03Z</time>
      </trkpt>
      <trkpt lat="46.80865" lon="5.61576">
        <ele>279.1</ele>
        <time>2020-10-25T13:39:08Z</time>
      </trkpt>
      <trkpt lat="46.80861" lon="5.61578">
        <ele>280.1</ele>
        <time>2020-10-25T13:39:13Z</time>
      </trkpt>
      <trkpt lat="46.80856" lon="5.6158">
        <ele>281.1</ele>
        <time>2020-10-25T13:39:18Z</time>
      </trkpt>
      <trkpt lat="46.80852" lon="5.61581">
        <ele>282.2</ele>
        <time>2020-10-25T13:39:24Z</time>
      </trkpt>
      <trkpt lat="46.80847" lon="5.61584">
        <ele>283.5</ele>
        <time>2020-10-25T13:39:30Z</time>
      </trkpt>
      <trkpt lat="46.80843" lon="5.61587">
        <ele>284.4</ele>
        <time>2020-10-25T13:39:35Z</time>
      </trkpt>
      <trkpt lat="46.80838" lon="5.61589">
        <ele>285.1</ele>
        <time>2020-10-25T13:39:40Z</time>
      </trkpt>
      <trkpt lat="46.80834" lon="5.61592">
        <ele>285.5</ele>
        <time>2020-10-25T13:39:45Z</time>
      </trkpt>
      <trkpt lat="46.80829" lon="5.61595">
        <ele>285.7</ele>
        <time>2020-10-25T13:39:50Z</time>
      </trkpt>
      <trkpt lat="46.80825" lon="5.61598">
        <ele>285.9</ele>
        <time>2020-10-25T13:39:55Z</time>
      </trkpt>
      <trkpt lat="46.80821" lon="5.61601">
        <ele>286</ele>
        <time>2020-10-25T13:40:00Z</time>
      </trkpt>
      <trkpt lat="46.80816" lon="5.61605">
        <ele>286.5</ele>
        <time>2020-10-25T13:40:07Z</time>
      </trkpt>
      <trkpt lat="46.80812" lon="5.61607">
        <ele>286.3</ele>
        <time>2020-10-25T13:40:12Z</time>
      </trkpt>
      <trkpt lat="46.80807" lon="5.6161">
        <ele>284.3</ele>
        <time>2020-10-25T13:40:28Z</time>
      </trkpt>
      <trkpt lat="46.80804" lon="5.61616">
        <ele>284.8</ele>
        <time>2020-10-25T13:40:35Z</time>
      </trkpt>
      <trkpt lat="46.80801" lon="5.61621">
        <ele>285.3</ele>
        <time>2020-10-25T13:40:41Z</time>
      </trkpt>
      <trkpt lat="46.80797" lon="5.61626">
        <ele>285.9</ele>
        <time>2020-10-25T13:40:47Z</time>
      </trkpt>
      <trkpt lat="46.80794" lon="5.61632">
        <ele>286.1</ele>
        <time>2020-10-25T13:40:52Z</time>
      </trkpt>
      <trkpt lat="46.80791" lon="5.61637">
        <ele>286.3</ele>
        <time>2020-10-25T13:40:57Z</time>
      </trkpt>
      <trkpt lat="46.80788" lon="5.61643">
        <ele>287.1</ele>
        <time>2020-10-25T13:41:03Z</time>
      </trkpt>
      <trkpt lat="46.80785" lon="5.61649">
        <ele>287.9</ele>
        <time>2020-10-25T13:41:08Z</time>
      </trkpt>
      <trkpt lat="46.80783" lon="5.61655">
        <ele>288.8</ele>
        <time>2020-10-25T13:41:13Z</time>
      </trkpt>
      <trkpt lat="46.80782" lon="5.61662">
        <ele>289.9</ele>
        <time>2020-10-25T13:41:19Z</time>
      </trkpt>
      <trkpt lat="46.80782" lon="5.61669">
        <ele>291.2</ele>
        <time>2020-10-25T13:41:26Z</time>
      </trkpt>
      <trkpt lat="46.80784" lon="5.61676">
        <ele>292</ele>
        <time>2020-10-25T13:41:32Z</time>
      </trkpt>
      <trkpt lat="46.80786" lon="5.61683">
        <ele>293.7</ele>
        <time>2020-10-25T13:41:39Z</time>
      </trkpt>
      <trkpt lat="46.80788" lon="5.6169">
        <ele>295.4</ele>
        <time>2020-10-25T13:41:46Z</time>
      </trkpt>
      <trkpt lat="46.80791" lon="5.61695">
        <ele>297.2</ele>
        <time>2020-10-25T13:41:53Z</time>
      </trkpt>
      <trkpt lat="46.80794" lon="5.61701">
        <ele>298.7</ele>
        <time>2020-10-25T13:41:59Z</time>
      </trkpt>
      <trkpt lat="46.80797" lon="5.61706">
        <ele>300.3</ele>
        <time>2020-10-25T13:42:05Z</time>
      </trkpt>
      <trkpt lat="46.80798" lon="5.61713">
        <ele>300.6</ele>
        <time>2020-10-25T13:42:31Z</time>
      </trkpt>
      <trkpt lat="46.80801" lon="5.61717">
        <ele>300.6</ele>
        <time>2020-10-25T13:42:36Z</time>
      </trkpt>
      <trkpt lat="46.80805" lon="5.61722">
        <ele>300.7</ele>
        <time>2020-10-25T13:42:41Z</time>
      </trkpt>
      <trkpt lat="46.80808" lon="5.61727">
        <ele>300.9</ele>
        <time>2020-10-25T13:42:46Z</time>
      </trkpt>
      <trkpt lat="46.80811" lon="5.61733">
        <ele>301.2</ele>
        <time>2020-10-25T13:42:52Z</time>
      </trkpt>
      <trkpt lat="46.80812" lon="5.6174">
        <ele>302</ele>
        <time>2020-10-25T13:42:59Z</time>
      </trkpt>
      <trkpt lat="46.8081" lon="5.61747">
        <ele>303</ele>
        <time>2020-10-25T13:43:05Z</time>
      </trkpt>
      <trkpt lat="46.80807" lon="5.61751">
        <ele>304.8</ele>
        <time>2020-10-25T13:43:13Z</time>
      </trkpt>
      <trkpt lat="46.80802" lon="5.61753">
        <ele>305.7</ele>
        <time>2020-10-25T13:43:18Z</time>
      </trkpt>
      <trkpt lat="46.80798" lon="5.61755">
        <ele>306.9</ele>
        <time>2020-10-25T13:43:24Z</time>
      </trkpt>
      <trkpt lat="46.80793" lon="5.61757">
        <ele>307.9</ele>
        <time>2020-10-25T13:43:33Z</time>
      </trkpt>
      <trkpt lat="46.80788" lon="5.61757">
        <ele>307.7</ele>
        <time>2020-10-25T13:43:49Z</time>
      </trkpt>
      <trkpt lat="46.80783" lon="5.61759">
        <ele>308.2</ele>
        <time>2020-10-25T13:43:56Z</time>
      </trkpt>
      <trkpt lat="46.80779" lon="5.61761">
        <ele>308.5</ele>
        <time>2020-10-25T13:44:01Z</time>
      </trkpt>
      <trkpt lat="46.80774" lon="5.61763">
        <ele>308.6</ele>
        <time>2020-10-25T13:44:06Z</time>
      </trkpt>
      <trkpt lat="46.80769" lon="5.61763">
        <ele>308.8</ele>
        <time>2020-10-25T13:44:11Z</time>
      </trkpt>
      <trkpt lat="46.80765" lon="5.61766">
        <ele>309.5</ele>
        <time>2020-10-25T13:44:29Z</time>
      </trkpt>
      <trkpt lat="46.8076" lon="5.61768">
        <ele>309.6</ele>
        <time>2020-10-25T13:44:34Z</time>
      </trkpt>
      <trkpt lat="46.80755" lon="5.61771">
        <ele>309.9</ele>
        <time>2020-10-25T13:44:39Z</time>
      </trkpt>
      <trkpt lat="46.80751" lon="5.61774">
        <ele>310.1</ele>
        <time>2020-10-25T13:44:43Z</time>
      </trkpt>
      <trkpt lat="46.80746" lon="5.61774">
        <ele>310.4</ele>
        <time>2020-10-25T13:44:49Z</time>
      </trkpt>
      <trkpt lat="46.8074" lon="5.61774">
        <ele>310.6</ele>
        <time>2020-10-25T13:44:54Z</time>
      </trkpt>
      <trkpt lat="46.80735" lon="5.61773">
        <ele>310.8</ele>
        <time>2020-10-25T13:44:59Z</time>
      </trkpt>
      <trkpt lat="46.8073" lon="5.61772">
        <ele>311.3</ele>
        <time>2020-10-25T13:45:04Z</time>
      </trkpt>
      <trkpt lat="46.80726" lon="5.61771">
        <ele>311.8</ele>
        <time>2020-10-25T13:45:09Z</time>
      </trkpt>
      <trkpt lat="46.80721" lon="5.61769">
        <ele>312.5</ele>
        <time>2020-10-25T13:45:14Z</time>
      </trkpt>
      <trkpt lat="46.80716" lon="5.61767">
        <ele>313.2</ele>
        <time>2020-10-25T13:45:19Z</time>
      </trkpt>
      <trkpt lat="46.80712" lon="5.61765">
        <ele>313.8</ele>
        <time>2020-10-25T13:45:24Z</time>
      </trkpt>
      <trkpt lat="46.80708" lon="5.61764">
        <ele>314.2</ele>
        <time>2020-10-25T13:45:29Z</time>
      </trkpt>
      <trkpt lat="46.80703" lon="5.61761">
        <ele>314.7</ele>
        <time>2020-10-25T13:45:34Z</time>
      </trkpt>
      <trkpt lat="46.80699" lon="5.61758">
        <ele>315.4</ele>
        <time>2020-10-25T13:45:40Z</time>
      </trkpt>
      <trkpt lat="46.80695" lon="5.61753">
        <ele>316.1</ele>
        <time>2020-10-25T13:45:46Z</time>
      </trkpt>
      <trkpt lat="46.8069" lon="5.6175">
        <ele>316.6</ele>
        <time>2020-10-25T13:45:52Z</time>
      </trkpt>
      <trkpt lat="46.80685" lon="5.61747">
        <ele>317.1</ele>
        <time>2020-10-25T13:45:58Z</time>
      </trkpt>
      <trkpt lat="46.80681" lon="5.61745">
        <ele>317.7</ele>
        <time>2020-10-25T13:46:03Z</time>
      </trkpt>
      <trkpt lat="46.80676" lon="5.61742">
        <ele>318.4</ele>
        <time>2020-10-25T13:46:07Z</time>
      </trkpt>
      <trkpt lat="46.80671" lon="5.61738">
        <ele>319.6</ele>
        <time>2020-10-25T13:46:12Z</time>
      </trkpt>
      <trkpt lat="46.80667" lon="5.61733">
        <ele>320.5</ele>
        <time>2020-10-25T13:46:17Z</time>
      </trkpt>
      <trkpt lat="46.80664" lon="5.61728">
        <ele>321.3</ele>
        <time>2020-10-25T13:46:22Z</time>
      </trkpt>
      <trkpt lat="46.8066" lon="5.61723">
        <ele>322.3</ele>
        <time>2020-10-25T13:46:28Z</time>
      </trkpt>
      <trkpt lat="46.80656" lon="5.61719">
        <ele>322.5</ele>
        <time>2020-10-25T13:46:32Z</time>
      </trkpt>
      <trkpt lat="46.80653" lon="5.61714">
        <ele>322.4</ele>
        <time>2020-10-25T13:46:36Z</time>
      </trkpt>
      <trkpt lat="46.80651" lon="5.61708">
        <ele>322.1</ele>
        <time>2020-10-25T13:46:40Z</time>
      </trkpt>
      <trkpt lat="46.80648" lon="5.61703">
        <ele>322</ele>
        <time>2020-10-25T13:46:45Z</time>
      </trkpt>
      <trkpt lat="46.80644" lon="5.61699">
        <ele>322</ele>
        <time>2020-10-25T13:46:51Z</time>
      </trkpt>
      <trkpt lat="46.80644" lon="5.6169">
        <ele>321</ele>
        <time>2020-10-25T13:47:19Z</time>
      </trkpt>
      <trkpt lat="46.80645" lon="5.61684">
        <ele>320.9</ele>
        <time>2020-10-25T13:47:25Z</time>
      </trkpt>
      <trkpt lat="46.80645" lon="5.61676">
        <ele>321.9</ele>
        <time>2020-10-25T13:47:38Z</time>
      </trkpt>
      <trkpt lat="46.80647" lon="5.6167">
        <ele>322.4</ele>
        <time>2020-10-25T13:47:44Z</time>
      </trkpt>
      <trkpt lat="46.80649" lon="5.61664">
        <ele>322.6</ele>
        <time>2020-10-25T13:47:49Z</time>
      </trkpt>
      <trkpt lat="46.80651" lon="5.61657">
        <ele>322.5</ele>
        <time>2020-10-25T13:47:54Z</time>
      </trkpt>
      <trkpt lat="46.80653" lon="5.6165">
        <ele>322.5</ele>
        <time>2020-10-25T13:47:59Z</time>
      </trkpt>
      <trkpt lat="46.80655" lon="5.61644">
        <ele>322.6</ele>
        <time>2020-10-25T13:48:03Z</time>
      </trkpt>
      <trkpt lat="46.80657" lon="5.61638">
        <ele>323.1</ele>
        <time>2020-10-25T13:48:07Z</time>
      </trkpt>
      <trkpt lat="46.8066" lon="5.61631">
        <ele>324</ele>
        <time>2020-10-25T13:48:12Z</time>
      </trkpt>
      <trkpt lat="46.80662" lon="5.61626">
        <ele>324.6</ele>
        <time>2020-10-25T13:48:16Z</time>
      </trkpt>
      <trkpt lat="46.80664" lon="5.61619">
        <ele>324.6</ele>
        <time>2020-10-25T13:48:21Z</time>
      </trkpt>
      <trkpt lat="46.80667" lon="5.61614">
        <ele>324.6</ele>
        <time>2020-10-25T13:48:26Z</time>
      </trkpt>
      <trkpt lat="46.80671" lon="5.61608">
        <ele>324.2</ele>
        <time>2020-10-25T13:48:31Z</time>
      </trkpt>
      <trkpt lat="46.80674" lon="5.61603">
        <ele>323.8</ele>
        <time>2020-10-25T13:48:35Z</time>
      </trkpt>
      <trkpt lat="46.80678" lon="5.61597">
        <ele>323.2</ele>
        <time>2020-10-25T13:48:42Z</time>
      </trkpt>
      <trkpt lat="46.80681" lon="5.61592">
        <ele>322.9</ele>
        <time>2020-10-25T13:48:47Z</time>
      </trkpt>
      <trkpt lat="46.80685" lon="5.61587">
        <ele>322.6</ele>
        <time>2020-10-25T13:48:52Z</time>
      </trkpt>
      <trkpt lat="46.80687" lon="5.6158">
        <ele>321.2</ele>
        <time>2020-10-25T13:48:59Z</time>
      </trkpt>
      <trkpt lat="46.8069" lon="5.61575">
        <ele>320.4</ele>
        <time>2020-10-25T13:49:04Z</time>
      </trkpt>
      <trkpt lat="46.80693" lon="5.61569">
        <ele>319.8</ele>
        <time>2020-10-25T13:49:09Z</time>
      </trkpt>
      <trkpt lat="46.80693" lon="5.61561">
        <ele>319.1</ele>
        <time>2020-10-25T13:49:14Z</time>
      </trkpt>
      <trkpt lat="46.80693" lon="5.61555">
        <ele>318.2</ele>
        <time>2020-10-25T13:49:19Z</time>
      </trkpt>
      <trkpt lat="46.80693" lon="5.61548">
        <ele>317.3</ele>
        <time>2020-10-25T13:49:25Z</time>
      </trkpt>
      <trkpt lat="46.80693" lon="5.61541">
        <ele>316.7</ele>
        <time>2020-10-25T13:49:30Z</time>
      </trkpt>
      <trkpt lat="46.80691" lon="5.61534">
        <ele>316</ele>
        <time>2020-10-25T13:49:35Z</time>
      </trkpt>
      <trkpt lat="46.80689" lon="5.61527">
        <ele>315.6</ele>
        <time>2020-10-25T13:49:39Z</time>
      </trkpt>
      <trkpt lat="46.80687" lon="5.6152">
        <ele>315.4</ele>
        <time>2020-10-25T13:49:44Z</time>
      </trkpt>
      <trkpt lat="46.80684" lon="5.61514">
        <ele>315.1</ele>
        <time>2020-10-25T13:49:48Z</time>
      </trkpt>
      <trkpt lat="46.8068" lon="5.61509">
        <ele>314.4</ele>
        <time>2020-10-25T13:49:53Z</time>
      </trkpt>
      <trkpt lat="46.80679" lon="5.61502">
        <ele>313.5</ele>
        <time>2020-10-25T13:49:57Z</time>
      </trkpt>
      <trkpt lat="46.80676" lon="5.61497">
        <ele>313.1</ele>
        <time>2020-10-25T13:50:01Z</time>
      </trkpt>
      <trkpt lat="46.80673" lon="5.61492">
        <ele>313.1</ele>
        <time>2020-10-25T13:50:05Z</time>
      </trkpt>
      <trkpt lat="46.80669" lon="5.61488">
        <ele>313.1</ele>
        <time>2020-10-25T13:50:09Z</time>
      </trkpt>
      <trkpt lat="46.80665" lon="5.61484">
        <ele>313.1</ele>
        <time>2020-10-25T13:50:14Z</time>
      </trkpt>
      <trkpt lat="46.8066" lon="5.61482">
        <ele>313.3</ele>
        <time>2020-10-25T13:50:19Z</time>
      </trkpt>
      <trkpt lat="46.80655" lon="5.61479">
        <ele>313.6</ele>
        <time>2020-10-25T13:50:23Z</time>
      </trkpt>
      <trkpt lat="46.80651" lon="5.61474">
        <ele>313.8</ele>
        <time>2020-10-25T13:50:28Z</time>
      </trkpt>
      <trkpt lat="46.80647" lon="5.61469">
        <ele>313.7</ele>
        <time>2020-10-25T13:50:32Z</time>
      </trkpt>
      <trkpt lat="46.80643" lon="5.61465">
        <ele>313.7</ele>
        <time>2020-10-25T13:50:36Z</time>
      </trkpt>
      <trkpt lat="46.80638" lon="5.6146">
        <ele>313.4</ele>
        <time>2020-10-25T13:50:41Z</time>
      </trkpt>
      <trkpt lat="46.80635" lon="5.61456">
        <ele>313.1</ele>
        <time>2020-10-25T13:50:45Z</time>
      </trkpt>
      <trkpt lat="46.80631" lon="5.6145">
        <ele>312.7</ele>
        <time>2020-10-25T13:50:50Z</time>
      </trkpt>
      <trkpt lat="46.80628" lon="5.61446">
        <ele>312.3</ele>
        <time>2020-10-25T13:50:54Z</time>
      </trkpt>
      <trkpt lat="46.80624" lon="5.61441">
        <ele>311.6</ele>
        <time>2020-10-25T13:50:58Z</time>
      </trkpt>
      <trkpt lat="46.80621" lon="5.61435">
        <ele>310.6</ele>
        <time>2020-10-25T13:51:03Z</time>
      </trkpt>
      <trkpt lat="46.80617" lon="5.6143">
        <ele>310.4</ele>
        <time>2020-10-25T13:51:08Z</time>
      </trkpt>
      <trkpt lat="46.80613" lon="5.61426">
        <ele>310.8</ele>
        <time>2020-10-25T13:51:12Z</time>
      </trkpt>
      <trkpt lat="46.80608" lon="5.61422">
        <ele>310.9</ele>
        <time>2020-10-25T13:51:17Z</time>
      </trkpt>
      <trkpt lat="46.80604" lon="5.61417">
        <ele>311.2</ele>
        <time>2020-10-25T13:51:22Z</time>
      </trkpt>
      <trkpt lat="46.806" lon="5.61412">
        <ele>311.7</ele>
        <time>2020-10-25T13:51:27Z</time>
      </trkpt>
      <trkpt lat="46.80596" lon="5.61407">
        <ele>312</ele>
        <time>2020-10-25T13:51:32Z</time>
      </trkpt>
      <trkpt lat="46.80592" lon="5.61404">
        <ele>311.9</ele>
        <time>2020-10-25T13:51:36Z</time>
      </trkpt>
      <trkpt lat="46.80588" lon="5.614">
        <ele>311.6</ele>
        <time>2020-10-25T13:51:40Z</time>
      </trkpt>
      <trkpt lat="46.80584" lon="5.61396">
        <ele>311.3</ele>
        <time>2020-10-25T13:51:44Z</time>
      </trkpt>
      <trkpt lat="46.8058" lon="5.61393">
        <ele>311</ele>
        <time>2020-10-25T13:51:48Z</time>
      </trkpt>
      <trkpt lat="46.80576" lon="5.61389">
        <ele>310.7</ele>
        <time>2020-10-25T13:51:52Z</time>
      </trkpt>
      <trkpt lat="46.80572" lon="5.61385">
        <ele>310.3</ele>
        <time>2020-10-25T13:51:56Z</time>
      </trkpt>
      <trkpt lat="46.80569" lon="5.61379">
        <ele>309.9</ele>
        <time>2020-10-25T13:52:01Z</time>
      </trkpt>
      <trkpt lat="46.80565" lon="5.61375">
        <ele>309.5</ele>
        <time>2020-10-25T13:52:06Z</time>
      </trkpt>
      <trkpt lat="46.80561" lon="5.6137">
        <ele>309.6</ele>
        <time>2020-10-25T13:52:11Z</time>
      </trkpt>
      <trkpt lat="46.80556" lon="5.61366">
        <ele>309.7</ele>
        <time>2020-10-25T13:52:16Z</time>
      </trkpt>
      <trkpt lat="46.80552" lon="5.61362">
        <ele>309.8</ele>
        <time>2020-10-25T13:52:20Z</time>
      </trkpt>
      <trkpt lat="46.80548" lon="5.61359">
        <ele>309.5</ele>
        <time>2020-10-25T13:52:24Z</time>
      </trkpt>
      <trkpt lat="46.80543" lon="5.61357">
        <ele>309.3</ele>
        <time>2020-10-25T13:52:28Z</time>
      </trkpt>
      <trkpt lat="46.80538" lon="5.61352">
        <ele>309.1</ele>
        <time>2020-10-25T13:52:33Z</time>
      </trkpt>
      <trkpt lat="46.80534" lon="5.61349">
        <ele>308.9</ele>
        <time>2020-10-25T13:52:37Z</time>
      </trkpt>
      <trkpt lat="46.80529" lon="5.61345">
        <ele>308.4</ele>
        <time>2020-10-25T13:52:42Z</time>
      </trkpt>
      <trkpt lat="46.80526" lon="5.61341">
        <ele>308.2</ele>
        <time>2020-10-25T13:52:46Z</time>
      </trkpt>
      <trkpt lat="46.80521" lon="5.61337">
        <ele>307.8</ele>
        <time>2020-10-25T13:52:50Z</time>
      </trkpt>
      <trkpt lat="46.80517" lon="5.61333">
        <ele>307.3</ele>
        <time>2020-10-25T13:52:55Z</time>
      </trkpt>
      <trkpt lat="46.80513" lon="5.61329">
        <ele>306.9</ele>
        <time>2020-10-25T13:53:00Z</time>
      </trkpt>
      <trkpt lat="46.80509" lon="5.61326">
        <ele>306.4</ele>
        <time>2020-10-25T13:53:04Z</time>
      </trkpt>
      <trkpt lat="46.80505" lon="5.61322">
        <ele>305.6</ele>
        <time>2020-10-25T13:53:09Z</time>
      </trkpt>
      <trkpt lat="46.805" lon="5.61318">
        <ele>304.7</ele>
        <time>2020-10-25T13:53:14Z</time>
      </trkpt>
      <trkpt lat="46.80496" lon="5.61314">
        <ele>304</ele>
        <time>2020-10-25T13:53:19Z</time>
      </trkpt>
      <trkpt lat="46.80491" lon="5.61309">
        <ele>303.4</ele>
        <time>2020-10-25T13:53:24Z</time>
      </trkpt>
      <trkpt lat="46.80487" lon="5.61306">
        <ele>302.7</ele>
        <time>2020-10-25T13:53:28Z</time>
      </trkpt>
      <trkpt lat="46.80483" lon="5.61302">
        <ele>302.1</ele>
        <time>2020-10-25T13:53:33Z</time>
      </trkpt>
      <trkpt lat="46.80478" lon="5.613">
        <ele>301.8</ele>
        <time>2020-10-25T13:53:37Z</time>
      </trkpt>
      <trkpt lat="46.80473" lon="5.61298">
        <ele>301.8</ele>
        <time>2020-10-25T13:53:41Z</time>
      </trkpt>
      <trkpt lat="46.80469" lon="5.61294">
        <ele>301.7</ele>
        <time>2020-10-25T13:53:46Z</time>
      </trkpt>
      <trkpt lat="46.80464" lon="5.61291">
        <ele>301.5</ele>
        <time>2020-10-25T13:53:51Z</time>
      </trkpt>
      <trkpt lat="46.8046" lon="5.61287">
        <ele>301.6</ele>
        <time>2020-10-25T13:53:56Z</time>
      </trkpt>
      <trkpt lat="46.80455" lon="5.61285">
        <ele>301.6</ele>
        <time>2020-10-25T13:54:00Z</time>
      </trkpt>
      <trkpt lat="46.8045" lon="5.61282">
        <ele>301.7</ele>
        <time>2020-10-25T13:54:05Z</time>
      </trkpt>
      <trkpt lat="46.80446" lon="5.61279">
        <ele>301.8</ele>
        <time>2020-10-25T13:54:10Z</time>
      </trkpt>
      <trkpt lat="46.80441" lon="5.61276">
        <ele>302.3</ele>
        <time>2020-10-25T13:54:15Z</time>
      </trkpt>
      <trkpt lat="46.80436" lon="5.61273">
        <ele>302.8</ele>
        <time>2020-10-25T13:54:20Z</time>
      </trkpt>
      <trkpt lat="46.80431" lon="5.6127">
        <ele>302.8</ele>
        <time>2020-10-25T13:54:25Z</time>
      </trkpt>
      <trkpt lat="46.80427" lon="5.61266">
        <ele>302.5</ele>
        <time>2020-10-25T13:54:30Z</time>
      </trkpt>
      <trkpt lat="46.80422" lon="5.61264">
        <ele>301.9</ele>
        <time>2020-10-25T13:54:34Z</time>
      </trkpt>
      <trkpt lat="46.80418" lon="5.61262">
        <ele>301.2</ele>
        <time>2020-10-25T13:54:38Z</time>
      </trkpt>
      <trkpt lat="46.80413" lon="5.61259">
        <ele>300.5</ele>
        <time>2020-10-25T13:54:43Z</time>
      </trkpt>
      <trkpt lat="46.80409" lon="5.61255">
        <ele>300</ele>
        <time>2020-10-25T13:54:48Z</time>
      </trkpt>
      <trkpt lat="46.80404" lon="5.61252">
        <ele>299.4</ele>
        <time>2020-10-25T13:54:53Z</time>
      </trkpt>
      <trkpt lat="46.804" lon="5.61247">
        <ele>298.9</ele>
        <time>2020-10-25T13:54:58Z</time>
      </trkpt>
      <trkpt lat="46.80395" lon="5.61244">
        <ele>298.7</ele>
        <time>2020-10-25T13:55:02Z</time>
      </trkpt>
      <trkpt lat="46.8039" lon="5.61242">
        <ele>298.1</ele>
        <time>2020-10-25T13:55:07Z</time>
      </trkpt>
      <trkpt lat="46.80385" lon="5.61239">
        <ele>297.6</ele>
        <time>2020-10-25T13:55:12Z</time>
      </trkpt>
      <trkpt lat="46.80381" lon="5.61236">
        <ele>297.1</ele>
        <time>2020-10-25T13:55:16Z</time>
      </trkpt>
      <trkpt lat="46.80377" lon="5.61233">
        <ele>296.4</ele>
        <time>2020-10-25T13:55:20Z</time>
      </trkpt>
      <trkpt lat="46.80372" lon="5.6123">
        <ele>295.9</ele>
        <time>2020-10-25T13:55:25Z</time>
      </trkpt>
      <trkpt lat="46.80368" lon="5.61227">
        <ele>295.5</ele>
        <time>2020-10-25T13:55:30Z</time>
      </trkpt>
      <trkpt lat="46.80364" lon="5.61224">
        <ele>295.2</ele>
        <time>2020-10-25T13:55:35Z</time>
      </trkpt>
      <trkpt lat="46.80359" lon="5.61221">
        <ele>295</ele>
        <time>2020-10-25T13:55:40Z</time>
      </trkpt>
      <trkpt lat="46.80354" lon="5.61218">
        <ele>294.6</ele>
        <time>2020-10-25T13:55:45Z</time>
      </trkpt>
      <trkpt lat="46.8035" lon="5.61214">
        <ele>294.1</ele>
        <time>2020-10-25T13:55:50Z</time>
      </trkpt>
      <trkpt lat="46.80345" lon="5.61211">
        <ele>293.6</ele>
        <time>2020-10-25T13:55:55Z</time>
      </trkpt>
      <trkpt lat="46.80341" lon="5.61208">
        <ele>293</ele>
        <time>2020-10-25T13:56:00Z</time>
      </trkpt>
      <trkpt lat="46.80337" lon="5.61205">
        <ele>292.1</ele>
        <time>2020-10-25T13:56:05Z</time>
      </trkpt>
      <trkpt lat="46.80333" lon="5.61201">
        <ele>291.4</ele>
        <time>2020-10-25T13:56:10Z</time>
      </trkpt>
      <trkpt lat="46.80329" lon="5.61197">
        <ele>290.7</ele>
        <time>2020-10-25T13:56:15Z</time>
      </trkpt>
      <trkpt lat="46.80325" lon="5.61192">
        <ele>289.9</ele>
        <time>2020-10-25T13:56:20Z</time>
      </trkpt>
      <trkpt lat="46.8032" lon="5.61187">
        <ele>289</ele>
        <time>2020-10-25T13:56:25Z</time>
      </trkpt>
      <trkpt lat="46.80316" lon="5.61182">
        <ele>287.7</ele>
        <time>2020-10-25T13:56:30Z</time>
      </trkpt>
      <trkpt lat="46.80312" lon="5.61178">
        <ele>286.1</ele>
        <time>2020-10-25T13:56:36Z</time>
      </trkpt>
      <trkpt lat="46.80308" lon="5.61174">
        <ele>284.6</ele>
        <time>2020-10-25T13:56:41Z</time>
      </trkpt>
      <trkpt lat="46.80304" lon="5.6117">
        <ele>283.1</ele>
        <time>2020-10-25T13:56:46Z</time>
      </trkpt>
      <trkpt lat="46.803" lon="5.61166">
        <ele>281.8</ele>
        <time>2020-10-25T13:56:51Z</time>
      </trkpt>
      <trkpt lat="46.80297" lon="5.61162">
        <ele>281.1</ele>
        <time>2020-10-25T13:56:56Z</time>
      </trkpt>
      <trkpt lat="46.80293" lon="5.61157">
        <ele>280.6</ele>
        <time>2020-10-25T13:57:01Z</time>
      </trkpt>
      <trkpt lat="46.80289" lon="5.61153">
        <ele>280</ele>
        <time>2020-10-25T13:57:06Z</time>
      </trkpt>
      <trkpt lat="46.80285" lon="5.61149">
        <ele>279.5</ele>
        <time>2020-10-25T13:57:11Z</time>
      </trkpt>
      <trkpt lat="46.8028" lon="5.61146">
        <ele>279.2</ele>
        <time>2020-10-25T13:57:16Z</time>
      </trkpt>
      <trkpt lat="46.80276" lon="5.61142">
        <ele>279</ele>
        <time>2020-10-25T13:57:21Z</time>
      </trkpt>
      <trkpt lat="46.80271" lon="5.61138">
        <ele>279.3</ele>
        <time>2020-10-25T13:57:27Z</time>
      </trkpt>
      <trkpt lat="46.80267" lon="5.61135">
        <ele>279.2</ele>
        <time>2020-10-25T13:57:31Z</time>
      </trkpt>
      <trkpt lat="46.80262" lon="5.61133">
        <ele>279.4</ele>
        <time>2020-10-25T13:57:35Z</time>
      </trkpt>
      <trkpt lat="46.80256" lon="5.61132">
        <ele>280</ele>
        <time>2020-10-25T13:57:39Z</time>
      </trkpt>
      <trkpt lat="46.80252" lon="5.61133">
        <ele>280.6</ele>
        <time>2020-10-25T13:57:44Z</time>
      </trkpt>
      <trkpt lat="46.80247" lon="5.61135">
        <ele>280.9</ele>
        <time>2020-10-25T13:57:48Z</time>
      </trkpt>
      <trkpt lat="46.80243" lon="5.61136">
        <ele>280.8</ele>
        <time>2020-10-25T13:57:52Z</time>
      </trkpt>
      <trkpt lat="46.80238" lon="5.61138">
        <ele>280.6</ele>
        <time>2020-10-25T13:57:57Z</time>
      </trkpt>
      <trkpt lat="46.80234" lon="5.61143">
        <ele>280.3</ele>
        <time>2020-10-25T13:58:02Z</time>
      </trkpt>
      <trkpt lat="46.8023" lon="5.61148">
        <ele>280.2</ele>
        <time>2020-10-25T13:58:07Z</time>
      </trkpt>
      <trkpt lat="46.80226" lon="5.61152">
        <ele>280.2</ele>
        <time>2020-10-25T13:58:12Z</time>
      </trkpt>
      <trkpt lat="46.80222" lon="5.61156">
        <ele>279.9</ele>
        <time>2020-10-25T13:58:16Z</time>
      </trkpt>
      <trkpt lat="46.80218" lon="5.6116">
        <ele>279.3</ele>
        <time>2020-10-25T13:58:21Z</time>
      </trkpt>
      <trkpt lat="46.80213" lon="5.61164">
        <ele>278.2</ele>
        <time>2020-10-25T13:58:27Z</time>
      </trkpt>
      <trkpt lat="46.80209" lon="5.61168">
        <ele>277.3</ele>
        <time>2020-10-25T13:58:31Z</time>
      </trkpt>
      <trkpt lat="46.80206" lon="5.61172">
        <ele>276.4</ele>
        <time>2020-10-25T13:58:35Z</time>
      </trkpt>
      <trkpt lat="46.80202" lon="5.61176">
        <ele>275</ele>
        <time>2020-10-25T13:58:40Z</time>
      </trkpt>
      <trkpt lat="46.80197" lon="5.6118">
        <ele>273.6</ele>
        <time>2020-10-25T13:58:45Z</time>
      </trkpt>
      <trkpt lat="46.80193" lon="5.61184">
        <ele>272.9</ele>
        <time>2020-10-25T13:58:49Z</time>
      </trkpt>
      <trkpt lat="46.80189" lon="5.61189">
        <ele>272.7</ele>
        <time>2020-10-25T13:58:53Z</time>
      </trkpt>
      <trkpt lat="46.80185" lon="5.61192">
        <ele>272.7</ele>
        <time>2020-10-25T13:58:57Z</time>
      </trkpt>
      <trkpt lat="46.80181" lon="5.61197">
        <ele>272.6</ele>
        <time>2020-10-25T13:59:02Z</time>
      </trkpt>
      <trkpt lat="46.80177" lon="5.61201">
        <ele>272.8</ele>
        <time>2020-10-25T13:59:07Z</time>
      </trkpt>
      <trkpt lat="46.80172" lon="5.61206">
        <ele>273.2</ele>
        <time>2020-10-25T13:59:12Z</time>
      </trkpt>
      <trkpt lat="46.80169" lon="5.61209">
        <ele>274</ele>
        <time>2020-10-25T13:59:16Z</time>
      </trkpt>
      <trkpt lat="46.80164" lon="5.61214">
        <ele>275.6</ele>
        <time>2020-10-25T13:59:21Z</time>
      </trkpt>
      <trkpt lat="46.80161" lon="5.61219">
        <ele>277.1</ele>
        <time>2020-10-25T13:59:25Z</time>
      </trkpt>
      <trkpt lat="46.80156" lon="5.61224">
        <ele>278</ele>
        <time>2020-10-25T13:59:30Z</time>
      </trkpt>
      <trkpt lat="46.80153" lon="5.61228">
        <ele>278.4</ele>
        <time>2020-10-25T13:59:35Z</time>
      </trkpt>
      <trkpt lat="46.80149" lon="5.61234">
        <ele>278.6</ele>
        <time>2020-10-25T13:59:40Z</time>
      </trkpt>
      <trkpt lat="46.80146" lon="5.6124">
        <ele>278.9</ele>
        <time>2020-10-25T13:59:45Z</time>
      </trkpt>
      <trkpt lat="46.80145" lon="5.61247">
        <ele>279.4</ele>
        <time>2020-10-25T13:59:51Z</time>
      </trkpt>
      <trkpt lat="46.80143" lon="5.61254">
        <ele>280</ele>
        <time>2020-10-25T13:59:55Z</time>
      </trkpt>
      <trkpt lat="46.80141" lon="5.61261">
        <ele>280.4</ele>
        <time>2020-10-25T13:59:59Z</time>
      </trkpt>
      <trkpt lat="46.80141" lon="5.61268">
        <ele>281</ele>
        <time>2020-10-25T14:00:03Z</time>
      </trkpt>
      <trkpt lat="46.80139" lon="5.61275">
        <ele>281.8</ele>
        <time>2020-10-25T14:00:09Z</time>
      </trkpt>
      <trkpt lat="46.80137" lon="5.61282">
        <ele>281.3</ele>
        <time>2020-10-25T14:00:14Z</time>
      </trkpt>
      <trkpt lat="46.80135" lon="5.61288">
        <ele>280.5</ele>
        <time>2020-10-25T14:00:18Z</time>
      </trkpt>
      <trkpt lat="46.80132" lon="5.61295">
        <ele>280.1</ele>
        <time>2020-10-25T14:00:23Z</time>
      </trkpt>
      <trkpt lat="46.80129" lon="5.613">
        <ele>279.9</ele>
        <time>2020-10-25T14:00:28Z</time>
      </trkpt>
      <trkpt lat="46.80125" lon="5.61304">
        <ele>280.3</ele>
        <time>2020-10-25T14:00:34Z</time>
      </trkpt>
      <trkpt lat="46.8012" lon="5.61307">
        <ele>279.8</ele>
        <time>2020-10-25T14:00:40Z</time>
      </trkpt>
      <trkpt lat="46.80118" lon="5.61312">
        <ele>279.5</ele>
        <time>2020-10-25T14:00:44Z</time>
      </trkpt>
      <trkpt lat="46.80115" lon="5.61318">
        <ele>279.9</ele>
        <time>2020-10-25T14:00:48Z</time>
      </trkpt>
      <trkpt lat="46.80113" lon="5.61324">
        <ele>280.4</ele>
        <time>2020-10-25T14:00:52Z</time>
      </trkpt>
      <trkpt lat="46.80109" lon="5.61328">
        <ele>281.8</ele>
        <time>2020-10-25T14:00:59Z</time>
      </trkpt>
      <trkpt lat="46.80105" lon="5.61327">
        <ele>283</ele>
        <time>2020-10-25T14:01:08Z</time>
      </trkpt>
      <trkpt lat="46.80099" lon="5.61331">
        <ele>283</ele>
        <time>2020-10-25T14:01:14Z</time>
      </trkpt>
      <trkpt lat="46.80095" lon="5.61335">
        <ele>283</ele>
        <time>2020-10-25T14:01:18Z</time>
      </trkpt>
      <trkpt lat="46.8009" lon="5.61339">
        <ele>283.6</ele>
        <time>2020-10-25T14:01:23Z</time>
      </trkpt>
      <trkpt lat="46.80086" lon="5.61342">
        <ele>284.6</ele>
        <time>2020-10-25T14:01:28Z</time>
      </trkpt>
      <trkpt lat="46.80082" lon="5.61345">
        <ele>285.6</ele>
        <time>2020-10-25T14:01:32Z</time>
      </trkpt>
      <trkpt lat="46.80077" lon="5.61343">
        <ele>288.1</ele>
        <time>2020-10-25T14:01:40Z</time>
      </trkpt>
      <trkpt lat="46.80075" lon="5.61336">
        <ele>288.7</ele>
        <time>2020-10-25T14:01:44Z</time>
      </trkpt>
      <trkpt lat="46.8007" lon="5.61336">
        <ele>288.9</ele>
        <time>2020-10-25T14:01:49Z</time>
      </trkpt>
      <trkpt lat="46.80065" lon="5.61339">
        <ele>288.9</ele>
        <time>2020-10-25T14:01:53Z</time>
      </trkpt>
      <trkpt lat="46.80061" lon="5.61341">
        <ele>289</ele>
        <time>2020-10-25T14:01:58Z</time>
      </trkpt>
      <trkpt lat="46.80056" lon="5.61342">
        <ele>290.1</ele>
        <time>2020-10-25T14:02:04Z</time>
      </trkpt>
      <trkpt lat="46.80051" lon="5.61344">
        <ele>291.5</ele>
        <time>2020-10-25T14:02:09Z</time>
      </trkpt>
      <trkpt lat="46.80046" lon="5.61347">
        <ele>292.9</ele>
        <time>2020-10-25T14:02:14Z</time>
      </trkpt>
      <trkpt lat="46.80041" lon="5.61347">
        <ele>294.1</ele>
        <time>2020-10-25T14:02:19Z</time>
      </trkpt>
      <trkpt lat="46.80039" lon="5.61341">
        <ele>295</ele>
        <time>2020-10-25T14:02:25Z</time>
      </trkpt>
      <trkpt lat="46.80036" lon="5.61336">
        <ele>295.2</ele>
        <time>2020-10-25T14:02:30Z</time>
      </trkpt>
      <trkpt lat="46.80032" lon="5.6133">
        <ele>295.2</ele>
        <time>2020-10-25T14:02:36Z</time>
      </trkpt>
      <trkpt lat="46.80029" lon="5.61325">
        <ele>295.2</ele>
        <time>2020-10-25T14:02:42Z</time>
      </trkpt>
      <trkpt lat="46.80026" lon="5.61319">
        <ele>295.4</ele>
        <time>2020-10-25T14:02:48Z</time>
      </trkpt>
      <trkpt lat="46.80024" lon="5.61312">
        <ele>295.5</ele>
        <time>2020-10-25T14:02:54Z</time>
      </trkpt>
      <trkpt lat="46.80024" lon="5.61304">
        <ele>295.8</ele>
        <time>2020-10-25T14:03:00Z</time>
      </trkpt>
      <trkpt lat="46.80022" lon="5.61297">
        <ele>296</ele>
        <time>2020-10-25T14:03:07Z</time>
      </trkpt>
      <trkpt lat="46.80018" lon="5.61294">
        <ele>295.7</ele>
        <time>2020-10-25T14:03:12Z</time>
      </trkpt>
      <trkpt lat="46.80013" lon="5.61292">
        <ele>295.6</ele>
        <time>2020-10-25T14:03:17Z</time>
      </trkpt>
      <trkpt lat="46.80008" lon="5.61289">
        <ele>295.7</ele>
        <time>2020-10-25T14:03:21Z</time>
      </trkpt>
      <trkpt lat="46.80003" lon="5.61287">
        <ele>295.9</ele>
        <time>2020-10-25T14:03:26Z</time>
      </trkpt>
      <trkpt lat="46.79999" lon="5.61283">
        <ele>296.3</ele>
        <time>2020-10-25T14:03:32Z</time>
      </trkpt>
      <trkpt lat="46.79995" lon="5.61285">
        <ele>298.9</ele>
        <time>2020-10-25T14:05:13Z</time>
      </trkpt>
    </trkseg>
  </trk>
</gpx>